<?xml version="1.0" encoding="UTF-8" standalone="no" ?>
<gpx xmlns="http://www.topografix.com/GPX/1/1" xmlns:xsi="http://www.w3.org/2001/XMLSchema-instance" xsi:schemaLocation="http://www.topografix.com/GPX/1/1 http://www.topografix.com/GPX/1/1/gpx.xsd" version="1.1" creator="VisuGPX - https://www.visugpx.com">
  <metadata>
    <name>running 23/09</name>
    <desc><![CDATA[autour de villars]]></desc>
  </metadata>
  <trk>
    <name><![CDATA[running 23/09_1]]></name>
    <trkseg>
      <trkpt lat="43.92252" lon="5.40464">
        <ele>311</ele>
        <time>2015-09-23T14:12:30.000Z</time>
      </trkpt>
      <trkpt lat="43.92252" lon="5.40464">
        <ele>311</ele>
        <time>2015-09-23T14:12:31.000Z</time>
      </trkpt>
      <trkpt lat="43.92251" lon="5.40464">
        <ele>311</ele>
        <time>2015-09-23T14:12:32.000Z</time>
      </trkpt>
      <trkpt lat="43.9225" lon="5.40463">
        <ele>310</ele>
        <time>2015-09-23T14:12:33.000Z</time>
      </trkpt>
      <trkpt lat="43.92249" lon="5.40463">
        <ele>310</ele>
        <time>2015-09-23T14:12:34.000Z</time>
      </trkpt>
      <trkpt lat="43.92247" lon="5.40462">
        <ele>310</ele>
        <time>2015-09-23T14:12:35.000Z</time>
      </trkpt>
      <trkpt lat="43.92246" lon="5.40462">
        <ele>310</ele>
        <time>2015-09-23T14:12:36.000Z</time>
      </trkpt>
      <trkpt lat="43.92245" lon="5.40461">
        <ele>310</ele>
        <time>2015-09-23T14:12:37.000Z</time>
      </trkpt>
      <trkpt lat="43.92244" lon="5.40461">
        <ele>310</ele>
        <time>2015-09-23T14:12:38.000Z</time>
      </trkpt>
      <trkpt lat="43.92244" lon="5.40461">
        <ele>310</ele>
        <time>2015-09-23T14:12:39.000Z</time>
      </trkpt>
      <trkpt lat="43.92244" lon="5.40461">
        <ele>310</ele>
        <time>2015-09-23T14:12:40.000Z</time>
      </trkpt>
      <trkpt lat="43.92244" lon="5.40461">
        <ele>310</ele>
        <time>2015-09-23T14:12:41.000Z</time>
      </trkpt>
      <trkpt lat="43.92243" lon="5.40461">
        <ele>310</ele>
        <time>2015-09-23T14:12:42.000Z</time>
      </trkpt>
      <trkpt lat="43.92242" lon="5.40461">
        <ele>310</ele>
        <time>2015-09-23T14:12:43.000Z</time>
      </trkpt>
      <trkpt lat="43.9224" lon="5.40461">
        <ele>310</ele>
        <time>2015-09-23T14:12:44.000Z</time>
      </trkpt>
      <trkpt lat="43.92238" lon="5.40461">
        <ele>310</ele>
        <time>2015-09-23T14:12:45.000Z</time>
      </trkpt>
      <trkpt lat="43.92236" lon="5.4046">
        <ele>310</ele>
        <time>2015-09-23T14:12:46.000Z</time>
      </trkpt>
      <trkpt lat="43.92233" lon="5.4046">
        <ele>309</ele>
        <time>2015-09-23T14:12:47.000Z</time>
      </trkpt>
      <trkpt lat="43.92231" lon="5.4046">
        <ele>309</ele>
        <time>2015-09-23T14:12:48.000Z</time>
      </trkpt>
      <trkpt lat="43.92229" lon="5.40459">
        <ele>309</ele>
        <time>2015-09-23T14:12:49.000Z</time>
      </trkpt>
      <trkpt lat="43.92227" lon="5.40459">
        <ele>308</ele>
        <time>2015-09-23T14:12:50.000Z</time>
      </trkpt>
      <trkpt lat="43.92224" lon="5.40459">
        <ele>308</ele>
        <time>2015-09-23T14:12:51.000Z</time>
      </trkpt>
      <trkpt lat="43.92222" lon="5.40459">
        <ele>308</ele>
        <time>2015-09-23T14:12:52.000Z</time>
      </trkpt>
      <trkpt lat="43.9222" lon="5.40459">
        <ele>307</ele>
        <time>2015-09-23T14:12:53.000Z</time>
      </trkpt>
      <trkpt lat="43.92218" lon="5.40459">
        <ele>307</ele>
        <time>2015-09-23T14:12:54.000Z</time>
      </trkpt>
      <trkpt lat="43.92216" lon="5.40459">
        <ele>307</ele>
        <time>2015-09-23T14:12:55.000Z</time>
      </trkpt>
      <trkpt lat="43.92214" lon="5.40459">
        <ele>306</ele>
        <time>2015-09-23T14:12:56.000Z</time>
      </trkpt>
      <trkpt lat="43.92212" lon="5.40459">
        <ele>305</ele>
        <time>2015-09-23T14:12:57.000Z</time>
      </trkpt>
      <trkpt lat="43.92211" lon="5.40459">
        <ele>305</ele>
        <time>2015-09-23T14:12:58.000Z</time>
      </trkpt>
      <trkpt lat="43.92209" lon="5.40459">
        <ele>304</ele>
        <time>2015-09-23T14:12:59.000Z</time>
      </trkpt>
      <trkpt lat="43.92207" lon="5.40459">
        <ele>304</ele>
        <time>2015-09-23T14:13:00.000Z</time>
      </trkpt>
      <trkpt lat="43.92204" lon="5.40459">
        <ele>303</ele>
        <time>2015-09-23T14:13:01.000Z</time>
      </trkpt>
      <trkpt lat="43.92202" lon="5.40459">
        <ele>304</ele>
        <time>2015-09-23T14:13:02.000Z</time>
      </trkpt>
      <trkpt lat="43.92199" lon="5.40458">
        <ele>303</ele>
        <time>2015-09-23T14:13:03.000Z</time>
      </trkpt>
      <trkpt lat="43.92196" lon="5.40458">
        <ele>303</ele>
        <time>2015-09-23T14:13:04.000Z</time>
      </trkpt>
      <trkpt lat="43.92194" lon="5.40458">
        <ele>302</ele>
        <time>2015-09-23T14:13:05.000Z</time>
      </trkpt>
      <trkpt lat="43.92192" lon="5.40458">
        <ele>302</ele>
        <time>2015-09-23T14:13:06.000Z</time>
      </trkpt>
      <trkpt lat="43.92189" lon="5.40457">
        <ele>301</ele>
        <time>2015-09-23T14:13:07.000Z</time>
      </trkpt>
      <trkpt lat="43.92187" lon="5.40457">
        <ele>300</ele>
        <time>2015-09-23T14:13:08.000Z</time>
      </trkpt>
      <trkpt lat="43.92185" lon="5.40457">
        <ele>299</ele>
        <time>2015-09-23T14:13:09.000Z</time>
      </trkpt>
      <trkpt lat="43.92183" lon="5.40457">
        <ele>299</ele>
        <time>2015-09-23T14:13:10.000Z</time>
      </trkpt>
      <trkpt lat="43.9218" lon="5.40457">
        <ele>299</ele>
        <time>2015-09-23T14:13:11.000Z</time>
      </trkpt>
      <trkpt lat="43.92178" lon="5.40457">
        <ele>299</ele>
        <time>2015-09-23T14:13:12.000Z</time>
      </trkpt>
      <trkpt lat="43.92175" lon="5.40456">
        <ele>299</ele>
        <time>2015-09-23T14:13:13.000Z</time>
      </trkpt>
      <trkpt lat="43.92172" lon="5.40456">
        <ele>299</ele>
        <time>2015-09-23T14:13:14.000Z</time>
      </trkpt>
      <trkpt lat="43.92169" lon="5.40456">
        <ele>298</ele>
        <time>2015-09-23T14:13:15.000Z</time>
      </trkpt>
      <trkpt lat="43.92167" lon="5.40456">
        <ele>298</ele>
        <time>2015-09-23T14:13:16.000Z</time>
      </trkpt>
      <trkpt lat="43.92164" lon="5.40456">
        <ele>297</ele>
        <time>2015-09-23T14:13:17.000Z</time>
      </trkpt>
      <trkpt lat="43.92161" lon="5.40456">
        <ele>296</ele>
        <time>2015-09-23T14:13:18.000Z</time>
      </trkpt>
      <trkpt lat="43.92159" lon="5.40456">
        <ele>296</ele>
        <time>2015-09-23T14:13:19.000Z</time>
      </trkpt>
      <trkpt lat="43.92156" lon="5.40456">
        <ele>296</ele>
        <time>2015-09-23T14:13:20.000Z</time>
      </trkpt>
      <trkpt lat="43.92153" lon="5.40456">
        <ele>295</ele>
        <time>2015-09-23T14:13:21.000Z</time>
      </trkpt>
      <trkpt lat="43.9215" lon="5.40456">
        <ele>295</ele>
        <time>2015-09-23T14:13:22.000Z</time>
      </trkpt>
      <trkpt lat="43.92148" lon="5.40456">
        <ele>294</ele>
        <time>2015-09-23T14:13:23.000Z</time>
      </trkpt>
      <trkpt lat="43.92145" lon="5.40456">
        <ele>293</ele>
        <time>2015-09-23T14:13:24.000Z</time>
      </trkpt>
      <trkpt lat="43.92142" lon="5.40455">
        <ele>293</ele>
        <time>2015-09-23T14:13:25.000Z</time>
      </trkpt>
      <trkpt lat="43.9214" lon="5.40455">
        <ele>293</ele>
        <time>2015-09-23T14:13:26.000Z</time>
      </trkpt>
      <trkpt lat="43.92137" lon="5.40455">
        <ele>292</ele>
        <time>2015-09-23T14:13:27.000Z</time>
      </trkpt>
      <trkpt lat="43.92134" lon="5.40455">
        <ele>292</ele>
        <time>2015-09-23T14:13:28.000Z</time>
      </trkpt>
      <trkpt lat="43.92132" lon="5.40455">
        <ele>291</ele>
        <time>2015-09-23T14:13:29.000Z</time>
      </trkpt>
      <trkpt lat="43.92129" lon="5.40454">
        <ele>290</ele>
        <time>2015-09-23T14:13:30.000Z</time>
      </trkpt>
      <trkpt lat="43.92127" lon="5.40454">
        <ele>289</ele>
        <time>2015-09-23T14:13:31.000Z</time>
      </trkpt>
      <trkpt lat="43.92124" lon="5.40454">
        <ele>289</ele>
        <time>2015-09-23T14:13:32.000Z</time>
      </trkpt>
      <trkpt lat="43.92121" lon="5.40454">
        <ele>289</ele>
        <time>2015-09-23T14:13:33.000Z</time>
      </trkpt>
      <trkpt lat="43.92118" lon="5.40454">
        <ele>289</ele>
        <time>2015-09-23T14:13:34.000Z</time>
      </trkpt>
      <trkpt lat="43.92116" lon="5.40453">
        <ele>288</ele>
        <time>2015-09-23T14:13:35.000Z</time>
      </trkpt>
      <trkpt lat="43.92113" lon="5.40453">
        <ele>289</ele>
        <time>2015-09-23T14:13:36.000Z</time>
      </trkpt>
      <trkpt lat="43.9211" lon="5.40452">
        <ele>289</ele>
        <time>2015-09-23T14:13:37.000Z</time>
      </trkpt>
      <trkpt lat="43.92107" lon="5.40452">
        <ele>288</ele>
        <time>2015-09-23T14:13:38.000Z</time>
      </trkpt>
      <trkpt lat="43.92104" lon="5.40451">
        <ele>288</ele>
        <time>2015-09-23T14:13:39.000Z</time>
      </trkpt>
      <trkpt lat="43.92102" lon="5.4045">
        <ele>288</ele>
        <time>2015-09-23T14:13:40.000Z</time>
      </trkpt>
      <trkpt lat="43.92099" lon="5.40449">
        <ele>288</ele>
        <time>2015-09-23T14:13:41.000Z</time>
      </trkpt>
      <trkpt lat="43.92096" lon="5.40448">
        <ele>288</ele>
        <time>2015-09-23T14:13:42.000Z</time>
      </trkpt>
      <trkpt lat="43.92093" lon="5.40447">
        <ele>288</ele>
        <time>2015-09-23T14:13:43.000Z</time>
      </trkpt>
      <trkpt lat="43.92091" lon="5.40446">
        <ele>287</ele>
        <time>2015-09-23T14:13:44.000Z</time>
      </trkpt>
      <trkpt lat="43.92088" lon="5.40444">
        <ele>287</ele>
        <time>2015-09-23T14:13:45.000Z</time>
      </trkpt>
      <trkpt lat="43.92085" lon="5.40442">
        <ele>287</ele>
        <time>2015-09-23T14:13:46.000Z</time>
      </trkpt>
      <trkpt lat="43.92083" lon="5.4044">
        <ele>286</ele>
        <time>2015-09-23T14:13:47.000Z</time>
      </trkpt>
      <trkpt lat="43.9208" lon="5.40439">
        <ele>286</ele>
        <time>2015-09-23T14:13:48.000Z</time>
      </trkpt>
      <trkpt lat="43.92078" lon="5.40437">
        <ele>286</ele>
        <time>2015-09-23T14:13:49.000Z</time>
      </trkpt>
      <trkpt lat="43.92075" lon="5.40435">
        <ele>286</ele>
        <time>2015-09-23T14:13:50.000Z</time>
      </trkpt>
      <trkpt lat="43.92073" lon="5.40433">
        <ele>286</ele>
        <time>2015-09-23T14:13:51.000Z</time>
      </trkpt>
      <trkpt lat="43.92071" lon="5.40431">
        <ele>287</ele>
        <time>2015-09-23T14:13:52.000Z</time>
      </trkpt>
      <trkpt lat="43.92068" lon="5.4043">
        <ele>287</ele>
        <time>2015-09-23T14:13:53.000Z</time>
      </trkpt>
      <trkpt lat="43.92065" lon="5.40428">
        <ele>287</ele>
        <time>2015-09-23T14:13:54.000Z</time>
      </trkpt>
      <trkpt lat="43.92063" lon="5.40426">
        <ele>287</ele>
        <time>2015-09-23T14:13:55.000Z</time>
      </trkpt>
      <trkpt lat="43.9206" lon="5.40424">
        <ele>287</ele>
        <time>2015-09-23T14:13:56.000Z</time>
      </trkpt>
      <trkpt lat="43.92058" lon="5.40422">
        <ele>286</ele>
        <time>2015-09-23T14:13:57.000Z</time>
      </trkpt>
      <trkpt lat="43.92055" lon="5.4042">
        <ele>286</ele>
        <time>2015-09-23T14:13:58.000Z</time>
      </trkpt>
      <trkpt lat="43.92053" lon="5.40419">
        <ele>285</ele>
        <time>2015-09-23T14:13:59.000Z</time>
      </trkpt>
      <trkpt lat="43.9205" lon="5.40417">
        <ele>285</ele>
        <time>2015-09-23T14:14:00.000Z</time>
      </trkpt>
      <trkpt lat="43.92048" lon="5.40415">
        <ele>284</ele>
        <time>2015-09-23T14:14:01.000Z</time>
      </trkpt>
      <trkpt lat="43.92045" lon="5.40413">
        <ele>285</ele>
        <time>2015-09-23T14:14:02.000Z</time>
      </trkpt>
      <trkpt lat="43.92043" lon="5.40411">
        <ele>285</ele>
        <time>2015-09-23T14:14:03.000Z</time>
      </trkpt>
      <trkpt lat="43.92041" lon="5.40409">
        <ele>285</ele>
        <time>2015-09-23T14:14:04.000Z</time>
      </trkpt>
      <trkpt lat="43.92039" lon="5.40408">
        <ele>285</ele>
        <time>2015-09-23T14:14:05.000Z</time>
      </trkpt>
      <trkpt lat="43.92036" lon="5.40406">
        <ele>285</ele>
        <time>2015-09-23T14:14:06.000Z</time>
      </trkpt>
      <trkpt lat="43.92034" lon="5.40404">
        <ele>284</ele>
        <time>2015-09-23T14:14:07.000Z</time>
      </trkpt>
      <trkpt lat="43.92032" lon="5.40401">
        <ele>283</ele>
        <time>2015-09-23T14:14:08.000Z</time>
      </trkpt>
      <trkpt lat="43.92029" lon="5.40399">
        <ele>283</ele>
        <time>2015-09-23T14:14:09.000Z</time>
      </trkpt>
      <trkpt lat="43.92027" lon="5.40397">
        <ele>282</ele>
        <time>2015-09-23T14:14:10.000Z</time>
      </trkpt>
      <trkpt lat="43.92025" lon="5.40395">
        <ele>283</ele>
        <time>2015-09-23T14:14:11.000Z</time>
      </trkpt>
      <trkpt lat="43.92023" lon="5.40393">
        <ele>282</ele>
        <time>2015-09-23T14:14:12.000Z</time>
      </trkpt>
      <trkpt lat="43.92021" lon="5.40392">
        <ele>282</ele>
        <time>2015-09-23T14:14:13.000Z</time>
      </trkpt>
      <trkpt lat="43.92018" lon="5.4039">
        <ele>281</ele>
        <time>2015-09-23T14:14:14.000Z</time>
      </trkpt>
      <trkpt lat="43.92016" lon="5.40388">
        <ele>281</ele>
        <time>2015-09-23T14:14:15.000Z</time>
      </trkpt>
      <trkpt lat="43.92014" lon="5.40386">
        <ele>280</ele>
        <time>2015-09-23T14:14:16.000Z</time>
      </trkpt>
      <trkpt lat="43.92012" lon="5.40384">
        <ele>280</ele>
        <time>2015-09-23T14:14:17.000Z</time>
      </trkpt>
      <trkpt lat="43.9201" lon="5.40382">
        <ele>280</ele>
        <time>2015-09-23T14:14:18.000Z</time>
      </trkpt>
      <trkpt lat="43.92008" lon="5.40381">
        <ele>280</ele>
        <time>2015-09-23T14:14:19.000Z</time>
      </trkpt>
      <trkpt lat="43.92006" lon="5.40379">
        <ele>279</ele>
        <time>2015-09-23T14:14:20.000Z</time>
      </trkpt>
      <trkpt lat="43.92004" lon="5.40377">
        <ele>279</ele>
        <time>2015-09-23T14:14:21.000Z</time>
      </trkpt>
      <trkpt lat="43.92002" lon="5.40375">
        <ele>279</ele>
        <time>2015-09-23T14:14:22.000Z</time>
      </trkpt>
      <trkpt lat="43.92" lon="5.40373">
        <ele>278</ele>
        <time>2015-09-23T14:14:23.000Z</time>
      </trkpt>
      <trkpt lat="43.91997" lon="5.40372">
        <ele>278</ele>
        <time>2015-09-23T14:14:24.000Z</time>
      </trkpt>
      <trkpt lat="43.91995" lon="5.4037">
        <ele>278</ele>
        <time>2015-09-23T14:14:25.000Z</time>
      </trkpt>
      <trkpt lat="43.91993" lon="5.40368">
        <ele>277</ele>
        <time>2015-09-23T14:14:26.000Z</time>
      </trkpt>
      <trkpt lat="43.91991" lon="5.40366">
        <ele>277</ele>
        <time>2015-09-23T14:14:27.000Z</time>
      </trkpt>
      <trkpt lat="43.91989" lon="5.40365">
        <ele>277</ele>
        <time>2015-09-23T14:14:28.000Z</time>
      </trkpt>
      <trkpt lat="43.91987" lon="5.40363">
        <ele>276</ele>
        <time>2015-09-23T14:14:29.000Z</time>
      </trkpt>
      <trkpt lat="43.91984" lon="5.40361">
        <ele>276</ele>
        <time>2015-09-23T14:14:30.000Z</time>
      </trkpt>
      <trkpt lat="43.91982" lon="5.40359">
        <ele>276</ele>
        <time>2015-09-23T14:14:31.000Z</time>
      </trkpt>
      <trkpt lat="43.9198" lon="5.40357">
        <ele>276</ele>
        <time>2015-09-23T14:14:32.000Z</time>
      </trkpt>
      <trkpt lat="43.91978" lon="5.40355">
        <ele>276</ele>
        <time>2015-09-23T14:14:33.000Z</time>
      </trkpt>
      <trkpt lat="43.91976" lon="5.40353">
        <ele>275</ele>
        <time>2015-09-23T14:14:34.000Z</time>
      </trkpt>
      <trkpt lat="43.91973" lon="5.40351">
        <ele>274</ele>
        <time>2015-09-23T14:14:35.000Z</time>
      </trkpt>
      <trkpt lat="43.91971" lon="5.4035">
        <ele>274</ele>
        <time>2015-09-23T14:14:36.000Z</time>
      </trkpt>
      <trkpt lat="43.91969" lon="5.40348">
        <ele>274</ele>
        <time>2015-09-23T14:14:37.000Z</time>
      </trkpt>
      <trkpt lat="43.91967" lon="5.40347">
        <ele>273</ele>
        <time>2015-09-23T14:14:38.000Z</time>
      </trkpt>
      <trkpt lat="43.91964" lon="5.40345">
        <ele>273</ele>
        <time>2015-09-23T14:14:39.000Z</time>
      </trkpt>
      <trkpt lat="43.91962" lon="5.40344">
        <ele>273</ele>
        <time>2015-09-23T14:14:40.000Z</time>
      </trkpt>
      <trkpt lat="43.9196" lon="5.40343">
        <ele>274</ele>
        <time>2015-09-23T14:14:41.000Z</time>
      </trkpt>
      <trkpt lat="43.91957" lon="5.40341">
        <ele>274</ele>
        <time>2015-09-23T14:14:42.000Z</time>
      </trkpt>
      <trkpt lat="43.91955" lon="5.4034">
        <ele>274</ele>
        <time>2015-09-23T14:14:43.000Z</time>
      </trkpt>
      <trkpt lat="43.91953" lon="5.40338">
        <ele>274</ele>
        <time>2015-09-23T14:14:44.000Z</time>
      </trkpt>
      <trkpt lat="43.91951" lon="5.40337">
        <ele>275</ele>
        <time>2015-09-23T14:14:45.000Z</time>
      </trkpt>
      <trkpt lat="43.91948" lon="5.40336">
        <ele>274</ele>
        <time>2015-09-23T14:14:46.000Z</time>
      </trkpt>
      <trkpt lat="43.91946" lon="5.40335">
        <ele>274</ele>
        <time>2015-09-23T14:14:47.000Z</time>
      </trkpt>
      <trkpt lat="43.91944" lon="5.40334">
        <ele>273</ele>
        <time>2015-09-23T14:14:48.000Z</time>
      </trkpt>
      <trkpt lat="43.91941" lon="5.40332">
        <ele>273</ele>
        <time>2015-09-23T14:14:49.000Z</time>
      </trkpt>
      <trkpt lat="43.91939" lon="5.40331">
        <ele>273</ele>
        <time>2015-09-23T14:14:50.000Z</time>
      </trkpt>
      <trkpt lat="43.91937" lon="5.40329">
        <ele>273</ele>
        <time>2015-09-23T14:14:51.000Z</time>
      </trkpt>
      <trkpt lat="43.91935" lon="5.40328">
        <ele>274</ele>
        <time>2015-09-23T14:14:52.000Z</time>
      </trkpt>
      <trkpt lat="43.91933" lon="5.40326">
        <ele>273</ele>
        <time>2015-09-23T14:14:53.000Z</time>
      </trkpt>
      <trkpt lat="43.9193" lon="5.40324">
        <ele>274</ele>
        <time>2015-09-23T14:14:54.000Z</time>
      </trkpt>
      <trkpt lat="43.91928" lon="5.40322">
        <ele>273</ele>
        <time>2015-09-23T14:14:55.000Z</time>
      </trkpt>
      <trkpt lat="43.91926" lon="5.4032">
        <ele>273</ele>
        <time>2015-09-23T14:14:56.000Z</time>
      </trkpt>
      <trkpt lat="43.91924" lon="5.40318">
        <ele>273</ele>
        <time>2015-09-23T14:14:57.000Z</time>
      </trkpt>
      <trkpt lat="43.91922" lon="5.40316">
        <ele>274</ele>
        <time>2015-09-23T14:14:58.000Z</time>
      </trkpt>
      <trkpt lat="43.9192" lon="5.40314">
        <ele>274</ele>
        <time>2015-09-23T14:14:59.000Z</time>
      </trkpt>
      <trkpt lat="43.91918" lon="5.40312">
        <ele>275</ele>
        <time>2015-09-23T14:15:00.000Z</time>
      </trkpt>
      <trkpt lat="43.91916" lon="5.4031">
        <ele>274</ele>
        <time>2015-09-23T14:15:01.000Z</time>
      </trkpt>
      <trkpt lat="43.91914" lon="5.40308">
        <ele>275</ele>
        <time>2015-09-23T14:15:02.000Z</time>
      </trkpt>
      <trkpt lat="43.91911" lon="5.40307">
        <ele>274</ele>
        <time>2015-09-23T14:15:03.000Z</time>
      </trkpt>
      <trkpt lat="43.91909" lon="5.40305">
        <ele>275</ele>
        <time>2015-09-23T14:15:04.000Z</time>
      </trkpt>
      <trkpt lat="43.91907" lon="5.40304">
        <ele>274</ele>
        <time>2015-09-23T14:15:05.000Z</time>
      </trkpt>
      <trkpt lat="43.91905" lon="5.40302">
        <ele>274</ele>
        <time>2015-09-23T14:15:06.000Z</time>
      </trkpt>
      <trkpt lat="43.91903" lon="5.40301">
        <ele>274</ele>
        <time>2015-09-23T14:15:07.000Z</time>
      </trkpt>
      <trkpt lat="43.919" lon="5.403">
        <ele>274</ele>
        <time>2015-09-23T14:15:08.000Z</time>
      </trkpt>
      <trkpt lat="43.91898" lon="5.403">
        <ele>274</ele>
        <time>2015-09-23T14:15:09.000Z</time>
      </trkpt>
      <trkpt lat="43.91895" lon="5.403">
        <ele>275</ele>
        <time>2015-09-23T14:15:10.000Z</time>
      </trkpt>
      <trkpt lat="43.91893" lon="5.40299">
        <ele>275</ele>
        <time>2015-09-23T14:15:11.000Z</time>
      </trkpt>
      <trkpt lat="43.91891" lon="5.40299">
        <ele>275</ele>
        <time>2015-09-23T14:15:12.000Z</time>
      </trkpt>
      <trkpt lat="43.91888" lon="5.40299">
        <ele>275</ele>
        <time>2015-09-23T14:15:13.000Z</time>
      </trkpt>
      <trkpt lat="43.91886" lon="5.40299">
        <ele>275</ele>
        <time>2015-09-23T14:15:14.000Z</time>
      </trkpt>
      <trkpt lat="43.91884" lon="5.40298">
        <ele>275</ele>
        <time>2015-09-23T14:15:15.000Z</time>
      </trkpt>
      <trkpt lat="43.91882" lon="5.40298">
        <ele>275</ele>
        <time>2015-09-23T14:15:16.000Z</time>
      </trkpt>
      <trkpt lat="43.9188" lon="5.40297">
        <ele>275</ele>
        <time>2015-09-23T14:15:17.000Z</time>
      </trkpt>
      <trkpt lat="43.91878" lon="5.40297">
        <ele>275</ele>
        <time>2015-09-23T14:15:18.000Z</time>
      </trkpt>
      <trkpt lat="43.91876" lon="5.40297">
        <ele>275</ele>
        <time>2015-09-23T14:15:19.000Z</time>
      </trkpt>
      <trkpt lat="43.91874" lon="5.40297">
        <ele>275</ele>
        <time>2015-09-23T14:15:20.000Z</time>
      </trkpt>
      <trkpt lat="43.91871" lon="5.40297">
        <ele>274</ele>
        <time>2015-09-23T14:15:21.000Z</time>
      </trkpt>
      <trkpt lat="43.91869" lon="5.40297">
        <ele>275</ele>
        <time>2015-09-23T14:15:22.000Z</time>
      </trkpt>
      <trkpt lat="43.91867" lon="5.40297">
        <ele>275</ele>
        <time>2015-09-23T14:15:23.000Z</time>
      </trkpt>
      <trkpt lat="43.91865" lon="5.40297">
        <ele>275</ele>
        <time>2015-09-23T14:15:24.000Z</time>
      </trkpt>
      <trkpt lat="43.91862" lon="5.40297">
        <ele>275</ele>
        <time>2015-09-23T14:15:25.000Z</time>
      </trkpt>
      <trkpt lat="43.91859" lon="5.40297">
        <ele>276</ele>
        <time>2015-09-23T14:15:26.000Z</time>
      </trkpt>
      <trkpt lat="43.91857" lon="5.40297">
        <ele>276</ele>
        <time>2015-09-23T14:15:27.000Z</time>
      </trkpt>
      <trkpt lat="43.91854" lon="5.40296">
        <ele>277</ele>
        <time>2015-09-23T14:15:28.000Z</time>
      </trkpt>
      <trkpt lat="43.91852" lon="5.40296">
        <ele>277</ele>
        <time>2015-09-23T14:15:29.000Z</time>
      </trkpt>
      <trkpt lat="43.9185" lon="5.40295">
        <ele>278</ele>
        <time>2015-09-23T14:15:30.000Z</time>
      </trkpt>
      <trkpt lat="43.91847" lon="5.40294">
        <ele>277</ele>
        <time>2015-09-23T14:15:31.000Z</time>
      </trkpt>
      <trkpt lat="43.91845" lon="5.40293">
        <ele>278</ele>
        <time>2015-09-23T14:15:32.000Z</time>
      </trkpt>
      <trkpt lat="43.91843" lon="5.40291">
        <ele>278</ele>
        <time>2015-09-23T14:15:33.000Z</time>
      </trkpt>
      <trkpt lat="43.9184" lon="5.4029">
        <ele>277</ele>
        <time>2015-09-23T14:15:34.000Z</time>
      </trkpt>
      <trkpt lat="43.91838" lon="5.40289">
        <ele>277</ele>
        <time>2015-09-23T14:15:35.000Z</time>
      </trkpt>
      <trkpt lat="43.91836" lon="5.40288">
        <ele>277</ele>
        <time>2015-09-23T14:15:36.000Z</time>
      </trkpt>
      <trkpt lat="43.91833" lon="5.40286">
        <ele>276</ele>
        <time>2015-09-23T14:15:37.000Z</time>
      </trkpt>
      <trkpt lat="43.91831" lon="5.40285">
        <ele>276</ele>
        <time>2015-09-23T14:15:38.000Z</time>
      </trkpt>
      <trkpt lat="43.91829" lon="5.40283">
        <ele>277</ele>
        <time>2015-09-23T14:15:39.000Z</time>
      </trkpt>
      <trkpt lat="43.91826" lon="5.40282">
        <ele>276</ele>
        <time>2015-09-23T14:15:40.000Z</time>
      </trkpt>
      <trkpt lat="43.91824" lon="5.4028">
        <ele>276</ele>
        <time>2015-09-23T14:15:41.000Z</time>
      </trkpt>
      <trkpt lat="43.91822" lon="5.40279">
        <ele>275</ele>
        <time>2015-09-23T14:15:42.000Z</time>
      </trkpt>
      <trkpt lat="43.91819" lon="5.40278">
        <ele>275</ele>
        <time>2015-09-23T14:15:43.000Z</time>
      </trkpt>
      <trkpt lat="43.91817" lon="5.40276">
        <ele>275</ele>
        <time>2015-09-23T14:15:44.000Z</time>
      </trkpt>
      <trkpt lat="43.91815" lon="5.40275">
        <ele>274</ele>
        <time>2015-09-23T14:15:45.000Z</time>
      </trkpt>
      <trkpt lat="43.91813" lon="5.40274">
        <ele>275</ele>
        <time>2015-09-23T14:15:46.000Z</time>
      </trkpt>
      <trkpt lat="43.9181" lon="5.40273">
        <ele>274</ele>
        <time>2015-09-23T14:15:47.000Z</time>
      </trkpt>
      <trkpt lat="43.91808" lon="5.40271">
        <ele>273</ele>
        <time>2015-09-23T14:15:48.000Z</time>
      </trkpt>
      <trkpt lat="43.91806" lon="5.4027">
        <ele>272</ele>
        <time>2015-09-23T14:15:49.000Z</time>
      </trkpt>
      <trkpt lat="43.91803" lon="5.40269">
        <ele>272</ele>
        <time>2015-09-23T14:15:50.000Z</time>
      </trkpt>
      <trkpt lat="43.91801" lon="5.40267">
        <ele>272</ele>
        <time>2015-09-23T14:15:51.000Z</time>
      </trkpt>
      <trkpt lat="43.91798" lon="5.40266">
        <ele>273</ele>
        <time>2015-09-23T14:15:52.000Z</time>
      </trkpt>
      <trkpt lat="43.91796" lon="5.40265">
        <ele>274</ele>
        <time>2015-09-23T14:15:53.000Z</time>
      </trkpt>
      <trkpt lat="43.91793" lon="5.40264">
        <ele>273</ele>
        <time>2015-09-23T14:15:54.000Z</time>
      </trkpt>
      <trkpt lat="43.91791" lon="5.40263">
        <ele>273</ele>
        <time>2015-09-23T14:15:55.000Z</time>
      </trkpt>
      <trkpt lat="43.91788" lon="5.40261">
        <ele>273</ele>
        <time>2015-09-23T14:15:56.000Z</time>
      </trkpt>
      <trkpt lat="43.91786" lon="5.4026">
        <ele>273</ele>
        <time>2015-09-23T14:15:57.000Z</time>
      </trkpt>
      <trkpt lat="43.91783" lon="5.40258">
        <ele>273</ele>
        <time>2015-09-23T14:15:58.000Z</time>
      </trkpt>
      <trkpt lat="43.91781" lon="5.40256">
        <ele>273</ele>
        <time>2015-09-23T14:15:59.000Z</time>
      </trkpt>
      <trkpt lat="43.91779" lon="5.40255">
        <ele>273</ele>
        <time>2015-09-23T14:16:00.000Z</time>
      </trkpt>
      <trkpt lat="43.91776" lon="5.40253">
        <ele>273</ele>
        <time>2015-09-23T14:16:01.000Z</time>
      </trkpt>
      <trkpt lat="43.91774" lon="5.40252">
        <ele>273</ele>
        <time>2015-09-23T14:16:02.000Z</time>
      </trkpt>
      <trkpt lat="43.91771" lon="5.40251">
        <ele>273</ele>
        <time>2015-09-23T14:16:03.000Z</time>
      </trkpt>
      <trkpt lat="43.91769" lon="5.40249">
        <ele>273</ele>
        <time>2015-09-23T14:16:04.000Z</time>
      </trkpt>
      <trkpt lat="43.91767" lon="5.40247">
        <ele>273</ele>
        <time>2015-09-23T14:16:05.000Z</time>
      </trkpt>
      <trkpt lat="43.91765" lon="5.40245">
        <ele>273</ele>
        <time>2015-09-23T14:16:06.000Z</time>
      </trkpt>
      <trkpt lat="43.91763" lon="5.40243">
        <ele>273</ele>
        <time>2015-09-23T14:16:07.000Z</time>
      </trkpt>
      <trkpt lat="43.91761" lon="5.40241">
        <ele>274</ele>
        <time>2015-09-23T14:16:08.000Z</time>
      </trkpt>
      <trkpt lat="43.91758" lon="5.40239">
        <ele>275</ele>
        <time>2015-09-23T14:16:09.000Z</time>
      </trkpt>
      <trkpt lat="43.91756" lon="5.40237">
        <ele>275</ele>
        <time>2015-09-23T14:16:10.000Z</time>
      </trkpt>
      <trkpt lat="43.91754" lon="5.40235">
        <ele>275</ele>
        <time>2015-09-23T14:16:11.000Z</time>
      </trkpt>
      <trkpt lat="43.91752" lon="5.40233">
        <ele>275</ele>
        <time>2015-09-23T14:16:12.000Z</time>
      </trkpt>
      <trkpt lat="43.9175" lon="5.40232">
        <ele>275</ele>
        <time>2015-09-23T14:16:13.000Z</time>
      </trkpt>
      <trkpt lat="43.91748" lon="5.4023">
        <ele>275</ele>
        <time>2015-09-23T14:16:14.000Z</time>
      </trkpt>
      <trkpt lat="43.91746" lon="5.40228">
        <ele>274</ele>
        <time>2015-09-23T14:16:15.000Z</time>
      </trkpt>
      <trkpt lat="43.91744" lon="5.40226">
        <ele>275</ele>
        <time>2015-09-23T14:16:16.000Z</time>
      </trkpt>
      <trkpt lat="43.91741" lon="5.40224">
        <ele>274</ele>
        <time>2015-09-23T14:16:17.000Z</time>
      </trkpt>
      <trkpt lat="43.9174" lon="5.40222">
        <ele>276</ele>
        <time>2015-09-23T14:16:18.000Z</time>
      </trkpt>
      <trkpt lat="43.91738" lon="5.4022">
        <ele>276</ele>
        <time>2015-09-23T14:16:19.000Z</time>
      </trkpt>
      <trkpt lat="43.91736" lon="5.40218">
        <ele>275</ele>
        <time>2015-09-23T14:16:20.000Z</time>
      </trkpt>
      <trkpt lat="43.91734" lon="5.40216">
        <ele>276</ele>
        <time>2015-09-23T14:16:21.000Z</time>
      </trkpt>
      <trkpt lat="43.91732" lon="5.40213">
        <ele>276</ele>
        <time>2015-09-23T14:16:22.000Z</time>
      </trkpt>
      <trkpt lat="43.9173" lon="5.40211">
        <ele>276</ele>
        <time>2015-09-23T14:16:23.000Z</time>
      </trkpt>
      <trkpt lat="43.91728" lon="5.40209">
        <ele>276</ele>
        <time>2015-09-23T14:16:24.000Z</time>
      </trkpt>
      <trkpt lat="43.91726" lon="5.40206">
        <ele>275</ele>
        <time>2015-09-23T14:16:25.000Z</time>
      </trkpt>
      <trkpt lat="43.91724" lon="5.40204">
        <ele>275</ele>
        <time>2015-09-23T14:16:26.000Z</time>
      </trkpt>
      <trkpt lat="43.91722" lon="5.40202">
        <ele>274</ele>
        <time>2015-09-23T14:16:27.000Z</time>
      </trkpt>
      <trkpt lat="43.9172" lon="5.402">
        <ele>275</ele>
        <time>2015-09-23T14:16:28.000Z</time>
      </trkpt>
      <trkpt lat="43.91718" lon="5.40198">
        <ele>275</ele>
        <time>2015-09-23T14:16:29.000Z</time>
      </trkpt>
      <trkpt lat="43.91716" lon="5.40196">
        <ele>275</ele>
        <time>2015-09-23T14:16:30.000Z</time>
      </trkpt>
      <trkpt lat="43.91714" lon="5.40193">
        <ele>274</ele>
        <time>2015-09-23T14:16:31.000Z</time>
      </trkpt>
      <trkpt lat="43.91712" lon="5.40191">
        <ele>273</ele>
        <time>2015-09-23T14:16:32.000Z</time>
      </trkpt>
      <trkpt lat="43.9171" lon="5.40189">
        <ele>273</ele>
        <time>2015-09-23T14:16:33.000Z</time>
      </trkpt>
      <trkpt lat="43.91708" lon="5.40187">
        <ele>273</ele>
        <time>2015-09-23T14:16:34.000Z</time>
      </trkpt>
      <trkpt lat="43.91706" lon="5.40184">
        <ele>274</ele>
        <time>2015-09-23T14:16:35.000Z</time>
      </trkpt>
      <trkpt lat="43.91704" lon="5.40182">
        <ele>274</ele>
        <time>2015-09-23T14:16:36.000Z</time>
      </trkpt>
      <trkpt lat="43.91702" lon="5.4018">
        <ele>274</ele>
        <time>2015-09-23T14:16:37.000Z</time>
      </trkpt>
      <trkpt lat="43.917" lon="5.40178">
        <ele>274</ele>
        <time>2015-09-23T14:16:38.000Z</time>
      </trkpt>
      <trkpt lat="43.91698" lon="5.40176">
        <ele>274</ele>
        <time>2015-09-23T14:16:39.000Z</time>
      </trkpt>
      <trkpt lat="43.91695" lon="5.40174">
        <ele>274</ele>
        <time>2015-09-23T14:16:40.000Z</time>
      </trkpt>
      <trkpt lat="43.91693" lon="5.40172">
        <ele>274</ele>
        <time>2015-09-23T14:16:41.000Z</time>
      </trkpt>
      <trkpt lat="43.91691" lon="5.4017">
        <ele>274</ele>
        <time>2015-09-23T14:16:42.000Z</time>
      </trkpt>
      <trkpt lat="43.91689" lon="5.40168">
        <ele>274</ele>
        <time>2015-09-23T14:16:43.000Z</time>
      </trkpt>
      <trkpt lat="43.91686" lon="5.40165">
        <ele>274</ele>
        <time>2015-09-23T14:16:44.000Z</time>
      </trkpt>
      <trkpt lat="43.91684" lon="5.40163">
        <ele>274</ele>
        <time>2015-09-23T14:16:45.000Z</time>
      </trkpt>
      <trkpt lat="43.91682" lon="5.40161">
        <ele>273</ele>
        <time>2015-09-23T14:16:46.000Z</time>
      </trkpt>
      <trkpt lat="43.9168" lon="5.40159">
        <ele>273</ele>
        <time>2015-09-23T14:16:47.000Z</time>
      </trkpt>
      <trkpt lat="43.91678" lon="5.40157">
        <ele>273</ele>
        <time>2015-09-23T14:16:48.000Z</time>
      </trkpt>
      <trkpt lat="43.91676" lon="5.40155">
        <ele>273</ele>
        <time>2015-09-23T14:16:49.000Z</time>
      </trkpt>
      <trkpt lat="43.91674" lon="5.40153">
        <ele>272</ele>
        <time>2015-09-23T14:16:50.000Z</time>
      </trkpt>
      <trkpt lat="43.91672" lon="5.40151">
        <ele>272</ele>
        <time>2015-09-23T14:16:51.000Z</time>
      </trkpt>
      <trkpt lat="43.9167" lon="5.40149">
        <ele>272</ele>
        <time>2015-09-23T14:16:52.000Z</time>
      </trkpt>
      <trkpt lat="43.91668" lon="5.40147">
        <ele>272</ele>
        <time>2015-09-23T14:16:53.000Z</time>
      </trkpt>
      <trkpt lat="43.91666" lon="5.40145">
        <ele>272</ele>
        <time>2015-09-23T14:16:54.000Z</time>
      </trkpt>
      <trkpt lat="43.91663" lon="5.40143">
        <ele>271</ele>
        <time>2015-09-23T14:16:55.000Z</time>
      </trkpt>
      <trkpt lat="43.91661" lon="5.40141">
        <ele>271</ele>
        <time>2015-09-23T14:16:56.000Z</time>
      </trkpt>
      <trkpt lat="43.91659" lon="5.40139">
        <ele>271</ele>
        <time>2015-09-23T14:16:57.000Z</time>
      </trkpt>
      <trkpt lat="43.91657" lon="5.40137">
        <ele>271</ele>
        <time>2015-09-23T14:16:58.000Z</time>
      </trkpt>
      <trkpt lat="43.91655" lon="5.40135">
        <ele>271</ele>
        <time>2015-09-23T14:16:59.000Z</time>
      </trkpt>
      <trkpt lat="43.91653" lon="5.40132">
        <ele>271</ele>
        <time>2015-09-23T14:17:00.000Z</time>
      </trkpt>
      <trkpt lat="43.91651" lon="5.4013">
        <ele>272</ele>
        <time>2015-09-23T14:17:01.000Z</time>
      </trkpt>
      <trkpt lat="43.91649" lon="5.40128">
        <ele>272</ele>
        <time>2015-09-23T14:17:02.000Z</time>
      </trkpt>
      <trkpt lat="43.91647" lon="5.40126">
        <ele>271</ele>
        <time>2015-09-23T14:17:03.000Z</time>
      </trkpt>
      <trkpt lat="43.91645" lon="5.40124">
        <ele>272</ele>
        <time>2015-09-23T14:17:04.000Z</time>
      </trkpt>
      <trkpt lat="43.91643" lon="5.40123">
        <ele>272</ele>
        <time>2015-09-23T14:17:05.000Z</time>
      </trkpt>
      <trkpt lat="43.91641" lon="5.40121">
        <ele>271</ele>
        <time>2015-09-23T14:17:06.000Z</time>
      </trkpt>
      <trkpt lat="43.91638" lon="5.40119">
        <ele>271</ele>
        <time>2015-09-23T14:17:07.000Z</time>
      </trkpt>
      <trkpt lat="43.91636" lon="5.40117">
        <ele>271</ele>
        <time>2015-09-23T14:17:08.000Z</time>
      </trkpt>
      <trkpt lat="43.91634" lon="5.40115">
        <ele>271</ele>
        <time>2015-09-23T14:17:09.000Z</time>
      </trkpt>
      <trkpt lat="43.91632" lon="5.40114">
        <ele>271</ele>
        <time>2015-09-23T14:17:10.000Z</time>
      </trkpt>
      <trkpt lat="43.9163" lon="5.40113">
        <ele>271</ele>
        <time>2015-09-23T14:17:11.000Z</time>
      </trkpt>
      <trkpt lat="43.91628" lon="5.40111">
        <ele>271</ele>
        <time>2015-09-23T14:17:12.000Z</time>
      </trkpt>
      <trkpt lat="43.91625" lon="5.4011">
        <ele>272</ele>
        <time>2015-09-23T14:17:13.000Z</time>
      </trkpt>
      <trkpt lat="43.91623" lon="5.40108">
        <ele>271</ele>
        <time>2015-09-23T14:17:14.000Z</time>
      </trkpt>
      <trkpt lat="43.91621" lon="5.40107">
        <ele>271</ele>
        <time>2015-09-23T14:17:15.000Z</time>
      </trkpt>
      <trkpt lat="43.91619" lon="5.40105">
        <ele>272</ele>
        <time>2015-09-23T14:17:16.000Z</time>
      </trkpt>
      <trkpt lat="43.91617" lon="5.40104">
        <ele>271</ele>
        <time>2015-09-23T14:17:17.000Z</time>
      </trkpt>
      <trkpt lat="43.91614" lon="5.40102">
        <ele>272</ele>
        <time>2015-09-23T14:17:18.000Z</time>
      </trkpt>
      <trkpt lat="43.91612" lon="5.40101">
        <ele>271</ele>
        <time>2015-09-23T14:17:19.000Z</time>
      </trkpt>
      <trkpt lat="43.9161" lon="5.401">
        <ele>271</ele>
        <time>2015-09-23T14:17:20.000Z</time>
      </trkpt>
      <trkpt lat="43.91607" lon="5.40099">
        <ele>271</ele>
        <time>2015-09-23T14:17:21.000Z</time>
      </trkpt>
      <trkpt lat="43.91605" lon="5.40098">
        <ele>272</ele>
        <time>2015-09-23T14:17:22.000Z</time>
      </trkpt>
      <trkpt lat="43.91602" lon="5.40097">
        <ele>271</ele>
        <time>2015-09-23T14:17:23.000Z</time>
      </trkpt>
      <trkpt lat="43.916" lon="5.40095">
        <ele>271</ele>
        <time>2015-09-23T14:17:24.000Z</time>
      </trkpt>
      <trkpt lat="43.91598" lon="5.40094">
        <ele>270</ele>
        <time>2015-09-23T14:17:25.000Z</time>
      </trkpt>
      <trkpt lat="43.91596" lon="5.40092">
        <ele>269</ele>
        <time>2015-09-23T14:17:26.000Z</time>
      </trkpt>
      <trkpt lat="43.91593" lon="5.40091">
        <ele>270</ele>
        <time>2015-09-23T14:17:27.000Z</time>
      </trkpt>
      <trkpt lat="43.91591" lon="5.4009">
        <ele>270</ele>
        <time>2015-09-23T14:17:28.000Z</time>
      </trkpt>
      <trkpt lat="43.91589" lon="5.40088">
        <ele>269</ele>
        <time>2015-09-23T14:17:29.000Z</time>
      </trkpt>
      <trkpt lat="43.91586" lon="5.40087">
        <ele>269</ele>
        <time>2015-09-23T14:17:30.000Z</time>
      </trkpt>
      <trkpt lat="43.91584" lon="5.40086">
        <ele>269</ele>
        <time>2015-09-23T14:17:31.000Z</time>
      </trkpt>
      <trkpt lat="43.91582" lon="5.40085">
        <ele>270</ele>
        <time>2015-09-23T14:17:32.000Z</time>
      </trkpt>
      <trkpt lat="43.9158" lon="5.40083">
        <ele>269</ele>
        <time>2015-09-23T14:17:33.000Z</time>
      </trkpt>
      <trkpt lat="43.91578" lon="5.40082">
        <ele>270</ele>
        <time>2015-09-23T14:17:34.000Z</time>
      </trkpt>
      <trkpt lat="43.91576" lon="5.4008">
        <ele>269</ele>
        <time>2015-09-23T14:17:35.000Z</time>
      </trkpt>
      <trkpt lat="43.91574" lon="5.40079">
        <ele>269</ele>
        <time>2015-09-23T14:17:36.000Z</time>
      </trkpt>
      <trkpt lat="43.91572" lon="5.40078">
        <ele>269</ele>
        <time>2015-09-23T14:17:37.000Z</time>
      </trkpt>
      <trkpt lat="43.91569" lon="5.40077">
        <ele>270</ele>
        <time>2015-09-23T14:17:38.000Z</time>
      </trkpt>
      <trkpt lat="43.91567" lon="5.40075">
        <ele>270</ele>
        <time>2015-09-23T14:17:39.000Z</time>
      </trkpt>
      <trkpt lat="43.91565" lon="5.40074">
        <ele>269</ele>
        <time>2015-09-23T14:17:40.000Z</time>
      </trkpt>
      <trkpt lat="43.91563" lon="5.40073">
        <ele>269</ele>
        <time>2015-09-23T14:17:41.000Z</time>
      </trkpt>
      <trkpt lat="43.91561" lon="5.40071">
        <ele>269</ele>
        <time>2015-09-23T14:17:42.000Z</time>
      </trkpt>
      <trkpt lat="43.91559" lon="5.4007">
        <ele>268</ele>
        <time>2015-09-23T14:17:43.000Z</time>
      </trkpt>
      <trkpt lat="43.91557" lon="5.40069">
        <ele>268</ele>
        <time>2015-09-23T14:17:44.000Z</time>
      </trkpt>
      <trkpt lat="43.91556" lon="5.40068">
        <ele>268</ele>
        <time>2015-09-23T14:17:45.000Z</time>
      </trkpt>
      <trkpt lat="43.91554" lon="5.40066">
        <ele>267</ele>
        <time>2015-09-23T14:17:46.000Z</time>
      </trkpt>
      <trkpt lat="43.91552" lon="5.40065">
        <ele>267</ele>
        <time>2015-09-23T14:17:47.000Z</time>
      </trkpt>
      <trkpt lat="43.91549" lon="5.40063">
        <ele>268</ele>
        <time>2015-09-23T14:17:48.000Z</time>
      </trkpt>
      <trkpt lat="43.91547" lon="5.40062">
        <ele>267</ele>
        <time>2015-09-23T14:17:49.000Z</time>
      </trkpt>
      <trkpt lat="43.91545" lon="5.4006">
        <ele>267</ele>
        <time>2015-09-23T14:17:50.000Z</time>
      </trkpt>
      <trkpt lat="43.91543" lon="5.40059">
        <ele>268</ele>
        <time>2015-09-23T14:17:51.000Z</time>
      </trkpt>
      <trkpt lat="43.9154" lon="5.40057">
        <ele>268</ele>
        <time>2015-09-23T14:17:52.000Z</time>
      </trkpt>
      <trkpt lat="43.91538" lon="5.40056">
        <ele>268</ele>
        <time>2015-09-23T14:17:53.000Z</time>
      </trkpt>
      <trkpt lat="43.91535" lon="5.40054">
        <ele>268</ele>
        <time>2015-09-23T14:17:54.000Z</time>
      </trkpt>
      <trkpt lat="43.91533" lon="5.40053">
        <ele>268</ele>
        <time>2015-09-23T14:17:55.000Z</time>
      </trkpt>
      <trkpt lat="43.91531" lon="5.40052">
        <ele>269</ele>
        <time>2015-09-23T14:17:56.000Z</time>
      </trkpt>
      <trkpt lat="43.91528" lon="5.4005">
        <ele>268</ele>
        <time>2015-09-23T14:17:57.000Z</time>
      </trkpt>
      <trkpt lat="43.91526" lon="5.40049">
        <ele>268</ele>
        <time>2015-09-23T14:17:58.000Z</time>
      </trkpt>
      <trkpt lat="43.91524" lon="5.40048">
        <ele>268</ele>
        <time>2015-09-23T14:17:59.000Z</time>
      </trkpt>
      <trkpt lat="43.91521" lon="5.40046">
        <ele>268</ele>
        <time>2015-09-23T14:18:00.000Z</time>
      </trkpt>
      <trkpt lat="43.91519" lon="5.40045">
        <ele>268</ele>
        <time>2015-09-23T14:18:01.000Z</time>
      </trkpt>
      <trkpt lat="43.91517" lon="5.40044">
        <ele>268</ele>
        <time>2015-09-23T14:18:02.000Z</time>
      </trkpt>
      <trkpt lat="43.91514" lon="5.40042">
        <ele>268</ele>
        <time>2015-09-23T14:18:03.000Z</time>
      </trkpt>
      <trkpt lat="43.91512" lon="5.40041">
        <ele>268</ele>
        <time>2015-09-23T14:18:04.000Z</time>
      </trkpt>
      <trkpt lat="43.9151" lon="5.40039">
        <ele>269</ele>
        <time>2015-09-23T14:18:05.000Z</time>
      </trkpt>
      <trkpt lat="43.91508" lon="5.40038">
        <ele>269</ele>
        <time>2015-09-23T14:18:06.000Z</time>
      </trkpt>
      <trkpt lat="43.91506" lon="5.40037">
        <ele>268</ele>
        <time>2015-09-23T14:18:07.000Z</time>
      </trkpt>
      <trkpt lat="43.91503" lon="5.40036">
        <ele>268</ele>
        <time>2015-09-23T14:18:08.000Z</time>
      </trkpt>
      <trkpt lat="43.91501" lon="5.40034">
        <ele>268</ele>
        <time>2015-09-23T14:18:09.000Z</time>
      </trkpt>
      <trkpt lat="43.91499" lon="5.40033">
        <ele>267</ele>
        <time>2015-09-23T14:18:10.000Z</time>
      </trkpt>
      <trkpt lat="43.91497" lon="5.40032">
        <ele>268</ele>
        <time>2015-09-23T14:18:11.000Z</time>
      </trkpt>
      <trkpt lat="43.91494" lon="5.4003">
        <ele>267</ele>
        <time>2015-09-23T14:18:12.000Z</time>
      </trkpt>
      <trkpt lat="43.91492" lon="5.40028">
        <ele>268</ele>
        <time>2015-09-23T14:18:13.000Z</time>
      </trkpt>
      <trkpt lat="43.91489" lon="5.40027">
        <ele>267</ele>
        <time>2015-09-23T14:18:14.000Z</time>
      </trkpt>
      <trkpt lat="43.91487" lon="5.40025">
        <ele>267</ele>
        <time>2015-09-23T14:18:15.000Z</time>
      </trkpt>
      <trkpt lat="43.91484" lon="5.40023">
        <ele>267</ele>
        <time>2015-09-23T14:18:16.000Z</time>
      </trkpt>
      <trkpt lat="43.91482" lon="5.40021">
        <ele>266</ele>
        <time>2015-09-23T14:18:17.000Z</time>
      </trkpt>
      <trkpt lat="43.91479" lon="5.40019">
        <ele>266</ele>
        <time>2015-09-23T14:18:18.000Z</time>
      </trkpt>
      <trkpt lat="43.91477" lon="5.40017">
        <ele>266</ele>
        <time>2015-09-23T14:18:19.000Z</time>
      </trkpt>
      <trkpt lat="43.91475" lon="5.40016">
        <ele>266</ele>
        <time>2015-09-23T14:18:20.000Z</time>
      </trkpt>
      <trkpt lat="43.91473" lon="5.40014">
        <ele>266</ele>
        <time>2015-09-23T14:18:21.000Z</time>
      </trkpt>
      <trkpt lat="43.91471" lon="5.40012">
        <ele>266</ele>
        <time>2015-09-23T14:18:22.000Z</time>
      </trkpt>
      <trkpt lat="43.91469" lon="5.4001">
        <ele>266</ele>
        <time>2015-09-23T14:18:23.000Z</time>
      </trkpt>
      <trkpt lat="43.91467" lon="5.40007">
        <ele>266</ele>
        <time>2015-09-23T14:18:24.000Z</time>
      </trkpt>
      <trkpt lat="43.91465" lon="5.40005">
        <ele>266</ele>
        <time>2015-09-23T14:18:25.000Z</time>
      </trkpt>
      <trkpt lat="43.91463" lon="5.40002">
        <ele>265</ele>
        <time>2015-09-23T14:18:26.000Z</time>
      </trkpt>
      <trkpt lat="43.91461" lon="5.39999">
        <ele>264</ele>
        <time>2015-09-23T14:18:27.000Z</time>
      </trkpt>
      <trkpt lat="43.91459" lon="5.39997">
        <ele>264</ele>
        <time>2015-09-23T14:18:28.000Z</time>
      </trkpt>
      <trkpt lat="43.91457" lon="5.39994">
        <ele>264</ele>
        <time>2015-09-23T14:18:29.000Z</time>
      </trkpt>
      <trkpt lat="43.91455" lon="5.39991">
        <ele>263</ele>
        <time>2015-09-23T14:18:30.000Z</time>
      </trkpt>
      <trkpt lat="43.91453" lon="5.39988">
        <ele>263</ele>
        <time>2015-09-23T14:18:31.000Z</time>
      </trkpt>
      <trkpt lat="43.91451" lon="5.39985">
        <ele>263</ele>
        <time>2015-09-23T14:18:32.000Z</time>
      </trkpt>
      <trkpt lat="43.91449" lon="5.39983">
        <ele>263</ele>
        <time>2015-09-23T14:18:33.000Z</time>
      </trkpt>
      <trkpt lat="43.91447" lon="5.3998">
        <ele>264</ele>
        <time>2015-09-23T14:18:34.000Z</time>
      </trkpt>
      <trkpt lat="43.91445" lon="5.39977">
        <ele>263</ele>
        <time>2015-09-23T14:18:35.000Z</time>
      </trkpt>
      <trkpt lat="43.91444" lon="5.39974">
        <ele>263</ele>
        <time>2015-09-23T14:18:36.000Z</time>
      </trkpt>
      <trkpt lat="43.91442" lon="5.39971">
        <ele>263</ele>
        <time>2015-09-23T14:18:37.000Z</time>
      </trkpt>
      <trkpt lat="43.91441" lon="5.39969">
        <ele>263</ele>
        <time>2015-09-23T14:18:38.000Z</time>
      </trkpt>
      <trkpt lat="43.91439" lon="5.39966">
        <ele>263</ele>
        <time>2015-09-23T14:18:39.000Z</time>
      </trkpt>
      <trkpt lat="43.91437" lon="5.39964">
        <ele>262</ele>
        <time>2015-09-23T14:18:40.000Z</time>
      </trkpt>
      <trkpt lat="43.91436" lon="5.39961">
        <ele>262</ele>
        <time>2015-09-23T14:18:41.000Z</time>
      </trkpt>
      <trkpt lat="43.91434" lon="5.39959">
        <ele>262</ele>
        <time>2015-09-23T14:18:42.000Z</time>
      </trkpt>
      <trkpt lat="43.91432" lon="5.39956">
        <ele>262</ele>
        <time>2015-09-23T14:18:43.000Z</time>
      </trkpt>
      <trkpt lat="43.9143" lon="5.39953">
        <ele>262</ele>
        <time>2015-09-23T14:18:44.000Z</time>
      </trkpt>
      <trkpt lat="43.91429" lon="5.3995">
        <ele>262</ele>
        <time>2015-09-23T14:18:45.000Z</time>
      </trkpt>
      <trkpt lat="43.91427" lon="5.39947">
        <ele>263</ele>
        <time>2015-09-23T14:18:46.000Z</time>
      </trkpt>
      <trkpt lat="43.91426" lon="5.39945">
        <ele>263</ele>
        <time>2015-09-23T14:18:47.000Z</time>
      </trkpt>
      <trkpt lat="43.91424" lon="5.39942">
        <ele>263</ele>
        <time>2015-09-23T14:18:48.000Z</time>
      </trkpt>
      <trkpt lat="43.91423" lon="5.3994">
        <ele>264</ele>
        <time>2015-09-23T14:18:49.000Z</time>
      </trkpt>
      <trkpt lat="43.91421" lon="5.39937">
        <ele>264</ele>
        <time>2015-09-23T14:18:50.000Z</time>
      </trkpt>
      <trkpt lat="43.91419" lon="5.39935">
        <ele>264</ele>
        <time>2015-09-23T14:18:51.000Z</time>
      </trkpt>
      <trkpt lat="43.91418" lon="5.39932">
        <ele>264</ele>
        <time>2015-09-23T14:18:52.000Z</time>
      </trkpt>
      <trkpt lat="43.91416" lon="5.3993">
        <ele>263</ele>
        <time>2015-09-23T14:18:53.000Z</time>
      </trkpt>
      <trkpt lat="43.91414" lon="5.39927">
        <ele>263</ele>
        <time>2015-09-23T14:18:54.000Z</time>
      </trkpt>
      <trkpt lat="43.91413" lon="5.39925">
        <ele>262</ele>
        <time>2015-09-23T14:18:55.000Z</time>
      </trkpt>
      <trkpt lat="43.91411" lon="5.39923">
        <ele>262</ele>
        <time>2015-09-23T14:18:56.000Z</time>
      </trkpt>
      <trkpt lat="43.91408" lon="5.39922">
        <ele>262</ele>
        <time>2015-09-23T14:18:57.000Z</time>
      </trkpt>
      <trkpt lat="43.91406" lon="5.39921">
        <ele>262</ele>
        <time>2015-09-23T14:18:58.000Z</time>
      </trkpt>
      <trkpt lat="43.91404" lon="5.3992">
        <ele>262</ele>
        <time>2015-09-23T14:18:59.000Z</time>
      </trkpt>
      <trkpt lat="43.91402" lon="5.39919">
        <ele>262</ele>
        <time>2015-09-23T14:19:00.000Z</time>
      </trkpt>
      <trkpt lat="43.914" lon="5.39919">
        <ele>262</ele>
        <time>2015-09-23T14:19:01.000Z</time>
      </trkpt>
      <trkpt lat="43.91398" lon="5.39918">
        <ele>261</ele>
        <time>2015-09-23T14:19:02.000Z</time>
      </trkpt>
      <trkpt lat="43.91396" lon="5.39917">
        <ele>261</ele>
        <time>2015-09-23T14:19:03.000Z</time>
      </trkpt>
      <trkpt lat="43.91393" lon="5.39916">
        <ele>261</ele>
        <time>2015-09-23T14:19:04.000Z</time>
      </trkpt>
      <trkpt lat="43.91391" lon="5.39916">
        <ele>262</ele>
        <time>2015-09-23T14:19:05.000Z</time>
      </trkpt>
      <trkpt lat="43.91389" lon="5.39915">
        <ele>262</ele>
        <time>2015-09-23T14:19:06.000Z</time>
      </trkpt>
      <trkpt lat="43.91386" lon="5.39914">
        <ele>262</ele>
        <time>2015-09-23T14:19:07.000Z</time>
      </trkpt>
      <trkpt lat="43.91384" lon="5.39913">
        <ele>262</ele>
        <time>2015-09-23T14:19:08.000Z</time>
      </trkpt>
      <trkpt lat="43.91381" lon="5.39912">
        <ele>262</ele>
        <time>2015-09-23T14:19:09.000Z</time>
      </trkpt>
      <trkpt lat="43.91379" lon="5.39911">
        <ele>262</ele>
        <time>2015-09-23T14:19:10.000Z</time>
      </trkpt>
      <trkpt lat="43.91377" lon="5.3991">
        <ele>262</ele>
        <time>2015-09-23T14:19:11.000Z</time>
      </trkpt>
      <trkpt lat="43.91374" lon="5.39909">
        <ele>260</ele>
        <time>2015-09-23T14:19:12.000Z</time>
      </trkpt>
      <trkpt lat="43.91372" lon="5.39908">
        <ele>261</ele>
        <time>2015-09-23T14:19:13.000Z</time>
      </trkpt>
      <trkpt lat="43.91369" lon="5.39907">
        <ele>261</ele>
        <time>2015-09-23T14:19:14.000Z</time>
      </trkpt>
      <trkpt lat="43.91367" lon="5.39906">
        <ele>260</ele>
        <time>2015-09-23T14:19:15.000Z</time>
      </trkpt>
      <trkpt lat="43.91365" lon="5.39905">
        <ele>261</ele>
        <time>2015-09-23T14:19:16.000Z</time>
      </trkpt>
      <trkpt lat="43.91362" lon="5.39904">
        <ele>260</ele>
        <time>2015-09-23T14:19:17.000Z</time>
      </trkpt>
      <trkpt lat="43.9136" lon="5.39903">
        <ele>260</ele>
        <time>2015-09-23T14:19:18.000Z</time>
      </trkpt>
      <trkpt lat="43.91357" lon="5.39902">
        <ele>260</ele>
        <time>2015-09-23T14:19:19.000Z</time>
      </trkpt>
      <trkpt lat="43.91355" lon="5.39901">
        <ele>259</ele>
        <time>2015-09-23T14:19:20.000Z</time>
      </trkpt>
      <trkpt lat="43.91353" lon="5.399">
        <ele>259</ele>
        <time>2015-09-23T14:19:21.000Z</time>
      </trkpt>
      <trkpt lat="43.91351" lon="5.39898">
        <ele>259</ele>
        <time>2015-09-23T14:19:22.000Z</time>
      </trkpt>
      <trkpt lat="43.91349" lon="5.39897">
        <ele>259</ele>
        <time>2015-09-23T14:19:23.000Z</time>
      </trkpt>
      <trkpt lat="43.91347" lon="5.39896">
        <ele>258</ele>
        <time>2015-09-23T14:19:24.000Z</time>
      </trkpt>
      <trkpt lat="43.91344" lon="5.39895">
        <ele>258</ele>
        <time>2015-09-23T14:19:25.000Z</time>
      </trkpt>
      <trkpt lat="43.91342" lon="5.39894">
        <ele>259</ele>
        <time>2015-09-23T14:19:26.000Z</time>
      </trkpt>
      <trkpt lat="43.9134" lon="5.39892">
        <ele>259</ele>
        <time>2015-09-23T14:19:27.000Z</time>
      </trkpt>
      <trkpt lat="43.91337" lon="5.39891">
        <ele>259</ele>
        <time>2015-09-23T14:19:28.000Z</time>
      </trkpt>
      <trkpt lat="43.91335" lon="5.39889">
        <ele>259</ele>
        <time>2015-09-23T14:19:29.000Z</time>
      </trkpt>
      <trkpt lat="43.91333" lon="5.39888">
        <ele>259</ele>
        <time>2015-09-23T14:19:30.000Z</time>
      </trkpt>
      <trkpt lat="43.9133" lon="5.39886">
        <ele>258</ele>
        <time>2015-09-23T14:19:31.000Z</time>
      </trkpt>
      <trkpt lat="43.91328" lon="5.39884">
        <ele>258</ele>
        <time>2015-09-23T14:19:32.000Z</time>
      </trkpt>
      <trkpt lat="43.91325" lon="5.39883">
        <ele>257</ele>
        <time>2015-09-23T14:19:33.000Z</time>
      </trkpt>
      <trkpt lat="43.91323" lon="5.39881">
        <ele>257</ele>
        <time>2015-09-23T14:19:34.000Z</time>
      </trkpt>
      <trkpt lat="43.91321" lon="5.3988">
        <ele>257</ele>
        <time>2015-09-23T14:19:35.000Z</time>
      </trkpt>
      <trkpt lat="43.91319" lon="5.39878">
        <ele>258</ele>
        <time>2015-09-23T14:19:36.000Z</time>
      </trkpt>
      <trkpt lat="43.91317" lon="5.39877">
        <ele>258</ele>
        <time>2015-09-23T14:19:37.000Z</time>
      </trkpt>
      <trkpt lat="43.91315" lon="5.39874">
        <ele>258</ele>
        <time>2015-09-23T14:19:38.000Z</time>
      </trkpt>
      <trkpt lat="43.91313" lon="5.39873">
        <ele>259</ele>
        <time>2015-09-23T14:19:39.000Z</time>
      </trkpt>
      <trkpt lat="43.9131" lon="5.39871">
        <ele>258</ele>
        <time>2015-09-23T14:19:40.000Z</time>
      </trkpt>
      <trkpt lat="43.91308" lon="5.3987">
        <ele>258</ele>
        <time>2015-09-23T14:19:41.000Z</time>
      </trkpt>
      <trkpt lat="43.91306" lon="5.39868">
        <ele>258</ele>
        <time>2015-09-23T14:19:42.000Z</time>
      </trkpt>
      <trkpt lat="43.91304" lon="5.39867">
        <ele>257</ele>
        <time>2015-09-23T14:19:43.000Z</time>
      </trkpt>
      <trkpt lat="43.91302" lon="5.39865">
        <ele>257</ele>
        <time>2015-09-23T14:19:44.000Z</time>
      </trkpt>
      <trkpt lat="43.91299" lon="5.39864">
        <ele>257</ele>
        <time>2015-09-23T14:19:45.000Z</time>
      </trkpt>
      <trkpt lat="43.91296" lon="5.39862">
        <ele>257</ele>
        <time>2015-09-23T14:19:46.000Z</time>
      </trkpt>
      <trkpt lat="43.91294" lon="5.39861">
        <ele>257</ele>
        <time>2015-09-23T14:19:47.000Z</time>
      </trkpt>
      <trkpt lat="43.91291" lon="5.39859">
        <ele>257</ele>
        <time>2015-09-23T14:19:48.000Z</time>
      </trkpt>
      <trkpt lat="43.91289" lon="5.39857">
        <ele>257</ele>
        <time>2015-09-23T14:19:49.000Z</time>
      </trkpt>
      <trkpt lat="43.91286" lon="5.39856">
        <ele>256</ele>
        <time>2015-09-23T14:19:50.000Z</time>
      </trkpt>
      <trkpt lat="43.91284" lon="5.39854">
        <ele>256</ele>
        <time>2015-09-23T14:19:51.000Z</time>
      </trkpt>
      <trkpt lat="43.91281" lon="5.39852">
        <ele>256</ele>
        <time>2015-09-23T14:19:52.000Z</time>
      </trkpt>
      <trkpt lat="43.91279" lon="5.3985">
        <ele>256</ele>
        <time>2015-09-23T14:19:53.000Z</time>
      </trkpt>
      <trkpt lat="43.91277" lon="5.39849">
        <ele>255</ele>
        <time>2015-09-23T14:19:54.000Z</time>
      </trkpt>
      <trkpt lat="43.91274" lon="5.39847">
        <ele>255</ele>
        <time>2015-09-23T14:19:55.000Z</time>
      </trkpt>
      <trkpt lat="43.91272" lon="5.39846">
        <ele>254</ele>
        <time>2015-09-23T14:19:56.000Z</time>
      </trkpt>
      <trkpt lat="43.9127" lon="5.39844">
        <ele>254</ele>
        <time>2015-09-23T14:19:57.000Z</time>
      </trkpt>
      <trkpt lat="43.91268" lon="5.39843">
        <ele>254</ele>
        <time>2015-09-23T14:19:58.000Z</time>
      </trkpt>
      <trkpt lat="43.91265" lon="5.39842">
        <ele>254</ele>
        <time>2015-09-23T14:19:59.000Z</time>
      </trkpt>
      <trkpt lat="43.91263" lon="5.39841">
        <ele>254</ele>
        <time>2015-09-23T14:20:00.000Z</time>
      </trkpt>
      <trkpt lat="43.9126" lon="5.3984">
        <ele>254</ele>
        <time>2015-09-23T14:20:01.000Z</time>
      </trkpt>
      <trkpt lat="43.91258" lon="5.3984">
        <ele>254</ele>
        <time>2015-09-23T14:20:02.000Z</time>
      </trkpt>
      <trkpt lat="43.91256" lon="5.39841">
        <ele>253</ele>
        <time>2015-09-23T14:20:03.000Z</time>
      </trkpt>
      <trkpt lat="43.91254" lon="5.39842">
        <ele>254</ele>
        <time>2015-09-23T14:20:04.000Z</time>
      </trkpt>
      <trkpt lat="43.91251" lon="5.39844">
        <ele>253</ele>
        <time>2015-09-23T14:20:05.000Z</time>
      </trkpt>
      <trkpt lat="43.91249" lon="5.39845">
        <ele>252</ele>
        <time>2015-09-23T14:20:06.000Z</time>
      </trkpt>
      <trkpt lat="43.91247" lon="5.39847">
        <ele>252</ele>
        <time>2015-09-23T14:20:07.000Z</time>
      </trkpt>
      <trkpt lat="43.91245" lon="5.39849">
        <ele>251</ele>
        <time>2015-09-23T14:20:08.000Z</time>
      </trkpt>
      <trkpt lat="43.91243" lon="5.39851">
        <ele>251</ele>
        <time>2015-09-23T14:20:09.000Z</time>
      </trkpt>
      <trkpt lat="43.91241" lon="5.39853">
        <ele>250</ele>
        <time>2015-09-23T14:20:10.000Z</time>
      </trkpt>
      <trkpt lat="43.91239" lon="5.39855">
        <ele>250</ele>
        <time>2015-09-23T14:20:11.000Z</time>
      </trkpt>
      <trkpt lat="43.91237" lon="5.39858">
        <ele>249</ele>
        <time>2015-09-23T14:20:12.000Z</time>
      </trkpt>
      <trkpt lat="43.91235" lon="5.3986">
        <ele>249</ele>
        <time>2015-09-23T14:20:13.000Z</time>
      </trkpt>
      <trkpt lat="43.91234" lon="5.39862">
        <ele>249</ele>
        <time>2015-09-23T14:20:14.000Z</time>
      </trkpt>
      <trkpt lat="43.91232" lon="5.39864">
        <ele>248</ele>
        <time>2015-09-23T14:20:15.000Z</time>
      </trkpt>
      <trkpt lat="43.9123" lon="5.39867">
        <ele>249</ele>
        <time>2015-09-23T14:20:16.000Z</time>
      </trkpt>
      <trkpt lat="43.91228" lon="5.39869">
        <ele>250</ele>
        <time>2015-09-23T14:20:17.000Z</time>
      </trkpt>
      <trkpt lat="43.91227" lon="5.39871">
        <ele>250</ele>
        <time>2015-09-23T14:20:18.000Z</time>
      </trkpt>
      <trkpt lat="43.91226" lon="5.39873">
        <ele>250</ele>
        <time>2015-09-23T14:20:19.000Z</time>
      </trkpt>
      <trkpt lat="43.91224" lon="5.39876">
        <ele>250</ele>
        <time>2015-09-23T14:20:20.000Z</time>
      </trkpt>
      <trkpt lat="43.91222" lon="5.39878">
        <ele>249</ele>
        <time>2015-09-23T14:20:21.000Z</time>
      </trkpt>
      <trkpt lat="43.91221" lon="5.3988">
        <ele>249</ele>
        <time>2015-09-23T14:20:22.000Z</time>
      </trkpt>
      <trkpt lat="43.91219" lon="5.39882">
        <ele>249</ele>
        <time>2015-09-23T14:20:23.000Z</time>
      </trkpt>
      <trkpt lat="43.91217" lon="5.39884">
        <ele>249</ele>
        <time>2015-09-23T14:20:24.000Z</time>
      </trkpt>
      <trkpt lat="43.91215" lon="5.39887">
        <ele>249</ele>
        <time>2015-09-23T14:20:25.000Z</time>
      </trkpt>
      <trkpt lat="43.91213" lon="5.39889">
        <ele>249</ele>
        <time>2015-09-23T14:20:26.000Z</time>
      </trkpt>
      <trkpt lat="43.91211" lon="5.39892">
        <ele>250</ele>
        <time>2015-09-23T14:20:27.000Z</time>
      </trkpt>
      <trkpt lat="43.9121" lon="5.39894">
        <ele>250</ele>
        <time>2015-09-23T14:20:28.000Z</time>
      </trkpt>
      <trkpt lat="43.91208" lon="5.39897">
        <ele>251</ele>
        <time>2015-09-23T14:20:29.000Z</time>
      </trkpt>
      <trkpt lat="43.91206" lon="5.39899">
        <ele>251</ele>
        <time>2015-09-23T14:20:30.000Z</time>
      </trkpt>
      <trkpt lat="43.91204" lon="5.39901">
        <ele>251</ele>
        <time>2015-09-23T14:20:31.000Z</time>
      </trkpt>
      <trkpt lat="43.91203" lon="5.39903">
        <ele>251</ele>
        <time>2015-09-23T14:20:32.000Z</time>
      </trkpt>
      <trkpt lat="43.91201" lon="5.39905">
        <ele>251</ele>
        <time>2015-09-23T14:20:33.000Z</time>
      </trkpt>
      <trkpt lat="43.912" lon="5.39907">
        <ele>251</ele>
        <time>2015-09-23T14:20:34.000Z</time>
      </trkpt>
      <trkpt lat="43.91198" lon="5.39909">
        <ele>251</ele>
        <time>2015-09-23T14:20:35.000Z</time>
      </trkpt>
      <trkpt lat="43.91196" lon="5.39911">
        <ele>250</ele>
        <time>2015-09-23T14:20:36.000Z</time>
      </trkpt>
      <trkpt lat="43.91195" lon="5.39913">
        <ele>250</ele>
        <time>2015-09-23T14:20:37.000Z</time>
      </trkpt>
      <trkpt lat="43.91193" lon="5.39916">
        <ele>250</ele>
        <time>2015-09-23T14:20:38.000Z</time>
      </trkpt>
      <trkpt lat="43.91192" lon="5.39919">
        <ele>250</ele>
        <time>2015-09-23T14:20:39.000Z</time>
      </trkpt>
      <trkpt lat="43.91191" lon="5.39922">
        <ele>249</ele>
        <time>2015-09-23T14:20:40.000Z</time>
      </trkpt>
      <trkpt lat="43.9119" lon="5.39925">
        <ele>249</ele>
        <time>2015-09-23T14:20:41.000Z</time>
      </trkpt>
      <trkpt lat="43.9119" lon="5.39928">
        <ele>249</ele>
        <time>2015-09-23T14:20:42.000Z</time>
      </trkpt>
      <trkpt lat="43.9119" lon="5.39931">
        <ele>249</ele>
        <time>2015-09-23T14:20:43.000Z</time>
      </trkpt>
      <trkpt lat="43.91191" lon="5.39934">
        <ele>248</ele>
        <time>2015-09-23T14:20:44.000Z</time>
      </trkpt>
      <trkpt lat="43.91191" lon="5.39937">
        <ele>248</ele>
        <time>2015-09-23T14:20:45.000Z</time>
      </trkpt>
      <trkpt lat="43.91192" lon="5.39941">
        <ele>247</ele>
        <time>2015-09-23T14:20:46.000Z</time>
      </trkpt>
      <trkpt lat="43.91193" lon="5.39943">
        <ele>247</ele>
        <time>2015-09-23T14:20:47.000Z</time>
      </trkpt>
      <trkpt lat="43.91194" lon="5.39945">
        <ele>247</ele>
        <time>2015-09-23T14:20:48.000Z</time>
      </trkpt>
      <trkpt lat="43.91195" lon="5.39948">
        <ele>247</ele>
        <time>2015-09-23T14:20:49.000Z</time>
      </trkpt>
      <trkpt lat="43.91196" lon="5.3995">
        <ele>246</ele>
        <time>2015-09-23T14:20:50.000Z</time>
      </trkpt>
      <trkpt lat="43.91197" lon="5.39952">
        <ele>247</ele>
        <time>2015-09-23T14:20:51.000Z</time>
      </trkpt>
      <trkpt lat="43.91198" lon="5.39955">
        <ele>246</ele>
        <time>2015-09-23T14:20:52.000Z</time>
      </trkpt>
      <trkpt lat="43.91199" lon="5.39957">
        <ele>247</ele>
        <time>2015-09-23T14:20:53.000Z</time>
      </trkpt>
      <trkpt lat="43.912" lon="5.39959">
        <ele>247</ele>
        <time>2015-09-23T14:20:54.000Z</time>
      </trkpt>
      <trkpt lat="43.91201" lon="5.39961">
        <ele>246</ele>
        <time>2015-09-23T14:20:55.000Z</time>
      </trkpt>
      <trkpt lat="43.91203" lon="5.39963">
        <ele>246</ele>
        <time>2015-09-23T14:20:56.000Z</time>
      </trkpt>
      <trkpt lat="43.91205" lon="5.39965">
        <ele>247</ele>
        <time>2015-09-23T14:20:57.000Z</time>
      </trkpt>
      <trkpt lat="43.91206" lon="5.39967">
        <ele>248</ele>
        <time>2015-09-23T14:20:58.000Z</time>
      </trkpt>
      <trkpt lat="43.91209" lon="5.39969">
        <ele>248</ele>
        <time>2015-09-23T14:20:59.000Z</time>
      </trkpt>
      <trkpt lat="43.91211" lon="5.39971">
        <ele>248</ele>
        <time>2015-09-23T14:21:00.000Z</time>
      </trkpt>
      <trkpt lat="43.91213" lon="5.39973">
        <ele>249</ele>
        <time>2015-09-23T14:21:01.000Z</time>
      </trkpt>
      <trkpt lat="43.91215" lon="5.39976">
        <ele>249</ele>
        <time>2015-09-23T14:21:02.000Z</time>
      </trkpt>
      <trkpt lat="43.91217" lon="5.39978">
        <ele>249</ele>
        <time>2015-09-23T14:21:03.000Z</time>
      </trkpt>
      <trkpt lat="43.91219" lon="5.39981">
        <ele>249</ele>
        <time>2015-09-23T14:21:04.000Z</time>
      </trkpt>
      <trkpt lat="43.9122" lon="5.39984">
        <ele>250</ele>
        <time>2015-09-23T14:21:05.000Z</time>
      </trkpt>
      <trkpt lat="43.91222" lon="5.39987">
        <ele>250</ele>
        <time>2015-09-23T14:21:06.000Z</time>
      </trkpt>
      <trkpt lat="43.91223" lon="5.3999">
        <ele>250</ele>
        <time>2015-09-23T14:21:07.000Z</time>
      </trkpt>
      <trkpt lat="43.91223" lon="5.39994">
        <ele>250</ele>
        <time>2015-09-23T14:21:08.000Z</time>
      </trkpt>
      <trkpt lat="43.91224" lon="5.39997">
        <ele>250</ele>
        <time>2015-09-23T14:21:09.000Z</time>
      </trkpt>
      <trkpt lat="43.91223" lon="5.4">
        <ele>251</ele>
        <time>2015-09-23T14:21:10.000Z</time>
      </trkpt>
      <trkpt lat="43.91222" lon="5.40003">
        <ele>250</ele>
        <time>2015-09-23T14:21:11.000Z</time>
      </trkpt>
      <trkpt lat="43.91221" lon="5.40006">
        <ele>250</ele>
        <time>2015-09-23T14:21:12.000Z</time>
      </trkpt>
      <trkpt lat="43.9122" lon="5.40009">
        <ele>249</ele>
        <time>2015-09-23T14:21:13.000Z</time>
      </trkpt>
      <trkpt lat="43.91219" lon="5.40012">
        <ele>249</ele>
        <time>2015-09-23T14:21:14.000Z</time>
      </trkpt>
      <trkpt lat="43.91218" lon="5.40015">
        <ele>249</ele>
        <time>2015-09-23T14:21:15.000Z</time>
      </trkpt>
      <trkpt lat="43.91217" lon="5.40018">
        <ele>249</ele>
        <time>2015-09-23T14:21:16.000Z</time>
      </trkpt>
      <trkpt lat="43.91217" lon="5.40022">
        <ele>248</ele>
        <time>2015-09-23T14:21:17.000Z</time>
      </trkpt>
      <trkpt lat="43.91216" lon="5.40025">
        <ele>249</ele>
        <time>2015-09-23T14:21:18.000Z</time>
      </trkpt>
      <trkpt lat="43.91215" lon="5.40029">
        <ele>249</ele>
        <time>2015-09-23T14:21:19.000Z</time>
      </trkpt>
      <trkpt lat="43.91215" lon="5.40032">
        <ele>249</ele>
        <time>2015-09-23T14:21:20.000Z</time>
      </trkpt>
      <trkpt lat="43.91214" lon="5.40035">
        <ele>250</ele>
        <time>2015-09-23T14:21:21.000Z</time>
      </trkpt>
      <trkpt lat="43.91213" lon="5.40039">
        <ele>250</ele>
        <time>2015-09-23T14:21:22.000Z</time>
      </trkpt>
      <trkpt lat="43.91212" lon="5.40042">
        <ele>251</ele>
        <time>2015-09-23T14:21:23.000Z</time>
      </trkpt>
      <trkpt lat="43.91212" lon="5.40046">
        <ele>251</ele>
        <time>2015-09-23T14:21:24.000Z</time>
      </trkpt>
      <trkpt lat="43.91212" lon="5.40049">
        <ele>251</ele>
        <time>2015-09-23T14:21:25.000Z</time>
      </trkpt>
      <trkpt lat="43.91212" lon="5.40053">
        <ele>252</ele>
        <time>2015-09-23T14:21:26.000Z</time>
      </trkpt>
      <trkpt lat="43.91212" lon="5.40056">
        <ele>252</ele>
        <time>2015-09-23T14:21:27.000Z</time>
      </trkpt>
      <trkpt lat="43.91212" lon="5.4006">
        <ele>252</ele>
        <time>2015-09-23T14:21:28.000Z</time>
      </trkpt>
      <trkpt lat="43.91212" lon="5.40063">
        <ele>253</ele>
        <time>2015-09-23T14:21:29.000Z</time>
      </trkpt>
      <trkpt lat="43.91212" lon="5.40066">
        <ele>253</ele>
        <time>2015-09-23T14:21:30.000Z</time>
      </trkpt>
      <trkpt lat="43.91212" lon="5.40069">
        <ele>252</ele>
        <time>2015-09-23T14:21:31.000Z</time>
      </trkpt>
      <trkpt lat="43.91213" lon="5.40072">
        <ele>252</ele>
        <time>2015-09-23T14:21:32.000Z</time>
      </trkpt>
      <trkpt lat="43.91214" lon="5.40076">
        <ele>251</ele>
        <time>2015-09-23T14:21:33.000Z</time>
      </trkpt>
      <trkpt lat="43.91214" lon="5.40079">
        <ele>251</ele>
        <time>2015-09-23T14:21:34.000Z</time>
      </trkpt>
      <trkpt lat="43.91215" lon="5.40082">
        <ele>251</ele>
        <time>2015-09-23T14:21:35.000Z</time>
      </trkpt>
      <trkpt lat="43.91215" lon="5.40085">
        <ele>251</ele>
        <time>2015-09-23T14:21:36.000Z</time>
      </trkpt>
      <trkpt lat="43.91216" lon="5.40088">
        <ele>250</ele>
        <time>2015-09-23T14:21:37.000Z</time>
      </trkpt>
      <trkpt lat="43.91217" lon="5.40091">
        <ele>250</ele>
        <time>2015-09-23T14:21:38.000Z</time>
      </trkpt>
      <trkpt lat="43.91218" lon="5.40094">
        <ele>250</ele>
        <time>2015-09-23T14:21:39.000Z</time>
      </trkpt>
      <trkpt lat="43.91219" lon="5.40097">
        <ele>250</ele>
        <time>2015-09-23T14:21:40.000Z</time>
      </trkpt>
      <trkpt lat="43.9122" lon="5.401">
        <ele>250</ele>
        <time>2015-09-23T14:21:41.000Z</time>
      </trkpt>
      <trkpt lat="43.91221" lon="5.40103">
        <ele>250</ele>
        <time>2015-09-23T14:21:42.000Z</time>
      </trkpt>
      <trkpt lat="43.91222" lon="5.40106">
        <ele>251</ele>
        <time>2015-09-23T14:21:43.000Z</time>
      </trkpt>
      <trkpt lat="43.91224" lon="5.40108">
        <ele>251</ele>
        <time>2015-09-23T14:21:44.000Z</time>
      </trkpt>
      <trkpt lat="43.91225" lon="5.40111">
        <ele>252</ele>
        <time>2015-09-23T14:21:45.000Z</time>
      </trkpt>
      <trkpt lat="43.91227" lon="5.40114">
        <ele>253</ele>
        <time>2015-09-23T14:21:46.000Z</time>
      </trkpt>
      <trkpt lat="43.91228" lon="5.40117">
        <ele>252</ele>
        <time>2015-09-23T14:21:47.000Z</time>
      </trkpt>
      <trkpt lat="43.91229" lon="5.4012">
        <ele>252</ele>
        <time>2015-09-23T14:21:48.000Z</time>
      </trkpt>
      <trkpt lat="43.91231" lon="5.40123">
        <ele>252</ele>
        <time>2015-09-23T14:21:49.000Z</time>
      </trkpt>
      <trkpt lat="43.91232" lon="5.40125">
        <ele>252</ele>
        <time>2015-09-23T14:21:50.000Z</time>
      </trkpt>
      <trkpt lat="43.91233" lon="5.40128">
        <ele>252</ele>
        <time>2015-09-23T14:21:51.000Z</time>
      </trkpt>
      <trkpt lat="43.91234" lon="5.4013">
        <ele>252</ele>
        <time>2015-09-23T14:21:52.000Z</time>
      </trkpt>
      <trkpt lat="43.91235" lon="5.40133">
        <ele>253</ele>
        <time>2015-09-23T14:21:53.000Z</time>
      </trkpt>
      <trkpt lat="43.91236" lon="5.40136">
        <ele>253</ele>
        <time>2015-09-23T14:21:54.000Z</time>
      </trkpt>
      <trkpt lat="43.91237" lon="5.40138">
        <ele>253</ele>
        <time>2015-09-23T14:21:55.000Z</time>
      </trkpt>
      <trkpt lat="43.91238" lon="5.4014">
        <ele>254</ele>
        <time>2015-09-23T14:21:56.000Z</time>
      </trkpt>
      <trkpt lat="43.91239" lon="5.40143">
        <ele>254</ele>
        <time>2015-09-23T14:21:57.000Z</time>
      </trkpt>
      <trkpt lat="43.9124" lon="5.40146">
        <ele>254</ele>
        <time>2015-09-23T14:21:58.000Z</time>
      </trkpt>
      <trkpt lat="43.91241" lon="5.40148">
        <ele>255</ele>
        <time>2015-09-23T14:21:59.000Z</time>
      </trkpt>
      <trkpt lat="43.91243" lon="5.40151">
        <ele>255</ele>
        <time>2015-09-23T14:22:00.000Z</time>
      </trkpt>
      <trkpt lat="43.91244" lon="5.40153">
        <ele>255</ele>
        <time>2015-09-23T14:22:01.000Z</time>
      </trkpt>
      <trkpt lat="43.91245" lon="5.40156">
        <ele>255</ele>
        <time>2015-09-23T14:22:02.000Z</time>
      </trkpt>
      <trkpt lat="43.91246" lon="5.40159">
        <ele>255</ele>
        <time>2015-09-23T14:22:03.000Z</time>
      </trkpt>
      <trkpt lat="43.91247" lon="5.40161">
        <ele>255</ele>
        <time>2015-09-23T14:22:04.000Z</time>
      </trkpt>
      <trkpt lat="43.91248" lon="5.40164">
        <ele>256</ele>
        <time>2015-09-23T14:22:05.000Z</time>
      </trkpt>
      <trkpt lat="43.9125" lon="5.40166">
        <ele>256</ele>
        <time>2015-09-23T14:22:06.000Z</time>
      </trkpt>
      <trkpt lat="43.91251" lon="5.40169">
        <ele>256</ele>
        <time>2015-09-23T14:22:07.000Z</time>
      </trkpt>
      <trkpt lat="43.91252" lon="5.40171">
        <ele>256</ele>
        <time>2015-09-23T14:22:08.000Z</time>
      </trkpt>
      <trkpt lat="43.91254" lon="5.40173">
        <ele>256</ele>
        <time>2015-09-23T14:22:09.000Z</time>
      </trkpt>
      <trkpt lat="43.91255" lon="5.40176">
        <ele>257</ele>
        <time>2015-09-23T14:22:10.000Z</time>
      </trkpt>
      <trkpt lat="43.91256" lon="5.40178">
        <ele>257</ele>
        <time>2015-09-23T14:22:11.000Z</time>
      </trkpt>
      <trkpt lat="43.91258" lon="5.40181">
        <ele>257</ele>
        <time>2015-09-23T14:22:12.000Z</time>
      </trkpt>
      <trkpt lat="43.91259" lon="5.40184">
        <ele>258</ele>
        <time>2015-09-23T14:22:13.000Z</time>
      </trkpt>
      <trkpt lat="43.9126" lon="5.40186">
        <ele>258</ele>
        <time>2015-09-23T14:22:14.000Z</time>
      </trkpt>
      <trkpt lat="43.91262" lon="5.40189">
        <ele>258</ele>
        <time>2015-09-23T14:22:15.000Z</time>
      </trkpt>
      <trkpt lat="43.91263" lon="5.40192">
        <ele>259</ele>
        <time>2015-09-23T14:22:16.000Z</time>
      </trkpt>
      <trkpt lat="43.91265" lon="5.40195">
        <ele>259</ele>
        <time>2015-09-23T14:22:17.000Z</time>
      </trkpt>
      <trkpt lat="43.91267" lon="5.40198">
        <ele>259</ele>
        <time>2015-09-23T14:22:18.000Z</time>
      </trkpt>
      <trkpt lat="43.91268" lon="5.40201">
        <ele>260</ele>
        <time>2015-09-23T14:22:19.000Z</time>
      </trkpt>
      <trkpt lat="43.91269" lon="5.40204">
        <ele>259</ele>
        <time>2015-09-23T14:22:20.000Z</time>
      </trkpt>
      <trkpt lat="43.91271" lon="5.40207">
        <ele>260</ele>
        <time>2015-09-23T14:22:21.000Z</time>
      </trkpt>
      <trkpt lat="43.91272" lon="5.40209">
        <ele>260</ele>
        <time>2015-09-23T14:22:22.000Z</time>
      </trkpt>
      <trkpt lat="43.91273" lon="5.40212">
        <ele>259</ele>
        <time>2015-09-23T14:22:23.000Z</time>
      </trkpt>
      <trkpt lat="43.91274" lon="5.40215">
        <ele>259</ele>
        <time>2015-09-23T14:22:24.000Z</time>
      </trkpt>
      <trkpt lat="43.91275" lon="5.40218">
        <ele>259</ele>
        <time>2015-09-23T14:22:25.000Z</time>
      </trkpt>
      <trkpt lat="43.91276" lon="5.40221">
        <ele>260</ele>
        <time>2015-09-23T14:22:26.000Z</time>
      </trkpt>
      <trkpt lat="43.91277" lon="5.40224">
        <ele>260</ele>
        <time>2015-09-23T14:22:27.000Z</time>
      </trkpt>
      <trkpt lat="43.91279" lon="5.40227">
        <ele>260</ele>
        <time>2015-09-23T14:22:28.000Z</time>
      </trkpt>
      <trkpt lat="43.9128" lon="5.4023">
        <ele>260</ele>
        <time>2015-09-23T14:22:29.000Z</time>
      </trkpt>
      <trkpt lat="43.91281" lon="5.40233">
        <ele>260</ele>
        <time>2015-09-23T14:22:30.000Z</time>
      </trkpt>
      <trkpt lat="43.91283" lon="5.40236">
        <ele>261</ele>
        <time>2015-09-23T14:22:31.000Z</time>
      </trkpt>
      <trkpt lat="43.91284" lon="5.40239">
        <ele>261</ele>
        <time>2015-09-23T14:22:32.000Z</time>
      </trkpt>
      <trkpt lat="43.91285" lon="5.40242">
        <ele>260</ele>
        <time>2015-09-23T14:22:33.000Z</time>
      </trkpt>
      <trkpt lat="43.91286" lon="5.40245">
        <ele>260</ele>
        <time>2015-09-23T14:22:34.000Z</time>
      </trkpt>
      <trkpt lat="43.91287" lon="5.40248">
        <ele>260</ele>
        <time>2015-09-23T14:22:35.000Z</time>
      </trkpt>
      <trkpt lat="43.91289" lon="5.4025">
        <ele>261</ele>
        <time>2015-09-23T14:22:36.000Z</time>
      </trkpt>
      <trkpt lat="43.9129" lon="5.40253">
        <ele>261</ele>
        <time>2015-09-23T14:22:37.000Z</time>
      </trkpt>
      <trkpt lat="43.91291" lon="5.40255">
        <ele>261</ele>
        <time>2015-09-23T14:22:38.000Z</time>
      </trkpt>
      <trkpt lat="43.91292" lon="5.40258">
        <ele>261</ele>
        <time>2015-09-23T14:22:39.000Z</time>
      </trkpt>
      <trkpt lat="43.91294" lon="5.40261">
        <ele>261</ele>
        <time>2015-09-23T14:22:40.000Z</time>
      </trkpt>
      <trkpt lat="43.91295" lon="5.40263">
        <ele>262</ele>
        <time>2015-09-23T14:22:41.000Z</time>
      </trkpt>
      <trkpt lat="43.91296" lon="5.40266">
        <ele>262</ele>
        <time>2015-09-23T14:22:42.000Z</time>
      </trkpt>
      <trkpt lat="43.91297" lon="5.40269">
        <ele>262</ele>
        <time>2015-09-23T14:22:43.000Z</time>
      </trkpt>
      <trkpt lat="43.91298" lon="5.40271">
        <ele>262</ele>
        <time>2015-09-23T14:22:44.000Z</time>
      </trkpt>
      <trkpt lat="43.91299" lon="5.40274">
        <ele>261</ele>
        <time>2015-09-23T14:22:45.000Z</time>
      </trkpt>
      <trkpt lat="43.91299" lon="5.40277">
        <ele>261</ele>
        <time>2015-09-23T14:22:46.000Z</time>
      </trkpt>
      <trkpt lat="43.913" lon="5.40279">
        <ele>261</ele>
        <time>2015-09-23T14:22:47.000Z</time>
      </trkpt>
      <trkpt lat="43.91301" lon="5.40282">
        <ele>261</ele>
        <time>2015-09-23T14:22:48.000Z</time>
      </trkpt>
      <trkpt lat="43.91302" lon="5.40285">
        <ele>261</ele>
        <time>2015-09-23T14:22:49.000Z</time>
      </trkpt>
      <trkpt lat="43.91303" lon="5.40287">
        <ele>262</ele>
        <time>2015-09-23T14:22:50.000Z</time>
      </trkpt>
      <trkpt lat="43.91304" lon="5.4029">
        <ele>261</ele>
        <time>2015-09-23T14:22:51.000Z</time>
      </trkpt>
      <trkpt lat="43.91305" lon="5.40293">
        <ele>262</ele>
        <time>2015-09-23T14:22:52.000Z</time>
      </trkpt>
      <trkpt lat="43.91306" lon="5.40295">
        <ele>262</ele>
        <time>2015-09-23T14:22:53.000Z</time>
      </trkpt>
      <trkpt lat="43.91307" lon="5.40298">
        <ele>262</ele>
        <time>2015-09-23T14:22:54.000Z</time>
      </trkpt>
      <trkpt lat="43.91308" lon="5.403">
        <ele>263</ele>
        <time>2015-09-23T14:22:55.000Z</time>
      </trkpt>
      <trkpt lat="43.91309" lon="5.40303">
        <ele>263</ele>
        <time>2015-09-23T14:22:56.000Z</time>
      </trkpt>
      <trkpt lat="43.9131" lon="5.40305">
        <ele>264</ele>
        <time>2015-09-23T14:22:57.000Z</time>
      </trkpt>
      <trkpt lat="43.91311" lon="5.40308">
        <ele>264</ele>
        <time>2015-09-23T14:22:58.000Z</time>
      </trkpt>
      <trkpt lat="43.91312" lon="5.4031">
        <ele>264</ele>
        <time>2015-09-23T14:22:59.000Z</time>
      </trkpt>
      <trkpt lat="43.91313" lon="5.40313">
        <ele>264</ele>
        <time>2015-09-23T14:23:00.000Z</time>
      </trkpt>
      <trkpt lat="43.91314" lon="5.40316">
        <ele>265</ele>
        <time>2015-09-23T14:23:01.000Z</time>
      </trkpt>
      <trkpt lat="43.91316" lon="5.40318">
        <ele>265</ele>
        <time>2015-09-23T14:23:02.000Z</time>
      </trkpt>
      <trkpt lat="43.91317" lon="5.40321">
        <ele>265</ele>
        <time>2015-09-23T14:23:03.000Z</time>
      </trkpt>
      <trkpt lat="43.91318" lon="5.40324">
        <ele>265</ele>
        <time>2015-09-23T14:23:04.000Z</time>
      </trkpt>
      <trkpt lat="43.91319" lon="5.40326">
        <ele>265</ele>
        <time>2015-09-23T14:23:05.000Z</time>
      </trkpt>
      <trkpt lat="43.9132" lon="5.40329">
        <ele>265</ele>
        <time>2015-09-23T14:23:06.000Z</time>
      </trkpt>
      <trkpt lat="43.91321" lon="5.40331">
        <ele>265</ele>
        <time>2015-09-23T14:23:07.000Z</time>
      </trkpt>
      <trkpt lat="43.91322" lon="5.40334">
        <ele>265</ele>
        <time>2015-09-23T14:23:08.000Z</time>
      </trkpt>
      <trkpt lat="43.91323" lon="5.40336">
        <ele>265</ele>
        <time>2015-09-23T14:23:09.000Z</time>
      </trkpt>
      <trkpt lat="43.91324" lon="5.40339">
        <ele>265</ele>
        <time>2015-09-23T14:23:10.000Z</time>
      </trkpt>
      <trkpt lat="43.91325" lon="5.40341">
        <ele>265</ele>
        <time>2015-09-23T14:23:11.000Z</time>
      </trkpt>
      <trkpt lat="43.91326" lon="5.40344">
        <ele>265</ele>
        <time>2015-09-23T14:23:12.000Z</time>
      </trkpt>
      <trkpt lat="43.91327" lon="5.40346">
        <ele>265</ele>
        <time>2015-09-23T14:23:13.000Z</time>
      </trkpt>
      <trkpt lat="43.91328" lon="5.40349">
        <ele>264</ele>
        <time>2015-09-23T14:23:14.000Z</time>
      </trkpt>
      <trkpt lat="43.91329" lon="5.40351">
        <ele>264</ele>
        <time>2015-09-23T14:23:15.000Z</time>
      </trkpt>
      <trkpt lat="43.9133" lon="5.40354">
        <ele>264</ele>
        <time>2015-09-23T14:23:16.000Z</time>
      </trkpt>
      <trkpt lat="43.91331" lon="5.40356">
        <ele>264</ele>
        <time>2015-09-23T14:23:17.000Z</time>
      </trkpt>
      <trkpt lat="43.91332" lon="5.40358">
        <ele>265</ele>
        <time>2015-09-23T14:23:18.000Z</time>
      </trkpt>
      <trkpt lat="43.91333" lon="5.4036">
        <ele>265</ele>
        <time>2015-09-23T14:23:19.000Z</time>
      </trkpt>
      <trkpt lat="43.91333" lon="5.40361">
        <ele>264</ele>
        <time>2015-09-23T14:23:20.000Z</time>
      </trkpt>
      <trkpt lat="43.91334" lon="5.40364">
        <ele>264</ele>
        <time>2015-09-23T14:23:21.000Z</time>
      </trkpt>
      <trkpt lat="43.91335" lon="5.40366">
        <ele>264</ele>
        <time>2015-09-23T14:23:22.000Z</time>
      </trkpt>
      <trkpt lat="43.91336" lon="5.40368">
        <ele>264</ele>
        <time>2015-09-23T14:23:23.000Z</time>
      </trkpt>
      <trkpt lat="43.91337" lon="5.40371">
        <ele>264</ele>
        <time>2015-09-23T14:23:24.000Z</time>
      </trkpt>
      <trkpt lat="43.91338" lon="5.40373">
        <ele>264</ele>
        <time>2015-09-23T14:23:25.000Z</time>
      </trkpt>
      <trkpt lat="43.91339" lon="5.40375">
        <ele>265</ele>
        <time>2015-09-23T14:23:26.000Z</time>
      </trkpt>
      <trkpt lat="43.9134" lon="5.40378">
        <ele>265</ele>
        <time>2015-09-23T14:23:27.000Z</time>
      </trkpt>
      <trkpt lat="43.91341" lon="5.4038">
        <ele>265</ele>
        <time>2015-09-23T14:23:28.000Z</time>
      </trkpt>
      <trkpt lat="43.91343" lon="5.40383">
        <ele>266</ele>
        <time>2015-09-23T14:23:29.000Z</time>
      </trkpt>
      <trkpt lat="43.91344" lon="5.40386">
        <ele>267</ele>
        <time>2015-09-23T14:23:30.000Z</time>
      </trkpt>
      <trkpt lat="43.91345" lon="5.40388">
        <ele>267</ele>
        <time>2015-09-23T14:23:31.000Z</time>
      </trkpt>
      <trkpt lat="43.91346" lon="5.4039">
        <ele>268</ele>
        <time>2015-09-23T14:23:32.000Z</time>
      </trkpt>
      <trkpt lat="43.91347" lon="5.40393">
        <ele>268</ele>
        <time>2015-09-23T14:23:33.000Z</time>
      </trkpt>
      <trkpt lat="43.91348" lon="5.40395">
        <ele>269</ele>
        <time>2015-09-23T14:23:34.000Z</time>
      </trkpt>
      <trkpt lat="43.9135" lon="5.40397">
        <ele>269</ele>
        <time>2015-09-23T14:23:35.000Z</time>
      </trkpt>
      <trkpt lat="43.91351" lon="5.404">
        <ele>269</ele>
        <time>2015-09-23T14:23:36.000Z</time>
      </trkpt>
      <trkpt lat="43.91352" lon="5.40402">
        <ele>269</ele>
        <time>2015-09-23T14:23:37.000Z</time>
      </trkpt>
      <trkpt lat="43.91353" lon="5.40404">
        <ele>270</ele>
        <time>2015-09-23T14:23:38.000Z</time>
      </trkpt>
      <trkpt lat="43.91354" lon="5.40407">
        <ele>270</ele>
        <time>2015-09-23T14:23:39.000Z</time>
      </trkpt>
      <trkpt lat="43.91355" lon="5.40409">
        <ele>270</ele>
        <time>2015-09-23T14:23:40.000Z</time>
      </trkpt>
      <trkpt lat="43.91356" lon="5.40412">
        <ele>270</ele>
        <time>2015-09-23T14:23:41.000Z</time>
      </trkpt>
      <trkpt lat="43.91357" lon="5.40414">
        <ele>270</ele>
        <time>2015-09-23T14:23:42.000Z</time>
      </trkpt>
      <trkpt lat="43.91358" lon="5.40416">
        <ele>270</ele>
        <time>2015-09-23T14:23:43.000Z</time>
      </trkpt>
      <trkpt lat="43.91359" lon="5.40419">
        <ele>270</ele>
        <time>2015-09-23T14:23:44.000Z</time>
      </trkpt>
      <trkpt lat="43.9136" lon="5.40421">
        <ele>270</ele>
        <time>2015-09-23T14:23:45.000Z</time>
      </trkpt>
      <trkpt lat="43.91361" lon="5.40423">
        <ele>269</ele>
        <time>2015-09-23T14:23:46.000Z</time>
      </trkpt>
      <trkpt lat="43.91362" lon="5.40426">
        <ele>270</ele>
        <time>2015-09-23T14:23:47.000Z</time>
      </trkpt>
      <trkpt lat="43.91363" lon="5.40428">
        <ele>270</ele>
        <time>2015-09-23T14:23:48.000Z</time>
      </trkpt>
      <trkpt lat="43.91364" lon="5.4043">
        <ele>270</ele>
        <time>2015-09-23T14:23:49.000Z</time>
      </trkpt>
      <trkpt lat="43.91365" lon="5.40432">
        <ele>271</ele>
        <time>2015-09-23T14:23:50.000Z</time>
      </trkpt>
      <trkpt lat="43.91366" lon="5.40435">
        <ele>271</ele>
        <time>2015-09-23T14:23:51.000Z</time>
      </trkpt>
      <trkpt lat="43.91367" lon="5.40437">
        <ele>271</ele>
        <time>2015-09-23T14:23:52.000Z</time>
      </trkpt>
      <trkpt lat="43.91367" lon="5.40439">
        <ele>273</ele>
        <time>2015-09-23T14:23:53.000Z</time>
      </trkpt>
      <trkpt lat="43.91368" lon="5.40441">
        <ele>273</ele>
        <time>2015-09-23T14:23:54.000Z</time>
      </trkpt>
      <trkpt lat="43.91369" lon="5.40443">
        <ele>273</ele>
        <time>2015-09-23T14:23:55.000Z</time>
      </trkpt>
      <trkpt lat="43.9137" lon="5.40445">
        <ele>274</ele>
        <time>2015-09-23T14:23:56.000Z</time>
      </trkpt>
      <trkpt lat="43.91371" lon="5.40447">
        <ele>274</ele>
        <time>2015-09-23T14:23:57.000Z</time>
      </trkpt>
      <trkpt lat="43.91372" lon="5.40449">
        <ele>274</ele>
        <time>2015-09-23T14:23:58.000Z</time>
      </trkpt>
      <trkpt lat="43.91373" lon="5.40451">
        <ele>274</ele>
        <time>2015-09-23T14:23:59.000Z</time>
      </trkpt>
      <trkpt lat="43.91374" lon="5.40454">
        <ele>275</ele>
        <time>2015-09-23T14:24:00.000Z</time>
      </trkpt>
      <trkpt lat="43.91375" lon="5.40456">
        <ele>275</ele>
        <time>2015-09-23T14:24:01.000Z</time>
      </trkpt>
      <trkpt lat="43.91375" lon="5.40458">
        <ele>275</ele>
        <time>2015-09-23T14:24:02.000Z</time>
      </trkpt>
      <trkpt lat="43.91376" lon="5.4046">
        <ele>276</ele>
        <time>2015-09-23T14:24:03.000Z</time>
      </trkpt>
      <trkpt lat="43.91377" lon="5.40463">
        <ele>276</ele>
        <time>2015-09-23T14:24:04.000Z</time>
      </trkpt>
      <trkpt lat="43.91378" lon="5.40465">
        <ele>276</ele>
        <time>2015-09-23T14:24:05.000Z</time>
      </trkpt>
      <trkpt lat="43.91379" lon="5.40468">
        <ele>277</ele>
        <time>2015-09-23T14:24:06.000Z</time>
      </trkpt>
      <trkpt lat="43.91379" lon="5.4047">
        <ele>277</ele>
        <time>2015-09-23T14:24:07.000Z</time>
      </trkpt>
      <trkpt lat="43.9138" lon="5.40472">
        <ele>277</ele>
        <time>2015-09-23T14:24:08.000Z</time>
      </trkpt>
      <trkpt lat="43.9138" lon="5.40475">
        <ele>278</ele>
        <time>2015-09-23T14:24:09.000Z</time>
      </trkpt>
      <trkpt lat="43.91381" lon="5.40477">
        <ele>278</ele>
        <time>2015-09-23T14:24:10.000Z</time>
      </trkpt>
      <trkpt lat="43.91382" lon="5.40479">
        <ele>278</ele>
        <time>2015-09-23T14:24:11.000Z</time>
      </trkpt>
      <trkpt lat="43.91383" lon="5.40481">
        <ele>279</ele>
        <time>2015-09-23T14:24:12.000Z</time>
      </trkpt>
      <trkpt lat="43.91383" lon="5.40483">
        <ele>279</ele>
        <time>2015-09-23T14:24:13.000Z</time>
      </trkpt>
      <trkpt lat="43.91383" lon="5.40486">
        <ele>280</ele>
        <time>2015-09-23T14:24:14.000Z</time>
      </trkpt>
      <trkpt lat="43.91384" lon="5.40488">
        <ele>280</ele>
        <time>2015-09-23T14:24:15.000Z</time>
      </trkpt>
      <trkpt lat="43.91384" lon="5.4049">
        <ele>281</ele>
        <time>2015-09-23T14:24:16.000Z</time>
      </trkpt>
      <trkpt lat="43.91384" lon="5.40492">
        <ele>281</ele>
        <time>2015-09-23T14:24:17.000Z</time>
      </trkpt>
      <trkpt lat="43.91385" lon="5.40494">
        <ele>281</ele>
        <time>2015-09-23T14:24:18.000Z</time>
      </trkpt>
      <trkpt lat="43.91385" lon="5.40497">
        <ele>281</ele>
        <time>2015-09-23T14:24:19.000Z</time>
      </trkpt>
      <trkpt lat="43.91385" lon="5.40499">
        <ele>281</ele>
        <time>2015-09-23T14:24:20.000Z</time>
      </trkpt>
      <trkpt lat="43.91385" lon="5.40501">
        <ele>281</ele>
        <time>2015-09-23T14:24:21.000Z</time>
      </trkpt>
      <trkpt lat="43.91386" lon="5.40503">
        <ele>281</ele>
        <time>2015-09-23T14:24:22.000Z</time>
      </trkpt>
      <trkpt lat="43.91386" lon="5.40505">
        <ele>282</ele>
        <time>2015-09-23T14:24:23.000Z</time>
      </trkpt>
      <trkpt lat="43.91386" lon="5.40508">
        <ele>282</ele>
        <time>2015-09-23T14:24:24.000Z</time>
      </trkpt>
      <trkpt lat="43.91387" lon="5.4051">
        <ele>282</ele>
        <time>2015-09-23T14:24:25.000Z</time>
      </trkpt>
      <trkpt lat="43.91387" lon="5.40512">
        <ele>283</ele>
        <time>2015-09-23T14:24:26.000Z</time>
      </trkpt>
      <trkpt lat="43.91387" lon="5.40514">
        <ele>283</ele>
        <time>2015-09-23T14:24:27.000Z</time>
      </trkpt>
      <trkpt lat="43.91388" lon="5.40517">
        <ele>283</ele>
        <time>2015-09-23T14:24:28.000Z</time>
      </trkpt>
      <trkpt lat="43.91388" lon="5.40519">
        <ele>283</ele>
        <time>2015-09-23T14:24:29.000Z</time>
      </trkpt>
      <trkpt lat="43.91388" lon="5.40521">
        <ele>283</ele>
        <time>2015-09-23T14:24:30.000Z</time>
      </trkpt>
      <trkpt lat="43.91388" lon="5.40523">
        <ele>283</ele>
        <time>2015-09-23T14:24:31.000Z</time>
      </trkpt>
      <trkpt lat="43.91388" lon="5.40526">
        <ele>284</ele>
        <time>2015-09-23T14:24:32.000Z</time>
      </trkpt>
      <trkpt lat="43.91389" lon="5.40529">
        <ele>284</ele>
        <time>2015-09-23T14:24:33.000Z</time>
      </trkpt>
      <trkpt lat="43.91389" lon="5.40531">
        <ele>284</ele>
        <time>2015-09-23T14:24:34.000Z</time>
      </trkpt>
      <trkpt lat="43.91389" lon="5.40533">
        <ele>284</ele>
        <time>2015-09-23T14:24:35.000Z</time>
      </trkpt>
      <trkpt lat="43.9139" lon="5.40536">
        <ele>284</ele>
        <time>2015-09-23T14:24:36.000Z</time>
      </trkpt>
      <trkpt lat="43.9139" lon="5.40537">
        <ele>283</ele>
        <time>2015-09-23T14:24:37.000Z</time>
      </trkpt>
      <trkpt lat="43.91391" lon="5.40539">
        <ele>284</ele>
        <time>2015-09-23T14:24:38.000Z</time>
      </trkpt>
      <trkpt lat="43.91391" lon="5.40541">
        <ele>283</ele>
        <time>2015-09-23T14:24:39.000Z</time>
      </trkpt>
      <trkpt lat="43.91392" lon="5.40544">
        <ele>282</ele>
        <time>2015-09-23T14:24:40.000Z</time>
      </trkpt>
      <trkpt lat="43.91393" lon="5.40546">
        <ele>282</ele>
        <time>2015-09-23T14:24:41.000Z</time>
      </trkpt>
      <trkpt lat="43.91394" lon="5.40547">
        <ele>282</ele>
        <time>2015-09-23T14:24:42.000Z</time>
      </trkpt>
      <trkpt lat="43.91394" lon="5.40549">
        <ele>281</ele>
        <time>2015-09-23T14:24:43.000Z</time>
      </trkpt>
      <trkpt lat="43.91395" lon="5.40551">
        <ele>281</ele>
        <time>2015-09-23T14:24:44.000Z</time>
      </trkpt>
      <trkpt lat="43.91396" lon="5.40553">
        <ele>280</ele>
        <time>2015-09-23T14:24:45.000Z</time>
      </trkpt>
      <trkpt lat="43.91397" lon="5.40555">
        <ele>280</ele>
        <time>2015-09-23T14:24:46.000Z</time>
      </trkpt>
      <trkpt lat="43.91398" lon="5.40557">
        <ele>280</ele>
        <time>2015-09-23T14:24:47.000Z</time>
      </trkpt>
      <trkpt lat="43.91399" lon="5.40559">
        <ele>280</ele>
        <time>2015-09-23T14:24:48.000Z</time>
      </trkpt>
      <trkpt lat="43.914" lon="5.40562">
        <ele>280</ele>
        <time>2015-09-23T14:24:49.000Z</time>
      </trkpt>
      <trkpt lat="43.91401" lon="5.40564">
        <ele>280</ele>
        <time>2015-09-23T14:24:50.000Z</time>
      </trkpt>
      <trkpt lat="43.91403" lon="5.40567">
        <ele>280</ele>
        <time>2015-09-23T14:24:51.000Z</time>
      </trkpt>
      <trkpt lat="43.91404" lon="5.4057">
        <ele>280</ele>
        <time>2015-09-23T14:24:52.000Z</time>
      </trkpt>
      <trkpt lat="43.91405" lon="5.40572">
        <ele>280</ele>
        <time>2015-09-23T14:24:53.000Z</time>
      </trkpt>
      <trkpt lat="43.91405" lon="5.40576">
        <ele>280</ele>
        <time>2015-09-23T14:24:54.000Z</time>
      </trkpt>
      <trkpt lat="43.91406" lon="5.40579">
        <ele>280</ele>
        <time>2015-09-23T14:24:55.000Z</time>
      </trkpt>
      <trkpt lat="43.91406" lon="5.40582">
        <ele>280</ele>
        <time>2015-09-23T14:24:56.000Z</time>
      </trkpt>
      <trkpt lat="43.91407" lon="5.40585">
        <ele>280</ele>
        <time>2015-09-23T14:24:57.000Z</time>
      </trkpt>
      <trkpt lat="43.91407" lon="5.40588">
        <ele>279</ele>
        <time>2015-09-23T14:24:58.000Z</time>
      </trkpt>
      <trkpt lat="43.91407" lon="5.40591">
        <ele>279</ele>
        <time>2015-09-23T14:24:59.000Z</time>
      </trkpt>
      <trkpt lat="43.91407" lon="5.40594">
        <ele>279</ele>
        <time>2015-09-23T14:25:00.000Z</time>
      </trkpt>
      <trkpt lat="43.91408" lon="5.40597">
        <ele>278</ele>
        <time>2015-09-23T14:25:01.000Z</time>
      </trkpt>
      <trkpt lat="43.91408" lon="5.406">
        <ele>278</ele>
        <time>2015-09-23T14:25:02.000Z</time>
      </trkpt>
      <trkpt lat="43.91408" lon="5.40603">
        <ele>278</ele>
        <time>2015-09-23T14:25:03.000Z</time>
      </trkpt>
      <trkpt lat="43.91408" lon="5.40606">
        <ele>278</ele>
        <time>2015-09-23T14:25:04.000Z</time>
      </trkpt>
      <trkpt lat="43.91408" lon="5.40609">
        <ele>278</ele>
        <time>2015-09-23T14:25:05.000Z</time>
      </trkpt>
      <trkpt lat="43.91408" lon="5.40612">
        <ele>278</ele>
        <time>2015-09-23T14:25:06.000Z</time>
      </trkpt>
      <trkpt lat="43.91408" lon="5.40615">
        <ele>278</ele>
        <time>2015-09-23T14:25:07.000Z</time>
      </trkpt>
      <trkpt lat="43.91408" lon="5.40618">
        <ele>278</ele>
        <time>2015-09-23T14:25:08.000Z</time>
      </trkpt>
      <trkpt lat="43.91408" lon="5.40622">
        <ele>278</ele>
        <time>2015-09-23T14:25:09.000Z</time>
      </trkpt>
      <trkpt lat="43.91408" lon="5.40625">
        <ele>278</ele>
        <time>2015-09-23T14:25:10.000Z</time>
      </trkpt>
      <trkpt lat="43.91407" lon="5.40628">
        <ele>278</ele>
        <time>2015-09-23T14:25:11.000Z</time>
      </trkpt>
      <trkpt lat="43.91407" lon="5.40632">
        <ele>278</ele>
        <time>2015-09-23T14:25:12.000Z</time>
      </trkpt>
      <trkpt lat="43.91407" lon="5.40635">
        <ele>277</ele>
        <time>2015-09-23T14:25:13.000Z</time>
      </trkpt>
      <trkpt lat="43.91407" lon="5.40638">
        <ele>277</ele>
        <time>2015-09-23T14:25:14.000Z</time>
      </trkpt>
      <trkpt lat="43.91407" lon="5.40641">
        <ele>278</ele>
        <time>2015-09-23T14:25:15.000Z</time>
      </trkpt>
      <trkpt lat="43.91406" lon="5.40644">
        <ele>277</ele>
        <time>2015-09-23T14:25:16.000Z</time>
      </trkpt>
      <trkpt lat="43.91406" lon="5.40647">
        <ele>277</ele>
        <time>2015-09-23T14:25:17.000Z</time>
      </trkpt>
      <trkpt lat="43.91406" lon="5.40651">
        <ele>277</ele>
        <time>2015-09-23T14:25:18.000Z</time>
      </trkpt>
      <trkpt lat="43.91406" lon="5.40654">
        <ele>277</ele>
        <time>2015-09-23T14:25:19.000Z</time>
      </trkpt>
      <trkpt lat="43.91405" lon="5.40657">
        <ele>277</ele>
        <time>2015-09-23T14:25:20.000Z</time>
      </trkpt>
      <trkpt lat="43.91406" lon="5.4066">
        <ele>277</ele>
        <time>2015-09-23T14:25:21.000Z</time>
      </trkpt>
      <trkpt lat="43.91406" lon="5.40663">
        <ele>277</ele>
        <time>2015-09-23T14:25:22.000Z</time>
      </trkpt>
      <trkpt lat="43.91407" lon="5.40666">
        <ele>277</ele>
        <time>2015-09-23T14:25:23.000Z</time>
      </trkpt>
      <trkpt lat="43.91407" lon="5.4067">
        <ele>278</ele>
        <time>2015-09-23T14:25:24.000Z</time>
      </trkpt>
      <trkpt lat="43.91407" lon="5.40673">
        <ele>277</ele>
        <time>2015-09-23T14:25:25.000Z</time>
      </trkpt>
      <trkpt lat="43.91407" lon="5.40676">
        <ele>278</ele>
        <time>2015-09-23T14:25:26.000Z</time>
      </trkpt>
      <trkpt lat="43.91407" lon="5.40679">
        <ele>278</ele>
        <time>2015-09-23T14:25:27.000Z</time>
      </trkpt>
      <trkpt lat="43.91408" lon="5.40682">
        <ele>278</ele>
        <time>2015-09-23T14:25:28.000Z</time>
      </trkpt>
      <trkpt lat="43.91408" lon="5.40685">
        <ele>278</ele>
        <time>2015-09-23T14:25:29.000Z</time>
      </trkpt>
      <trkpt lat="43.91408" lon="5.40688">
        <ele>278</ele>
        <time>2015-09-23T14:25:30.000Z</time>
      </trkpt>
      <trkpt lat="43.91408" lon="5.40691">
        <ele>278</ele>
        <time>2015-09-23T14:25:31.000Z</time>
      </trkpt>
      <trkpt lat="43.91409" lon="5.40693">
        <ele>279</ele>
        <time>2015-09-23T14:25:32.000Z</time>
      </trkpt>
      <trkpt lat="43.91409" lon="5.40695">
        <ele>279</ele>
        <time>2015-09-23T14:25:33.000Z</time>
      </trkpt>
      <trkpt lat="43.9141" lon="5.40698">
        <ele>280</ele>
        <time>2015-09-23T14:25:34.000Z</time>
      </trkpt>
      <trkpt lat="43.91411" lon="5.407">
        <ele>280</ele>
        <time>2015-09-23T14:25:35.000Z</time>
      </trkpt>
      <trkpt lat="43.91412" lon="5.40703">
        <ele>280</ele>
        <time>2015-09-23T14:25:36.000Z</time>
      </trkpt>
      <trkpt lat="43.91413" lon="5.40705">
        <ele>280</ele>
        <time>2015-09-23T14:25:37.000Z</time>
      </trkpt>
      <trkpt lat="43.91414" lon="5.40706">
        <ele>281</ele>
        <time>2015-09-23T14:25:38.000Z</time>
      </trkpt>
      <trkpt lat="43.91416" lon="5.40708">
        <ele>281</ele>
        <time>2015-09-23T14:25:39.000Z</time>
      </trkpt>
      <trkpt lat="43.91418" lon="5.40709">
        <ele>282</ele>
        <time>2015-09-23T14:25:40.000Z</time>
      </trkpt>
      <trkpt lat="43.9142" lon="5.4071">
        <ele>282</ele>
        <time>2015-09-23T14:25:41.000Z</time>
      </trkpt>
      <trkpt lat="43.91422" lon="5.40711">
        <ele>283</ele>
        <time>2015-09-23T14:25:42.000Z</time>
      </trkpt>
      <trkpt lat="43.91424" lon="5.40712">
        <ele>283</ele>
        <time>2015-09-23T14:25:43.000Z</time>
      </trkpt>
      <trkpt lat="43.91426" lon="5.40713">
        <ele>283</ele>
        <time>2015-09-23T14:25:44.000Z</time>
      </trkpt>
      <trkpt lat="43.91428" lon="5.40714">
        <ele>283</ele>
        <time>2015-09-23T14:25:45.000Z</time>
      </trkpt>
      <trkpt lat="43.9143" lon="5.40714">
        <ele>283</ele>
        <time>2015-09-23T14:25:46.000Z</time>
      </trkpt>
      <trkpt lat="43.91432" lon="5.40715">
        <ele>283</ele>
        <time>2015-09-23T14:25:47.000Z</time>
      </trkpt>
      <trkpt lat="43.91434" lon="5.40715">
        <ele>282</ele>
        <time>2015-09-23T14:25:48.000Z</time>
      </trkpt>
      <trkpt lat="43.91435" lon="5.40715">
        <ele>282</ele>
        <time>2015-09-23T14:25:49.000Z</time>
      </trkpt>
      <trkpt lat="43.91437" lon="5.40716">
        <ele>282</ele>
        <time>2015-09-23T14:25:50.000Z</time>
      </trkpt>
      <trkpt lat="43.91439" lon="5.40716">
        <ele>282</ele>
        <time>2015-09-23T14:25:51.000Z</time>
      </trkpt>
      <trkpt lat="43.91441" lon="5.40716">
        <ele>283</ele>
        <time>2015-09-23T14:25:52.000Z</time>
      </trkpt>
      <trkpt lat="43.91443" lon="5.40717">
        <ele>282</ele>
        <time>2015-09-23T14:25:53.000Z</time>
      </trkpt>
      <trkpt lat="43.91445" lon="5.40717">
        <ele>282</ele>
        <time>2015-09-23T14:25:54.000Z</time>
      </trkpt>
      <trkpt lat="43.91447" lon="5.40718">
        <ele>282</ele>
        <time>2015-09-23T14:25:55.000Z</time>
      </trkpt>
      <trkpt lat="43.91449" lon="5.40718">
        <ele>282</ele>
        <time>2015-09-23T14:25:56.000Z</time>
      </trkpt>
      <trkpt lat="43.91451" lon="5.40719">
        <ele>282</ele>
        <time>2015-09-23T14:25:57.000Z</time>
      </trkpt>
      <trkpt lat="43.91453" lon="5.4072">
        <ele>282</ele>
        <time>2015-09-23T14:25:58.000Z</time>
      </trkpt>
      <trkpt lat="43.91455" lon="5.40721">
        <ele>283</ele>
        <time>2015-09-23T14:25:59.000Z</time>
      </trkpt>
      <trkpt lat="43.91457" lon="5.40721">
        <ele>283</ele>
        <time>2015-09-23T14:26:00.000Z</time>
      </trkpt>
      <trkpt lat="43.91459" lon="5.40722">
        <ele>283</ele>
        <time>2015-09-23T14:26:01.000Z</time>
      </trkpt>
      <trkpt lat="43.91461" lon="5.40722">
        <ele>283</ele>
        <time>2015-09-23T14:26:02.000Z</time>
      </trkpt>
      <trkpt lat="43.91462" lon="5.40723">
        <ele>283</ele>
        <time>2015-09-23T14:26:03.000Z</time>
      </trkpt>
      <trkpt lat="43.91464" lon="5.40723">
        <ele>283</ele>
        <time>2015-09-23T14:26:04.000Z</time>
      </trkpt>
      <trkpt lat="43.91466" lon="5.40724">
        <ele>282</ele>
        <time>2015-09-23T14:26:05.000Z</time>
      </trkpt>
      <trkpt lat="43.91468" lon="5.40725">
        <ele>283</ele>
        <time>2015-09-23T14:26:06.000Z</time>
      </trkpt>
      <trkpt lat="43.9147" lon="5.40725">
        <ele>283</ele>
        <time>2015-09-23T14:26:07.000Z</time>
      </trkpt>
      <trkpt lat="43.91472" lon="5.40726">
        <ele>283</ele>
        <time>2015-09-23T14:26:08.000Z</time>
      </trkpt>
      <trkpt lat="43.91474" lon="5.40727">
        <ele>283</ele>
        <time>2015-09-23T14:26:09.000Z</time>
      </trkpt>
      <trkpt lat="43.91476" lon="5.40728">
        <ele>283</ele>
        <time>2015-09-23T14:26:10.000Z</time>
      </trkpt>
      <trkpt lat="43.91478" lon="5.40729">
        <ele>283</ele>
        <time>2015-09-23T14:26:11.000Z</time>
      </trkpt>
      <trkpt lat="43.9148" lon="5.40729">
        <ele>283</ele>
        <time>2015-09-23T14:26:12.000Z</time>
      </trkpt>
      <trkpt lat="43.91482" lon="5.4073">
        <ele>283</ele>
        <time>2015-09-23T14:26:13.000Z</time>
      </trkpt>
      <trkpt lat="43.91484" lon="5.40731">
        <ele>282</ele>
        <time>2015-09-23T14:26:14.000Z</time>
      </trkpt>
      <trkpt lat="43.91486" lon="5.40732">
        <ele>282</ele>
        <time>2015-09-23T14:26:15.000Z</time>
      </trkpt>
      <trkpt lat="43.91488" lon="5.40733">
        <ele>283</ele>
        <time>2015-09-23T14:26:16.000Z</time>
      </trkpt>
      <trkpt lat="43.91491" lon="5.40734">
        <ele>282</ele>
        <time>2015-09-23T14:26:17.000Z</time>
      </trkpt>
      <trkpt lat="43.91493" lon="5.40734">
        <ele>283</ele>
        <time>2015-09-23T14:26:18.000Z</time>
      </trkpt>
      <trkpt lat="43.91495" lon="5.40735">
        <ele>283</ele>
        <time>2015-09-23T14:26:19.000Z</time>
      </trkpt>
      <trkpt lat="43.91497" lon="5.40736">
        <ele>282</ele>
        <time>2015-09-23T14:26:20.000Z</time>
      </trkpt>
      <trkpt lat="43.91499" lon="5.40736">
        <ele>283</ele>
        <time>2015-09-23T14:26:21.000Z</time>
      </trkpt>
      <trkpt lat="43.91501" lon="5.40736">
        <ele>282</ele>
        <time>2015-09-23T14:26:22.000Z</time>
      </trkpt>
      <trkpt lat="43.91503" lon="5.40737">
        <ele>282</ele>
        <time>2015-09-23T14:26:23.000Z</time>
      </trkpt>
      <trkpt lat="43.91505" lon="5.40737">
        <ele>282</ele>
        <time>2015-09-23T14:26:24.000Z</time>
      </trkpt>
      <trkpt lat="43.91507" lon="5.40738">
        <ele>281</ele>
        <time>2015-09-23T14:26:25.000Z</time>
      </trkpt>
      <trkpt lat="43.91509" lon="5.40738">
        <ele>281</ele>
        <time>2015-09-23T14:26:26.000Z</time>
      </trkpt>
      <trkpt lat="43.91511" lon="5.40739">
        <ele>281</ele>
        <time>2015-09-23T14:26:27.000Z</time>
      </trkpt>
      <trkpt lat="43.91514" lon="5.40739">
        <ele>282</ele>
        <time>2015-09-23T14:26:28.000Z</time>
      </trkpt>
      <trkpt lat="43.91516" lon="5.4074">
        <ele>282</ele>
        <time>2015-09-23T14:26:29.000Z</time>
      </trkpt>
      <trkpt lat="43.91518" lon="5.4074">
        <ele>282</ele>
        <time>2015-09-23T14:26:30.000Z</time>
      </trkpt>
      <trkpt lat="43.9152" lon="5.40741">
        <ele>282</ele>
        <time>2015-09-23T14:26:31.000Z</time>
      </trkpt>
      <trkpt lat="43.91522" lon="5.40741">
        <ele>282</ele>
        <time>2015-09-23T14:26:32.000Z</time>
      </trkpt>
      <trkpt lat="43.91524" lon="5.40742">
        <ele>282</ele>
        <time>2015-09-23T14:26:33.000Z</time>
      </trkpt>
      <trkpt lat="43.91527" lon="5.40742">
        <ele>282</ele>
        <time>2015-09-23T14:26:34.000Z</time>
      </trkpt>
      <trkpt lat="43.91529" lon="5.40743">
        <ele>282</ele>
        <time>2015-09-23T14:26:35.000Z</time>
      </trkpt>
      <trkpt lat="43.91531" lon="5.40744">
        <ele>282</ele>
        <time>2015-09-23T14:26:36.000Z</time>
      </trkpt>
      <trkpt lat="43.91533" lon="5.40744">
        <ele>283</ele>
        <time>2015-09-23T14:26:37.000Z</time>
      </trkpt>
      <trkpt lat="43.91535" lon="5.40744">
        <ele>283</ele>
        <time>2015-09-23T14:26:38.000Z</time>
      </trkpt>
      <trkpt lat="43.91537" lon="5.40745">
        <ele>283</ele>
        <time>2015-09-23T14:26:39.000Z</time>
      </trkpt>
      <trkpt lat="43.9154" lon="5.40745">
        <ele>284</ele>
        <time>2015-09-23T14:26:40.000Z</time>
      </trkpt>
      <trkpt lat="43.91542" lon="5.40746">
        <ele>283</ele>
        <time>2015-09-23T14:26:41.000Z</time>
      </trkpt>
      <trkpt lat="43.91544" lon="5.40747">
        <ele>283</ele>
        <time>2015-09-23T14:26:42.000Z</time>
      </trkpt>
      <trkpt lat="43.91546" lon="5.40748">
        <ele>283</ele>
        <time>2015-09-23T14:26:43.000Z</time>
      </trkpt>
      <trkpt lat="43.91548" lon="5.40749">
        <ele>283</ele>
        <time>2015-09-23T14:26:44.000Z</time>
      </trkpt>
      <trkpt lat="43.91551" lon="5.4075">
        <ele>284</ele>
        <time>2015-09-23T14:26:45.000Z</time>
      </trkpt>
      <trkpt lat="43.91553" lon="5.40751">
        <ele>284</ele>
        <time>2015-09-23T14:26:46.000Z</time>
      </trkpt>
      <trkpt lat="43.91555" lon="5.40752">
        <ele>284</ele>
        <time>2015-09-23T14:26:47.000Z</time>
      </trkpt>
      <trkpt lat="43.91558" lon="5.40753">
        <ele>284</ele>
        <time>2015-09-23T14:26:48.000Z</time>
      </trkpt>
      <trkpt lat="43.9156" lon="5.40754">
        <ele>284</ele>
        <time>2015-09-23T14:26:49.000Z</time>
      </trkpt>
      <trkpt lat="43.91562" lon="5.40755">
        <ele>284</ele>
        <time>2015-09-23T14:26:50.000Z</time>
      </trkpt>
      <trkpt lat="43.91564" lon="5.40757">
        <ele>284</ele>
        <time>2015-09-23T14:26:51.000Z</time>
      </trkpt>
      <trkpt lat="43.91566" lon="5.40758">
        <ele>283</ele>
        <time>2015-09-23T14:26:52.000Z</time>
      </trkpt>
      <trkpt lat="43.91568" lon="5.4076">
        <ele>283</ele>
        <time>2015-09-23T14:26:53.000Z</time>
      </trkpt>
      <trkpt lat="43.91571" lon="5.40763">
        <ele>283</ele>
        <time>2015-09-23T14:26:54.000Z</time>
      </trkpt>
      <trkpt lat="43.91573" lon="5.40765">
        <ele>282</ele>
        <time>2015-09-23T14:26:55.000Z</time>
      </trkpt>
      <trkpt lat="43.91575" lon="5.40767">
        <ele>282</ele>
        <time>2015-09-23T14:26:56.000Z</time>
      </trkpt>
      <trkpt lat="43.91577" lon="5.40769">
        <ele>282</ele>
        <time>2015-09-23T14:26:57.000Z</time>
      </trkpt>
      <trkpt lat="43.91579" lon="5.4077">
        <ele>281</ele>
        <time>2015-09-23T14:26:58.000Z</time>
      </trkpt>
      <trkpt lat="43.91581" lon="5.40772">
        <ele>281</ele>
        <time>2015-09-23T14:26:59.000Z</time>
      </trkpt>
      <trkpt lat="43.91584" lon="5.40774">
        <ele>281</ele>
        <time>2015-09-23T14:27:00.000Z</time>
      </trkpt>
      <trkpt lat="43.91586" lon="5.40776">
        <ele>281</ele>
        <time>2015-09-23T14:27:01.000Z</time>
      </trkpt>
      <trkpt lat="43.91588" lon="5.40777">
        <ele>280</ele>
        <time>2015-09-23T14:27:02.000Z</time>
      </trkpt>
      <trkpt lat="43.9159" lon="5.40779">
        <ele>280</ele>
        <time>2015-09-23T14:27:03.000Z</time>
      </trkpt>
      <trkpt lat="43.91592" lon="5.40781">
        <ele>280</ele>
        <time>2015-09-23T14:27:04.000Z</time>
      </trkpt>
      <trkpt lat="43.91594" lon="5.40783">
        <ele>280</ele>
        <time>2015-09-23T14:27:05.000Z</time>
      </trkpt>
      <trkpt lat="43.91596" lon="5.40784">
        <ele>280</ele>
        <time>2015-09-23T14:27:06.000Z</time>
      </trkpt>
      <trkpt lat="43.91599" lon="5.40786">
        <ele>280</ele>
        <time>2015-09-23T14:27:07.000Z</time>
      </trkpt>
      <trkpt lat="43.916" lon="5.40788">
        <ele>279</ele>
        <time>2015-09-23T14:27:08.000Z</time>
      </trkpt>
      <trkpt lat="43.91603" lon="5.40789">
        <ele>279</ele>
        <time>2015-09-23T14:27:09.000Z</time>
      </trkpt>
      <trkpt lat="43.91605" lon="5.40791">
        <ele>279</ele>
        <time>2015-09-23T14:27:10.000Z</time>
      </trkpt>
      <trkpt lat="43.91607" lon="5.40793">
        <ele>279</ele>
        <time>2015-09-23T14:27:11.000Z</time>
      </trkpt>
      <trkpt lat="43.91609" lon="5.40795">
        <ele>278</ele>
        <time>2015-09-23T14:27:12.000Z</time>
      </trkpt>
      <trkpt lat="43.91611" lon="5.40797">
        <ele>279</ele>
        <time>2015-09-23T14:27:13.000Z</time>
      </trkpt>
      <trkpt lat="43.91613" lon="5.40798">
        <ele>279</ele>
        <time>2015-09-23T14:27:14.000Z</time>
      </trkpt>
      <trkpt lat="43.91615" lon="5.408">
        <ele>278</ele>
        <time>2015-09-23T14:27:15.000Z</time>
      </trkpt>
      <trkpt lat="43.91617" lon="5.40802">
        <ele>278</ele>
        <time>2015-09-23T14:27:16.000Z</time>
      </trkpt>
      <trkpt lat="43.91619" lon="5.40804">
        <ele>278</ele>
        <time>2015-09-23T14:27:17.000Z</time>
      </trkpt>
      <trkpt lat="43.91621" lon="5.40806">
        <ele>278</ele>
        <time>2015-09-23T14:27:18.000Z</time>
      </trkpt>
      <trkpt lat="43.91623" lon="5.40807">
        <ele>278</ele>
        <time>2015-09-23T14:27:19.000Z</time>
      </trkpt>
      <trkpt lat="43.91625" lon="5.40809">
        <ele>278</ele>
        <time>2015-09-23T14:27:20.000Z</time>
      </trkpt>
      <trkpt lat="43.91627" lon="5.4081">
        <ele>278</ele>
        <time>2015-09-23T14:27:21.000Z</time>
      </trkpt>
      <trkpt lat="43.91629" lon="5.40812">
        <ele>277</ele>
        <time>2015-09-23T14:27:22.000Z</time>
      </trkpt>
      <trkpt lat="43.91631" lon="5.40813">
        <ele>277</ele>
        <time>2015-09-23T14:27:23.000Z</time>
      </trkpt>
      <trkpt lat="43.91633" lon="5.40815">
        <ele>278</ele>
        <time>2015-09-23T14:27:24.000Z</time>
      </trkpt>
      <trkpt lat="43.91635" lon="5.40817">
        <ele>277</ele>
        <time>2015-09-23T14:27:25.000Z</time>
      </trkpt>
      <trkpt lat="43.91637" lon="5.40819">
        <ele>277</ele>
        <time>2015-09-23T14:27:26.000Z</time>
      </trkpt>
      <trkpt lat="43.91639" lon="5.4082">
        <ele>277</ele>
        <time>2015-09-23T14:27:27.000Z</time>
      </trkpt>
      <trkpt lat="43.91641" lon="5.40821">
        <ele>277</ele>
        <time>2015-09-23T14:27:28.000Z</time>
      </trkpt>
      <trkpt lat="43.91643" lon="5.40823">
        <ele>277</ele>
        <time>2015-09-23T14:27:29.000Z</time>
      </trkpt>
      <trkpt lat="43.91645" lon="5.40824">
        <ele>277</ele>
        <time>2015-09-23T14:27:30.000Z</time>
      </trkpt>
      <trkpt lat="43.91647" lon="5.40825">
        <ele>277</ele>
        <time>2015-09-23T14:27:31.000Z</time>
      </trkpt>
      <trkpt lat="43.91649" lon="5.40826">
        <ele>277</ele>
        <time>2015-09-23T14:27:32.000Z</time>
      </trkpt>
      <trkpt lat="43.91651" lon="5.40828">
        <ele>277</ele>
        <time>2015-09-23T14:27:33.000Z</time>
      </trkpt>
      <trkpt lat="43.91653" lon="5.40828">
        <ele>276</ele>
        <time>2015-09-23T14:27:34.000Z</time>
      </trkpt>
      <trkpt lat="43.91656" lon="5.40829">
        <ele>277</ele>
        <time>2015-09-23T14:27:35.000Z</time>
      </trkpt>
      <trkpt lat="43.91658" lon="5.4083">
        <ele>277</ele>
        <time>2015-09-23T14:27:36.000Z</time>
      </trkpt>
      <trkpt lat="43.9166" lon="5.40831">
        <ele>277</ele>
        <time>2015-09-23T14:27:37.000Z</time>
      </trkpt>
      <trkpt lat="43.91662" lon="5.40831">
        <ele>277</ele>
        <time>2015-09-23T14:27:38.000Z</time>
      </trkpt>
      <trkpt lat="43.91664" lon="5.40832">
        <ele>277</ele>
        <time>2015-09-23T14:27:39.000Z</time>
      </trkpt>
      <trkpt lat="43.91667" lon="5.40832">
        <ele>278</ele>
        <time>2015-09-23T14:27:40.000Z</time>
      </trkpt>
      <trkpt lat="43.91669" lon="5.40832">
        <ele>279</ele>
        <time>2015-09-23T14:27:41.000Z</time>
      </trkpt>
      <trkpt lat="43.91672" lon="5.40833">
        <ele>279</ele>
        <time>2015-09-23T14:27:42.000Z</time>
      </trkpt>
      <trkpt lat="43.91674" lon="5.40834">
        <ele>280</ele>
        <time>2015-09-23T14:27:43.000Z</time>
      </trkpt>
      <trkpt lat="43.91677" lon="5.40834">
        <ele>280</ele>
        <time>2015-09-23T14:27:44.000Z</time>
      </trkpt>
      <trkpt lat="43.91679" lon="5.40834">
        <ele>280</ele>
        <time>2015-09-23T14:27:45.000Z</time>
      </trkpt>
      <trkpt lat="43.91681" lon="5.40835">
        <ele>280</ele>
        <time>2015-09-23T14:27:46.000Z</time>
      </trkpt>
      <trkpt lat="43.91684" lon="5.40837">
        <ele>280</ele>
        <time>2015-09-23T14:27:47.000Z</time>
      </trkpt>
      <trkpt lat="43.91686" lon="5.40838">
        <ele>279</ele>
        <time>2015-09-23T14:27:48.000Z</time>
      </trkpt>
      <trkpt lat="43.91688" lon="5.4084">
        <ele>280</ele>
        <time>2015-09-23T14:27:49.000Z</time>
      </trkpt>
      <trkpt lat="43.9169" lon="5.40841">
        <ele>280</ele>
        <time>2015-09-23T14:27:50.000Z</time>
      </trkpt>
      <trkpt lat="43.91692" lon="5.40843">
        <ele>280</ele>
        <time>2015-09-23T14:27:51.000Z</time>
      </trkpt>
      <trkpt lat="43.91694" lon="5.40844">
        <ele>280</ele>
        <time>2015-09-23T14:27:52.000Z</time>
      </trkpt>
      <trkpt lat="43.91696" lon="5.40845">
        <ele>280</ele>
        <time>2015-09-23T14:27:53.000Z</time>
      </trkpt>
      <trkpt lat="43.91697" lon="5.40847">
        <ele>280</ele>
        <time>2015-09-23T14:27:54.000Z</time>
      </trkpt>
      <trkpt lat="43.91699" lon="5.40848">
        <ele>280</ele>
        <time>2015-09-23T14:27:55.000Z</time>
      </trkpt>
      <trkpt lat="43.91701" lon="5.40849">
        <ele>281</ele>
        <time>2015-09-23T14:27:56.000Z</time>
      </trkpt>
      <trkpt lat="43.91703" lon="5.4085">
        <ele>281</ele>
        <time>2015-09-23T14:27:57.000Z</time>
      </trkpt>
      <trkpt lat="43.91705" lon="5.40851">
        <ele>281</ele>
        <time>2015-09-23T14:27:58.000Z</time>
      </trkpt>
      <trkpt lat="43.91706" lon="5.40853">
        <ele>281</ele>
        <time>2015-09-23T14:27:59.000Z</time>
      </trkpt>
      <trkpt lat="43.91708" lon="5.40854">
        <ele>281</ele>
        <time>2015-09-23T14:28:00.000Z</time>
      </trkpt>
      <trkpt lat="43.9171" lon="5.40855">
        <ele>281</ele>
        <time>2015-09-23T14:28:01.000Z</time>
      </trkpt>
      <trkpt lat="43.91712" lon="5.40856">
        <ele>281</ele>
        <time>2015-09-23T14:28:02.000Z</time>
      </trkpt>
      <trkpt lat="43.91714" lon="5.40856">
        <ele>281</ele>
        <time>2015-09-23T14:28:03.000Z</time>
      </trkpt>
      <trkpt lat="43.91716" lon="5.40857">
        <ele>281</ele>
        <time>2015-09-23T14:28:04.000Z</time>
      </trkpt>
      <trkpt lat="43.91718" lon="5.40858">
        <ele>281</ele>
        <time>2015-09-23T14:28:05.000Z</time>
      </trkpt>
      <trkpt lat="43.9172" lon="5.4086">
        <ele>282</ele>
        <time>2015-09-23T14:28:06.000Z</time>
      </trkpt>
      <trkpt lat="43.91722" lon="5.40861">
        <ele>282</ele>
        <time>2015-09-23T14:28:07.000Z</time>
      </trkpt>
      <trkpt lat="43.91724" lon="5.40862">
        <ele>282</ele>
        <time>2015-09-23T14:28:08.000Z</time>
      </trkpt>
      <trkpt lat="43.91726" lon="5.40863">
        <ele>283</ele>
        <time>2015-09-23T14:28:09.000Z</time>
      </trkpt>
      <trkpt lat="43.91728" lon="5.40863">
        <ele>283</ele>
        <time>2015-09-23T14:28:10.000Z</time>
      </trkpt>
      <trkpt lat="43.9173" lon="5.40864">
        <ele>283</ele>
        <time>2015-09-23T14:28:11.000Z</time>
      </trkpt>
      <trkpt lat="43.91732" lon="5.40864">
        <ele>284</ele>
        <time>2015-09-23T14:28:12.000Z</time>
      </trkpt>
      <trkpt lat="43.91734" lon="5.40865">
        <ele>284</ele>
        <time>2015-09-23T14:28:13.000Z</time>
      </trkpt>
      <trkpt lat="43.91736" lon="5.40865">
        <ele>284</ele>
        <time>2015-09-23T14:28:14.000Z</time>
      </trkpt>
      <trkpt lat="43.91738" lon="5.40866">
        <ele>284</ele>
        <time>2015-09-23T14:28:15.000Z</time>
      </trkpt>
      <trkpt lat="43.9174" lon="5.40866">
        <ele>285</ele>
        <time>2015-09-23T14:28:16.000Z</time>
      </trkpt>
      <trkpt lat="43.91742" lon="5.40867">
        <ele>285</ele>
        <time>2015-09-23T14:28:17.000Z</time>
      </trkpt>
      <trkpt lat="43.91743" lon="5.40868">
        <ele>286</ele>
        <time>2015-09-23T14:28:18.000Z</time>
      </trkpt>
      <trkpt lat="43.91745" lon="5.40869">
        <ele>286</ele>
        <time>2015-09-23T14:28:19.000Z</time>
      </trkpt>
      <trkpt lat="43.91747" lon="5.40869">
        <ele>286</ele>
        <time>2015-09-23T14:28:20.000Z</time>
      </trkpt>
      <trkpt lat="43.91749" lon="5.4087">
        <ele>287</ele>
        <time>2015-09-23T14:28:21.000Z</time>
      </trkpt>
      <trkpt lat="43.91751" lon="5.40871">
        <ele>287</ele>
        <time>2015-09-23T14:28:22.000Z</time>
      </trkpt>
      <trkpt lat="43.91753" lon="5.40872">
        <ele>287</ele>
        <time>2015-09-23T14:28:23.000Z</time>
      </trkpt>
      <trkpt lat="43.91755" lon="5.40872">
        <ele>286</ele>
        <time>2015-09-23T14:28:24.000Z</time>
      </trkpt>
      <trkpt lat="43.91757" lon="5.40872">
        <ele>285</ele>
        <time>2015-09-23T14:28:25.000Z</time>
      </trkpt>
      <trkpt lat="43.91759" lon="5.40873">
        <ele>285</ele>
        <time>2015-09-23T14:28:26.000Z</time>
      </trkpt>
      <trkpt lat="43.91761" lon="5.40874">
        <ele>285</ele>
        <time>2015-09-23T14:28:27.000Z</time>
      </trkpt>
      <trkpt lat="43.91763" lon="5.40875">
        <ele>285</ele>
        <time>2015-09-23T14:28:28.000Z</time>
      </trkpt>
      <trkpt lat="43.91765" lon="5.40875">
        <ele>285</ele>
        <time>2015-09-23T14:28:29.000Z</time>
      </trkpt>
      <trkpt lat="43.91767" lon="5.40876">
        <ele>285</ele>
        <time>2015-09-23T14:28:30.000Z</time>
      </trkpt>
      <trkpt lat="43.91769" lon="5.40877">
        <ele>286</ele>
        <time>2015-09-23T14:28:31.000Z</time>
      </trkpt>
      <trkpt lat="43.91772" lon="5.40879">
        <ele>286</ele>
        <time>2015-09-23T14:28:32.000Z</time>
      </trkpt>
      <trkpt lat="43.91774" lon="5.4088">
        <ele>286</ele>
        <time>2015-09-23T14:28:33.000Z</time>
      </trkpt>
      <trkpt lat="43.91776" lon="5.40882">
        <ele>286</ele>
        <time>2015-09-23T14:28:34.000Z</time>
      </trkpt>
      <trkpt lat="43.91778" lon="5.40884">
        <ele>286</ele>
        <time>2015-09-23T14:28:35.000Z</time>
      </trkpt>
      <trkpt lat="43.9178" lon="5.40885">
        <ele>287</ele>
        <time>2015-09-23T14:28:36.000Z</time>
      </trkpt>
      <trkpt lat="43.91782" lon="5.40887">
        <ele>286</ele>
        <time>2015-09-23T14:28:37.000Z</time>
      </trkpt>
      <trkpt lat="43.91785" lon="5.40889">
        <ele>286</ele>
        <time>2015-09-23T14:28:38.000Z</time>
      </trkpt>
      <trkpt lat="43.91787" lon="5.4089">
        <ele>286</ele>
        <time>2015-09-23T14:28:39.000Z</time>
      </trkpt>
      <trkpt lat="43.91789" lon="5.40891">
        <ele>286</ele>
        <time>2015-09-23T14:28:40.000Z</time>
      </trkpt>
      <trkpt lat="43.91791" lon="5.40893">
        <ele>286</ele>
        <time>2015-09-23T14:28:41.000Z</time>
      </trkpt>
      <trkpt lat="43.91793" lon="5.40894">
        <ele>286</ele>
        <time>2015-09-23T14:28:42.000Z</time>
      </trkpt>
      <trkpt lat="43.91795" lon="5.40896">
        <ele>286</ele>
        <time>2015-09-23T14:28:43.000Z</time>
      </trkpt>
      <trkpt lat="43.91797" lon="5.40897">
        <ele>286</ele>
        <time>2015-09-23T14:28:44.000Z</time>
      </trkpt>
      <trkpt lat="43.91799" lon="5.40899">
        <ele>286</ele>
        <time>2015-09-23T14:28:45.000Z</time>
      </trkpt>
      <trkpt lat="43.91801" lon="5.40901">
        <ele>286</ele>
        <time>2015-09-23T14:28:46.000Z</time>
      </trkpt>
      <trkpt lat="43.91803" lon="5.40902">
        <ele>285</ele>
        <time>2015-09-23T14:28:47.000Z</time>
      </trkpt>
      <trkpt lat="43.91805" lon="5.40904">
        <ele>285</ele>
        <time>2015-09-23T14:28:48.000Z</time>
      </trkpt>
      <trkpt lat="43.91807" lon="5.40905">
        <ele>285</ele>
        <time>2015-09-23T14:28:49.000Z</time>
      </trkpt>
      <trkpt lat="43.91809" lon="5.40907">
        <ele>285</ele>
        <time>2015-09-23T14:28:50.000Z</time>
      </trkpt>
      <trkpt lat="43.91811" lon="5.40909">
        <ele>284</ele>
        <time>2015-09-23T14:28:51.000Z</time>
      </trkpt>
      <trkpt lat="43.91813" lon="5.4091">
        <ele>284</ele>
        <time>2015-09-23T14:28:52.000Z</time>
      </trkpt>
      <trkpt lat="43.91814" lon="5.40912">
        <ele>284</ele>
        <time>2015-09-23T14:28:53.000Z</time>
      </trkpt>
      <trkpt lat="43.91817" lon="5.40914">
        <ele>284</ele>
        <time>2015-09-23T14:28:54.000Z</time>
      </trkpt>
      <trkpt lat="43.91819" lon="5.40916">
        <ele>284</ele>
        <time>2015-09-23T14:28:55.000Z</time>
      </trkpt>
      <trkpt lat="43.91821" lon="5.40918">
        <ele>284</ele>
        <time>2015-09-23T14:28:56.000Z</time>
      </trkpt>
      <trkpt lat="43.91823" lon="5.4092">
        <ele>284</ele>
        <time>2015-09-23T14:28:57.000Z</time>
      </trkpt>
      <trkpt lat="43.91825" lon="5.40922">
        <ele>284</ele>
        <time>2015-09-23T14:28:58.000Z</time>
      </trkpt>
      <trkpt lat="43.91827" lon="5.40924">
        <ele>284</ele>
        <time>2015-09-23T14:28:59.000Z</time>
      </trkpt>
      <trkpt lat="43.91829" lon="5.40926">
        <ele>283</ele>
        <time>2015-09-23T14:29:00.000Z</time>
      </trkpt>
      <trkpt lat="43.91831" lon="5.40927">
        <ele>283</ele>
        <time>2015-09-23T14:29:01.000Z</time>
      </trkpt>
      <trkpt lat="43.91833" lon="5.40929">
        <ele>283</ele>
        <time>2015-09-23T14:29:02.000Z</time>
      </trkpt>
      <trkpt lat="43.91835" lon="5.40931">
        <ele>284</ele>
        <time>2015-09-23T14:29:03.000Z</time>
      </trkpt>
      <trkpt lat="43.91837" lon="5.40933">
        <ele>284</ele>
        <time>2015-09-23T14:29:04.000Z</time>
      </trkpt>
      <trkpt lat="43.91839" lon="5.40934">
        <ele>284</ele>
        <time>2015-09-23T14:29:05.000Z</time>
      </trkpt>
      <trkpt lat="43.91841" lon="5.40936">
        <ele>284</ele>
        <time>2015-09-23T14:29:06.000Z</time>
      </trkpt>
      <trkpt lat="43.91843" lon="5.40938">
        <ele>283</ele>
        <time>2015-09-23T14:29:07.000Z</time>
      </trkpt>
      <trkpt lat="43.91845" lon="5.4094">
        <ele>283</ele>
        <time>2015-09-23T14:29:08.000Z</time>
      </trkpt>
      <trkpt lat="43.91847" lon="5.40942">
        <ele>283</ele>
        <time>2015-09-23T14:29:09.000Z</time>
      </trkpt>
      <trkpt lat="43.91849" lon="5.40945">
        <ele>283</ele>
        <time>2015-09-23T14:29:10.000Z</time>
      </trkpt>
      <trkpt lat="43.91851" lon="5.40946">
        <ele>283</ele>
        <time>2015-09-23T14:29:11.000Z</time>
      </trkpt>
      <trkpt lat="43.91853" lon="5.40948">
        <ele>283</ele>
        <time>2015-09-23T14:29:12.000Z</time>
      </trkpt>
      <trkpt lat="43.91855" lon="5.4095">
        <ele>283</ele>
        <time>2015-09-23T14:29:13.000Z</time>
      </trkpt>
      <trkpt lat="43.91857" lon="5.40952">
        <ele>283</ele>
        <time>2015-09-23T14:29:14.000Z</time>
      </trkpt>
      <trkpt lat="43.91859" lon="5.40954">
        <ele>282</ele>
        <time>2015-09-23T14:29:15.000Z</time>
      </trkpt>
      <trkpt lat="43.9186" lon="5.40956">
        <ele>282</ele>
        <time>2015-09-23T14:29:16.000Z</time>
      </trkpt>
      <trkpt lat="43.91862" lon="5.40958">
        <ele>283</ele>
        <time>2015-09-23T14:29:17.000Z</time>
      </trkpt>
      <trkpt lat="43.91864" lon="5.4096">
        <ele>282</ele>
        <time>2015-09-23T14:29:18.000Z</time>
      </trkpt>
      <trkpt lat="43.91866" lon="5.40962">
        <ele>282</ele>
        <time>2015-09-23T14:29:19.000Z</time>
      </trkpt>
      <trkpt lat="43.91868" lon="5.40964">
        <ele>282</ele>
        <time>2015-09-23T14:29:20.000Z</time>
      </trkpt>
      <trkpt lat="43.9187" lon="5.40966">
        <ele>282</ele>
        <time>2015-09-23T14:29:21.000Z</time>
      </trkpt>
      <trkpt lat="43.91872" lon="5.40968">
        <ele>282</ele>
        <time>2015-09-23T14:29:22.000Z</time>
      </trkpt>
      <trkpt lat="43.91875" lon="5.4097">
        <ele>282</ele>
        <time>2015-09-23T14:29:23.000Z</time>
      </trkpt>
      <trkpt lat="43.91877" lon="5.40972">
        <ele>282</ele>
        <time>2015-09-23T14:29:24.000Z</time>
      </trkpt>
      <trkpt lat="43.91879" lon="5.40974">
        <ele>282</ele>
        <time>2015-09-23T14:29:25.000Z</time>
      </trkpt>
      <trkpt lat="43.91881" lon="5.40976">
        <ele>282</ele>
        <time>2015-09-23T14:29:26.000Z</time>
      </trkpt>
      <trkpt lat="43.91883" lon="5.40977">
        <ele>282</ele>
        <time>2015-09-23T14:29:27.000Z</time>
      </trkpt>
      <trkpt lat="43.91885" lon="5.40979">
        <ele>283</ele>
        <time>2015-09-23T14:29:28.000Z</time>
      </trkpt>
      <trkpt lat="43.91887" lon="5.40981">
        <ele>282</ele>
        <time>2015-09-23T14:29:29.000Z</time>
      </trkpt>
      <trkpt lat="43.91889" lon="5.40983">
        <ele>282</ele>
        <time>2015-09-23T14:29:30.000Z</time>
      </trkpt>
      <trkpt lat="43.91892" lon="5.40985">
        <ele>281</ele>
        <time>2015-09-23T14:29:31.000Z</time>
      </trkpt>
      <trkpt lat="43.91894" lon="5.40988">
        <ele>281</ele>
        <time>2015-09-23T14:29:32.000Z</time>
      </trkpt>
      <trkpt lat="43.91896" lon="5.4099">
        <ele>282</ele>
        <time>2015-09-23T14:29:33.000Z</time>
      </trkpt>
      <trkpt lat="43.91899" lon="5.40992">
        <ele>281</ele>
        <time>2015-09-23T14:29:34.000Z</time>
      </trkpt>
      <trkpt lat="43.91901" lon="5.40994">
        <ele>281</ele>
        <time>2015-09-23T14:29:35.000Z</time>
      </trkpt>
      <trkpt lat="43.91903" lon="5.40996">
        <ele>280</ele>
        <time>2015-09-23T14:29:36.000Z</time>
      </trkpt>
      <trkpt lat="43.91905" lon="5.40998">
        <ele>280</ele>
        <time>2015-09-23T14:29:37.000Z</time>
      </trkpt>
      <trkpt lat="43.91907" lon="5.40999">
        <ele>280</ele>
        <time>2015-09-23T14:29:38.000Z</time>
      </trkpt>
      <trkpt lat="43.91908" lon="5.41001">
        <ele>280</ele>
        <time>2015-09-23T14:29:39.000Z</time>
      </trkpt>
      <trkpt lat="43.9191" lon="5.41002">
        <ele>280</ele>
        <time>2015-09-23T14:29:40.000Z</time>
      </trkpt>
      <trkpt lat="43.91912" lon="5.41003">
        <ele>280</ele>
        <time>2015-09-23T14:29:41.000Z</time>
      </trkpt>
      <trkpt lat="43.91914" lon="5.41005">
        <ele>280</ele>
        <time>2015-09-23T14:29:42.000Z</time>
      </trkpt>
      <trkpt lat="43.91916" lon="5.41006">
        <ele>279</ele>
        <time>2015-09-23T14:29:43.000Z</time>
      </trkpt>
      <trkpt lat="43.91918" lon="5.41008">
        <ele>279</ele>
        <time>2015-09-23T14:29:44.000Z</time>
      </trkpt>
      <trkpt lat="43.91919" lon="5.41009">
        <ele>280</ele>
        <time>2015-09-23T14:29:45.000Z</time>
      </trkpt>
      <trkpt lat="43.91921" lon="5.4101">
        <ele>280</ele>
        <time>2015-09-23T14:29:46.000Z</time>
      </trkpt>
      <trkpt lat="43.91923" lon="5.41011">
        <ele>279</ele>
        <time>2015-09-23T14:29:47.000Z</time>
      </trkpt>
      <trkpt lat="43.91925" lon="5.41013">
        <ele>279</ele>
        <time>2015-09-23T14:29:48.000Z</time>
      </trkpt>
      <trkpt lat="43.91927" lon="5.41015">
        <ele>279</ele>
        <time>2015-09-23T14:29:49.000Z</time>
      </trkpt>
      <trkpt lat="43.91928" lon="5.41016">
        <ele>279</ele>
        <time>2015-09-23T14:29:50.000Z</time>
      </trkpt>
      <trkpt lat="43.9193" lon="5.41017">
        <ele>279</ele>
        <time>2015-09-23T14:29:51.000Z</time>
      </trkpt>
      <trkpt lat="43.91932" lon="5.41018">
        <ele>279</ele>
        <time>2015-09-23T14:29:52.000Z</time>
      </trkpt>
      <trkpt lat="43.91934" lon="5.4102">
        <ele>279</ele>
        <time>2015-09-23T14:29:53.000Z</time>
      </trkpt>
      <trkpt lat="43.91936" lon="5.41021">
        <ele>280</ele>
        <time>2015-09-23T14:29:54.000Z</time>
      </trkpt>
      <trkpt lat="43.91938" lon="5.41023">
        <ele>280</ele>
        <time>2015-09-23T14:29:55.000Z</time>
      </trkpt>
      <trkpt lat="43.91939" lon="5.41024">
        <ele>280</ele>
        <time>2015-09-23T14:29:56.000Z</time>
      </trkpt>
      <trkpt lat="43.91941" lon="5.41025">
        <ele>280</ele>
        <time>2015-09-23T14:29:57.000Z</time>
      </trkpt>
      <trkpt lat="43.91942" lon="5.41026">
        <ele>281</ele>
        <time>2015-09-23T14:29:58.000Z</time>
      </trkpt>
      <trkpt lat="43.91944" lon="5.41027">
        <ele>281</ele>
        <time>2015-09-23T14:29:59.000Z</time>
      </trkpt>
      <trkpt lat="43.91946" lon="5.41028">
        <ele>282</ele>
        <time>2015-09-23T14:30:00.000Z</time>
      </trkpt>
      <trkpt lat="43.91948" lon="5.41029">
        <ele>282</ele>
        <time>2015-09-23T14:30:01.000Z</time>
      </trkpt>
      <trkpt lat="43.9195" lon="5.4103">
        <ele>283</ele>
        <time>2015-09-23T14:30:02.000Z</time>
      </trkpt>
      <trkpt lat="43.91952" lon="5.41031">
        <ele>283</ele>
        <time>2015-09-23T14:30:03.000Z</time>
      </trkpt>
      <trkpt lat="43.91954" lon="5.41032">
        <ele>283</ele>
        <time>2015-09-23T14:30:04.000Z</time>
      </trkpt>
      <trkpt lat="43.91956" lon="5.41034">
        <ele>283</ele>
        <time>2015-09-23T14:30:05.000Z</time>
      </trkpt>
      <trkpt lat="43.91958" lon="5.41035">
        <ele>284</ele>
        <time>2015-09-23T14:30:06.000Z</time>
      </trkpt>
      <trkpt lat="43.9196" lon="5.41036">
        <ele>285</ele>
        <time>2015-09-23T14:30:07.000Z</time>
      </trkpt>
      <trkpt lat="43.91962" lon="5.41037">
        <ele>285</ele>
        <time>2015-09-23T14:30:08.000Z</time>
      </trkpt>
      <trkpt lat="43.91964" lon="5.41039">
        <ele>285</ele>
        <time>2015-09-23T14:30:09.000Z</time>
      </trkpt>
      <trkpt lat="43.91967" lon="5.41041">
        <ele>285</ele>
        <time>2015-09-23T14:30:10.000Z</time>
      </trkpt>
      <trkpt lat="43.91969" lon="5.41043">
        <ele>285</ele>
        <time>2015-09-23T14:30:11.000Z</time>
      </trkpt>
      <trkpt lat="43.91971" lon="5.41044">
        <ele>286</ele>
        <time>2015-09-23T14:30:12.000Z</time>
      </trkpt>
      <trkpt lat="43.91973" lon="5.41046">
        <ele>286</ele>
        <time>2015-09-23T14:30:13.000Z</time>
      </trkpt>
      <trkpt lat="43.91976" lon="5.41047">
        <ele>286</ele>
        <time>2015-09-23T14:30:14.000Z</time>
      </trkpt>
      <trkpt lat="43.91978" lon="5.41049">
        <ele>286</ele>
        <time>2015-09-23T14:30:15.000Z</time>
      </trkpt>
      <trkpt lat="43.91979" lon="5.4105">
        <ele>286</ele>
        <time>2015-09-23T14:30:16.000Z</time>
      </trkpt>
      <trkpt lat="43.91981" lon="5.4105">
        <ele>286</ele>
        <time>2015-09-23T14:30:17.000Z</time>
      </trkpt>
      <trkpt lat="43.91983" lon="5.41051">
        <ele>285</ele>
        <time>2015-09-23T14:30:18.000Z</time>
      </trkpt>
      <trkpt lat="43.91985" lon="5.41051">
        <ele>284</ele>
        <time>2015-09-23T14:30:19.000Z</time>
      </trkpt>
      <trkpt lat="43.91987" lon="5.41051">
        <ele>284</ele>
        <time>2015-09-23T14:30:20.000Z</time>
      </trkpt>
      <trkpt lat="43.91989" lon="5.41051">
        <ele>284</ele>
        <time>2015-09-23T14:30:21.000Z</time>
      </trkpt>
      <trkpt lat="43.91991" lon="5.4105">
        <ele>284</ele>
        <time>2015-09-23T14:30:22.000Z</time>
      </trkpt>
      <trkpt lat="43.91993" lon="5.4105">
        <ele>285</ele>
        <time>2015-09-23T14:30:23.000Z</time>
      </trkpt>
      <trkpt lat="43.91996" lon="5.41048">
        <ele>285</ele>
        <time>2015-09-23T14:30:24.000Z</time>
      </trkpt>
      <trkpt lat="43.91998" lon="5.41047">
        <ele>285</ele>
        <time>2015-09-23T14:30:25.000Z</time>
      </trkpt>
      <trkpt lat="43.92" lon="5.41046">
        <ele>285</ele>
        <time>2015-09-23T14:30:26.000Z</time>
      </trkpt>
      <trkpt lat="43.92002" lon="5.41044">
        <ele>285</ele>
        <time>2015-09-23T14:30:27.000Z</time>
      </trkpt>
      <trkpt lat="43.92004" lon="5.41043">
        <ele>286</ele>
        <time>2015-09-23T14:30:28.000Z</time>
      </trkpt>
      <trkpt lat="43.92006" lon="5.41041">
        <ele>286</ele>
        <time>2015-09-23T14:30:29.000Z</time>
      </trkpt>
      <trkpt lat="43.92008" lon="5.41039">
        <ele>286</ele>
        <time>2015-09-23T14:30:30.000Z</time>
      </trkpt>
      <trkpt lat="43.9201" lon="5.41037">
        <ele>285</ele>
        <time>2015-09-23T14:30:31.000Z</time>
      </trkpt>
      <trkpt lat="43.92013" lon="5.41036">
        <ele>286</ele>
        <time>2015-09-23T14:30:32.000Z</time>
      </trkpt>
      <trkpt lat="43.92015" lon="5.41034">
        <ele>286</ele>
        <time>2015-09-23T14:30:33.000Z</time>
      </trkpt>
      <trkpt lat="43.92017" lon="5.41033">
        <ele>286</ele>
        <time>2015-09-23T14:30:34.000Z</time>
      </trkpt>
      <trkpt lat="43.92019" lon="5.41031">
        <ele>286</ele>
        <time>2015-09-23T14:30:35.000Z</time>
      </trkpt>
      <trkpt lat="43.92021" lon="5.4103">
        <ele>286</ele>
        <time>2015-09-23T14:30:36.000Z</time>
      </trkpt>
      <trkpt lat="43.92023" lon="5.41029">
        <ele>286</ele>
        <time>2015-09-23T14:30:37.000Z</time>
      </trkpt>
      <trkpt lat="43.92025" lon="5.41027">
        <ele>286</ele>
        <time>2015-09-23T14:30:38.000Z</time>
      </trkpt>
      <trkpt lat="43.92028" lon="5.41026">
        <ele>286</ele>
        <time>2015-09-23T14:30:39.000Z</time>
      </trkpt>
      <trkpt lat="43.9203" lon="5.41025">
        <ele>286</ele>
        <time>2015-09-23T14:30:40.000Z</time>
      </trkpt>
      <trkpt lat="43.92032" lon="5.41024">
        <ele>286</ele>
        <time>2015-09-23T14:30:41.000Z</time>
      </trkpt>
      <trkpt lat="43.92035" lon="5.41023">
        <ele>286</ele>
        <time>2015-09-23T14:30:42.000Z</time>
      </trkpt>
      <trkpt lat="43.92037" lon="5.41022">
        <ele>286</ele>
        <time>2015-09-23T14:30:43.000Z</time>
      </trkpt>
      <trkpt lat="43.92039" lon="5.41021">
        <ele>285</ele>
        <time>2015-09-23T14:30:44.000Z</time>
      </trkpt>
      <trkpt lat="43.92042" lon="5.4102">
        <ele>285</ele>
        <time>2015-09-23T14:30:45.000Z</time>
      </trkpt>
      <trkpt lat="43.92045" lon="5.4102">
        <ele>284</ele>
        <time>2015-09-23T14:30:46.000Z</time>
      </trkpt>
      <trkpt lat="43.92047" lon="5.41019">
        <ele>285</ele>
        <time>2015-09-23T14:30:47.000Z</time>
      </trkpt>
      <trkpt lat="43.92049" lon="5.41018">
        <ele>285</ele>
        <time>2015-09-23T14:30:48.000Z</time>
      </trkpt>
      <trkpt lat="43.92052" lon="5.41017">
        <ele>285</ele>
        <time>2015-09-23T14:30:49.000Z</time>
      </trkpt>
      <trkpt lat="43.92055" lon="5.41016">
        <ele>285</ele>
        <time>2015-09-23T14:30:50.000Z</time>
      </trkpt>
      <trkpt lat="43.92057" lon="5.41014">
        <ele>285</ele>
        <time>2015-09-23T14:30:51.000Z</time>
      </trkpt>
      <trkpt lat="43.92059" lon="5.41013">
        <ele>285</ele>
        <time>2015-09-23T14:30:52.000Z</time>
      </trkpt>
      <trkpt lat="43.92061" lon="5.41012">
        <ele>285</ele>
        <time>2015-09-23T14:30:53.000Z</time>
      </trkpt>
      <trkpt lat="43.92063" lon="5.41011">
        <ele>285</ele>
        <time>2015-09-23T14:30:54.000Z</time>
      </trkpt>
      <trkpt lat="43.92066" lon="5.4101">
        <ele>285</ele>
        <time>2015-09-23T14:30:55.000Z</time>
      </trkpt>
      <trkpt lat="43.92068" lon="5.41008">
        <ele>285</ele>
        <time>2015-09-23T14:30:56.000Z</time>
      </trkpt>
      <trkpt lat="43.9207" lon="5.41007">
        <ele>283</ele>
        <time>2015-09-23T14:30:57.000Z</time>
      </trkpt>
      <trkpt lat="43.92073" lon="5.41006">
        <ele>283</ele>
        <time>2015-09-23T14:30:58.000Z</time>
      </trkpt>
      <trkpt lat="43.92075" lon="5.41005">
        <ele>283</ele>
        <time>2015-09-23T14:30:59.000Z</time>
      </trkpt>
      <trkpt lat="43.92077" lon="5.41004">
        <ele>282</ele>
        <time>2015-09-23T14:31:00.000Z</time>
      </trkpt>
      <trkpt lat="43.92079" lon="5.41003">
        <ele>282</ele>
        <time>2015-09-23T14:31:01.000Z</time>
      </trkpt>
      <trkpt lat="43.92081" lon="5.41002">
        <ele>282</ele>
        <time>2015-09-23T14:31:02.000Z</time>
      </trkpt>
      <trkpt lat="43.92084" lon="5.41001">
        <ele>282</ele>
        <time>2015-09-23T14:31:03.000Z</time>
      </trkpt>
      <trkpt lat="43.92086" lon="5.41">
        <ele>281</ele>
        <time>2015-09-23T14:31:04.000Z</time>
      </trkpt>
      <trkpt lat="43.92088" lon="5.40999">
        <ele>281</ele>
        <time>2015-09-23T14:31:05.000Z</time>
      </trkpt>
      <trkpt lat="43.9209" lon="5.40997">
        <ele>282</ele>
        <time>2015-09-23T14:31:06.000Z</time>
      </trkpt>
      <trkpt lat="43.92092" lon="5.40996">
        <ele>282</ele>
        <time>2015-09-23T14:31:07.000Z</time>
      </trkpt>
      <trkpt lat="43.92094" lon="5.40994">
        <ele>282</ele>
        <time>2015-09-23T14:31:08.000Z</time>
      </trkpt>
      <trkpt lat="43.92097" lon="5.40993">
        <ele>282</ele>
        <time>2015-09-23T14:31:09.000Z</time>
      </trkpt>
      <trkpt lat="43.92099" lon="5.40993">
        <ele>281</ele>
        <time>2015-09-23T14:31:10.000Z</time>
      </trkpt>
      <trkpt lat="43.92101" lon="5.40994">
        <ele>281</ele>
        <time>2015-09-23T14:31:11.000Z</time>
      </trkpt>
      <trkpt lat="43.92103" lon="5.40996">
        <ele>280</ele>
        <time>2015-09-23T14:31:12.000Z</time>
      </trkpt>
      <trkpt lat="43.92105" lon="5.40999">
        <ele>279</ele>
        <time>2015-09-23T14:31:13.000Z</time>
      </trkpt>
      <trkpt lat="43.92107" lon="5.41002">
        <ele>278</ele>
        <time>2015-09-23T14:31:14.000Z</time>
      </trkpt>
      <trkpt lat="43.92109" lon="5.41004">
        <ele>277</ele>
        <time>2015-09-23T14:31:15.000Z</time>
      </trkpt>
      <trkpt lat="43.9211" lon="5.41007">
        <ele>277</ele>
        <time>2015-09-23T14:31:16.000Z</time>
      </trkpt>
      <trkpt lat="43.92112" lon="5.41009">
        <ele>276</ele>
        <time>2015-09-23T14:31:17.000Z</time>
      </trkpt>
      <trkpt lat="43.92113" lon="5.41011">
        <ele>276</ele>
        <time>2015-09-23T14:31:18.000Z</time>
      </trkpt>
      <trkpt lat="43.92115" lon="5.41014">
        <ele>276</ele>
        <time>2015-09-23T14:31:19.000Z</time>
      </trkpt>
      <trkpt lat="43.92116" lon="5.41017">
        <ele>276</ele>
        <time>2015-09-23T14:31:20.000Z</time>
      </trkpt>
      <trkpt lat="43.92117" lon="5.41019">
        <ele>276</ele>
        <time>2015-09-23T14:31:21.000Z</time>
      </trkpt>
      <trkpt lat="43.92119" lon="5.41022">
        <ele>277</ele>
        <time>2015-09-23T14:31:22.000Z</time>
      </trkpt>
      <trkpt lat="43.9212" lon="5.41025">
        <ele>278</ele>
        <time>2015-09-23T14:31:23.000Z</time>
      </trkpt>
      <trkpt lat="43.92121" lon="5.41028">
        <ele>278</ele>
        <time>2015-09-23T14:31:24.000Z</time>
      </trkpt>
      <trkpt lat="43.92122" lon="5.41031">
        <ele>278</ele>
        <time>2015-09-23T14:31:25.000Z</time>
      </trkpt>
      <trkpt lat="43.92123" lon="5.41034">
        <ele>278</ele>
        <time>2015-09-23T14:31:26.000Z</time>
      </trkpt>
      <trkpt lat="43.92124" lon="5.41036">
        <ele>278</ele>
        <time>2015-09-23T14:31:27.000Z</time>
      </trkpt>
      <trkpt lat="43.92125" lon="5.41039">
        <ele>278</ele>
        <time>2015-09-23T14:31:28.000Z</time>
      </trkpt>
      <trkpt lat="43.92126" lon="5.41042">
        <ele>278</ele>
        <time>2015-09-23T14:31:29.000Z</time>
      </trkpt>
      <trkpt lat="43.92127" lon="5.41044">
        <ele>278</ele>
        <time>2015-09-23T14:31:30.000Z</time>
      </trkpt>
      <trkpt lat="43.92128" lon="5.41047">
        <ele>278</ele>
        <time>2015-09-23T14:31:31.000Z</time>
      </trkpt>
      <trkpt lat="43.92129" lon="5.41049">
        <ele>278</ele>
        <time>2015-09-23T14:31:32.000Z</time>
      </trkpt>
      <trkpt lat="43.9213" lon="5.41052">
        <ele>278</ele>
        <time>2015-09-23T14:31:33.000Z</time>
      </trkpt>
      <trkpt lat="43.92131" lon="5.41054">
        <ele>278</ele>
        <time>2015-09-23T14:31:34.000Z</time>
      </trkpt>
      <trkpt lat="43.92131" lon="5.41057">
        <ele>278</ele>
        <time>2015-09-23T14:31:35.000Z</time>
      </trkpt>
      <trkpt lat="43.92132" lon="5.41059">
        <ele>278</ele>
        <time>2015-09-23T14:31:36.000Z</time>
      </trkpt>
      <trkpt lat="43.92132" lon="5.41062">
        <ele>278</ele>
        <time>2015-09-23T14:31:37.000Z</time>
      </trkpt>
      <trkpt lat="43.92133" lon="5.41065">
        <ele>277</ele>
        <time>2015-09-23T14:31:38.000Z</time>
      </trkpt>
      <trkpt lat="43.92134" lon="5.41068">
        <ele>278</ele>
        <time>2015-09-23T14:31:39.000Z</time>
      </trkpt>
      <trkpt lat="43.92134" lon="5.41071">
        <ele>277</ele>
        <time>2015-09-23T14:31:40.000Z</time>
      </trkpt>
      <trkpt lat="43.92135" lon="5.41074">
        <ele>277</ele>
        <time>2015-09-23T14:31:41.000Z</time>
      </trkpt>
      <trkpt lat="43.92136" lon="5.41076">
        <ele>278</ele>
        <time>2015-09-23T14:31:42.000Z</time>
      </trkpt>
      <trkpt lat="43.92137" lon="5.41079">
        <ele>277</ele>
        <time>2015-09-23T14:31:43.000Z</time>
      </trkpt>
      <trkpt lat="43.92137" lon="5.41082">
        <ele>277</ele>
        <time>2015-09-23T14:31:44.000Z</time>
      </trkpt>
      <trkpt lat="43.92138" lon="5.41085">
        <ele>277</ele>
        <time>2015-09-23T14:31:45.000Z</time>
      </trkpt>
      <trkpt lat="43.92139" lon="5.41087">
        <ele>277</ele>
        <time>2015-09-23T14:31:46.000Z</time>
      </trkpt>
      <trkpt lat="43.92139" lon="5.4109">
        <ele>276</ele>
        <time>2015-09-23T14:31:47.000Z</time>
      </trkpt>
      <trkpt lat="43.92139" lon="5.41093">
        <ele>276</ele>
        <time>2015-09-23T14:31:48.000Z</time>
      </trkpt>
      <trkpt lat="43.92139" lon="5.41095">
        <ele>276</ele>
        <time>2015-09-23T14:31:49.000Z</time>
      </trkpt>
      <trkpt lat="43.92138" lon="5.41098">
        <ele>277</ele>
        <time>2015-09-23T14:31:50.000Z</time>
      </trkpt>
      <trkpt lat="43.92138" lon="5.41101">
        <ele>278</ele>
        <time>2015-09-23T14:31:51.000Z</time>
      </trkpt>
      <trkpt lat="43.92138" lon="5.41104">
        <ele>278</ele>
        <time>2015-09-23T14:31:52.000Z</time>
      </trkpt>
      <trkpt lat="43.92137" lon="5.41106">
        <ele>278</ele>
        <time>2015-09-23T14:31:53.000Z</time>
      </trkpt>
      <trkpt lat="43.92136" lon="5.41109">
        <ele>277</ele>
        <time>2015-09-23T14:31:54.000Z</time>
      </trkpt>
      <trkpt lat="43.92136" lon="5.41111">
        <ele>277</ele>
        <time>2015-09-23T14:31:55.000Z</time>
      </trkpt>
      <trkpt lat="43.92135" lon="5.41113">
        <ele>278</ele>
        <time>2015-09-23T14:31:56.000Z</time>
      </trkpt>
      <trkpt lat="43.92134" lon="5.41115">
        <ele>278</ele>
        <time>2015-09-23T14:31:57.000Z</time>
      </trkpt>
      <trkpt lat="43.92133" lon="5.41118">
        <ele>279</ele>
        <time>2015-09-23T14:31:58.000Z</time>
      </trkpt>
      <trkpt lat="43.92132" lon="5.4112">
        <ele>280</ele>
        <time>2015-09-23T14:31:59.000Z</time>
      </trkpt>
      <trkpt lat="43.92131" lon="5.41123">
        <ele>280</ele>
        <time>2015-09-23T14:32:00.000Z</time>
      </trkpt>
      <trkpt lat="43.92129" lon="5.41126">
        <ele>280</ele>
        <time>2015-09-23T14:32:01.000Z</time>
      </trkpt>
      <trkpt lat="43.92128" lon="5.41129">
        <ele>281</ele>
        <time>2015-09-23T14:32:02.000Z</time>
      </trkpt>
      <trkpt lat="43.92126" lon="5.41132">
        <ele>281</ele>
        <time>2015-09-23T14:32:03.000Z</time>
      </trkpt>
      <trkpt lat="43.92125" lon="5.41135">
        <ele>281</ele>
        <time>2015-09-23T14:32:04.000Z</time>
      </trkpt>
      <trkpt lat="43.92123" lon="5.41137">
        <ele>280</ele>
        <time>2015-09-23T14:32:05.000Z</time>
      </trkpt>
      <trkpt lat="43.92122" lon="5.41139">
        <ele>281</ele>
        <time>2015-09-23T14:32:06.000Z</time>
      </trkpt>
      <trkpt lat="43.92121" lon="5.41142">
        <ele>280</ele>
        <time>2015-09-23T14:32:07.000Z</time>
      </trkpt>
      <trkpt lat="43.9212" lon="5.41145">
        <ele>280</ele>
        <time>2015-09-23T14:32:08.000Z</time>
      </trkpt>
      <trkpt lat="43.92119" lon="5.41148">
        <ele>279</ele>
        <time>2015-09-23T14:32:09.000Z</time>
      </trkpt>
      <trkpt lat="43.92118" lon="5.41151">
        <ele>278</ele>
        <time>2015-09-23T14:32:10.000Z</time>
      </trkpt>
      <trkpt lat="43.92118" lon="5.41154">
        <ele>279</ele>
        <time>2015-09-23T14:32:11.000Z</time>
      </trkpt>
      <trkpt lat="43.92117" lon="5.41158">
        <ele>280</ele>
        <time>2015-09-23T14:32:12.000Z</time>
      </trkpt>
      <trkpt lat="43.92117" lon="5.41161">
        <ele>281</ele>
        <time>2015-09-23T14:32:13.000Z</time>
      </trkpt>
      <trkpt lat="43.92116" lon="5.41165">
        <ele>280</ele>
        <time>2015-09-23T14:32:14.000Z</time>
      </trkpt>
      <trkpt lat="43.92116" lon="5.41168">
        <ele>281</ele>
        <time>2015-09-23T14:32:15.000Z</time>
      </trkpt>
      <trkpt lat="43.92115" lon="5.41171">
        <ele>281</ele>
        <time>2015-09-23T14:32:16.000Z</time>
      </trkpt>
      <trkpt lat="43.92114" lon="5.41174">
        <ele>282</ele>
        <time>2015-09-23T14:32:17.000Z</time>
      </trkpt>
      <trkpt lat="43.92114" lon="5.41177">
        <ele>282</ele>
        <time>2015-09-23T14:32:18.000Z</time>
      </trkpt>
      <trkpt lat="43.92113" lon="5.4118">
        <ele>282</ele>
        <time>2015-09-23T14:32:19.000Z</time>
      </trkpt>
      <trkpt lat="43.92112" lon="5.41183">
        <ele>281</ele>
        <time>2015-09-23T14:32:20.000Z</time>
      </trkpt>
      <trkpt lat="43.92111" lon="5.41186">
        <ele>280</ele>
        <time>2015-09-23T14:32:21.000Z</time>
      </trkpt>
      <trkpt lat="43.9211" lon="5.41189">
        <ele>281</ele>
        <time>2015-09-23T14:32:22.000Z</time>
      </trkpt>
      <trkpt lat="43.92109" lon="5.41192">
        <ele>282</ele>
        <time>2015-09-23T14:32:23.000Z</time>
      </trkpt>
      <trkpt lat="43.92108" lon="5.41195">
        <ele>282</ele>
        <time>2015-09-23T14:32:24.000Z</time>
      </trkpt>
      <trkpt lat="43.92107" lon="5.41198">
        <ele>283</ele>
        <time>2015-09-23T14:32:25.000Z</time>
      </trkpt>
      <trkpt lat="43.92106" lon="5.41201">
        <ele>282</ele>
        <time>2015-09-23T14:32:26.000Z</time>
      </trkpt>
      <trkpt lat="43.92105" lon="5.41204">
        <ele>283</ele>
        <time>2015-09-23T14:32:27.000Z</time>
      </trkpt>
      <trkpt lat="43.92104" lon="5.41207">
        <ele>283</ele>
        <time>2015-09-23T14:32:28.000Z</time>
      </trkpt>
      <trkpt lat="43.92103" lon="5.4121">
        <ele>283</ele>
        <time>2015-09-23T14:32:29.000Z</time>
      </trkpt>
      <trkpt lat="43.92102" lon="5.41213">
        <ele>284</ele>
        <time>2015-09-23T14:32:30.000Z</time>
      </trkpt>
      <trkpt lat="43.92101" lon="5.41216">
        <ele>285</ele>
        <time>2015-09-23T14:32:31.000Z</time>
      </trkpt>
      <trkpt lat="43.921" lon="5.41219">
        <ele>284</ele>
        <time>2015-09-23T14:32:32.000Z</time>
      </trkpt>
      <trkpt lat="43.92099" lon="5.41222">
        <ele>285</ele>
        <time>2015-09-23T14:32:33.000Z</time>
      </trkpt>
      <trkpt lat="43.92097" lon="5.41224">
        <ele>286</ele>
        <time>2015-09-23T14:32:34.000Z</time>
      </trkpt>
      <trkpt lat="43.92096" lon="5.41227">
        <ele>286</ele>
        <time>2015-09-23T14:32:35.000Z</time>
      </trkpt>
      <trkpt lat="43.92095" lon="5.4123">
        <ele>287</ele>
        <time>2015-09-23T14:32:36.000Z</time>
      </trkpt>
      <trkpt lat="43.92093" lon="5.41233">
        <ele>287</ele>
        <time>2015-09-23T14:32:37.000Z</time>
      </trkpt>
      <trkpt lat="43.92092" lon="5.41236">
        <ele>287</ele>
        <time>2015-09-23T14:32:38.000Z</time>
      </trkpt>
      <trkpt lat="43.92091" lon="5.41238">
        <ele>288</ele>
        <time>2015-09-23T14:32:39.000Z</time>
      </trkpt>
      <trkpt lat="43.9209" lon="5.41241">
        <ele>289</ele>
        <time>2015-09-23T14:32:40.000Z</time>
      </trkpt>
      <trkpt lat="43.9209" lon="5.41243">
        <ele>289</ele>
        <time>2015-09-23T14:32:41.000Z</time>
      </trkpt>
      <trkpt lat="43.92089" lon="5.41246">
        <ele>289</ele>
        <time>2015-09-23T14:32:42.000Z</time>
      </trkpt>
      <trkpt lat="43.92087" lon="5.41249">
        <ele>288</ele>
        <time>2015-09-23T14:32:43.000Z</time>
      </trkpt>
      <trkpt lat="43.92086" lon="5.41251">
        <ele>288</ele>
        <time>2015-09-23T14:32:44.000Z</time>
      </trkpt>
      <trkpt lat="43.92085" lon="5.41253">
        <ele>287</ele>
        <time>2015-09-23T14:32:45.000Z</time>
      </trkpt>
      <trkpt lat="43.92084" lon="5.41256">
        <ele>287</ele>
        <time>2015-09-23T14:32:46.000Z</time>
      </trkpt>
      <trkpt lat="43.92084" lon="5.41259">
        <ele>287</ele>
        <time>2015-09-23T14:32:47.000Z</time>
      </trkpt>
      <trkpt lat="43.92083" lon="5.41262">
        <ele>286</ele>
        <time>2015-09-23T14:32:48.000Z</time>
      </trkpt>
      <trkpt lat="43.92082" lon="5.41265">
        <ele>286</ele>
        <time>2015-09-23T14:32:49.000Z</time>
      </trkpt>
      <trkpt lat="43.92081" lon="5.41268">
        <ele>286</ele>
        <time>2015-09-23T14:32:50.000Z</time>
      </trkpt>
      <trkpt lat="43.9208" lon="5.41271">
        <ele>287</ele>
        <time>2015-09-23T14:32:51.000Z</time>
      </trkpt>
      <trkpt lat="43.92079" lon="5.41274">
        <ele>287</ele>
        <time>2015-09-23T14:32:52.000Z</time>
      </trkpt>
      <trkpt lat="43.92078" lon="5.41277">
        <ele>287</ele>
        <time>2015-09-23T14:32:53.000Z</time>
      </trkpt>
      <trkpt lat="43.92077" lon="5.4128">
        <ele>287</ele>
        <time>2015-09-23T14:32:54.000Z</time>
      </trkpt>
      <trkpt lat="43.92075" lon="5.41283">
        <ele>287</ele>
        <time>2015-09-23T14:32:55.000Z</time>
      </trkpt>
      <trkpt lat="43.92074" lon="5.41286">
        <ele>288</ele>
        <time>2015-09-23T14:32:56.000Z</time>
      </trkpt>
      <trkpt lat="43.92073" lon="5.41289">
        <ele>288</ele>
        <time>2015-09-23T14:32:57.000Z</time>
      </trkpt>
      <trkpt lat="43.92072" lon="5.41291">
        <ele>288</ele>
        <time>2015-09-23T14:32:58.000Z</time>
      </trkpt>
      <trkpt lat="43.9207" lon="5.41294">
        <ele>289</ele>
        <time>2015-09-23T14:32:59.000Z</time>
      </trkpt>
      <trkpt lat="43.92069" lon="5.41297">
        <ele>290</ele>
        <time>2015-09-23T14:33:00.000Z</time>
      </trkpt>
      <trkpt lat="43.92068" lon="5.413">
        <ele>291</ele>
        <time>2015-09-23T14:33:01.000Z</time>
      </trkpt>
      <trkpt lat="43.92066" lon="5.41302">
        <ele>290</ele>
        <time>2015-09-23T14:33:02.000Z</time>
      </trkpt>
      <trkpt lat="43.92065" lon="5.41304">
        <ele>291</ele>
        <time>2015-09-23T14:33:03.000Z</time>
      </trkpt>
      <trkpt lat="43.92063" lon="5.41306">
        <ele>290</ele>
        <time>2015-09-23T14:33:04.000Z</time>
      </trkpt>
      <trkpt lat="43.92062" lon="5.41308">
        <ele>289</ele>
        <time>2015-09-23T14:33:05.000Z</time>
      </trkpt>
      <trkpt lat="43.9206" lon="5.41311">
        <ele>289</ele>
        <time>2015-09-23T14:33:06.000Z</time>
      </trkpt>
      <trkpt lat="43.92059" lon="5.41313">
        <ele>290</ele>
        <time>2015-09-23T14:33:07.000Z</time>
      </trkpt>
      <trkpt lat="43.92058" lon="5.41315">
        <ele>290</ele>
        <time>2015-09-23T14:33:08.000Z</time>
      </trkpt>
      <trkpt lat="43.92056" lon="5.41317">
        <ele>291</ele>
        <time>2015-09-23T14:33:09.000Z</time>
      </trkpt>
      <trkpt lat="43.92055" lon="5.4132">
        <ele>291</ele>
        <time>2015-09-23T14:33:10.000Z</time>
      </trkpt>
      <trkpt lat="43.92054" lon="5.41322">
        <ele>291</ele>
        <time>2015-09-23T14:33:11.000Z</time>
      </trkpt>
      <trkpt lat="43.92052" lon="5.41324">
        <ele>291</ele>
        <time>2015-09-23T14:33:12.000Z</time>
      </trkpt>
      <trkpt lat="43.92051" lon="5.41326">
        <ele>291</ele>
        <time>2015-09-23T14:33:13.000Z</time>
      </trkpt>
      <trkpt lat="43.92049" lon="5.41328">
        <ele>291</ele>
        <time>2015-09-23T14:33:14.000Z</time>
      </trkpt>
      <trkpt lat="43.92047" lon="5.41331">
        <ele>292</ele>
        <time>2015-09-23T14:33:15.000Z</time>
      </trkpt>
      <trkpt lat="43.92046" lon="5.41333">
        <ele>292</ele>
        <time>2015-09-23T14:33:16.000Z</time>
      </trkpt>
      <trkpt lat="43.92044" lon="5.41336">
        <ele>292</ele>
        <time>2015-09-23T14:33:17.000Z</time>
      </trkpt>
      <trkpt lat="43.92043" lon="5.41337">
        <ele>291</ele>
        <time>2015-09-23T14:33:18.000Z</time>
      </trkpt>
      <trkpt lat="43.92042" lon="5.41339">
        <ele>291</ele>
        <time>2015-09-23T14:33:19.000Z</time>
      </trkpt>
      <trkpt lat="43.92041" lon="5.41341">
        <ele>291</ele>
        <time>2015-09-23T14:33:20.000Z</time>
      </trkpt>
      <trkpt lat="43.92039" lon="5.41344">
        <ele>291</ele>
        <time>2015-09-23T14:33:21.000Z</time>
      </trkpt>
      <trkpt lat="43.92038" lon="5.41346">
        <ele>291</ele>
        <time>2015-09-23T14:33:22.000Z</time>
      </trkpt>
      <trkpt lat="43.92036" lon="5.41348">
        <ele>291</ele>
        <time>2015-09-23T14:33:23.000Z</time>
      </trkpt>
      <trkpt lat="43.92035" lon="5.41351">
        <ele>291</ele>
        <time>2015-09-23T14:33:24.000Z</time>
      </trkpt>
      <trkpt lat="43.92033" lon="5.41353">
        <ele>292</ele>
        <time>2015-09-23T14:33:25.000Z</time>
      </trkpt>
      <trkpt lat="43.92032" lon="5.41356">
        <ele>292</ele>
        <time>2015-09-23T14:33:26.000Z</time>
      </trkpt>
      <trkpt lat="43.9203" lon="5.41358">
        <ele>292</ele>
        <time>2015-09-23T14:33:27.000Z</time>
      </trkpt>
      <trkpt lat="43.92029" lon="5.41361">
        <ele>293</ele>
        <time>2015-09-23T14:33:28.000Z</time>
      </trkpt>
      <trkpt lat="43.92027" lon="5.41363">
        <ele>292</ele>
        <time>2015-09-23T14:33:29.000Z</time>
      </trkpt>
      <trkpt lat="43.92026" lon="5.41365">
        <ele>292</ele>
        <time>2015-09-23T14:33:30.000Z</time>
      </trkpt>
      <trkpt lat="43.92025" lon="5.41367">
        <ele>292</ele>
        <time>2015-09-23T14:33:31.000Z</time>
      </trkpt>
      <trkpt lat="43.92023" lon="5.4137">
        <ele>292</ele>
        <time>2015-09-23T14:33:32.000Z</time>
      </trkpt>
      <trkpt lat="43.92022" lon="5.41372">
        <ele>293</ele>
        <time>2015-09-23T14:33:33.000Z</time>
      </trkpt>
      <trkpt lat="43.92021" lon="5.41374">
        <ele>294</ele>
        <time>2015-09-23T14:33:34.000Z</time>
      </trkpt>
      <trkpt lat="43.92019" lon="5.41376">
        <ele>294</ele>
        <time>2015-09-23T14:33:35.000Z</time>
      </trkpt>
      <trkpt lat="43.92018" lon="5.41378">
        <ele>294</ele>
        <time>2015-09-23T14:33:36.000Z</time>
      </trkpt>
      <trkpt lat="43.92017" lon="5.41381">
        <ele>294</ele>
        <time>2015-09-23T14:33:37.000Z</time>
      </trkpt>
      <trkpt lat="43.92015" lon="5.41383">
        <ele>294</ele>
        <time>2015-09-23T14:33:38.000Z</time>
      </trkpt>
      <trkpt lat="43.92014" lon="5.41385">
        <ele>293</ele>
        <time>2015-09-23T14:33:39.000Z</time>
      </trkpt>
      <trkpt lat="43.92012" lon="5.41387">
        <ele>293</ele>
        <time>2015-09-23T14:33:40.000Z</time>
      </trkpt>
      <trkpt lat="43.92011" lon="5.41389">
        <ele>294</ele>
        <time>2015-09-23T14:33:41.000Z</time>
      </trkpt>
      <trkpt lat="43.92009" lon="5.41392">
        <ele>294</ele>
        <time>2015-09-23T14:33:42.000Z</time>
      </trkpt>
      <trkpt lat="43.92008" lon="5.41394">
        <ele>294</ele>
        <time>2015-09-23T14:33:43.000Z</time>
      </trkpt>
      <trkpt lat="43.92006" lon="5.41396">
        <ele>295</ele>
        <time>2015-09-23T14:33:44.000Z</time>
      </trkpt>
      <trkpt lat="43.92004" lon="5.41399">
        <ele>295</ele>
        <time>2015-09-23T14:33:45.000Z</time>
      </trkpt>
      <trkpt lat="43.92003" lon="5.41401">
        <ele>295</ele>
        <time>2015-09-23T14:33:46.000Z</time>
      </trkpt>
      <trkpt lat="43.92001" lon="5.41403">
        <ele>295</ele>
        <time>2015-09-23T14:33:47.000Z</time>
      </trkpt>
      <trkpt lat="43.92" lon="5.41405">
        <ele>295</ele>
        <time>2015-09-23T14:33:48.000Z</time>
      </trkpt>
      <trkpt lat="43.91998" lon="5.41407">
        <ele>295</ele>
        <time>2015-09-23T14:33:49.000Z</time>
      </trkpt>
      <trkpt lat="43.91997" lon="5.41409">
        <ele>296</ele>
        <time>2015-09-23T14:33:50.000Z</time>
      </trkpt>
      <trkpt lat="43.91995" lon="5.41411">
        <ele>297</ele>
        <time>2015-09-23T14:33:51.000Z</time>
      </trkpt>
      <trkpt lat="43.91994" lon="5.41413">
        <ele>297</ele>
        <time>2015-09-23T14:33:52.000Z</time>
      </trkpt>
      <trkpt lat="43.91993" lon="5.41416">
        <ele>297</ele>
        <time>2015-09-23T14:33:53.000Z</time>
      </trkpt>
      <trkpt lat="43.91991" lon="5.41418">
        <ele>297</ele>
        <time>2015-09-23T14:33:54.000Z</time>
      </trkpt>
      <trkpt lat="43.91989" lon="5.4142">
        <ele>297</ele>
        <time>2015-09-23T14:33:55.000Z</time>
      </trkpt>
      <trkpt lat="43.91988" lon="5.41423">
        <ele>297</ele>
        <time>2015-09-23T14:33:56.000Z</time>
      </trkpt>
      <trkpt lat="43.91986" lon="5.41425">
        <ele>297</ele>
        <time>2015-09-23T14:33:57.000Z</time>
      </trkpt>
      <trkpt lat="43.91985" lon="5.41428">
        <ele>298</ele>
        <time>2015-09-23T14:33:58.000Z</time>
      </trkpt>
      <trkpt lat="43.91983" lon="5.4143">
        <ele>298</ele>
        <time>2015-09-23T14:33:59.000Z</time>
      </trkpt>
      <trkpt lat="43.91982" lon="5.41432">
        <ele>298</ele>
        <time>2015-09-23T14:34:00.000Z</time>
      </trkpt>
      <trkpt lat="43.91981" lon="5.41434">
        <ele>297</ele>
        <time>2015-09-23T14:34:01.000Z</time>
      </trkpt>
      <trkpt lat="43.91979" lon="5.41436">
        <ele>297</ele>
        <time>2015-09-23T14:34:02.000Z</time>
      </trkpt>
      <trkpt lat="43.91978" lon="5.41439">
        <ele>298</ele>
        <time>2015-09-23T14:34:03.000Z</time>
      </trkpt>
      <trkpt lat="43.91976" lon="5.41441">
        <ele>298</ele>
        <time>2015-09-23T14:34:04.000Z</time>
      </trkpt>
      <trkpt lat="43.91975" lon="5.41444">
        <ele>299</ele>
        <time>2015-09-23T14:34:05.000Z</time>
      </trkpt>
      <trkpt lat="43.91974" lon="5.41446">
        <ele>299</ele>
        <time>2015-09-23T14:34:06.000Z</time>
      </trkpt>
      <trkpt lat="43.91972" lon="5.41449">
        <ele>300</ele>
        <time>2015-09-23T14:34:07.000Z</time>
      </trkpt>
      <trkpt lat="43.91971" lon="5.41451">
        <ele>300</ele>
        <time>2015-09-23T14:34:08.000Z</time>
      </trkpt>
      <trkpt lat="43.9197" lon="5.41453">
        <ele>300</ele>
        <time>2015-09-23T14:34:09.000Z</time>
      </trkpt>
      <trkpt lat="43.91969" lon="5.41455">
        <ele>301</ele>
        <time>2015-09-23T14:34:10.000Z</time>
      </trkpt>
      <trkpt lat="43.91968" lon="5.41457">
        <ele>300</ele>
        <time>2015-09-23T14:34:11.000Z</time>
      </trkpt>
      <trkpt lat="43.91967" lon="5.41459">
        <ele>299</ele>
        <time>2015-09-23T14:34:12.000Z</time>
      </trkpt>
      <trkpt lat="43.91966" lon="5.41462">
        <ele>299</ele>
        <time>2015-09-23T14:34:13.000Z</time>
      </trkpt>
      <trkpt lat="43.91966" lon="5.41464">
        <ele>297</ele>
        <time>2015-09-23T14:34:14.000Z</time>
      </trkpt>
      <trkpt lat="43.91965" lon="5.41466">
        <ele>296</ele>
        <time>2015-09-23T14:34:15.000Z</time>
      </trkpt>
      <trkpt lat="43.91966" lon="5.41468">
        <ele>297</ele>
        <time>2015-09-23T14:34:16.000Z</time>
      </trkpt>
      <trkpt lat="43.91967" lon="5.4147">
        <ele>296</ele>
        <time>2015-09-23T14:34:17.000Z</time>
      </trkpt>
      <trkpt lat="43.91967" lon="5.41472">
        <ele>296</ele>
        <time>2015-09-23T14:34:18.000Z</time>
      </trkpt>
      <trkpt lat="43.91968" lon="5.41474">
        <ele>296</ele>
        <time>2015-09-23T14:34:19.000Z</time>
      </trkpt>
      <trkpt lat="43.91969" lon="5.41475">
        <ele>296</ele>
        <time>2015-09-23T14:34:20.000Z</time>
      </trkpt>
      <trkpt lat="43.91971" lon="5.41477">
        <ele>296</ele>
        <time>2015-09-23T14:34:21.000Z</time>
      </trkpt>
      <trkpt lat="43.91972" lon="5.41478">
        <ele>296</ele>
        <time>2015-09-23T14:34:22.000Z</time>
      </trkpt>
      <trkpt lat="43.91973" lon="5.41479">
        <ele>296</ele>
        <time>2015-09-23T14:34:23.000Z</time>
      </trkpt>
      <trkpt lat="43.91975" lon="5.41481">
        <ele>296</ele>
        <time>2015-09-23T14:34:24.000Z</time>
      </trkpt>
      <trkpt lat="43.91976" lon="5.41482">
        <ele>297</ele>
        <time>2015-09-23T14:34:25.000Z</time>
      </trkpt>
      <trkpt lat="43.91978" lon="5.41484">
        <ele>297</ele>
        <time>2015-09-23T14:34:26.000Z</time>
      </trkpt>
      <trkpt lat="43.91979" lon="5.41485">
        <ele>297</ele>
        <time>2015-09-23T14:34:27.000Z</time>
      </trkpt>
      <trkpt lat="43.91981" lon="5.41486">
        <ele>297</ele>
        <time>2015-09-23T14:34:28.000Z</time>
      </trkpt>
      <trkpt lat="43.91982" lon="5.41488">
        <ele>296</ele>
        <time>2015-09-23T14:34:29.000Z</time>
      </trkpt>
      <trkpt lat="43.91983" lon="5.41489">
        <ele>296</ele>
        <time>2015-09-23T14:34:30.000Z</time>
      </trkpt>
      <trkpt lat="43.91985" lon="5.41491">
        <ele>297</ele>
        <time>2015-09-23T14:34:31.000Z</time>
      </trkpt>
      <trkpt lat="43.91986" lon="5.41492">
        <ele>297</ele>
        <time>2015-09-23T14:34:32.000Z</time>
      </trkpt>
      <trkpt lat="43.91987" lon="5.41494">
        <ele>297</ele>
        <time>2015-09-23T14:34:33.000Z</time>
      </trkpt>
      <trkpt lat="43.91989" lon="5.41495">
        <ele>298</ele>
        <time>2015-09-23T14:34:34.000Z</time>
      </trkpt>
      <trkpt lat="43.9199" lon="5.41496">
        <ele>298</ele>
        <time>2015-09-23T14:34:35.000Z</time>
      </trkpt>
      <trkpt lat="43.91992" lon="5.41498">
        <ele>298</ele>
        <time>2015-09-23T14:34:36.000Z</time>
      </trkpt>
      <trkpt lat="43.91993" lon="5.415">
        <ele>299</ele>
        <time>2015-09-23T14:34:37.000Z</time>
      </trkpt>
      <trkpt lat="43.91995" lon="5.41501">
        <ele>299</ele>
        <time>2015-09-23T14:34:38.000Z</time>
      </trkpt>
      <trkpt lat="43.91996" lon="5.41503">
        <ele>300</ele>
        <time>2015-09-23T14:34:39.000Z</time>
      </trkpt>
      <trkpt lat="43.91998" lon="5.41504">
        <ele>299</ele>
        <time>2015-09-23T14:34:40.000Z</time>
      </trkpt>
      <trkpt lat="43.92" lon="5.41506">
        <ele>300</ele>
        <time>2015-09-23T14:34:41.000Z</time>
      </trkpt>
      <trkpt lat="43.92001" lon="5.41507">
        <ele>300</ele>
        <time>2015-09-23T14:34:42.000Z</time>
      </trkpt>
      <trkpt lat="43.92003" lon="5.41509">
        <ele>300</ele>
        <time>2015-09-23T14:34:43.000Z</time>
      </trkpt>
      <trkpt lat="43.92005" lon="5.4151">
        <ele>300</ele>
        <time>2015-09-23T14:34:44.000Z</time>
      </trkpt>
      <trkpt lat="43.92007" lon="5.41512">
        <ele>301</ele>
        <time>2015-09-23T14:34:45.000Z</time>
      </trkpt>
      <trkpt lat="43.92008" lon="5.41513">
        <ele>302</ele>
        <time>2015-09-23T14:34:46.000Z</time>
      </trkpt>
      <trkpt lat="43.9201" lon="5.41515">
        <ele>301</ele>
        <time>2015-09-23T14:34:47.000Z</time>
      </trkpt>
      <trkpt lat="43.92012" lon="5.41517">
        <ele>302</ele>
        <time>2015-09-23T14:34:48.000Z</time>
      </trkpt>
      <trkpt lat="43.92014" lon="5.41519">
        <ele>302</ele>
        <time>2015-09-23T14:34:49.000Z</time>
      </trkpt>
      <trkpt lat="43.92015" lon="5.4152">
        <ele>302</ele>
        <time>2015-09-23T14:34:50.000Z</time>
      </trkpt>
      <trkpt lat="43.92017" lon="5.41523">
        <ele>303</ele>
        <time>2015-09-23T14:34:51.000Z</time>
      </trkpt>
      <trkpt lat="43.92018" lon="5.41525">
        <ele>303</ele>
        <time>2015-09-23T14:34:52.000Z</time>
      </trkpt>
      <trkpt lat="43.9202" lon="5.41527">
        <ele>304</ele>
        <time>2015-09-23T14:34:53.000Z</time>
      </trkpt>
      <trkpt lat="43.92021" lon="5.4153">
        <ele>304</ele>
        <time>2015-09-23T14:34:54.000Z</time>
      </trkpt>
      <trkpt lat="43.92023" lon="5.41532">
        <ele>304</ele>
        <time>2015-09-23T14:34:55.000Z</time>
      </trkpt>
      <trkpt lat="43.92024" lon="5.41535">
        <ele>304</ele>
        <time>2015-09-23T14:34:56.000Z</time>
      </trkpt>
      <trkpt lat="43.92025" lon="5.41538">
        <ele>304</ele>
        <time>2015-09-23T14:34:57.000Z</time>
      </trkpt>
      <trkpt lat="43.92026" lon="5.41541">
        <ele>303</ele>
        <time>2015-09-23T14:34:58.000Z</time>
      </trkpt>
      <trkpt lat="43.92028" lon="5.41544">
        <ele>303</ele>
        <time>2015-09-23T14:34:59.000Z</time>
      </trkpt>
      <trkpt lat="43.92029" lon="5.41546">
        <ele>303</ele>
        <time>2015-09-23T14:35:00.000Z</time>
      </trkpt>
      <trkpt lat="43.9203" lon="5.41549">
        <ele>304</ele>
        <time>2015-09-23T14:35:01.000Z</time>
      </trkpt>
      <trkpt lat="43.92031" lon="5.41551">
        <ele>304</ele>
        <time>2015-09-23T14:35:02.000Z</time>
      </trkpt>
      <trkpt lat="43.92033" lon="5.41553">
        <ele>304</ele>
        <time>2015-09-23T14:35:03.000Z</time>
      </trkpt>
      <trkpt lat="43.92035" lon="5.41556">
        <ele>303</ele>
        <time>2015-09-23T14:35:04.000Z</time>
      </trkpt>
      <trkpt lat="43.92036" lon="5.41558">
        <ele>303</ele>
        <time>2015-09-23T14:35:05.000Z</time>
      </trkpt>
      <trkpt lat="43.92037" lon="5.41561">
        <ele>303</ele>
        <time>2015-09-23T14:35:06.000Z</time>
      </trkpt>
      <trkpt lat="43.92038" lon="5.41563">
        <ele>303</ele>
        <time>2015-09-23T14:35:07.000Z</time>
      </trkpt>
      <trkpt lat="43.92039" lon="5.41566">
        <ele>304</ele>
        <time>2015-09-23T14:35:08.000Z</time>
      </trkpt>
      <trkpt lat="43.9204" lon="5.41569">
        <ele>303</ele>
        <time>2015-09-23T14:35:09.000Z</time>
      </trkpt>
      <trkpt lat="43.92041" lon="5.41571">
        <ele>304</ele>
        <time>2015-09-23T14:35:10.000Z</time>
      </trkpt>
      <trkpt lat="43.92043" lon="5.41573">
        <ele>304</ele>
        <time>2015-09-23T14:35:11.000Z</time>
      </trkpt>
      <trkpt lat="43.92044" lon="5.41575">
        <ele>304</ele>
        <time>2015-09-23T14:35:12.000Z</time>
      </trkpt>
      <trkpt lat="43.92045" lon="5.41577">
        <ele>304</ele>
        <time>2015-09-23T14:35:13.000Z</time>
      </trkpt>
      <trkpt lat="43.92046" lon="5.41579">
        <ele>304</ele>
        <time>2015-09-23T14:35:14.000Z</time>
      </trkpt>
      <trkpt lat="43.92047" lon="5.41581">
        <ele>304</ele>
        <time>2015-09-23T14:35:15.000Z</time>
      </trkpt>
      <trkpt lat="43.92049" lon="5.41584">
        <ele>305</ele>
        <time>2015-09-23T14:35:16.000Z</time>
      </trkpt>
      <trkpt lat="43.9205" lon="5.41586">
        <ele>305</ele>
        <time>2015-09-23T14:35:17.000Z</time>
      </trkpt>
      <trkpt lat="43.92051" lon="5.41588">
        <ele>305</ele>
        <time>2015-09-23T14:35:18.000Z</time>
      </trkpt>
      <trkpt lat="43.92052" lon="5.41589">
        <ele>305</ele>
        <time>2015-09-23T14:35:19.000Z</time>
      </trkpt>
      <trkpt lat="43.92053" lon="5.41591">
        <ele>306</ele>
        <time>2015-09-23T14:35:20.000Z</time>
      </trkpt>
      <trkpt lat="43.92054" lon="5.41592">
        <ele>306</ele>
        <time>2015-09-23T14:35:21.000Z</time>
      </trkpt>
      <trkpt lat="43.92056" lon="5.41594">
        <ele>307</ele>
        <time>2015-09-23T14:35:22.000Z</time>
      </trkpt>
      <trkpt lat="43.92057" lon="5.41596">
        <ele>307</ele>
        <time>2015-09-23T14:35:23.000Z</time>
      </trkpt>
      <trkpt lat="43.9206" lon="5.41597">
        <ele>308</ele>
        <time>2015-09-23T14:35:24.000Z</time>
      </trkpt>
      <trkpt lat="43.92062" lon="5.41599">
        <ele>307</ele>
        <time>2015-09-23T14:35:25.000Z</time>
      </trkpt>
      <trkpt lat="43.92064" lon="5.416">
        <ele>308</ele>
        <time>2015-09-23T14:35:26.000Z</time>
      </trkpt>
      <trkpt lat="43.92066" lon="5.41601">
        <ele>308</ele>
        <time>2015-09-23T14:35:27.000Z</time>
      </trkpt>
      <trkpt lat="43.92068" lon="5.41603">
        <ele>308</ele>
        <time>2015-09-23T14:35:28.000Z</time>
      </trkpt>
      <trkpt lat="43.9207" lon="5.41604">
        <ele>307</ele>
        <time>2015-09-23T14:35:29.000Z</time>
      </trkpt>
      <trkpt lat="43.92072" lon="5.41606">
        <ele>308</ele>
        <time>2015-09-23T14:35:30.000Z</time>
      </trkpt>
      <trkpt lat="43.92074" lon="5.41608">
        <ele>308</ele>
        <time>2015-09-23T14:35:31.000Z</time>
      </trkpt>
      <trkpt lat="43.92076" lon="5.4161">
        <ele>307</ele>
        <time>2015-09-23T14:35:32.000Z</time>
      </trkpt>
      <trkpt lat="43.92079" lon="5.41612">
        <ele>307</ele>
        <time>2015-09-23T14:35:33.000Z</time>
      </trkpt>
      <trkpt lat="43.92081" lon="5.41615">
        <ele>307</ele>
        <time>2015-09-23T14:35:34.000Z</time>
      </trkpt>
      <trkpt lat="43.92082" lon="5.41617">
        <ele>306</ele>
        <time>2015-09-23T14:35:35.000Z</time>
      </trkpt>
      <trkpt lat="43.92084" lon="5.4162">
        <ele>306</ele>
        <time>2015-09-23T14:35:36.000Z</time>
      </trkpt>
      <trkpt lat="43.92085" lon="5.41622">
        <ele>306</ele>
        <time>2015-09-23T14:35:37.000Z</time>
      </trkpt>
      <trkpt lat="43.92087" lon="5.41623">
        <ele>306</ele>
        <time>2015-09-23T14:35:38.000Z</time>
      </trkpt>
      <trkpt lat="43.92089" lon="5.41625">
        <ele>306</ele>
        <time>2015-09-23T14:35:39.000Z</time>
      </trkpt>
      <trkpt lat="43.92091" lon="5.41626">
        <ele>305</ele>
        <time>2015-09-23T14:35:40.000Z</time>
      </trkpt>
      <trkpt lat="43.92093" lon="5.41627">
        <ele>305</ele>
        <time>2015-09-23T14:35:41.000Z</time>
      </trkpt>
      <trkpt lat="43.92095" lon="5.41628">
        <ele>304</ele>
        <time>2015-09-23T14:35:42.000Z</time>
      </trkpt>
      <trkpt lat="43.92097" lon="5.41629">
        <ele>305</ele>
        <time>2015-09-23T14:35:43.000Z</time>
      </trkpt>
      <trkpt lat="43.92098" lon="5.41631">
        <ele>304</ele>
        <time>2015-09-23T14:35:44.000Z</time>
      </trkpt>
      <trkpt lat="43.921" lon="5.41633">
        <ele>304</ele>
        <time>2015-09-23T14:35:45.000Z</time>
      </trkpt>
      <trkpt lat="43.92101" lon="5.41635">
        <ele>304</ele>
        <time>2015-09-23T14:35:46.000Z</time>
      </trkpt>
      <trkpt lat="43.92102" lon="5.41637">
        <ele>303</ele>
        <time>2015-09-23T14:35:47.000Z</time>
      </trkpt>
      <trkpt lat="43.92103" lon="5.41639">
        <ele>302</ele>
        <time>2015-09-23T14:35:48.000Z</time>
      </trkpt>
      <trkpt lat="43.92104" lon="5.41642">
        <ele>302</ele>
        <time>2015-09-23T14:35:49.000Z</time>
      </trkpt>
      <trkpt lat="43.92105" lon="5.41645">
        <ele>301</ele>
        <time>2015-09-23T14:35:50.000Z</time>
      </trkpt>
      <trkpt lat="43.92106" lon="5.41647">
        <ele>301</ele>
        <time>2015-09-23T14:35:51.000Z</time>
      </trkpt>
      <trkpt lat="43.92106" lon="5.41649">
        <ele>301</ele>
        <time>2015-09-23T14:35:52.000Z</time>
      </trkpt>
      <trkpt lat="43.92107" lon="5.41652">
        <ele>300</ele>
        <time>2015-09-23T14:35:53.000Z</time>
      </trkpt>
      <trkpt lat="43.92108" lon="5.41654">
        <ele>301</ele>
        <time>2015-09-23T14:35:54.000Z</time>
      </trkpt>
      <trkpt lat="43.9211" lon="5.41657">
        <ele>301</ele>
        <time>2015-09-23T14:35:55.000Z</time>
      </trkpt>
      <trkpt lat="43.92111" lon="5.41659">
        <ele>301</ele>
        <time>2015-09-23T14:35:56.000Z</time>
      </trkpt>
      <trkpt lat="43.92113" lon="5.41661">
        <ele>301</ele>
        <time>2015-09-23T14:35:57.000Z</time>
      </trkpt>
      <trkpt lat="43.92114" lon="5.41664">
        <ele>301</ele>
        <time>2015-09-23T14:35:58.000Z</time>
      </trkpt>
      <trkpt lat="43.92115" lon="5.41666">
        <ele>301</ele>
        <time>2015-09-23T14:35:59.000Z</time>
      </trkpt>
      <trkpt lat="43.92116" lon="5.41669">
        <ele>300</ele>
        <time>2015-09-23T14:36:00.000Z</time>
      </trkpt>
      <trkpt lat="43.92117" lon="5.41671">
        <ele>300</ele>
        <time>2015-09-23T14:36:01.000Z</time>
      </trkpt>
      <trkpt lat="43.92118" lon="5.41673">
        <ele>299</ele>
        <time>2015-09-23T14:36:02.000Z</time>
      </trkpt>
      <trkpt lat="43.9212" lon="5.41675">
        <ele>299</ele>
        <time>2015-09-23T14:36:03.000Z</time>
      </trkpt>
      <trkpt lat="43.92121" lon="5.41677">
        <ele>298</ele>
        <time>2015-09-23T14:36:04.000Z</time>
      </trkpt>
      <trkpt lat="43.92123" lon="5.41678">
        <ele>298</ele>
        <time>2015-09-23T14:36:05.000Z</time>
      </trkpt>
      <trkpt lat="43.92124" lon="5.41678">
        <ele>297</ele>
        <time>2015-09-23T14:36:06.000Z</time>
      </trkpt>
      <trkpt lat="43.92125" lon="5.41679">
        <ele>297</ele>
        <time>2015-09-23T14:36:07.000Z</time>
      </trkpt>
      <trkpt lat="43.92127" lon="5.41678">
        <ele>297</ele>
        <time>2015-09-23T14:36:08.000Z</time>
      </trkpt>
      <trkpt lat="43.92128" lon="5.41677">
        <ele>297</ele>
        <time>2015-09-23T14:36:09.000Z</time>
      </trkpt>
      <trkpt lat="43.9213" lon="5.41677">
        <ele>297</ele>
        <time>2015-09-23T14:36:10.000Z</time>
      </trkpt>
      <trkpt lat="43.92131" lon="5.41676">
        <ele>297</ele>
        <time>2015-09-23T14:36:11.000Z</time>
      </trkpt>
      <trkpt lat="43.92133" lon="5.41675">
        <ele>297</ele>
        <time>2015-09-23T14:36:12.000Z</time>
      </trkpt>
      <trkpt lat="43.92135" lon="5.41674">
        <ele>296</ele>
        <time>2015-09-23T14:36:13.000Z</time>
      </trkpt>
      <trkpt lat="43.92136" lon="5.41674">
        <ele>295</ele>
        <time>2015-09-23T14:36:14.000Z</time>
      </trkpt>
      <trkpt lat="43.92138" lon="5.41673">
        <ele>293</ele>
        <time>2015-09-23T14:36:15.000Z</time>
      </trkpt>
      <trkpt lat="43.9214" lon="5.41671">
        <ele>293</ele>
        <time>2015-09-23T14:36:16.000Z</time>
      </trkpt>
      <trkpt lat="43.92142" lon="5.4167">
        <ele>292</ele>
        <time>2015-09-23T14:36:17.000Z</time>
      </trkpt>
      <trkpt lat="43.92143" lon="5.41668">
        <ele>292</ele>
        <time>2015-09-23T14:36:18.000Z</time>
      </trkpt>
      <trkpt lat="43.92145" lon="5.41667">
        <ele>292</ele>
        <time>2015-09-23T14:36:19.000Z</time>
      </trkpt>
      <trkpt lat="43.92146" lon="5.41666">
        <ele>291</ele>
        <time>2015-09-23T14:36:20.000Z</time>
      </trkpt>
      <trkpt lat="43.92148" lon="5.41664">
        <ele>291</ele>
        <time>2015-09-23T14:36:21.000Z</time>
      </trkpt>
      <trkpt lat="43.92149" lon="5.41663">
        <ele>290</ele>
        <time>2015-09-23T14:36:22.000Z</time>
      </trkpt>
      <trkpt lat="43.92151" lon="5.41661">
        <ele>289</ele>
        <time>2015-09-23T14:36:23.000Z</time>
      </trkpt>
      <trkpt lat="43.92152" lon="5.41659">
        <ele>289</ele>
        <time>2015-09-23T14:36:24.000Z</time>
      </trkpt>
      <trkpt lat="43.92153" lon="5.41657">
        <ele>288</ele>
        <time>2015-09-23T14:36:25.000Z</time>
      </trkpt>
      <trkpt lat="43.92155" lon="5.41654">
        <ele>287</ele>
        <time>2015-09-23T14:36:26.000Z</time>
      </trkpt>
      <trkpt lat="43.92157" lon="5.41651">
        <ele>287</ele>
        <time>2015-09-23T14:36:27.000Z</time>
      </trkpt>
      <trkpt lat="43.92159" lon="5.41649">
        <ele>287</ele>
        <time>2015-09-23T14:36:28.000Z</time>
      </trkpt>
      <trkpt lat="43.9216" lon="5.41646">
        <ele>287</ele>
        <time>2015-09-23T14:36:29.000Z</time>
      </trkpt>
      <trkpt lat="43.92161" lon="5.41644">
        <ele>287</ele>
        <time>2015-09-23T14:36:30.000Z</time>
      </trkpt>
      <trkpt lat="43.92163" lon="5.41641">
        <ele>286</ele>
        <time>2015-09-23T14:36:31.000Z</time>
      </trkpt>
      <trkpt lat="43.92164" lon="5.41639">
        <ele>286</ele>
        <time>2015-09-23T14:36:32.000Z</time>
      </trkpt>
      <trkpt lat="43.92166" lon="5.41636">
        <ele>287</ele>
        <time>2015-09-23T14:36:33.000Z</time>
      </trkpt>
      <trkpt lat="43.92167" lon="5.41634">
        <ele>287</ele>
        <time>2015-09-23T14:36:34.000Z</time>
      </trkpt>
      <trkpt lat="43.92169" lon="5.41633">
        <ele>287</ele>
        <time>2015-09-23T14:36:35.000Z</time>
      </trkpt>
      <trkpt lat="43.92171" lon="5.41631">
        <ele>287</ele>
        <time>2015-09-23T14:36:36.000Z</time>
      </trkpt>
      <trkpt lat="43.92172" lon="5.4163">
        <ele>287</ele>
        <time>2015-09-23T14:36:37.000Z</time>
      </trkpt>
      <trkpt lat="43.92174" lon="5.41629">
        <ele>286</ele>
        <time>2015-09-23T14:36:38.000Z</time>
      </trkpt>
      <trkpt lat="43.92175" lon="5.41628">
        <ele>285</ele>
        <time>2015-09-23T14:36:39.000Z</time>
      </trkpt>
      <trkpt lat="43.92177" lon="5.41627">
        <ele>285</ele>
        <time>2015-09-23T14:36:40.000Z</time>
      </trkpt>
      <trkpt lat="43.92178" lon="5.41626">
        <ele>285</ele>
        <time>2015-09-23T14:36:41.000Z</time>
      </trkpt>
      <trkpt lat="43.9218" lon="5.41624">
        <ele>285</ele>
        <time>2015-09-23T14:36:42.000Z</time>
      </trkpt>
      <trkpt lat="43.92182" lon="5.41623">
        <ele>285</ele>
        <time>2015-09-23T14:36:43.000Z</time>
      </trkpt>
      <trkpt lat="43.92183" lon="5.41622">
        <ele>285</ele>
        <time>2015-09-23T14:36:44.000Z</time>
      </trkpt>
      <trkpt lat="43.92185" lon="5.41622">
        <ele>285</ele>
        <time>2015-09-23T14:36:45.000Z</time>
      </trkpt>
      <trkpt lat="43.92186" lon="5.41623">
        <ele>285</ele>
        <time>2015-09-23T14:36:46.000Z</time>
      </trkpt>
      <trkpt lat="43.92188" lon="5.41624">
        <ele>285</ele>
        <time>2015-09-23T14:36:47.000Z</time>
      </trkpt>
      <trkpt lat="43.9219" lon="5.41625">
        <ele>285</ele>
        <time>2015-09-23T14:36:48.000Z</time>
      </trkpt>
      <trkpt lat="43.92192" lon="5.41626">
        <ele>284</ele>
        <time>2015-09-23T14:36:49.000Z</time>
      </trkpt>
      <trkpt lat="43.92193" lon="5.41628">
        <ele>284</ele>
        <time>2015-09-23T14:36:50.000Z</time>
      </trkpt>
      <trkpt lat="43.92194" lon="5.4163">
        <ele>284</ele>
        <time>2015-09-23T14:36:51.000Z</time>
      </trkpt>
      <trkpt lat="43.92196" lon="5.41632">
        <ele>285</ele>
        <time>2015-09-23T14:36:52.000Z</time>
      </trkpt>
      <trkpt lat="43.92197" lon="5.41633">
        <ele>285</ele>
        <time>2015-09-23T14:36:53.000Z</time>
      </trkpt>
      <trkpt lat="43.92198" lon="5.41635">
        <ele>284</ele>
        <time>2015-09-23T14:36:54.000Z</time>
      </trkpt>
      <trkpt lat="43.92199" lon="5.41636">
        <ele>284</ele>
        <time>2015-09-23T14:36:55.000Z</time>
      </trkpt>
      <trkpt lat="43.922" lon="5.41638">
        <ele>284</ele>
        <time>2015-09-23T14:36:56.000Z</time>
      </trkpt>
      <trkpt lat="43.92201" lon="5.4164">
        <ele>285</ele>
        <time>2015-09-23T14:36:57.000Z</time>
      </trkpt>
      <trkpt lat="43.92203" lon="5.41642">
        <ele>285</ele>
        <time>2015-09-23T14:36:58.000Z</time>
      </trkpt>
      <trkpt lat="43.92204" lon="5.41643">
        <ele>285</ele>
        <time>2015-09-23T14:36:59.000Z</time>
      </trkpt>
      <trkpt lat="43.92205" lon="5.41645">
        <ele>286</ele>
        <time>2015-09-23T14:37:00.000Z</time>
      </trkpt>
      <trkpt lat="43.92206" lon="5.41648">
        <ele>286</ele>
        <time>2015-09-23T14:37:01.000Z</time>
      </trkpt>
      <trkpt lat="43.92207" lon="5.4165">
        <ele>286</ele>
        <time>2015-09-23T14:37:02.000Z</time>
      </trkpt>
      <trkpt lat="43.92208" lon="5.41651">
        <ele>285</ele>
        <time>2015-09-23T14:37:03.000Z</time>
      </trkpt>
      <trkpt lat="43.92209" lon="5.41653">
        <ele>284</ele>
        <time>2015-09-23T14:37:04.000Z</time>
      </trkpt>
      <trkpt lat="43.92209" lon="5.41655">
        <ele>284</ele>
        <time>2015-09-23T14:37:05.000Z</time>
      </trkpt>
      <trkpt lat="43.9221" lon="5.41657">
        <ele>284</ele>
        <time>2015-09-23T14:37:06.000Z</time>
      </trkpt>
      <trkpt lat="43.92211" lon="5.41658">
        <ele>285</ele>
        <time>2015-09-23T14:37:07.000Z</time>
      </trkpt>
      <trkpt lat="43.92212" lon="5.4166">
        <ele>285</ele>
        <time>2015-09-23T14:37:08.000Z</time>
      </trkpt>
      <trkpt lat="43.92214" lon="5.41662">
        <ele>286</ele>
        <time>2015-09-23T14:37:09.000Z</time>
      </trkpt>
      <trkpt lat="43.92215" lon="5.41664">
        <ele>286</ele>
        <time>2015-09-23T14:37:10.000Z</time>
      </trkpt>
      <trkpt lat="43.92216" lon="5.41667">
        <ele>286</ele>
        <time>2015-09-23T14:37:11.000Z</time>
      </trkpt>
      <trkpt lat="43.92217" lon="5.41669">
        <ele>287</ele>
        <time>2015-09-23T14:37:12.000Z</time>
      </trkpt>
      <trkpt lat="43.92218" lon="5.41671">
        <ele>286</ele>
        <time>2015-09-23T14:37:13.000Z</time>
      </trkpt>
      <trkpt lat="43.9222" lon="5.41673">
        <ele>286</ele>
        <time>2015-09-23T14:37:14.000Z</time>
      </trkpt>
      <trkpt lat="43.92221" lon="5.41674">
        <ele>286</ele>
        <time>2015-09-23T14:37:15.000Z</time>
      </trkpt>
      <trkpt lat="43.92223" lon="5.41676">
        <ele>286</ele>
        <time>2015-09-23T14:37:16.000Z</time>
      </trkpt>
      <trkpt lat="43.92224" lon="5.41677">
        <ele>286</ele>
        <time>2015-09-23T14:37:17.000Z</time>
      </trkpt>
      <trkpt lat="43.92225" lon="5.41679">
        <ele>287</ele>
        <time>2015-09-23T14:37:18.000Z</time>
      </trkpt>
      <trkpt lat="43.92227" lon="5.41681">
        <ele>286</ele>
        <time>2015-09-23T14:37:19.000Z</time>
      </trkpt>
      <trkpt lat="43.92228" lon="5.41683">
        <ele>286</ele>
        <time>2015-09-23T14:37:20.000Z</time>
      </trkpt>
      <trkpt lat="43.9223" lon="5.41685">
        <ele>287</ele>
        <time>2015-09-23T14:37:21.000Z</time>
      </trkpt>
      <trkpt lat="43.92231" lon="5.41687">
        <ele>286</ele>
        <time>2015-09-23T14:37:22.000Z</time>
      </trkpt>
      <trkpt lat="43.92232" lon="5.41689">
        <ele>287</ele>
        <time>2015-09-23T14:37:23.000Z</time>
      </trkpt>
      <trkpt lat="43.92233" lon="5.41691">
        <ele>287</ele>
        <time>2015-09-23T14:37:24.000Z</time>
      </trkpt>
      <trkpt lat="43.92234" lon="5.41692">
        <ele>287</ele>
        <time>2015-09-23T14:37:25.000Z</time>
      </trkpt>
      <trkpt lat="43.92236" lon="5.41694">
        <ele>287</ele>
        <time>2015-09-23T14:37:26.000Z</time>
      </trkpt>
      <trkpt lat="43.92237" lon="5.41695">
        <ele>289</ele>
        <time>2015-09-23T14:37:27.000Z</time>
      </trkpt>
      <trkpt lat="43.92239" lon="5.41697">
        <ele>289</ele>
        <time>2015-09-23T14:37:28.000Z</time>
      </trkpt>
      <trkpt lat="43.92241" lon="5.41698">
        <ele>289</ele>
        <time>2015-09-23T14:37:29.000Z</time>
      </trkpt>
      <trkpt lat="43.92242" lon="5.41699">
        <ele>290</ele>
        <time>2015-09-23T14:37:30.000Z</time>
      </trkpt>
      <trkpt lat="43.92244" lon="5.417">
        <ele>290</ele>
        <time>2015-09-23T14:37:31.000Z</time>
      </trkpt>
      <trkpt lat="43.92245" lon="5.41701">
        <ele>291</ele>
        <time>2015-09-23T14:37:32.000Z</time>
      </trkpt>
      <trkpt lat="43.92246" lon="5.41701">
        <ele>291</ele>
        <time>2015-09-23T14:37:33.000Z</time>
      </trkpt>
      <trkpt lat="43.92248" lon="5.41702">
        <ele>291</ele>
        <time>2015-09-23T14:37:34.000Z</time>
      </trkpt>
      <trkpt lat="43.9225" lon="5.41703">
        <ele>292</ele>
        <time>2015-09-23T14:37:35.000Z</time>
      </trkpt>
      <trkpt lat="43.92252" lon="5.41704">
        <ele>292</ele>
        <time>2015-09-23T14:37:36.000Z</time>
      </trkpt>
      <trkpt lat="43.92254" lon="5.41706">
        <ele>292</ele>
        <time>2015-09-23T14:37:37.000Z</time>
      </trkpt>
      <trkpt lat="43.92256" lon="5.41707">
        <ele>292</ele>
        <time>2015-09-23T14:37:38.000Z</time>
      </trkpt>
      <trkpt lat="43.92258" lon="5.41707">
        <ele>292</ele>
        <time>2015-09-23T14:37:39.000Z</time>
      </trkpt>
      <trkpt lat="43.9226" lon="5.41708">
        <ele>292</ele>
        <time>2015-09-23T14:37:40.000Z</time>
      </trkpt>
      <trkpt lat="43.92261" lon="5.4171">
        <ele>291</ele>
        <time>2015-09-23T14:37:41.000Z</time>
      </trkpt>
      <trkpt lat="43.92262" lon="5.41711">
        <ele>291</ele>
        <time>2015-09-23T14:37:42.000Z</time>
      </trkpt>
      <trkpt lat="43.92263" lon="5.41713">
        <ele>291</ele>
        <time>2015-09-23T14:37:43.000Z</time>
      </trkpt>
      <trkpt lat="43.92264" lon="5.41714">
        <ele>291</ele>
        <time>2015-09-23T14:37:44.000Z</time>
      </trkpt>
      <trkpt lat="43.92265" lon="5.41716">
        <ele>291</ele>
        <time>2015-09-23T14:37:45.000Z</time>
      </trkpt>
      <trkpt lat="43.92266" lon="5.41718">
        <ele>291</ele>
        <time>2015-09-23T14:37:46.000Z</time>
      </trkpt>
      <trkpt lat="43.92268" lon="5.4172">
        <ele>290</ele>
        <time>2015-09-23T14:37:47.000Z</time>
      </trkpt>
      <trkpt lat="43.92269" lon="5.41723">
        <ele>291</ele>
        <time>2015-09-23T14:37:48.000Z</time>
      </trkpt>
      <trkpt lat="43.92271" lon="5.41726">
        <ele>291</ele>
        <time>2015-09-23T14:37:49.000Z</time>
      </trkpt>
      <trkpt lat="43.92273" lon="5.41728">
        <ele>292</ele>
        <time>2015-09-23T14:37:50.000Z</time>
      </trkpt>
      <trkpt lat="43.92275" lon="5.41731">
        <ele>292</ele>
        <time>2015-09-23T14:37:51.000Z</time>
      </trkpt>
      <trkpt lat="43.92277" lon="5.41733">
        <ele>291</ele>
        <time>2015-09-23T14:37:52.000Z</time>
      </trkpt>
      <trkpt lat="43.92279" lon="5.41736">
        <ele>291</ele>
        <time>2015-09-23T14:37:53.000Z</time>
      </trkpt>
      <trkpt lat="43.92281" lon="5.41739">
        <ele>292</ele>
        <time>2015-09-23T14:37:54.000Z</time>
      </trkpt>
      <trkpt lat="43.92282" lon="5.41741">
        <ele>292</ele>
        <time>2015-09-23T14:37:55.000Z</time>
      </trkpt>
      <trkpt lat="43.92283" lon="5.41744">
        <ele>291</ele>
        <time>2015-09-23T14:37:56.000Z</time>
      </trkpt>
      <trkpt lat="43.92284" lon="5.41747">
        <ele>291</ele>
        <time>2015-09-23T14:37:57.000Z</time>
      </trkpt>
      <trkpt lat="43.92285" lon="5.41749">
        <ele>291</ele>
        <time>2015-09-23T14:37:58.000Z</time>
      </trkpt>
      <trkpt lat="43.92285" lon="5.41751">
        <ele>292</ele>
        <time>2015-09-23T14:37:59.000Z</time>
      </trkpt>
      <trkpt lat="43.92286" lon="5.41754">
        <ele>291</ele>
        <time>2015-09-23T14:38:00.000Z</time>
      </trkpt>
      <trkpt lat="43.92286" lon="5.41756">
        <ele>291</ele>
        <time>2015-09-23T14:38:01.000Z</time>
      </trkpt>
      <trkpt lat="43.92286" lon="5.41759">
        <ele>291</ele>
        <time>2015-09-23T14:38:02.000Z</time>
      </trkpt>
      <trkpt lat="43.92287" lon="5.41761">
        <ele>291</ele>
        <time>2015-09-23T14:38:03.000Z</time>
      </trkpt>
      <trkpt lat="43.92287" lon="5.41764">
        <ele>292</ele>
        <time>2015-09-23T14:38:04.000Z</time>
      </trkpt>
      <trkpt lat="43.92286" lon="5.41767">
        <ele>293</ele>
        <time>2015-09-23T14:38:05.000Z</time>
      </trkpt>
      <trkpt lat="43.92286" lon="5.4177">
        <ele>292</ele>
        <time>2015-09-23T14:38:06.000Z</time>
      </trkpt>
      <trkpt lat="43.92286" lon="5.41773">
        <ele>293</ele>
        <time>2015-09-23T14:38:07.000Z</time>
      </trkpt>
      <trkpt lat="43.92287" lon="5.41776">
        <ele>293</ele>
        <time>2015-09-23T14:38:08.000Z</time>
      </trkpt>
      <trkpt lat="43.92287" lon="5.41779">
        <ele>294</ele>
        <time>2015-09-23T14:38:09.000Z</time>
      </trkpt>
      <trkpt lat="43.92287" lon="5.41781">
        <ele>295</ele>
        <time>2015-09-23T14:38:10.000Z</time>
      </trkpt>
      <trkpt lat="43.92287" lon="5.41783">
        <ele>296</ele>
        <time>2015-09-23T14:38:11.000Z</time>
      </trkpt>
      <trkpt lat="43.92287" lon="5.41786">
        <ele>296</ele>
        <time>2015-09-23T14:38:12.000Z</time>
      </trkpt>
      <trkpt lat="43.92287" lon="5.41788">
        <ele>297</ele>
        <time>2015-09-23T14:38:13.000Z</time>
      </trkpt>
      <trkpt lat="43.92287" lon="5.4179">
        <ele>296</ele>
        <time>2015-09-23T14:38:14.000Z</time>
      </trkpt>
      <trkpt lat="43.92286" lon="5.41792">
        <ele>296</ele>
        <time>2015-09-23T14:38:15.000Z</time>
      </trkpt>
      <trkpt lat="43.92286" lon="5.41795">
        <ele>295</ele>
        <time>2015-09-23T14:38:16.000Z</time>
      </trkpt>
      <trkpt lat="43.92285" lon="5.41797">
        <ele>295</ele>
        <time>2015-09-23T14:38:17.000Z</time>
      </trkpt>
      <trkpt lat="43.92285" lon="5.418">
        <ele>295</ele>
        <time>2015-09-23T14:38:18.000Z</time>
      </trkpt>
      <trkpt lat="43.92286" lon="5.41802">
        <ele>294</ele>
        <time>2015-09-23T14:38:19.000Z</time>
      </trkpt>
      <trkpt lat="43.92286" lon="5.41805">
        <ele>294</ele>
        <time>2015-09-23T14:38:20.000Z</time>
      </trkpt>
      <trkpt lat="43.92287" lon="5.41807">
        <ele>294</ele>
        <time>2015-09-23T14:38:21.000Z</time>
      </trkpt>
      <trkpt lat="43.92287" lon="5.4181">
        <ele>293</ele>
        <time>2015-09-23T14:38:22.000Z</time>
      </trkpt>
      <trkpt lat="43.92288" lon="5.41812">
        <ele>293</ele>
        <time>2015-09-23T14:38:23.000Z</time>
      </trkpt>
      <trkpt lat="43.92288" lon="5.41814">
        <ele>293</ele>
        <time>2015-09-23T14:38:24.000Z</time>
      </trkpt>
      <trkpt lat="43.92288" lon="5.41816">
        <ele>293</ele>
        <time>2015-09-23T14:38:25.000Z</time>
      </trkpt>
      <trkpt lat="43.92289" lon="5.41818">
        <ele>293</ele>
        <time>2015-09-23T14:38:26.000Z</time>
      </trkpt>
      <trkpt lat="43.92288" lon="5.4182">
        <ele>293</ele>
        <time>2015-09-23T14:38:27.000Z</time>
      </trkpt>
      <trkpt lat="43.92288" lon="5.41823">
        <ele>294</ele>
        <time>2015-09-23T14:38:28.000Z</time>
      </trkpt>
      <trkpt lat="43.92288" lon="5.41826">
        <ele>294</ele>
        <time>2015-09-23T14:38:29.000Z</time>
      </trkpt>
      <trkpt lat="43.92288" lon="5.41828">
        <ele>295</ele>
        <time>2015-09-23T14:38:30.000Z</time>
      </trkpt>
      <trkpt lat="43.92288" lon="5.41831">
        <ele>295</ele>
        <time>2015-09-23T14:38:31.000Z</time>
      </trkpt>
      <trkpt lat="43.92289" lon="5.41833">
        <ele>295</ele>
        <time>2015-09-23T14:38:32.000Z</time>
      </trkpt>
      <trkpt lat="43.9229" lon="5.41835">
        <ele>295</ele>
        <time>2015-09-23T14:38:33.000Z</time>
      </trkpt>
      <trkpt lat="43.92291" lon="5.41837">
        <ele>296</ele>
        <time>2015-09-23T14:38:34.000Z</time>
      </trkpt>
      <trkpt lat="43.92292" lon="5.41838">
        <ele>296</ele>
        <time>2015-09-23T14:38:35.000Z</time>
      </trkpt>
      <trkpt lat="43.92294" lon="5.41839">
        <ele>295</ele>
        <time>2015-09-23T14:38:36.000Z</time>
      </trkpt>
      <trkpt lat="43.92296" lon="5.41839">
        <ele>295</ele>
        <time>2015-09-23T14:38:37.000Z</time>
      </trkpt>
      <trkpt lat="43.92298" lon="5.4184">
        <ele>295</ele>
        <time>2015-09-23T14:38:38.000Z</time>
      </trkpt>
      <trkpt lat="43.923" lon="5.4184">
        <ele>295</ele>
        <time>2015-09-23T14:38:39.000Z</time>
      </trkpt>
      <trkpt lat="43.92302" lon="5.41841">
        <ele>295</ele>
        <time>2015-09-23T14:38:40.000Z</time>
      </trkpt>
      <trkpt lat="43.92303" lon="5.41841">
        <ele>294</ele>
        <time>2015-09-23T14:38:41.000Z</time>
      </trkpt>
      <trkpt lat="43.92305" lon="5.4184">
        <ele>294</ele>
        <time>2015-09-23T14:38:42.000Z</time>
      </trkpt>
      <trkpt lat="43.92307" lon="5.4184">
        <ele>294</ele>
        <time>2015-09-23T14:38:43.000Z</time>
      </trkpt>
      <trkpt lat="43.92309" lon="5.41839">
        <ele>294</ele>
        <time>2015-09-23T14:38:44.000Z</time>
      </trkpt>
      <trkpt lat="43.9231" lon="5.41838">
        <ele>294</ele>
        <time>2015-09-23T14:38:45.000Z</time>
      </trkpt>
      <trkpt lat="43.92312" lon="5.41836">
        <ele>294</ele>
        <time>2015-09-23T14:38:46.000Z</time>
      </trkpt>
      <trkpt lat="43.92314" lon="5.41835">
        <ele>293</ele>
        <time>2015-09-23T14:38:47.000Z</time>
      </trkpt>
      <trkpt lat="43.92316" lon="5.41833">
        <ele>294</ele>
        <time>2015-09-23T14:38:48.000Z</time>
      </trkpt>
      <trkpt lat="43.92317" lon="5.41832">
        <ele>294</ele>
        <time>2015-09-23T14:38:49.000Z</time>
      </trkpt>
      <trkpt lat="43.92319" lon="5.4183">
        <ele>295</ele>
        <time>2015-09-23T14:38:50.000Z</time>
      </trkpt>
      <trkpt lat="43.92321" lon="5.41828">
        <ele>295</ele>
        <time>2015-09-23T14:38:51.000Z</time>
      </trkpt>
      <trkpt lat="43.92322" lon="5.41827">
        <ele>296</ele>
        <time>2015-09-23T14:38:52.000Z</time>
      </trkpt>
      <trkpt lat="43.92324" lon="5.41825">
        <ele>295</ele>
        <time>2015-09-23T14:38:53.000Z</time>
      </trkpt>
      <trkpt lat="43.92326" lon="5.41823">
        <ele>296</ele>
        <time>2015-09-23T14:38:54.000Z</time>
      </trkpt>
      <trkpt lat="43.92328" lon="5.41821">
        <ele>296</ele>
        <time>2015-09-23T14:38:55.000Z</time>
      </trkpt>
      <trkpt lat="43.92329" lon="5.4182">
        <ele>296</ele>
        <time>2015-09-23T14:38:56.000Z</time>
      </trkpt>
      <trkpt lat="43.92331" lon="5.41818">
        <ele>297</ele>
        <time>2015-09-23T14:38:57.000Z</time>
      </trkpt>
      <trkpt lat="43.92333" lon="5.41816">
        <ele>297</ele>
        <time>2015-09-23T14:38:58.000Z</time>
      </trkpt>
      <trkpt lat="43.92335" lon="5.41815">
        <ele>298</ele>
        <time>2015-09-23T14:38:59.000Z</time>
      </trkpt>
      <trkpt lat="43.92337" lon="5.41813">
        <ele>299</ele>
        <time>2015-09-23T14:39:00.000Z</time>
      </trkpt>
      <trkpt lat="43.92339" lon="5.41812">
        <ele>299</ele>
        <time>2015-09-23T14:39:01.000Z</time>
      </trkpt>
      <trkpt lat="43.92341" lon="5.4181">
        <ele>300</ele>
        <time>2015-09-23T14:39:02.000Z</time>
      </trkpt>
      <trkpt lat="43.92342" lon="5.41809">
        <ele>300</ele>
        <time>2015-09-23T14:39:03.000Z</time>
      </trkpt>
      <trkpt lat="43.92344" lon="5.41808">
        <ele>300</ele>
        <time>2015-09-23T14:39:04.000Z</time>
      </trkpt>
      <trkpt lat="43.92346" lon="5.41806">
        <ele>301</ele>
        <time>2015-09-23T14:39:05.000Z</time>
      </trkpt>
      <trkpt lat="43.92347" lon="5.41805">
        <ele>301</ele>
        <time>2015-09-23T14:39:06.000Z</time>
      </trkpt>
      <trkpt lat="43.92349" lon="5.41804">
        <ele>301</ele>
        <time>2015-09-23T14:39:07.000Z</time>
      </trkpt>
      <trkpt lat="43.92351" lon="5.41803">
        <ele>301</ele>
        <time>2015-09-23T14:39:08.000Z</time>
      </trkpt>
      <trkpt lat="43.92352" lon="5.41802">
        <ele>302</ele>
        <time>2015-09-23T14:39:09.000Z</time>
      </trkpt>
      <trkpt lat="43.92354" lon="5.41802">
        <ele>302</ele>
        <time>2015-09-23T14:39:10.000Z</time>
      </trkpt>
      <trkpt lat="43.92355" lon="5.41801">
        <ele>301</ele>
        <time>2015-09-23T14:39:11.000Z</time>
      </trkpt>
      <trkpt lat="43.92357" lon="5.418">
        <ele>302</ele>
        <time>2015-09-23T14:39:12.000Z</time>
      </trkpt>
      <trkpt lat="43.92358" lon="5.418">
        <ele>302</ele>
        <time>2015-09-23T14:39:13.000Z</time>
      </trkpt>
      <trkpt lat="43.92359" lon="5.41799">
        <ele>302</ele>
        <time>2015-09-23T14:39:14.000Z</time>
      </trkpt>
      <trkpt lat="43.92361" lon="5.41798">
        <ele>302</ele>
        <time>2015-09-23T14:39:15.000Z</time>
      </trkpt>
      <trkpt lat="43.92363" lon="5.41797">
        <ele>303</ele>
        <time>2015-09-23T14:39:16.000Z</time>
      </trkpt>
      <trkpt lat="43.92365" lon="5.41796">
        <ele>303</ele>
        <time>2015-09-23T14:39:17.000Z</time>
      </trkpt>
      <trkpt lat="43.92366" lon="5.41795">
        <ele>303</ele>
        <time>2015-09-23T14:39:18.000Z</time>
      </trkpt>
      <trkpt lat="43.92368" lon="5.41794">
        <ele>304</ele>
        <time>2015-09-23T14:39:19.000Z</time>
      </trkpt>
      <trkpt lat="43.9237" lon="5.41792">
        <ele>304</ele>
        <time>2015-09-23T14:39:20.000Z</time>
      </trkpt>
      <trkpt lat="43.92371" lon="5.41791">
        <ele>305</ele>
        <time>2015-09-23T14:39:21.000Z</time>
      </trkpt>
      <trkpt lat="43.92373" lon="5.41789">
        <ele>304</ele>
        <time>2015-09-23T14:39:22.000Z</time>
      </trkpt>
      <trkpt lat="43.92375" lon="5.41789">
        <ele>304</ele>
        <time>2015-09-23T14:39:23.000Z</time>
      </trkpt>
      <trkpt lat="43.92376" lon="5.41789">
        <ele>304</ele>
        <time>2015-09-23T14:39:24.000Z</time>
      </trkpt>
      <trkpt lat="43.92378" lon="5.41791">
        <ele>303</ele>
        <time>2015-09-23T14:39:25.000Z</time>
      </trkpt>
      <trkpt lat="43.9238" lon="5.41793">
        <ele>303</ele>
        <time>2015-09-23T14:39:26.000Z</time>
      </trkpt>
      <trkpt lat="43.92381" lon="5.41796">
        <ele>303</ele>
        <time>2015-09-23T14:39:27.000Z</time>
      </trkpt>
      <trkpt lat="43.92382" lon="5.41798">
        <ele>303</ele>
        <time>2015-09-23T14:39:28.000Z</time>
      </trkpt>
      <trkpt lat="43.92383" lon="5.41801">
        <ele>303</ele>
        <time>2015-09-23T14:39:29.000Z</time>
      </trkpt>
      <trkpt lat="43.92384" lon="5.41803">
        <ele>303</ele>
        <time>2015-09-23T14:39:30.000Z</time>
      </trkpt>
      <trkpt lat="43.92385" lon="5.41806">
        <ele>303</ele>
        <time>2015-09-23T14:39:31.000Z</time>
      </trkpt>
      <trkpt lat="43.92386" lon="5.41809">
        <ele>303</ele>
        <time>2015-09-23T14:39:32.000Z</time>
      </trkpt>
      <trkpt lat="43.92387" lon="5.41812">
        <ele>303</ele>
        <time>2015-09-23T14:39:33.000Z</time>
      </trkpt>
      <trkpt lat="43.92388" lon="5.41814">
        <ele>303</ele>
        <time>2015-09-23T14:39:34.000Z</time>
      </trkpt>
      <trkpt lat="43.9239" lon="5.41817">
        <ele>304</ele>
        <time>2015-09-23T14:39:35.000Z</time>
      </trkpt>
      <trkpt lat="43.92391" lon="5.4182">
        <ele>304</ele>
        <time>2015-09-23T14:39:36.000Z</time>
      </trkpt>
      <trkpt lat="43.92392" lon="5.41822">
        <ele>304</ele>
        <time>2015-09-23T14:39:37.000Z</time>
      </trkpt>
      <trkpt lat="43.92393" lon="5.41825">
        <ele>304</ele>
        <time>2015-09-23T14:39:38.000Z</time>
      </trkpt>
      <trkpt lat="43.92394" lon="5.41827">
        <ele>304</ele>
        <time>2015-09-23T14:39:39.000Z</time>
      </trkpt>
      <trkpt lat="43.92396" lon="5.4183">
        <ele>305</ele>
        <time>2015-09-23T14:39:40.000Z</time>
      </trkpt>
      <trkpt lat="43.92397" lon="5.41833">
        <ele>305</ele>
        <time>2015-09-23T14:39:41.000Z</time>
      </trkpt>
      <trkpt lat="43.92397" lon="5.41835">
        <ele>305</ele>
        <time>2015-09-23T14:39:42.000Z</time>
      </trkpt>
      <trkpt lat="43.92398" lon="5.41838">
        <ele>305</ele>
        <time>2015-09-23T14:39:43.000Z</time>
      </trkpt>
      <trkpt lat="43.92399" lon="5.4184">
        <ele>305</ele>
        <time>2015-09-23T14:39:44.000Z</time>
      </trkpt>
      <trkpt lat="43.924" lon="5.41842">
        <ele>305</ele>
        <time>2015-09-23T14:39:45.000Z</time>
      </trkpt>
      <trkpt lat="43.92401" lon="5.41845">
        <ele>306</ele>
        <time>2015-09-23T14:39:46.000Z</time>
      </trkpt>
      <trkpt lat="43.92402" lon="5.41848">
        <ele>306</ele>
        <time>2015-09-23T14:39:47.000Z</time>
      </trkpt>
      <trkpt lat="43.92403" lon="5.41851">
        <ele>306</ele>
        <time>2015-09-23T14:39:48.000Z</time>
      </trkpt>
      <trkpt lat="43.92404" lon="5.41854">
        <ele>306</ele>
        <time>2015-09-23T14:39:49.000Z</time>
      </trkpt>
      <trkpt lat="43.92404" lon="5.41856">
        <ele>306</ele>
        <time>2015-09-23T14:39:50.000Z</time>
      </trkpt>
      <trkpt lat="43.92405" lon="5.41859">
        <ele>306</ele>
        <time>2015-09-23T14:39:51.000Z</time>
      </trkpt>
      <trkpt lat="43.92406" lon="5.41862">
        <ele>306</ele>
        <time>2015-09-23T14:39:52.000Z</time>
      </trkpt>
      <trkpt lat="43.92407" lon="5.41865">
        <ele>307</ele>
        <time>2015-09-23T14:39:53.000Z</time>
      </trkpt>
      <trkpt lat="43.92408" lon="5.41867">
        <ele>306</ele>
        <time>2015-09-23T14:39:54.000Z</time>
      </trkpt>
      <trkpt lat="43.92409" lon="5.4187">
        <ele>306</ele>
        <time>2015-09-23T14:39:55.000Z</time>
      </trkpt>
      <trkpt lat="43.9241" lon="5.41873">
        <ele>307</ele>
        <time>2015-09-23T14:39:56.000Z</time>
      </trkpt>
      <trkpt lat="43.9241" lon="5.41875">
        <ele>307</ele>
        <time>2015-09-23T14:39:57.000Z</time>
      </trkpt>
      <trkpt lat="43.92411" lon="5.41878">
        <ele>307</ele>
        <time>2015-09-23T14:39:58.000Z</time>
      </trkpt>
      <trkpt lat="43.92412" lon="5.41881">
        <ele>307</ele>
        <time>2015-09-23T14:39:59.000Z</time>
      </trkpt>
      <trkpt lat="43.92413" lon="5.41884">
        <ele>307</ele>
        <time>2015-09-23T14:40:00.000Z</time>
      </trkpt>
      <trkpt lat="43.92414" lon="5.41886">
        <ele>307</ele>
        <time>2015-09-23T14:40:01.000Z</time>
      </trkpt>
      <trkpt lat="43.92415" lon="5.41889">
        <ele>307</ele>
        <time>2015-09-23T14:40:02.000Z</time>
      </trkpt>
      <trkpt lat="43.92415" lon="5.41892">
        <ele>307</ele>
        <time>2015-09-23T14:40:03.000Z</time>
      </trkpt>
      <trkpt lat="43.92416" lon="5.41894">
        <ele>307</ele>
        <time>2015-09-23T14:40:04.000Z</time>
      </trkpt>
      <trkpt lat="43.92417" lon="5.41897">
        <ele>307</ele>
        <time>2015-09-23T14:40:05.000Z</time>
      </trkpt>
      <trkpt lat="43.92417" lon="5.419">
        <ele>308</ele>
        <time>2015-09-23T14:40:06.000Z</time>
      </trkpt>
      <trkpt lat="43.92418" lon="5.41903">
        <ele>308</ele>
        <time>2015-09-23T14:40:07.000Z</time>
      </trkpt>
      <trkpt lat="43.92419" lon="5.41906">
        <ele>309</ele>
        <time>2015-09-23T14:40:08.000Z</time>
      </trkpt>
      <trkpt lat="43.9242" lon="5.41909">
        <ele>309</ele>
        <time>2015-09-23T14:40:09.000Z</time>
      </trkpt>
      <trkpt lat="43.9242" lon="5.41912">
        <ele>309</ele>
        <time>2015-09-23T14:40:10.000Z</time>
      </trkpt>
      <trkpt lat="43.92421" lon="5.41915">
        <ele>309</ele>
        <time>2015-09-23T14:40:11.000Z</time>
      </trkpt>
      <trkpt lat="43.92422" lon="5.41917">
        <ele>309</ele>
        <time>2015-09-23T14:40:12.000Z</time>
      </trkpt>
      <trkpt lat="43.92423" lon="5.4192">
        <ele>309</ele>
        <time>2015-09-23T14:40:13.000Z</time>
      </trkpt>
      <trkpt lat="43.92424" lon="5.41923">
        <ele>309</ele>
        <time>2015-09-23T14:40:14.000Z</time>
      </trkpt>
      <trkpt lat="43.92424" lon="5.41926">
        <ele>309</ele>
        <time>2015-09-23T14:40:15.000Z</time>
      </trkpt>
      <trkpt lat="43.92425" lon="5.41929">
        <ele>309</ele>
        <time>2015-09-23T14:40:16.000Z</time>
      </trkpt>
      <trkpt lat="43.92425" lon="5.41931">
        <ele>309</ele>
        <time>2015-09-23T14:40:17.000Z</time>
      </trkpt>
      <trkpt lat="43.92426" lon="5.41934">
        <ele>309</ele>
        <time>2015-09-23T14:40:18.000Z</time>
      </trkpt>
      <trkpt lat="43.92426" lon="5.41937">
        <ele>308</ele>
        <time>2015-09-23T14:40:19.000Z</time>
      </trkpt>
      <trkpt lat="43.92426" lon="5.4194">
        <ele>308</ele>
        <time>2015-09-23T14:40:20.000Z</time>
      </trkpt>
      <trkpt lat="43.92427" lon="5.41943">
        <ele>308</ele>
        <time>2015-09-23T14:40:21.000Z</time>
      </trkpt>
      <trkpt lat="43.92427" lon="5.41946">
        <ele>309</ele>
        <time>2015-09-23T14:40:22.000Z</time>
      </trkpt>
      <trkpt lat="43.92428" lon="5.41949">
        <ele>308</ele>
        <time>2015-09-23T14:40:23.000Z</time>
      </trkpt>
      <trkpt lat="43.92429" lon="5.41952">
        <ele>309</ele>
        <time>2015-09-23T14:40:24.000Z</time>
      </trkpt>
      <trkpt lat="43.9243" lon="5.41955">
        <ele>308</ele>
        <time>2015-09-23T14:40:25.000Z</time>
      </trkpt>
      <trkpt lat="43.92431" lon="5.41958">
        <ele>308</ele>
        <time>2015-09-23T14:40:26.000Z</time>
      </trkpt>
      <trkpt lat="43.92432" lon="5.41961">
        <ele>308</ele>
        <time>2015-09-23T14:40:27.000Z</time>
      </trkpt>
      <trkpt lat="43.92433" lon="5.41964">
        <ele>309</ele>
        <time>2015-09-23T14:40:28.000Z</time>
      </trkpt>
      <trkpt lat="43.92434" lon="5.41966">
        <ele>309</ele>
        <time>2015-09-23T14:40:29.000Z</time>
      </trkpt>
      <trkpt lat="43.92434" lon="5.41969">
        <ele>309</ele>
        <time>2015-09-23T14:40:30.000Z</time>
      </trkpt>
      <trkpt lat="43.92435" lon="5.41972">
        <ele>309</ele>
        <time>2015-09-23T14:40:31.000Z</time>
      </trkpt>
      <trkpt lat="43.92435" lon="5.41975">
        <ele>309</ele>
        <time>2015-09-23T14:40:32.000Z</time>
      </trkpt>
      <trkpt lat="43.92436" lon="5.41978">
        <ele>309</ele>
        <time>2015-09-23T14:40:33.000Z</time>
      </trkpt>
      <trkpt lat="43.92436" lon="5.41981">
        <ele>310</ele>
        <time>2015-09-23T14:40:34.000Z</time>
      </trkpt>
      <trkpt lat="43.92437" lon="5.41984">
        <ele>310</ele>
        <time>2015-09-23T14:40:35.000Z</time>
      </trkpt>
      <trkpt lat="43.92438" lon="5.41987">
        <ele>311</ele>
        <time>2015-09-23T14:40:36.000Z</time>
      </trkpt>
      <trkpt lat="43.92438" lon="5.4199">
        <ele>311</ele>
        <time>2015-09-23T14:40:37.000Z</time>
      </trkpt>
      <trkpt lat="43.92439" lon="5.41993">
        <ele>312</ele>
        <time>2015-09-23T14:40:38.000Z</time>
      </trkpt>
      <trkpt lat="43.9244" lon="5.41996">
        <ele>312</ele>
        <time>2015-09-23T14:40:39.000Z</time>
      </trkpt>
      <trkpt lat="43.9244" lon="5.41999">
        <ele>312</ele>
        <time>2015-09-23T14:40:40.000Z</time>
      </trkpt>
      <trkpt lat="43.92441" lon="5.42002">
        <ele>312</ele>
        <time>2015-09-23T14:40:41.000Z</time>
      </trkpt>
      <trkpt lat="43.92442" lon="5.42004">
        <ele>312</ele>
        <time>2015-09-23T14:40:42.000Z</time>
      </trkpt>
      <trkpt lat="43.92442" lon="5.42007">
        <ele>313</ele>
        <time>2015-09-23T14:40:43.000Z</time>
      </trkpt>
      <trkpt lat="43.92443" lon="5.4201">
        <ele>313</ele>
        <time>2015-09-23T14:40:44.000Z</time>
      </trkpt>
      <trkpt lat="43.92444" lon="5.42013">
        <ele>313</ele>
        <time>2015-09-23T14:40:45.000Z</time>
      </trkpt>
      <trkpt lat="43.92445" lon="5.42016">
        <ele>313</ele>
        <time>2015-09-23T14:40:46.000Z</time>
      </trkpt>
      <trkpt lat="43.92446" lon="5.42019">
        <ele>313</ele>
        <time>2015-09-23T14:40:47.000Z</time>
      </trkpt>
      <trkpt lat="43.92446" lon="5.42022">
        <ele>313</ele>
        <time>2015-09-23T14:40:48.000Z</time>
      </trkpt>
      <trkpt lat="43.92447" lon="5.42025">
        <ele>313</ele>
        <time>2015-09-23T14:40:49.000Z</time>
      </trkpt>
      <trkpt lat="43.92447" lon="5.42029">
        <ele>313</ele>
        <time>2015-09-23T14:40:50.000Z</time>
      </trkpt>
      <trkpt lat="43.92448" lon="5.42031">
        <ele>314</ele>
        <time>2015-09-23T14:40:51.000Z</time>
      </trkpt>
      <trkpt lat="43.92448" lon="5.42034">
        <ele>313</ele>
        <time>2015-09-23T14:40:52.000Z</time>
      </trkpt>
      <trkpt lat="43.92449" lon="5.42037">
        <ele>312</ele>
        <time>2015-09-23T14:40:53.000Z</time>
      </trkpt>
      <trkpt lat="43.92449" lon="5.4204">
        <ele>313</ele>
        <time>2015-09-23T14:40:54.000Z</time>
      </trkpt>
      <trkpt lat="43.9245" lon="5.42043">
        <ele>313</ele>
        <time>2015-09-23T14:40:55.000Z</time>
      </trkpt>
      <trkpt lat="43.92451" lon="5.42046">
        <ele>313</ele>
        <time>2015-09-23T14:40:56.000Z</time>
      </trkpt>
      <trkpt lat="43.92451" lon="5.42049">
        <ele>313</ele>
        <time>2015-09-23T14:40:57.000Z</time>
      </trkpt>
      <trkpt lat="43.92452" lon="5.42051">
        <ele>313</ele>
        <time>2015-09-23T14:40:58.000Z</time>
      </trkpt>
      <trkpt lat="43.92453" lon="5.42054">
        <ele>313</ele>
        <time>2015-09-23T14:40:59.000Z</time>
      </trkpt>
      <trkpt lat="43.92453" lon="5.42057">
        <ele>314</ele>
        <time>2015-09-23T14:41:00.000Z</time>
      </trkpt>
      <trkpt lat="43.92454" lon="5.4206">
        <ele>314</ele>
        <time>2015-09-23T14:41:01.000Z</time>
      </trkpt>
      <trkpt lat="43.92455" lon="5.42063">
        <ele>314</ele>
        <time>2015-09-23T14:41:02.000Z</time>
      </trkpt>
      <trkpt lat="43.92455" lon="5.42066">
        <ele>314</ele>
        <time>2015-09-23T14:41:03.000Z</time>
      </trkpt>
      <trkpt lat="43.92456" lon="5.42069">
        <ele>314</ele>
        <time>2015-09-23T14:41:04.000Z</time>
      </trkpt>
      <trkpt lat="43.92457" lon="5.42072">
        <ele>314</ele>
        <time>2015-09-23T14:41:05.000Z</time>
      </trkpt>
      <trkpt lat="43.92458" lon="5.42074">
        <ele>314</ele>
        <time>2015-09-23T14:41:06.000Z</time>
      </trkpt>
      <trkpt lat="43.92459" lon="5.42077">
        <ele>314</ele>
        <time>2015-09-23T14:41:07.000Z</time>
      </trkpt>
      <trkpt lat="43.92459" lon="5.4208">
        <ele>314</ele>
        <time>2015-09-23T14:41:08.000Z</time>
      </trkpt>
      <trkpt lat="43.9246" lon="5.42083">
        <ele>314</ele>
        <time>2015-09-23T14:41:09.000Z</time>
      </trkpt>
      <trkpt lat="43.9246" lon="5.42086">
        <ele>314</ele>
        <time>2015-09-23T14:41:10.000Z</time>
      </trkpt>
      <trkpt lat="43.92461" lon="5.42089">
        <ele>315</ele>
        <time>2015-09-23T14:41:11.000Z</time>
      </trkpt>
      <trkpt lat="43.92462" lon="5.42092">
        <ele>314</ele>
        <time>2015-09-23T14:41:12.000Z</time>
      </trkpt>
      <trkpt lat="43.92463" lon="5.42095">
        <ele>314</ele>
        <time>2015-09-23T14:41:13.000Z</time>
      </trkpt>
      <trkpt lat="43.92463" lon="5.42098">
        <ele>314</ele>
        <time>2015-09-23T14:41:14.000Z</time>
      </trkpt>
      <trkpt lat="43.92464" lon="5.42101">
        <ele>314</ele>
        <time>2015-09-23T14:41:15.000Z</time>
      </trkpt>
      <trkpt lat="43.92465" lon="5.42104">
        <ele>314</ele>
        <time>2015-09-23T14:41:16.000Z</time>
      </trkpt>
      <trkpt lat="43.92466" lon="5.42107">
        <ele>314</ele>
        <time>2015-09-23T14:41:17.000Z</time>
      </trkpt>
      <trkpt lat="43.92466" lon="5.42109">
        <ele>314</ele>
        <time>2015-09-23T14:41:18.000Z</time>
      </trkpt>
      <trkpt lat="43.92467" lon="5.42112">
        <ele>314</ele>
        <time>2015-09-23T14:41:19.000Z</time>
      </trkpt>
      <trkpt lat="43.92468" lon="5.42115">
        <ele>314</ele>
        <time>2015-09-23T14:41:20.000Z</time>
      </trkpt>
      <trkpt lat="43.92469" lon="5.42118">
        <ele>314</ele>
        <time>2015-09-23T14:41:21.000Z</time>
      </trkpt>
      <trkpt lat="43.9247" lon="5.42121">
        <ele>314</ele>
        <time>2015-09-23T14:41:22.000Z</time>
      </trkpt>
      <trkpt lat="43.9247" lon="5.42124">
        <ele>314</ele>
        <time>2015-09-23T14:41:23.000Z</time>
      </trkpt>
      <trkpt lat="43.92471" lon="5.42127">
        <ele>314</ele>
        <time>2015-09-23T14:41:24.000Z</time>
      </trkpt>
      <trkpt lat="43.92472" lon="5.4213">
        <ele>314</ele>
        <time>2015-09-23T14:41:25.000Z</time>
      </trkpt>
      <trkpt lat="43.92473" lon="5.42133">
        <ele>314</ele>
        <time>2015-09-23T14:41:26.000Z</time>
      </trkpt>
      <trkpt lat="43.92474" lon="5.42136">
        <ele>314</ele>
        <time>2015-09-23T14:41:27.000Z</time>
      </trkpt>
      <trkpt lat="43.92475" lon="5.42138">
        <ele>314</ele>
        <time>2015-09-23T14:41:28.000Z</time>
      </trkpt>
      <trkpt lat="43.92476" lon="5.42141">
        <ele>314</ele>
        <time>2015-09-23T14:41:29.000Z</time>
      </trkpt>
      <trkpt lat="43.92477" lon="5.42144">
        <ele>314</ele>
        <time>2015-09-23T14:41:30.000Z</time>
      </trkpt>
      <trkpt lat="43.92477" lon="5.42147">
        <ele>314</ele>
        <time>2015-09-23T14:41:31.000Z</time>
      </trkpt>
      <trkpt lat="43.92478" lon="5.42149">
        <ele>314</ele>
        <time>2015-09-23T14:41:32.000Z</time>
      </trkpt>
      <trkpt lat="43.92479" lon="5.42152">
        <ele>314</ele>
        <time>2015-09-23T14:41:33.000Z</time>
      </trkpt>
      <trkpt lat="43.9248" lon="5.42155">
        <ele>315</ele>
        <time>2015-09-23T14:41:34.000Z</time>
      </trkpt>
      <trkpt lat="43.9248" lon="5.42158">
        <ele>314</ele>
        <time>2015-09-23T14:41:35.000Z</time>
      </trkpt>
      <trkpt lat="43.92481" lon="5.42161">
        <ele>315</ele>
        <time>2015-09-23T14:41:36.000Z</time>
      </trkpt>
      <trkpt lat="43.92482" lon="5.42164">
        <ele>314</ele>
        <time>2015-09-23T14:41:37.000Z</time>
      </trkpt>
      <trkpt lat="43.92482" lon="5.42167">
        <ele>315</ele>
        <time>2015-09-23T14:41:38.000Z</time>
      </trkpt>
      <trkpt lat="43.92483" lon="5.4217">
        <ele>315</ele>
        <time>2015-09-23T14:41:39.000Z</time>
      </trkpt>
      <trkpt lat="43.92483" lon="5.42173">
        <ele>315</ele>
        <time>2015-09-23T14:41:40.000Z</time>
      </trkpt>
      <trkpt lat="43.92484" lon="5.42176">
        <ele>315</ele>
        <time>2015-09-23T14:41:41.000Z</time>
      </trkpt>
      <trkpt lat="43.92484" lon="5.4218">
        <ele>315</ele>
        <time>2015-09-23T14:41:42.000Z</time>
      </trkpt>
      <trkpt lat="43.92485" lon="5.42183">
        <ele>315</ele>
        <time>2015-09-23T14:41:43.000Z</time>
      </trkpt>
      <trkpt lat="43.92486" lon="5.42185">
        <ele>315</ele>
        <time>2015-09-23T14:41:44.000Z</time>
      </trkpt>
      <trkpt lat="43.92487" lon="5.42188">
        <ele>315</ele>
        <time>2015-09-23T14:41:45.000Z</time>
      </trkpt>
      <trkpt lat="43.92488" lon="5.42191">
        <ele>315</ele>
        <time>2015-09-23T14:41:46.000Z</time>
      </trkpt>
      <trkpt lat="43.92488" lon="5.42194">
        <ele>315</ele>
        <time>2015-09-23T14:41:47.000Z</time>
      </trkpt>
      <trkpt lat="43.92489" lon="5.42197">
        <ele>315</ele>
        <time>2015-09-23T14:41:48.000Z</time>
      </trkpt>
      <trkpt lat="43.9249" lon="5.422">
        <ele>315</ele>
        <time>2015-09-23T14:41:49.000Z</time>
      </trkpt>
      <trkpt lat="43.9249" lon="5.42203">
        <ele>315</ele>
        <time>2015-09-23T14:41:50.000Z</time>
      </trkpt>
      <trkpt lat="43.92491" lon="5.42206">
        <ele>316</ele>
        <time>2015-09-23T14:41:51.000Z</time>
      </trkpt>
      <trkpt lat="43.92492" lon="5.42209">
        <ele>316</ele>
        <time>2015-09-23T14:41:52.000Z</time>
      </trkpt>
      <trkpt lat="43.92494" lon="5.42211">
        <ele>315</ele>
        <time>2015-09-23T14:41:53.000Z</time>
      </trkpt>
      <trkpt lat="43.92495" lon="5.42213">
        <ele>315</ele>
        <time>2015-09-23T14:41:54.000Z</time>
      </trkpt>
      <trkpt lat="43.92497" lon="5.42216">
        <ele>315</ele>
        <time>2015-09-23T14:41:55.000Z</time>
      </trkpt>
      <trkpt lat="43.92498" lon="5.42218">
        <ele>315</ele>
        <time>2015-09-23T14:41:56.000Z</time>
      </trkpt>
      <trkpt lat="43.925" lon="5.4222">
        <ele>314</ele>
        <time>2015-09-23T14:41:57.000Z</time>
      </trkpt>
      <trkpt lat="43.92501" lon="5.42223">
        <ele>315</ele>
        <time>2015-09-23T14:41:58.000Z</time>
      </trkpt>
      <trkpt lat="43.92503" lon="5.42225">
        <ele>314</ele>
        <time>2015-09-23T14:41:59.000Z</time>
      </trkpt>
      <trkpt lat="43.92504" lon="5.42228">
        <ele>314</ele>
        <time>2015-09-23T14:42:00.000Z</time>
      </trkpt>
      <trkpt lat="43.92506" lon="5.4223">
        <ele>314</ele>
        <time>2015-09-23T14:42:01.000Z</time>
      </trkpt>
      <trkpt lat="43.92507" lon="5.42233">
        <ele>314</ele>
        <time>2015-09-23T14:42:02.000Z</time>
      </trkpt>
      <trkpt lat="43.92509" lon="5.42235">
        <ele>314</ele>
        <time>2015-09-23T14:42:03.000Z</time>
      </trkpt>
      <trkpt lat="43.92511" lon="5.42237">
        <ele>315</ele>
        <time>2015-09-23T14:42:04.000Z</time>
      </trkpt>
      <trkpt lat="43.92512" lon="5.42239">
        <ele>315</ele>
        <time>2015-09-23T14:42:05.000Z</time>
      </trkpt>
      <trkpt lat="43.92514" lon="5.42241">
        <ele>316</ele>
        <time>2015-09-23T14:42:06.000Z</time>
      </trkpt>
      <trkpt lat="43.92515" lon="5.42243">
        <ele>315</ele>
        <time>2015-09-23T14:42:07.000Z</time>
      </trkpt>
      <trkpt lat="43.92517" lon="5.42245">
        <ele>315</ele>
        <time>2015-09-23T14:42:08.000Z</time>
      </trkpt>
      <trkpt lat="43.92518" lon="5.42247">
        <ele>315</ele>
        <time>2015-09-23T14:42:09.000Z</time>
      </trkpt>
      <trkpt lat="43.92519" lon="5.42249">
        <ele>315</ele>
        <time>2015-09-23T14:42:10.000Z</time>
      </trkpt>
      <trkpt lat="43.92521" lon="5.42252">
        <ele>315</ele>
        <time>2015-09-23T14:42:11.000Z</time>
      </trkpt>
      <trkpt lat="43.92522" lon="5.42253">
        <ele>314</ele>
        <time>2015-09-23T14:42:12.000Z</time>
      </trkpt>
      <trkpt lat="43.92524" lon="5.42256">
        <ele>314</ele>
        <time>2015-09-23T14:42:13.000Z</time>
      </trkpt>
      <trkpt lat="43.92526" lon="5.42258">
        <ele>314</ele>
        <time>2015-09-23T14:42:14.000Z</time>
      </trkpt>
      <trkpt lat="43.92528" lon="5.4226">
        <ele>314</ele>
        <time>2015-09-23T14:42:15.000Z</time>
      </trkpt>
      <trkpt lat="43.9253" lon="5.42262">
        <ele>315</ele>
        <time>2015-09-23T14:42:16.000Z</time>
      </trkpt>
      <trkpt lat="43.92532" lon="5.42264">
        <ele>316</ele>
        <time>2015-09-23T14:42:17.000Z</time>
      </trkpt>
      <trkpt lat="43.92534" lon="5.42266">
        <ele>316</ele>
        <time>2015-09-23T14:42:18.000Z</time>
      </trkpt>
      <trkpt lat="43.92535" lon="5.42268">
        <ele>316</ele>
        <time>2015-09-23T14:42:19.000Z</time>
      </trkpt>
      <trkpt lat="43.92536" lon="5.4227">
        <ele>316</ele>
        <time>2015-09-23T14:42:20.000Z</time>
      </trkpt>
      <trkpt lat="43.92538" lon="5.42272">
        <ele>316</ele>
        <time>2015-09-23T14:42:21.000Z</time>
      </trkpt>
      <trkpt lat="43.92539" lon="5.42274">
        <ele>316</ele>
        <time>2015-09-23T14:42:22.000Z</time>
      </trkpt>
      <trkpt lat="43.92541" lon="5.42276">
        <ele>317</ele>
        <time>2015-09-23T14:42:23.000Z</time>
      </trkpt>
      <trkpt lat="43.92543" lon="5.42278">
        <ele>317</ele>
        <time>2015-09-23T14:42:24.000Z</time>
      </trkpt>
      <trkpt lat="43.92544" lon="5.42279">
        <ele>317</ele>
        <time>2015-09-23T14:42:25.000Z</time>
      </trkpt>
      <trkpt lat="43.92546" lon="5.42281">
        <ele>318</ele>
        <time>2015-09-23T14:42:26.000Z</time>
      </trkpt>
      <trkpt lat="43.92548" lon="5.42283">
        <ele>318</ele>
        <time>2015-09-23T14:42:27.000Z</time>
      </trkpt>
      <trkpt lat="43.92549" lon="5.42285">
        <ele>318</ele>
        <time>2015-09-23T14:42:28.000Z</time>
      </trkpt>
      <trkpt lat="43.9255" lon="5.42287">
        <ele>318</ele>
        <time>2015-09-23T14:42:29.000Z</time>
      </trkpt>
      <trkpt lat="43.92551" lon="5.42288">
        <ele>318</ele>
        <time>2015-09-23T14:42:30.000Z</time>
      </trkpt>
      <trkpt lat="43.92552" lon="5.4229">
        <ele>318</ele>
        <time>2015-09-23T14:42:31.000Z</time>
      </trkpt>
      <trkpt lat="43.92554" lon="5.42292">
        <ele>318</ele>
        <time>2015-09-23T14:42:32.000Z</time>
      </trkpt>
      <trkpt lat="43.92555" lon="5.42293">
        <ele>318</ele>
        <time>2015-09-23T14:42:33.000Z</time>
      </trkpt>
      <trkpt lat="43.92557" lon="5.42295">
        <ele>317</ele>
        <time>2015-09-23T14:42:34.000Z</time>
      </trkpt>
      <trkpt lat="43.92559" lon="5.42297">
        <ele>317</ele>
        <time>2015-09-23T14:42:35.000Z</time>
      </trkpt>
      <trkpt lat="43.9256" lon="5.42298">
        <ele>316</ele>
        <time>2015-09-23T14:42:36.000Z</time>
      </trkpt>
      <trkpt lat="43.92561" lon="5.423">
        <ele>317</ele>
        <time>2015-09-23T14:42:37.000Z</time>
      </trkpt>
      <trkpt lat="43.92563" lon="5.42301">
        <ele>316</ele>
        <time>2015-09-23T14:42:38.000Z</time>
      </trkpt>
      <trkpt lat="43.92565" lon="5.42303">
        <ele>317</ele>
        <time>2015-09-23T14:42:39.000Z</time>
      </trkpt>
      <trkpt lat="43.92567" lon="5.42305">
        <ele>316</ele>
        <time>2015-09-23T14:42:40.000Z</time>
      </trkpt>
      <trkpt lat="43.92569" lon="5.42307">
        <ele>315</ele>
        <time>2015-09-23T14:42:41.000Z</time>
      </trkpt>
      <trkpt lat="43.92571" lon="5.42308">
        <ele>315</ele>
        <time>2015-09-23T14:42:42.000Z</time>
      </trkpt>
      <trkpt lat="43.92573" lon="5.4231">
        <ele>315</ele>
        <time>2015-09-23T14:42:43.000Z</time>
      </trkpt>
      <trkpt lat="43.92574" lon="5.42311">
        <ele>315</ele>
        <time>2015-09-23T14:42:44.000Z</time>
      </trkpt>
      <trkpt lat="43.92576" lon="5.42312">
        <ele>315</ele>
        <time>2015-09-23T14:42:45.000Z</time>
      </trkpt>
      <trkpt lat="43.92578" lon="5.42314">
        <ele>315</ele>
        <time>2015-09-23T14:42:46.000Z</time>
      </trkpt>
      <trkpt lat="43.9258" lon="5.42315">
        <ele>315</ele>
        <time>2015-09-23T14:42:47.000Z</time>
      </trkpt>
      <trkpt lat="43.92582" lon="5.42316">
        <ele>315</ele>
        <time>2015-09-23T14:42:48.000Z</time>
      </trkpt>
      <trkpt lat="43.92584" lon="5.42317">
        <ele>316</ele>
        <time>2015-09-23T14:42:49.000Z</time>
      </trkpt>
      <trkpt lat="43.92586" lon="5.42319">
        <ele>316</ele>
        <time>2015-09-23T14:42:50.000Z</time>
      </trkpt>
      <trkpt lat="43.92588" lon="5.4232">
        <ele>317</ele>
        <time>2015-09-23T14:42:51.000Z</time>
      </trkpt>
      <trkpt lat="43.9259" lon="5.42321">
        <ele>317</ele>
        <time>2015-09-23T14:42:52.000Z</time>
      </trkpt>
      <trkpt lat="43.92592" lon="5.42322">
        <ele>317</ele>
        <time>2015-09-23T14:42:53.000Z</time>
      </trkpt>
      <trkpt lat="43.92594" lon="5.42323">
        <ele>317</ele>
        <time>2015-09-23T14:42:54.000Z</time>
      </trkpt>
      <trkpt lat="43.92595" lon="5.42324">
        <ele>317</ele>
        <time>2015-09-23T14:42:55.000Z</time>
      </trkpt>
      <trkpt lat="43.92597" lon="5.42325">
        <ele>317</ele>
        <time>2015-09-23T14:42:56.000Z</time>
      </trkpt>
      <trkpt lat="43.92599" lon="5.42326">
        <ele>317</ele>
        <time>2015-09-23T14:42:57.000Z</time>
      </trkpt>
      <trkpt lat="43.92601" lon="5.42328">
        <ele>317</ele>
        <time>2015-09-23T14:42:58.000Z</time>
      </trkpt>
      <trkpt lat="43.92603" lon="5.4233">
        <ele>317</ele>
        <time>2015-09-23T14:42:59.000Z</time>
      </trkpt>
      <trkpt lat="43.92605" lon="5.42331">
        <ele>318</ele>
        <time>2015-09-23T14:43:00.000Z</time>
      </trkpt>
      <trkpt lat="43.92608" lon="5.42333">
        <ele>318</ele>
        <time>2015-09-23T14:43:01.000Z</time>
      </trkpt>
      <trkpt lat="43.9261" lon="5.42334">
        <ele>318</ele>
        <time>2015-09-23T14:43:02.000Z</time>
      </trkpt>
      <trkpt lat="43.92611" lon="5.42335">
        <ele>318</ele>
        <time>2015-09-23T14:43:03.000Z</time>
      </trkpt>
      <trkpt lat="43.92613" lon="5.42336">
        <ele>318</ele>
        <time>2015-09-23T14:43:04.000Z</time>
      </trkpt>
      <trkpt lat="43.92615" lon="5.42338">
        <ele>319</ele>
        <time>2015-09-23T14:43:05.000Z</time>
      </trkpt>
      <trkpt lat="43.92617" lon="5.42339">
        <ele>319</ele>
        <time>2015-09-23T14:43:06.000Z</time>
      </trkpt>
      <trkpt lat="43.9262" lon="5.4234">
        <ele>319</ele>
        <time>2015-09-23T14:43:07.000Z</time>
      </trkpt>
      <trkpt lat="43.92622" lon="5.42342">
        <ele>320</ele>
        <time>2015-09-23T14:43:08.000Z</time>
      </trkpt>
      <trkpt lat="43.92624" lon="5.42344">
        <ele>321</ele>
        <time>2015-09-23T14:43:09.000Z</time>
      </trkpt>
      <trkpt lat="43.92626" lon="5.42345">
        <ele>321</ele>
        <time>2015-09-23T14:43:10.000Z</time>
      </trkpt>
      <trkpt lat="43.92628" lon="5.42347">
        <ele>321</ele>
        <time>2015-09-23T14:43:11.000Z</time>
      </trkpt>
      <trkpt lat="43.9263" lon="5.42349">
        <ele>321</ele>
        <time>2015-09-23T14:43:12.000Z</time>
      </trkpt>
      <trkpt lat="43.92632" lon="5.4235">
        <ele>321</ele>
        <time>2015-09-23T14:43:13.000Z</time>
      </trkpt>
      <trkpt lat="43.92634" lon="5.42352">
        <ele>322</ele>
        <time>2015-09-23T14:43:14.000Z</time>
      </trkpt>
      <trkpt lat="43.92636" lon="5.42354">
        <ele>322</ele>
        <time>2015-09-23T14:43:15.000Z</time>
      </trkpt>
      <trkpt lat="43.92638" lon="5.42356">
        <ele>322</ele>
        <time>2015-09-23T14:43:16.000Z</time>
      </trkpt>
      <trkpt lat="43.92639" lon="5.42358">
        <ele>322</ele>
        <time>2015-09-23T14:43:17.000Z</time>
      </trkpt>
      <trkpt lat="43.92641" lon="5.4236">
        <ele>322</ele>
        <time>2015-09-23T14:43:18.000Z</time>
      </trkpt>
      <trkpt lat="43.92643" lon="5.42362">
        <ele>322</ele>
        <time>2015-09-23T14:43:19.000Z</time>
      </trkpt>
      <trkpt lat="43.92645" lon="5.42363">
        <ele>322</ele>
        <time>2015-09-23T14:43:20.000Z</time>
      </trkpt>
      <trkpt lat="43.92647" lon="5.42365">
        <ele>322</ele>
        <time>2015-09-23T14:43:21.000Z</time>
      </trkpt>
      <trkpt lat="43.92649" lon="5.42367">
        <ele>322</ele>
        <time>2015-09-23T14:43:22.000Z</time>
      </trkpt>
      <trkpt lat="43.92651" lon="5.42369">
        <ele>323</ele>
        <time>2015-09-23T14:43:23.000Z</time>
      </trkpt>
      <trkpt lat="43.92652" lon="5.42371">
        <ele>323</ele>
        <time>2015-09-23T14:43:24.000Z</time>
      </trkpt>
      <trkpt lat="43.92654" lon="5.42373">
        <ele>322</ele>
        <time>2015-09-23T14:43:25.000Z</time>
      </trkpt>
      <trkpt lat="43.92656" lon="5.42375">
        <ele>322</ele>
        <time>2015-09-23T14:43:26.000Z</time>
      </trkpt>
      <trkpt lat="43.92657" lon="5.42378">
        <ele>322</ele>
        <time>2015-09-23T14:43:27.000Z</time>
      </trkpt>
      <trkpt lat="43.92659" lon="5.4238">
        <ele>323</ele>
        <time>2015-09-23T14:43:28.000Z</time>
      </trkpt>
      <trkpt lat="43.92661" lon="5.42382">
        <ele>322</ele>
        <time>2015-09-23T14:43:29.000Z</time>
      </trkpt>
      <trkpt lat="43.92663" lon="5.42385">
        <ele>322</ele>
        <time>2015-09-23T14:43:30.000Z</time>
      </trkpt>
      <trkpt lat="43.92665" lon="5.42387">
        <ele>322</ele>
        <time>2015-09-23T14:43:31.000Z</time>
      </trkpt>
      <trkpt lat="43.92666" lon="5.42389">
        <ele>322</ele>
        <time>2015-09-23T14:43:32.000Z</time>
      </trkpt>
      <trkpt lat="43.92668" lon="5.42391">
        <ele>322</ele>
        <time>2015-09-23T14:43:33.000Z</time>
      </trkpt>
      <trkpt lat="43.9267" lon="5.42394">
        <ele>322</ele>
        <time>2015-09-23T14:43:34.000Z</time>
      </trkpt>
      <trkpt lat="43.92671" lon="5.42396">
        <ele>321</ele>
        <time>2015-09-23T14:43:35.000Z</time>
      </trkpt>
      <trkpt lat="43.92673" lon="5.42398">
        <ele>321</ele>
        <time>2015-09-23T14:43:36.000Z</time>
      </trkpt>
      <trkpt lat="43.92675" lon="5.42401">
        <ele>321</ele>
        <time>2015-09-23T14:43:37.000Z</time>
      </trkpt>
      <trkpt lat="43.92676" lon="5.42403">
        <ele>321</ele>
        <time>2015-09-23T14:43:38.000Z</time>
      </trkpt>
      <trkpt lat="43.92678" lon="5.42406">
        <ele>320</ele>
        <time>2015-09-23T14:43:39.000Z</time>
      </trkpt>
      <trkpt lat="43.92679" lon="5.42408">
        <ele>321</ele>
        <time>2015-09-23T14:43:40.000Z</time>
      </trkpt>
      <trkpt lat="43.92681" lon="5.4241">
        <ele>321</ele>
        <time>2015-09-23T14:43:41.000Z</time>
      </trkpt>
      <trkpt lat="43.92682" lon="5.42412">
        <ele>321</ele>
        <time>2015-09-23T14:43:42.000Z</time>
      </trkpt>
      <trkpt lat="43.92684" lon="5.42415">
        <ele>321</ele>
        <time>2015-09-23T14:43:43.000Z</time>
      </trkpt>
      <trkpt lat="43.92686" lon="5.42417">
        <ele>321</ele>
        <time>2015-09-23T14:43:44.000Z</time>
      </trkpt>
      <trkpt lat="43.92687" lon="5.42419">
        <ele>321</ele>
        <time>2015-09-23T14:43:45.000Z</time>
      </trkpt>
      <trkpt lat="43.92689" lon="5.42421">
        <ele>321</ele>
        <time>2015-09-23T14:43:46.000Z</time>
      </trkpt>
      <trkpt lat="43.9269" lon="5.42424">
        <ele>321</ele>
        <time>2015-09-23T14:43:47.000Z</time>
      </trkpt>
      <trkpt lat="43.92692" lon="5.42426">
        <ele>321</ele>
        <time>2015-09-23T14:43:48.000Z</time>
      </trkpt>
      <trkpt lat="43.92693" lon="5.42428">
        <ele>320</ele>
        <time>2015-09-23T14:43:49.000Z</time>
      </trkpt>
      <trkpt lat="43.92694" lon="5.4243">
        <ele>320</ele>
        <time>2015-09-23T14:43:50.000Z</time>
      </trkpt>
      <trkpt lat="43.92696" lon="5.42432">
        <ele>321</ele>
        <time>2015-09-23T14:43:51.000Z</time>
      </trkpt>
      <trkpt lat="43.92697" lon="5.42434">
        <ele>320</ele>
        <time>2015-09-23T14:43:52.000Z</time>
      </trkpt>
      <trkpt lat="43.92699" lon="5.42436">
        <ele>320</ele>
        <time>2015-09-23T14:43:53.000Z</time>
      </trkpt>
      <trkpt lat="43.927" lon="5.42438">
        <ele>321</ele>
        <time>2015-09-23T14:43:54.000Z</time>
      </trkpt>
      <trkpt lat="43.92701" lon="5.4244">
        <ele>321</ele>
        <time>2015-09-23T14:43:55.000Z</time>
      </trkpt>
      <trkpt lat="43.92703" lon="5.42442">
        <ele>322</ele>
        <time>2015-09-23T14:43:56.000Z</time>
      </trkpt>
      <trkpt lat="43.92704" lon="5.42443">
        <ele>321</ele>
        <time>2015-09-23T14:43:57.000Z</time>
      </trkpt>
      <trkpt lat="43.92706" lon="5.42445">
        <ele>321</ele>
        <time>2015-09-23T14:43:58.000Z</time>
      </trkpt>
      <trkpt lat="43.92707" lon="5.42447">
        <ele>321</ele>
        <time>2015-09-23T14:43:59.000Z</time>
      </trkpt>
      <trkpt lat="43.92709" lon="5.42449">
        <ele>320</ele>
        <time>2015-09-23T14:44:00.000Z</time>
      </trkpt>
      <trkpt lat="43.92711" lon="5.42451">
        <ele>320</ele>
        <time>2015-09-23T14:44:01.000Z</time>
      </trkpt>
      <trkpt lat="43.92712" lon="5.42454">
        <ele>320</ele>
        <time>2015-09-23T14:44:02.000Z</time>
      </trkpt>
      <trkpt lat="43.92714" lon="5.42456">
        <ele>320</ele>
        <time>2015-09-23T14:44:03.000Z</time>
      </trkpt>
      <trkpt lat="43.92716" lon="5.42458">
        <ele>321</ele>
        <time>2015-09-23T14:44:04.000Z</time>
      </trkpt>
      <trkpt lat="43.92717" lon="5.42461">
        <ele>321</ele>
        <time>2015-09-23T14:44:05.000Z</time>
      </trkpt>
      <trkpt lat="43.92719" lon="5.42463">
        <ele>321</ele>
        <time>2015-09-23T14:44:06.000Z</time>
      </trkpt>
      <trkpt lat="43.9272" lon="5.42465">
        <ele>321</ele>
        <time>2015-09-23T14:44:07.000Z</time>
      </trkpt>
      <trkpt lat="43.92722" lon="5.42468">
        <ele>321</ele>
        <time>2015-09-23T14:44:08.000Z</time>
      </trkpt>
      <trkpt lat="43.92723" lon="5.4247">
        <ele>322</ele>
        <time>2015-09-23T14:44:09.000Z</time>
      </trkpt>
      <trkpt lat="43.92725" lon="5.42472">
        <ele>321</ele>
        <time>2015-09-23T14:44:10.000Z</time>
      </trkpt>
      <trkpt lat="43.92727" lon="5.42474">
        <ele>321</ele>
        <time>2015-09-23T14:44:11.000Z</time>
      </trkpt>
      <trkpt lat="43.92728" lon="5.42476">
        <ele>321</ele>
        <time>2015-09-23T14:44:12.000Z</time>
      </trkpt>
      <trkpt lat="43.9273" lon="5.42478">
        <ele>321</ele>
        <time>2015-09-23T14:44:13.000Z</time>
      </trkpt>
      <trkpt lat="43.92731" lon="5.4248">
        <ele>322</ele>
        <time>2015-09-23T14:44:14.000Z</time>
      </trkpt>
      <trkpt lat="43.92733" lon="5.42483">
        <ele>322</ele>
        <time>2015-09-23T14:44:15.000Z</time>
      </trkpt>
      <trkpt lat="43.92735" lon="5.42485">
        <ele>322</ele>
        <time>2015-09-23T14:44:16.000Z</time>
      </trkpt>
      <trkpt lat="43.92737" lon="5.42487">
        <ele>323</ele>
        <time>2015-09-23T14:44:17.000Z</time>
      </trkpt>
      <trkpt lat="43.92738" lon="5.4249">
        <ele>324</ele>
        <time>2015-09-23T14:44:18.000Z</time>
      </trkpt>
      <trkpt lat="43.92739" lon="5.42492">
        <ele>324</ele>
        <time>2015-09-23T14:44:19.000Z</time>
      </trkpt>
      <trkpt lat="43.92741" lon="5.42494">
        <ele>325</ele>
        <time>2015-09-23T14:44:20.000Z</time>
      </trkpt>
      <trkpt lat="43.92742" lon="5.42497">
        <ele>325</ele>
        <time>2015-09-23T14:44:21.000Z</time>
      </trkpt>
      <trkpt lat="43.92744" lon="5.42499">
        <ele>325</ele>
        <time>2015-09-23T14:44:22.000Z</time>
      </trkpt>
      <trkpt lat="43.92745" lon="5.42501">
        <ele>325</ele>
        <time>2015-09-23T14:44:23.000Z</time>
      </trkpt>
      <trkpt lat="43.92747" lon="5.42503">
        <ele>325</ele>
        <time>2015-09-23T14:44:24.000Z</time>
      </trkpt>
      <trkpt lat="43.92748" lon="5.42505">
        <ele>326</ele>
        <time>2015-09-23T14:44:25.000Z</time>
      </trkpt>
      <trkpt lat="43.9275" lon="5.42507">
        <ele>326</ele>
        <time>2015-09-23T14:44:26.000Z</time>
      </trkpt>
      <trkpt lat="43.92751" lon="5.42509">
        <ele>326</ele>
        <time>2015-09-23T14:44:27.000Z</time>
      </trkpt>
      <trkpt lat="43.92753" lon="5.42512">
        <ele>326</ele>
        <time>2015-09-23T14:44:28.000Z</time>
      </trkpt>
      <trkpt lat="43.92755" lon="5.42514">
        <ele>327</ele>
        <time>2015-09-23T14:44:29.000Z</time>
      </trkpt>
      <trkpt lat="43.92756" lon="5.42517">
        <ele>327</ele>
        <time>2015-09-23T14:44:30.000Z</time>
      </trkpt>
      <trkpt lat="43.92758" lon="5.42519">
        <ele>327</ele>
        <time>2015-09-23T14:44:31.000Z</time>
      </trkpt>
      <trkpt lat="43.9276" lon="5.42521">
        <ele>327</ele>
        <time>2015-09-23T14:44:32.000Z</time>
      </trkpt>
      <trkpt lat="43.92762" lon="5.42523">
        <ele>326</ele>
        <time>2015-09-23T14:44:33.000Z</time>
      </trkpt>
      <trkpt lat="43.92763" lon="5.42526">
        <ele>326</ele>
        <time>2015-09-23T14:44:34.000Z</time>
      </trkpt>
      <trkpt lat="43.92765" lon="5.42528">
        <ele>327</ele>
        <time>2015-09-23T14:44:35.000Z</time>
      </trkpt>
      <trkpt lat="43.92766" lon="5.4253">
        <ele>327</ele>
        <time>2015-09-23T14:44:36.000Z</time>
      </trkpt>
      <trkpt lat="43.92768" lon="5.42533">
        <ele>327</ele>
        <time>2015-09-23T14:44:37.000Z</time>
      </trkpt>
      <trkpt lat="43.92769" lon="5.42535">
        <ele>327</ele>
        <time>2015-09-23T14:44:38.000Z</time>
      </trkpt>
      <trkpt lat="43.92771" lon="5.42537">
        <ele>327</ele>
        <time>2015-09-23T14:44:39.000Z</time>
      </trkpt>
      <trkpt lat="43.92773" lon="5.4254">
        <ele>327</ele>
        <time>2015-09-23T14:44:40.000Z</time>
      </trkpt>
      <trkpt lat="43.92774" lon="5.42542">
        <ele>327</ele>
        <time>2015-09-23T14:44:41.000Z</time>
      </trkpt>
      <trkpt lat="43.92775" lon="5.42544">
        <ele>327</ele>
        <time>2015-09-23T14:44:42.000Z</time>
      </trkpt>
      <trkpt lat="43.92777" lon="5.42547">
        <ele>327</ele>
        <time>2015-09-23T14:44:43.000Z</time>
      </trkpt>
      <trkpt lat="43.92778" lon="5.42549">
        <ele>327</ele>
        <time>2015-09-23T14:44:44.000Z</time>
      </trkpt>
      <trkpt lat="43.92779" lon="5.42551">
        <ele>327</ele>
        <time>2015-09-23T14:44:45.000Z</time>
      </trkpt>
      <trkpt lat="43.92781" lon="5.42553">
        <ele>327</ele>
        <time>2015-09-23T14:44:46.000Z</time>
      </trkpt>
      <trkpt lat="43.92782" lon="5.42555">
        <ele>326</ele>
        <time>2015-09-23T14:44:47.000Z</time>
      </trkpt>
      <trkpt lat="43.92783" lon="5.42557">
        <ele>326</ele>
        <time>2015-09-23T14:44:48.000Z</time>
      </trkpt>
      <trkpt lat="43.92785" lon="5.42559">
        <ele>326</ele>
        <time>2015-09-23T14:44:49.000Z</time>
      </trkpt>
      <trkpt lat="43.92786" lon="5.42562">
        <ele>325</ele>
        <time>2015-09-23T14:44:50.000Z</time>
      </trkpt>
      <trkpt lat="43.92787" lon="5.42564">
        <ele>324</ele>
        <time>2015-09-23T14:44:51.000Z</time>
      </trkpt>
      <trkpt lat="43.92789" lon="5.42566">
        <ele>324</ele>
        <time>2015-09-23T14:44:52.000Z</time>
      </trkpt>
      <trkpt lat="43.9279" lon="5.42568">
        <ele>324</ele>
        <time>2015-09-23T14:44:53.000Z</time>
      </trkpt>
      <trkpt lat="43.92792" lon="5.42569">
        <ele>324</ele>
        <time>2015-09-23T14:44:54.000Z</time>
      </trkpt>
      <trkpt lat="43.92793" lon="5.4257">
        <ele>323</ele>
        <time>2015-09-23T14:44:55.000Z</time>
      </trkpt>
      <trkpt lat="43.92795" lon="5.4257">
        <ele>321</ele>
        <time>2015-09-23T14:44:56.000Z</time>
      </trkpt>
      <trkpt lat="43.92797" lon="5.42569">
        <ele>320</ele>
        <time>2015-09-23T14:44:57.000Z</time>
      </trkpt>
      <trkpt lat="43.92799" lon="5.42568">
        <ele>319</ele>
        <time>2015-09-23T14:44:58.000Z</time>
      </trkpt>
      <trkpt lat="43.928" lon="5.42566">
        <ele>319</ele>
        <time>2015-09-23T14:44:59.000Z</time>
      </trkpt>
      <trkpt lat="43.92801" lon="5.42565">
        <ele>319</ele>
        <time>2015-09-23T14:45:00.000Z</time>
      </trkpt>
      <trkpt lat="43.92801" lon="5.42562">
        <ele>318</ele>
        <time>2015-09-23T14:45:01.000Z</time>
      </trkpt>
      <trkpt lat="43.92802" lon="5.42559">
        <ele>318</ele>
        <time>2015-09-23T14:45:02.000Z</time>
      </trkpt>
      <trkpt lat="43.92802" lon="5.42556">
        <ele>317</ele>
        <time>2015-09-23T14:45:03.000Z</time>
      </trkpt>
      <trkpt lat="43.92803" lon="5.42553">
        <ele>317</ele>
        <time>2015-09-23T14:45:04.000Z</time>
      </trkpt>
      <trkpt lat="43.92803" lon="5.4255">
        <ele>318</ele>
        <time>2015-09-23T14:45:05.000Z</time>
      </trkpt>
      <trkpt lat="43.92804" lon="5.42547">
        <ele>318</ele>
        <time>2015-09-23T14:45:06.000Z</time>
      </trkpt>
      <trkpt lat="43.92804" lon="5.42543">
        <ele>318</ele>
        <time>2015-09-23T14:45:07.000Z</time>
      </trkpt>
      <trkpt lat="43.92805" lon="5.4254">
        <ele>318</ele>
        <time>2015-09-23T14:45:08.000Z</time>
      </trkpt>
      <trkpt lat="43.92805" lon="5.42537">
        <ele>318</ele>
        <time>2015-09-23T14:45:09.000Z</time>
      </trkpt>
      <trkpt lat="43.92805" lon="5.42533">
        <ele>319</ele>
        <time>2015-09-23T14:45:10.000Z</time>
      </trkpt>
      <trkpt lat="43.92806" lon="5.4253">
        <ele>319</ele>
        <time>2015-09-23T14:45:11.000Z</time>
      </trkpt>
      <trkpt lat="43.92807" lon="5.42526">
        <ele>319</ele>
        <time>2015-09-23T14:45:12.000Z</time>
      </trkpt>
      <trkpt lat="43.92807" lon="5.42523">
        <ele>318</ele>
        <time>2015-09-23T14:45:13.000Z</time>
      </trkpt>
      <trkpt lat="43.92808" lon="5.42519">
        <ele>318</ele>
        <time>2015-09-23T14:45:14.000Z</time>
      </trkpt>
      <trkpt lat="43.92809" lon="5.42516">
        <ele>318</ele>
        <time>2015-09-23T14:45:15.000Z</time>
      </trkpt>
      <trkpt lat="43.92809" lon="5.42513">
        <ele>318</ele>
        <time>2015-09-23T14:45:16.000Z</time>
      </trkpt>
      <trkpt lat="43.9281" lon="5.42509">
        <ele>319</ele>
        <time>2015-09-23T14:45:17.000Z</time>
      </trkpt>
      <trkpt lat="43.9281" lon="5.42505">
        <ele>319</ele>
        <time>2015-09-23T14:45:18.000Z</time>
      </trkpt>
      <trkpt lat="43.92811" lon="5.42502">
        <ele>319</ele>
        <time>2015-09-23T14:45:19.000Z</time>
      </trkpt>
      <trkpt lat="43.92811" lon="5.42498">
        <ele>319</ele>
        <time>2015-09-23T14:45:20.000Z</time>
      </trkpt>
      <trkpt lat="43.92811" lon="5.42495">
        <ele>319</ele>
        <time>2015-09-23T14:45:21.000Z</time>
      </trkpt>
      <trkpt lat="43.92812" lon="5.42491">
        <ele>318</ele>
        <time>2015-09-23T14:45:22.000Z</time>
      </trkpt>
      <trkpt lat="43.92812" lon="5.42488">
        <ele>318</ele>
        <time>2015-09-23T14:45:23.000Z</time>
      </trkpt>
      <trkpt lat="43.92813" lon="5.42485">
        <ele>318</ele>
        <time>2015-09-23T14:45:24.000Z</time>
      </trkpt>
      <trkpt lat="43.92813" lon="5.42481">
        <ele>318</ele>
        <time>2015-09-23T14:45:25.000Z</time>
      </trkpt>
      <trkpt lat="43.92814" lon="5.42478">
        <ele>318</ele>
        <time>2015-09-23T14:45:26.000Z</time>
      </trkpt>
      <trkpt lat="43.92815" lon="5.42475">
        <ele>319</ele>
        <time>2015-09-23T14:45:27.000Z</time>
      </trkpt>
      <trkpt lat="43.92815" lon="5.42471">
        <ele>319</ele>
        <time>2015-09-23T14:45:28.000Z</time>
      </trkpt>
      <trkpt lat="43.92816" lon="5.42468">
        <ele>319</ele>
        <time>2015-09-23T14:45:29.000Z</time>
      </trkpt>
      <trkpt lat="43.92817" lon="5.42465">
        <ele>319</ele>
        <time>2015-09-23T14:45:30.000Z</time>
      </trkpt>
      <trkpt lat="43.92817" lon="5.42461">
        <ele>318</ele>
        <time>2015-09-23T14:45:31.000Z</time>
      </trkpt>
      <trkpt lat="43.92818" lon="5.42457">
        <ele>318</ele>
        <time>2015-09-23T14:45:32.000Z</time>
      </trkpt>
      <trkpt lat="43.92818" lon="5.42454">
        <ele>318</ele>
        <time>2015-09-23T14:45:33.000Z</time>
      </trkpt>
      <trkpt lat="43.92818" lon="5.42451">
        <ele>318</ele>
        <time>2015-09-23T14:45:34.000Z</time>
      </trkpt>
      <trkpt lat="43.92819" lon="5.42447">
        <ele>317</ele>
        <time>2015-09-23T14:45:35.000Z</time>
      </trkpt>
      <trkpt lat="43.92819" lon="5.42444">
        <ele>317</ele>
        <time>2015-09-23T14:45:36.000Z</time>
      </trkpt>
      <trkpt lat="43.9282" lon="5.42441">
        <ele>317</ele>
        <time>2015-09-23T14:45:37.000Z</time>
      </trkpt>
      <trkpt lat="43.92821" lon="5.42437">
        <ele>317</ele>
        <time>2015-09-23T14:45:38.000Z</time>
      </trkpt>
      <trkpt lat="43.92821" lon="5.42434">
        <ele>318</ele>
        <time>2015-09-23T14:45:39.000Z</time>
      </trkpt>
      <trkpt lat="43.92822" lon="5.42431">
        <ele>318</ele>
        <time>2015-09-23T14:45:40.000Z</time>
      </trkpt>
      <trkpt lat="43.92822" lon="5.42427">
        <ele>318</ele>
        <time>2015-09-23T14:45:41.000Z</time>
      </trkpt>
      <trkpt lat="43.92823" lon="5.42424">
        <ele>318</ele>
        <time>2015-09-23T14:45:42.000Z</time>
      </trkpt>
      <trkpt lat="43.92823" lon="5.42421">
        <ele>317</ele>
        <time>2015-09-23T14:45:43.000Z</time>
      </trkpt>
      <trkpt lat="43.92824" lon="5.42418">
        <ele>318</ele>
        <time>2015-09-23T14:45:44.000Z</time>
      </trkpt>
      <trkpt lat="43.92824" lon="5.42415">
        <ele>318</ele>
        <time>2015-09-23T14:45:45.000Z</time>
      </trkpt>
      <trkpt lat="43.92824" lon="5.42412">
        <ele>319</ele>
        <time>2015-09-23T14:45:46.000Z</time>
      </trkpt>
      <trkpt lat="43.92824" lon="5.42408">
        <ele>317</ele>
        <time>2015-09-23T14:45:47.000Z</time>
      </trkpt>
      <trkpt lat="43.92824" lon="5.42404">
        <ele>317</ele>
        <time>2015-09-23T14:45:48.000Z</time>
      </trkpt>
      <trkpt lat="43.92825" lon="5.42401">
        <ele>317</ele>
        <time>2015-09-23T14:45:49.000Z</time>
      </trkpt>
      <trkpt lat="43.92825" lon="5.42397">
        <ele>317</ele>
        <time>2015-09-23T14:45:50.000Z</time>
      </trkpt>
      <trkpt lat="43.92825" lon="5.42394">
        <ele>317</ele>
        <time>2015-09-23T14:45:51.000Z</time>
      </trkpt>
      <trkpt lat="43.92826" lon="5.4239">
        <ele>316</ele>
        <time>2015-09-23T14:45:52.000Z</time>
      </trkpt>
      <trkpt lat="43.92826" lon="5.42387">
        <ele>316</ele>
        <time>2015-09-23T14:45:53.000Z</time>
      </trkpt>
      <trkpt lat="43.92826" lon="5.42383">
        <ele>316</ele>
        <time>2015-09-23T14:45:54.000Z</time>
      </trkpt>
      <trkpt lat="43.92827" lon="5.4238">
        <ele>317</ele>
        <time>2015-09-23T14:45:55.000Z</time>
      </trkpt>
      <trkpt lat="43.92827" lon="5.42377">
        <ele>318</ele>
        <time>2015-09-23T14:45:56.000Z</time>
      </trkpt>
      <trkpt lat="43.92828" lon="5.42374">
        <ele>318</ele>
        <time>2015-09-23T14:45:57.000Z</time>
      </trkpt>
      <trkpt lat="43.92828" lon="5.42371">
        <ele>318</ele>
        <time>2015-09-23T14:45:58.000Z</time>
      </trkpt>
      <trkpt lat="43.92829" lon="5.42368">
        <ele>318</ele>
        <time>2015-09-23T14:45:59.000Z</time>
      </trkpt>
      <trkpt lat="43.92829" lon="5.42365">
        <ele>318</ele>
        <time>2015-09-23T14:46:00.000Z</time>
      </trkpt>
      <trkpt lat="43.92829" lon="5.42361">
        <ele>318</ele>
        <time>2015-09-23T14:46:01.000Z</time>
      </trkpt>
      <trkpt lat="43.9283" lon="5.42358">
        <ele>318</ele>
        <time>2015-09-23T14:46:02.000Z</time>
      </trkpt>
      <trkpt lat="43.92831" lon="5.42355">
        <ele>319</ele>
        <time>2015-09-23T14:46:03.000Z</time>
      </trkpt>
      <trkpt lat="43.92831" lon="5.42351">
        <ele>319</ele>
        <time>2015-09-23T14:46:04.000Z</time>
      </trkpt>
      <trkpt lat="43.92832" lon="5.42348">
        <ele>319</ele>
        <time>2015-09-23T14:46:05.000Z</time>
      </trkpt>
      <trkpt lat="43.92832" lon="5.42345">
        <ele>319</ele>
        <time>2015-09-23T14:46:06.000Z</time>
      </trkpt>
      <trkpt lat="43.92833" lon="5.42342">
        <ele>319</ele>
        <time>2015-09-23T14:46:07.000Z</time>
      </trkpt>
      <trkpt lat="43.92833" lon="5.42339">
        <ele>318</ele>
        <time>2015-09-23T14:46:08.000Z</time>
      </trkpt>
      <trkpt lat="43.92834" lon="5.42336">
        <ele>318</ele>
        <time>2015-09-23T14:46:09.000Z</time>
      </trkpt>
      <trkpt lat="43.92834" lon="5.42333">
        <ele>317</ele>
        <time>2015-09-23T14:46:10.000Z</time>
      </trkpt>
      <trkpt lat="43.92835" lon="5.4233">
        <ele>317</ele>
        <time>2015-09-23T14:46:11.000Z</time>
      </trkpt>
      <trkpt lat="43.92835" lon="5.42327">
        <ele>317</ele>
        <time>2015-09-23T14:46:12.000Z</time>
      </trkpt>
      <trkpt lat="43.92836" lon="5.42324">
        <ele>317</ele>
        <time>2015-09-23T14:46:13.000Z</time>
      </trkpt>
      <trkpt lat="43.92836" lon="5.4232">
        <ele>316</ele>
        <time>2015-09-23T14:46:14.000Z</time>
      </trkpt>
      <trkpt lat="43.92837" lon="5.42317">
        <ele>317</ele>
        <time>2015-09-23T14:46:15.000Z</time>
      </trkpt>
      <trkpt lat="43.92837" lon="5.42314">
        <ele>317</ele>
        <time>2015-09-23T14:46:16.000Z</time>
      </trkpt>
      <trkpt lat="43.92837" lon="5.42311">
        <ele>317</ele>
        <time>2015-09-23T14:46:17.000Z</time>
      </trkpt>
      <trkpt lat="43.92838" lon="5.42309">
        <ele>317</ele>
        <time>2015-09-23T14:46:18.000Z</time>
      </trkpt>
      <trkpt lat="43.92838" lon="5.42306">
        <ele>317</ele>
        <time>2015-09-23T14:46:19.000Z</time>
      </trkpt>
      <trkpt lat="43.92839" lon="5.42303">
        <ele>317</ele>
        <time>2015-09-23T14:46:20.000Z</time>
      </trkpt>
      <trkpt lat="43.92839" lon="5.42301">
        <ele>317</ele>
        <time>2015-09-23T14:46:21.000Z</time>
      </trkpt>
      <trkpt lat="43.9284" lon="5.42298">
        <ele>317</ele>
        <time>2015-09-23T14:46:22.000Z</time>
      </trkpt>
      <trkpt lat="43.9284" lon="5.42295">
        <ele>317</ele>
        <time>2015-09-23T14:46:23.000Z</time>
      </trkpt>
      <trkpt lat="43.92841" lon="5.42292">
        <ele>317</ele>
        <time>2015-09-23T14:46:24.000Z</time>
      </trkpt>
      <trkpt lat="43.92841" lon="5.42289">
        <ele>317</ele>
        <time>2015-09-23T14:46:25.000Z</time>
      </trkpt>
      <trkpt lat="43.92842" lon="5.42285">
        <ele>316</ele>
        <time>2015-09-23T14:46:26.000Z</time>
      </trkpt>
      <trkpt lat="43.92842" lon="5.42282">
        <ele>317</ele>
        <time>2015-09-23T14:46:27.000Z</time>
      </trkpt>
      <trkpt lat="43.92843" lon="5.42279">
        <ele>317</ele>
        <time>2015-09-23T14:46:28.000Z</time>
      </trkpt>
      <trkpt lat="43.92843" lon="5.42276">
        <ele>316</ele>
        <time>2015-09-23T14:46:29.000Z</time>
      </trkpt>
      <trkpt lat="43.92844" lon="5.42273">
        <ele>317</ele>
        <time>2015-09-23T14:46:30.000Z</time>
      </trkpt>
      <trkpt lat="43.92845" lon="5.4227">
        <ele>317</ele>
        <time>2015-09-23T14:46:31.000Z</time>
      </trkpt>
      <trkpt lat="43.92846" lon="5.42268">
        <ele>317</ele>
        <time>2015-09-23T14:46:32.000Z</time>
      </trkpt>
      <trkpt lat="43.92846" lon="5.42265">
        <ele>317</ele>
        <time>2015-09-23T14:46:33.000Z</time>
      </trkpt>
      <trkpt lat="43.92847" lon="5.42263">
        <ele>317</ele>
        <time>2015-09-23T14:46:34.000Z</time>
      </trkpt>
      <trkpt lat="43.92848" lon="5.4226">
        <ele>317</ele>
        <time>2015-09-23T14:46:35.000Z</time>
      </trkpt>
      <trkpt lat="43.92848" lon="5.42257">
        <ele>318</ele>
        <time>2015-09-23T14:46:36.000Z</time>
      </trkpt>
      <trkpt lat="43.92849" lon="5.42254">
        <ele>318</ele>
        <time>2015-09-23T14:46:37.000Z</time>
      </trkpt>
      <trkpt lat="43.92849" lon="5.4225">
        <ele>317</ele>
        <time>2015-09-23T14:46:38.000Z</time>
      </trkpt>
      <trkpt lat="43.92849" lon="5.42247">
        <ele>317</ele>
        <time>2015-09-23T14:46:39.000Z</time>
      </trkpt>
      <trkpt lat="43.92849" lon="5.42244">
        <ele>317</ele>
        <time>2015-09-23T14:46:40.000Z</time>
      </trkpt>
      <trkpt lat="43.92849" lon="5.42241">
        <ele>316</ele>
        <time>2015-09-23T14:46:41.000Z</time>
      </trkpt>
      <trkpt lat="43.9285" lon="5.42238">
        <ele>316</ele>
        <time>2015-09-23T14:46:42.000Z</time>
      </trkpt>
      <trkpt lat="43.9285" lon="5.42234">
        <ele>316</ele>
        <time>2015-09-23T14:46:43.000Z</time>
      </trkpt>
      <trkpt lat="43.92851" lon="5.42231">
        <ele>315</ele>
        <time>2015-09-23T14:46:44.000Z</time>
      </trkpt>
      <trkpt lat="43.92851" lon="5.42228">
        <ele>315</ele>
        <time>2015-09-23T14:46:45.000Z</time>
      </trkpt>
      <trkpt lat="43.92851" lon="5.42224">
        <ele>315</ele>
        <time>2015-09-23T14:46:46.000Z</time>
      </trkpt>
      <trkpt lat="43.92852" lon="5.42221">
        <ele>314</ele>
        <time>2015-09-23T14:46:47.000Z</time>
      </trkpt>
      <trkpt lat="43.92852" lon="5.42218">
        <ele>314</ele>
        <time>2015-09-23T14:46:48.000Z</time>
      </trkpt>
      <trkpt lat="43.92853" lon="5.42214">
        <ele>314</ele>
        <time>2015-09-23T14:46:49.000Z</time>
      </trkpt>
      <trkpt lat="43.92853" lon="5.42211">
        <ele>314</ele>
        <time>2015-09-23T14:46:50.000Z</time>
      </trkpt>
      <trkpt lat="43.92854" lon="5.42208">
        <ele>313</ele>
        <time>2015-09-23T14:46:51.000Z</time>
      </trkpt>
      <trkpt lat="43.92854" lon="5.42204">
        <ele>313</ele>
        <time>2015-09-23T14:46:52.000Z</time>
      </trkpt>
      <trkpt lat="43.92854" lon="5.42201">
        <ele>312</ele>
        <time>2015-09-23T14:46:53.000Z</time>
      </trkpt>
      <trkpt lat="43.92855" lon="5.42198">
        <ele>312</ele>
        <time>2015-09-23T14:46:54.000Z</time>
      </trkpt>
      <trkpt lat="43.92855" lon="5.42194">
        <ele>312</ele>
        <time>2015-09-23T14:46:55.000Z</time>
      </trkpt>
      <trkpt lat="43.92855" lon="5.42191">
        <ele>312</ele>
        <time>2015-09-23T14:46:56.000Z</time>
      </trkpt>
      <trkpt lat="43.92856" lon="5.42187">
        <ele>312</ele>
        <time>2015-09-23T14:46:57.000Z</time>
      </trkpt>
      <trkpt lat="43.92856" lon="5.42184">
        <ele>313</ele>
        <time>2015-09-23T14:46:58.000Z</time>
      </trkpt>
      <trkpt lat="43.92857" lon="5.42181">
        <ele>313</ele>
        <time>2015-09-23T14:46:59.000Z</time>
      </trkpt>
      <trkpt lat="43.92857" lon="5.42177">
        <ele>312</ele>
        <time>2015-09-23T14:47:00.000Z</time>
      </trkpt>
      <trkpt lat="43.92858" lon="5.42174">
        <ele>312</ele>
        <time>2015-09-23T14:47:01.000Z</time>
      </trkpt>
      <trkpt lat="43.92858" lon="5.4217">
        <ele>312</ele>
        <time>2015-09-23T14:47:02.000Z</time>
      </trkpt>
      <trkpt lat="43.92859" lon="5.42167">
        <ele>311</ele>
        <time>2015-09-23T14:47:03.000Z</time>
      </trkpt>
      <trkpt lat="43.92859" lon="5.42164">
        <ele>310</ele>
        <time>2015-09-23T14:47:04.000Z</time>
      </trkpt>
      <trkpt lat="43.92859" lon="5.4216">
        <ele>309</ele>
        <time>2015-09-23T14:47:05.000Z</time>
      </trkpt>
      <trkpt lat="43.92859" lon="5.42157">
        <ele>309</ele>
        <time>2015-09-23T14:47:06.000Z</time>
      </trkpt>
      <trkpt lat="43.9286" lon="5.42154">
        <ele>309</ele>
        <time>2015-09-23T14:47:07.000Z</time>
      </trkpt>
      <trkpt lat="43.9286" lon="5.42151">
        <ele>309</ele>
        <time>2015-09-23T14:47:08.000Z</time>
      </trkpt>
      <trkpt lat="43.92861" lon="5.42148">
        <ele>308</ele>
        <time>2015-09-23T14:47:09.000Z</time>
      </trkpt>
      <trkpt lat="43.92861" lon="5.42144">
        <ele>308</ele>
        <time>2015-09-23T14:47:10.000Z</time>
      </trkpt>
      <trkpt lat="43.92862" lon="5.42141">
        <ele>308</ele>
        <time>2015-09-23T14:47:11.000Z</time>
      </trkpt>
      <trkpt lat="43.92862" lon="5.42138">
        <ele>308</ele>
        <time>2015-09-23T14:47:12.000Z</time>
      </trkpt>
      <trkpt lat="43.92862" lon="5.42135">
        <ele>308</ele>
        <time>2015-09-23T14:47:13.000Z</time>
      </trkpt>
      <trkpt lat="43.92863" lon="5.42131">
        <ele>309</ele>
        <time>2015-09-23T14:47:14.000Z</time>
      </trkpt>
      <trkpt lat="43.92864" lon="5.42128">
        <ele>308</ele>
        <time>2015-09-23T14:47:15.000Z</time>
      </trkpt>
      <trkpt lat="43.92864" lon="5.42125">
        <ele>309</ele>
        <time>2015-09-23T14:47:16.000Z</time>
      </trkpt>
      <trkpt lat="43.92865" lon="5.42122">
        <ele>308</ele>
        <time>2015-09-23T14:47:17.000Z</time>
      </trkpt>
      <trkpt lat="43.92866" lon="5.42119">
        <ele>308</ele>
        <time>2015-09-23T14:47:18.000Z</time>
      </trkpt>
      <trkpt lat="43.92866" lon="5.42115">
        <ele>308</ele>
        <time>2015-09-23T14:47:19.000Z</time>
      </trkpt>
      <trkpt lat="43.92866" lon="5.42112">
        <ele>309</ele>
        <time>2015-09-23T14:47:20.000Z</time>
      </trkpt>
      <trkpt lat="43.92867" lon="5.42108">
        <ele>309</ele>
        <time>2015-09-23T14:47:21.000Z</time>
      </trkpt>
      <trkpt lat="43.92867" lon="5.42104">
        <ele>310</ele>
        <time>2015-09-23T14:47:22.000Z</time>
      </trkpt>
      <trkpt lat="43.92868" lon="5.42101">
        <ele>310</ele>
        <time>2015-09-23T14:47:23.000Z</time>
      </trkpt>
      <trkpt lat="43.92869" lon="5.42098">
        <ele>311</ele>
        <time>2015-09-23T14:47:24.000Z</time>
      </trkpt>
      <trkpt lat="43.9287" lon="5.42094">
        <ele>311</ele>
        <time>2015-09-23T14:47:25.000Z</time>
      </trkpt>
      <trkpt lat="43.92871" lon="5.4209">
        <ele>311</ele>
        <time>2015-09-23T14:47:26.000Z</time>
      </trkpt>
      <trkpt lat="43.92871" lon="5.42087">
        <ele>311</ele>
        <time>2015-09-23T14:47:27.000Z</time>
      </trkpt>
      <trkpt lat="43.92872" lon="5.42083">
        <ele>311</ele>
        <time>2015-09-23T14:47:28.000Z</time>
      </trkpt>
      <trkpt lat="43.92873" lon="5.4208">
        <ele>310</ele>
        <time>2015-09-23T14:47:29.000Z</time>
      </trkpt>
      <trkpt lat="43.92874" lon="5.42076">
        <ele>310</ele>
        <time>2015-09-23T14:47:30.000Z</time>
      </trkpt>
      <trkpt lat="43.92874" lon="5.42073">
        <ele>311</ele>
        <time>2015-09-23T14:47:31.000Z</time>
      </trkpt>
      <trkpt lat="43.92875" lon="5.42069">
        <ele>311</ele>
        <time>2015-09-23T14:47:32.000Z</time>
      </trkpt>
      <trkpt lat="43.92876" lon="5.42066">
        <ele>310</ele>
        <time>2015-09-23T14:47:33.000Z</time>
      </trkpt>
      <trkpt lat="43.92876" lon="5.42063">
        <ele>310</ele>
        <time>2015-09-23T14:47:34.000Z</time>
      </trkpt>
      <trkpt lat="43.92877" lon="5.4206">
        <ele>311</ele>
        <time>2015-09-23T14:47:35.000Z</time>
      </trkpt>
      <trkpt lat="43.92878" lon="5.42056">
        <ele>311</ele>
        <time>2015-09-23T14:47:36.000Z</time>
      </trkpt>
      <trkpt lat="43.92879" lon="5.42053">
        <ele>310</ele>
        <time>2015-09-23T14:47:37.000Z</time>
      </trkpt>
      <trkpt lat="43.9288" lon="5.4205">
        <ele>310</ele>
        <time>2015-09-23T14:47:38.000Z</time>
      </trkpt>
      <trkpt lat="43.92881" lon="5.42046">
        <ele>310</ele>
        <time>2015-09-23T14:47:39.000Z</time>
      </trkpt>
      <trkpt lat="43.92881" lon="5.42043">
        <ele>310</ele>
        <time>2015-09-23T14:47:40.000Z</time>
      </trkpt>
      <trkpt lat="43.92882" lon="5.4204">
        <ele>310</ele>
        <time>2015-09-23T14:47:41.000Z</time>
      </trkpt>
      <trkpt lat="43.92883" lon="5.42037">
        <ele>310</ele>
        <time>2015-09-23T14:47:42.000Z</time>
      </trkpt>
      <trkpt lat="43.92884" lon="5.42034">
        <ele>310</ele>
        <time>2015-09-23T14:47:43.000Z</time>
      </trkpt>
      <trkpt lat="43.92884" lon="5.42031">
        <ele>310</ele>
        <time>2015-09-23T14:47:44.000Z</time>
      </trkpt>
      <trkpt lat="43.92885" lon="5.42028">
        <ele>309</ele>
        <time>2015-09-23T14:47:45.000Z</time>
      </trkpt>
      <trkpt lat="43.92886" lon="5.42025">
        <ele>310</ele>
        <time>2015-09-23T14:47:46.000Z</time>
      </trkpt>
      <trkpt lat="43.92886" lon="5.42021">
        <ele>310</ele>
        <time>2015-09-23T14:47:47.000Z</time>
      </trkpt>
      <trkpt lat="43.92887" lon="5.42018">
        <ele>309</ele>
        <time>2015-09-23T14:47:48.000Z</time>
      </trkpt>
      <trkpt lat="43.92887" lon="5.42014">
        <ele>309</ele>
        <time>2015-09-23T14:47:49.000Z</time>
      </trkpt>
      <trkpt lat="43.92888" lon="5.42011">
        <ele>309</ele>
        <time>2015-09-23T14:47:50.000Z</time>
      </trkpt>
      <trkpt lat="43.92889" lon="5.42007">
        <ele>309</ele>
        <time>2015-09-23T14:47:51.000Z</time>
      </trkpt>
      <trkpt lat="43.92889" lon="5.42004">
        <ele>309</ele>
        <time>2015-09-23T14:47:52.000Z</time>
      </trkpt>
      <trkpt lat="43.9289" lon="5.42001">
        <ele>309</ele>
        <time>2015-09-23T14:47:53.000Z</time>
      </trkpt>
      <trkpt lat="43.92891" lon="5.41998">
        <ele>309</ele>
        <time>2015-09-23T14:47:54.000Z</time>
      </trkpt>
      <trkpt lat="43.92891" lon="5.41995">
        <ele>308</ele>
        <time>2015-09-23T14:47:55.000Z</time>
      </trkpt>
      <trkpt lat="43.92892" lon="5.41992">
        <ele>308</ele>
        <time>2015-09-23T14:47:56.000Z</time>
      </trkpt>
      <trkpt lat="43.92893" lon="5.41988">
        <ele>309</ele>
        <time>2015-09-23T14:47:57.000Z</time>
      </trkpt>
      <trkpt lat="43.92894" lon="5.41985">
        <ele>308</ele>
        <time>2015-09-23T14:47:58.000Z</time>
      </trkpt>
      <trkpt lat="43.92894" lon="5.41982">
        <ele>308</ele>
        <time>2015-09-23T14:47:59.000Z</time>
      </trkpt>
      <trkpt lat="43.92895" lon="5.41979">
        <ele>308</ele>
        <time>2015-09-23T14:48:00.000Z</time>
      </trkpt>
      <trkpt lat="43.92895" lon="5.41976">
        <ele>309</ele>
        <time>2015-09-23T14:48:01.000Z</time>
      </trkpt>
      <trkpt lat="43.92896" lon="5.41972">
        <ele>309</ele>
        <time>2015-09-23T14:48:02.000Z</time>
      </trkpt>
      <trkpt lat="43.92897" lon="5.41969">
        <ele>309</ele>
        <time>2015-09-23T14:48:03.000Z</time>
      </trkpt>
      <trkpt lat="43.92898" lon="5.41965">
        <ele>308</ele>
        <time>2015-09-23T14:48:04.000Z</time>
      </trkpt>
      <trkpt lat="43.92898" lon="5.41962">
        <ele>308</ele>
        <time>2015-09-23T14:48:05.000Z</time>
      </trkpt>
      <trkpt lat="43.92899" lon="5.41958">
        <ele>308</ele>
        <time>2015-09-23T14:48:06.000Z</time>
      </trkpt>
      <trkpt lat="43.929" lon="5.41955">
        <ele>307</ele>
        <time>2015-09-23T14:48:07.000Z</time>
      </trkpt>
      <trkpt lat="43.929" lon="5.41952">
        <ele>306</ele>
        <time>2015-09-23T14:48:08.000Z</time>
      </trkpt>
      <trkpt lat="43.92901" lon="5.41949">
        <ele>306</ele>
        <time>2015-09-23T14:48:09.000Z</time>
      </trkpt>
      <trkpt lat="43.92902" lon="5.41946">
        <ele>306</ele>
        <time>2015-09-23T14:48:10.000Z</time>
      </trkpt>
      <trkpt lat="43.92902" lon="5.41943">
        <ele>306</ele>
        <time>2015-09-23T14:48:11.000Z</time>
      </trkpt>
      <trkpt lat="43.92903" lon="5.4194">
        <ele>306</ele>
        <time>2015-09-23T14:48:12.000Z</time>
      </trkpt>
      <trkpt lat="43.92904" lon="5.41936">
        <ele>306</ele>
        <time>2015-09-23T14:48:13.000Z</time>
      </trkpt>
      <trkpt lat="43.92905" lon="5.41932">
        <ele>305</ele>
        <time>2015-09-23T14:48:14.000Z</time>
      </trkpt>
      <trkpt lat="43.92906" lon="5.41929">
        <ele>305</ele>
        <time>2015-09-23T14:48:15.000Z</time>
      </trkpt>
      <trkpt lat="43.92906" lon="5.41926">
        <ele>304</ele>
        <time>2015-09-23T14:48:16.000Z</time>
      </trkpt>
      <trkpt lat="43.92907" lon="5.41922">
        <ele>304</ele>
        <time>2015-09-23T14:48:17.000Z</time>
      </trkpt>
      <trkpt lat="43.92907" lon="5.41919">
        <ele>304</ele>
        <time>2015-09-23T14:48:18.000Z</time>
      </trkpt>
      <trkpt lat="43.92908" lon="5.41916">
        <ele>304</ele>
        <time>2015-09-23T14:48:19.000Z</time>
      </trkpt>
      <trkpt lat="43.92909" lon="5.41912">
        <ele>304</ele>
        <time>2015-09-23T14:48:20.000Z</time>
      </trkpt>
      <trkpt lat="43.92909" lon="5.41909">
        <ele>304</ele>
        <time>2015-09-23T14:48:21.000Z</time>
      </trkpt>
      <trkpt lat="43.9291" lon="5.41905">
        <ele>304</ele>
        <time>2015-09-23T14:48:22.000Z</time>
      </trkpt>
      <trkpt lat="43.9291" lon="5.41902">
        <ele>304</ele>
        <time>2015-09-23T14:48:23.000Z</time>
      </trkpt>
      <trkpt lat="43.92911" lon="5.41898">
        <ele>304</ele>
        <time>2015-09-23T14:48:24.000Z</time>
      </trkpt>
      <trkpt lat="43.92911" lon="5.41895">
        <ele>303</ele>
        <time>2015-09-23T14:48:25.000Z</time>
      </trkpt>
      <trkpt lat="43.92912" lon="5.41892">
        <ele>303</ele>
        <time>2015-09-23T14:48:26.000Z</time>
      </trkpt>
      <trkpt lat="43.92912" lon="5.41888">
        <ele>303</ele>
        <time>2015-09-23T14:48:27.000Z</time>
      </trkpt>
      <trkpt lat="43.92912" lon="5.41885">
        <ele>303</ele>
        <time>2015-09-23T14:48:28.000Z</time>
      </trkpt>
      <trkpt lat="43.92913" lon="5.41882">
        <ele>303</ele>
        <time>2015-09-23T14:48:29.000Z</time>
      </trkpt>
      <trkpt lat="43.92913" lon="5.41878">
        <ele>303</ele>
        <time>2015-09-23T14:48:30.000Z</time>
      </trkpt>
      <trkpt lat="43.92914" lon="5.41875">
        <ele>303</ele>
        <time>2015-09-23T14:48:31.000Z</time>
      </trkpt>
      <trkpt lat="43.92914" lon="5.41871">
        <ele>304</ele>
        <time>2015-09-23T14:48:32.000Z</time>
      </trkpt>
      <trkpt lat="43.92914" lon="5.41868">
        <ele>303</ele>
        <time>2015-09-23T14:48:33.000Z</time>
      </trkpt>
      <trkpt lat="43.92915" lon="5.41865">
        <ele>303</ele>
        <time>2015-09-23T14:48:34.000Z</time>
      </trkpt>
      <trkpt lat="43.92915" lon="5.41861">
        <ele>303</ele>
        <time>2015-09-23T14:48:35.000Z</time>
      </trkpt>
      <trkpt lat="43.92916" lon="5.41858">
        <ele>303</ele>
        <time>2015-09-23T14:48:36.000Z</time>
      </trkpt>
      <trkpt lat="43.92917" lon="5.41854">
        <ele>304</ele>
        <time>2015-09-23T14:48:37.000Z</time>
      </trkpt>
      <trkpt lat="43.92917" lon="5.41851">
        <ele>303</ele>
        <time>2015-09-23T14:48:38.000Z</time>
      </trkpt>
      <trkpt lat="43.92917" lon="5.41847">
        <ele>303</ele>
        <time>2015-09-23T14:48:39.000Z</time>
      </trkpt>
      <trkpt lat="43.92917" lon="5.41844">
        <ele>303</ele>
        <time>2015-09-23T14:48:40.000Z</time>
      </trkpt>
      <trkpt lat="43.92918" lon="5.41841">
        <ele>303</ele>
        <time>2015-09-23T14:48:41.000Z</time>
      </trkpt>
      <trkpt lat="43.92918" lon="5.41837">
        <ele>303</ele>
        <time>2015-09-23T14:48:42.000Z</time>
      </trkpt>
      <trkpt lat="43.92918" lon="5.41834">
        <ele>302</ele>
        <time>2015-09-23T14:48:43.000Z</time>
      </trkpt>
      <trkpt lat="43.92918" lon="5.4183">
        <ele>302</ele>
        <time>2015-09-23T14:48:44.000Z</time>
      </trkpt>
      <trkpt lat="43.92919" lon="5.41826">
        <ele>302</ele>
        <time>2015-09-23T14:48:45.000Z</time>
      </trkpt>
      <trkpt lat="43.92919" lon="5.41822">
        <ele>302</ele>
        <time>2015-09-23T14:48:46.000Z</time>
      </trkpt>
      <trkpt lat="43.9292" lon="5.41819">
        <ele>301</ele>
        <time>2015-09-23T14:48:47.000Z</time>
      </trkpt>
      <trkpt lat="43.9292" lon="5.41815">
        <ele>301</ele>
        <time>2015-09-23T14:48:48.000Z</time>
      </trkpt>
      <trkpt lat="43.9292" lon="5.41812">
        <ele>301</ele>
        <time>2015-09-23T14:48:49.000Z</time>
      </trkpt>
      <trkpt lat="43.9292" lon="5.41808">
        <ele>301</ele>
        <time>2015-09-23T14:48:50.000Z</time>
      </trkpt>
      <trkpt lat="43.92921" lon="5.41805">
        <ele>301</ele>
        <time>2015-09-23T14:48:51.000Z</time>
      </trkpt>
      <trkpt lat="43.92921" lon="5.41801">
        <ele>301</ele>
        <time>2015-09-23T14:48:52.000Z</time>
      </trkpt>
      <trkpt lat="43.92921" lon="5.41798">
        <ele>301</ele>
        <time>2015-09-23T14:48:53.000Z</time>
      </trkpt>
      <trkpt lat="43.92921" lon="5.41795">
        <ele>301</ele>
        <time>2015-09-23T14:48:54.000Z</time>
      </trkpt>
      <trkpt lat="43.92922" lon="5.41791">
        <ele>301</ele>
        <time>2015-09-23T14:48:55.000Z</time>
      </trkpt>
      <trkpt lat="43.92922" lon="5.41788">
        <ele>301</ele>
        <time>2015-09-23T14:48:56.000Z</time>
      </trkpt>
      <trkpt lat="43.92922" lon="5.41785">
        <ele>302</ele>
        <time>2015-09-23T14:48:57.000Z</time>
      </trkpt>
      <trkpt lat="43.92922" lon="5.41781">
        <ele>301</ele>
        <time>2015-09-23T14:48:58.000Z</time>
      </trkpt>
      <trkpt lat="43.92923" lon="5.41777">
        <ele>302</ele>
        <time>2015-09-23T14:48:59.000Z</time>
      </trkpt>
      <trkpt lat="43.92923" lon="5.41773">
        <ele>302</ele>
        <time>2015-09-23T14:49:00.000Z</time>
      </trkpt>
      <trkpt lat="43.92923" lon="5.4177">
        <ele>301</ele>
        <time>2015-09-23T14:49:01.000Z</time>
      </trkpt>
      <trkpt lat="43.92923" lon="5.41766">
        <ele>301</ele>
        <time>2015-09-23T14:49:02.000Z</time>
      </trkpt>
      <trkpt lat="43.92924" lon="5.41763">
        <ele>301</ele>
        <time>2015-09-23T14:49:03.000Z</time>
      </trkpt>
      <trkpt lat="43.92924" lon="5.41759">
        <ele>301</ele>
        <time>2015-09-23T14:49:04.000Z</time>
      </trkpt>
      <trkpt lat="43.92924" lon="5.41756">
        <ele>301</ele>
        <time>2015-09-23T14:49:05.000Z</time>
      </trkpt>
      <trkpt lat="43.92925" lon="5.41752">
        <ele>301</ele>
        <time>2015-09-23T14:49:06.000Z</time>
      </trkpt>
      <trkpt lat="43.92925" lon="5.41748">
        <ele>302</ele>
        <time>2015-09-23T14:49:07.000Z</time>
      </trkpt>
      <trkpt lat="43.92926" lon="5.41745">
        <ele>301</ele>
        <time>2015-09-23T14:49:08.000Z</time>
      </trkpt>
      <trkpt lat="43.92926" lon="5.41741">
        <ele>300</ele>
        <time>2015-09-23T14:49:09.000Z</time>
      </trkpt>
      <trkpt lat="43.92927" lon="5.41738">
        <ele>300</ele>
        <time>2015-09-23T14:49:10.000Z</time>
      </trkpt>
      <trkpt lat="43.92927" lon="5.41735">
        <ele>300</ele>
        <time>2015-09-23T14:49:11.000Z</time>
      </trkpt>
      <trkpt lat="43.92927" lon="5.41732">
        <ele>299</ele>
        <time>2015-09-23T14:49:12.000Z</time>
      </trkpt>
      <trkpt lat="43.92928" lon="5.41729">
        <ele>299</ele>
        <time>2015-09-23T14:49:13.000Z</time>
      </trkpt>
      <trkpt lat="43.92928" lon="5.41726">
        <ele>299</ele>
        <time>2015-09-23T14:49:14.000Z</time>
      </trkpt>
      <trkpt lat="43.92929" lon="5.41722">
        <ele>299</ele>
        <time>2015-09-23T14:49:15.000Z</time>
      </trkpt>
      <trkpt lat="43.92929" lon="5.41719">
        <ele>298</ele>
        <time>2015-09-23T14:49:16.000Z</time>
      </trkpt>
      <trkpt lat="43.92929" lon="5.41715">
        <ele>299</ele>
        <time>2015-09-23T14:49:17.000Z</time>
      </trkpt>
      <trkpt lat="43.92929" lon="5.41712">
        <ele>298</ele>
        <time>2015-09-23T14:49:18.000Z</time>
      </trkpt>
      <trkpt lat="43.92929" lon="5.41709">
        <ele>298</ele>
        <time>2015-09-23T14:49:19.000Z</time>
      </trkpt>
      <trkpt lat="43.9293" lon="5.41705">
        <ele>297</ele>
        <time>2015-09-23T14:49:20.000Z</time>
      </trkpt>
      <trkpt lat="43.9293" lon="5.41702">
        <ele>297</ele>
        <time>2015-09-23T14:49:21.000Z</time>
      </trkpt>
      <trkpt lat="43.9293" lon="5.41699">
        <ele>297</ele>
        <time>2015-09-23T14:49:22.000Z</time>
      </trkpt>
      <trkpt lat="43.92931" lon="5.41695">
        <ele>297</ele>
        <time>2015-09-23T14:49:23.000Z</time>
      </trkpt>
      <trkpt lat="43.92931" lon="5.41692">
        <ele>297</ele>
        <time>2015-09-23T14:49:24.000Z</time>
      </trkpt>
      <trkpt lat="43.92932" lon="5.41688">
        <ele>297</ele>
        <time>2015-09-23T14:49:25.000Z</time>
      </trkpt>
      <trkpt lat="43.92932" lon="5.41685">
        <ele>297</ele>
        <time>2015-09-23T14:49:26.000Z</time>
      </trkpt>
      <trkpt lat="43.92933" lon="5.41682">
        <ele>297</ele>
        <time>2015-09-23T14:49:27.000Z</time>
      </trkpt>
      <trkpt lat="43.92933" lon="5.41679">
        <ele>296</ele>
        <time>2015-09-23T14:49:28.000Z</time>
      </trkpt>
      <trkpt lat="43.92933" lon="5.41675">
        <ele>296</ele>
        <time>2015-09-23T14:49:29.000Z</time>
      </trkpt>
      <trkpt lat="43.92933" lon="5.41672">
        <ele>295</ele>
        <time>2015-09-23T14:49:30.000Z</time>
      </trkpt>
      <trkpt lat="43.92934" lon="5.41669">
        <ele>295</ele>
        <time>2015-09-23T14:49:31.000Z</time>
      </trkpt>
      <trkpt lat="43.92934" lon="5.41666">
        <ele>295</ele>
        <time>2015-09-23T14:49:32.000Z</time>
      </trkpt>
      <trkpt lat="43.92934" lon="5.41663">
        <ele>294</ele>
        <time>2015-09-23T14:49:33.000Z</time>
      </trkpt>
      <trkpt lat="43.92935" lon="5.4166">
        <ele>295</ele>
        <time>2015-09-23T14:49:34.000Z</time>
      </trkpt>
      <trkpt lat="43.92935" lon="5.41657">
        <ele>295</ele>
        <time>2015-09-23T14:49:35.000Z</time>
      </trkpt>
      <trkpt lat="43.92935" lon="5.41653">
        <ele>295</ele>
        <time>2015-09-23T14:49:36.000Z</time>
      </trkpt>
      <trkpt lat="43.92936" lon="5.4165">
        <ele>295</ele>
        <time>2015-09-23T14:49:37.000Z</time>
      </trkpt>
      <trkpt lat="43.92936" lon="5.41646">
        <ele>295</ele>
        <time>2015-09-23T14:49:38.000Z</time>
      </trkpt>
      <trkpt lat="43.92936" lon="5.41643">
        <ele>295</ele>
        <time>2015-09-23T14:49:39.000Z</time>
      </trkpt>
      <trkpt lat="43.92937" lon="5.4164">
        <ele>295</ele>
        <time>2015-09-23T14:49:40.000Z</time>
      </trkpt>
      <trkpt lat="43.92937" lon="5.41637">
        <ele>295</ele>
        <time>2015-09-23T14:49:41.000Z</time>
      </trkpt>
      <trkpt lat="43.92938" lon="5.41633">
        <ele>296</ele>
        <time>2015-09-23T14:49:42.000Z</time>
      </trkpt>
      <trkpt lat="43.92938" lon="5.4163">
        <ele>295</ele>
        <time>2015-09-23T14:49:43.000Z</time>
      </trkpt>
      <trkpt lat="43.92939" lon="5.41627">
        <ele>296</ele>
        <time>2015-09-23T14:49:44.000Z</time>
      </trkpt>
      <trkpt lat="43.92939" lon="5.41623">
        <ele>296</ele>
        <time>2015-09-23T14:49:45.000Z</time>
      </trkpt>
      <trkpt lat="43.9294" lon="5.4162">
        <ele>295</ele>
        <time>2015-09-23T14:49:46.000Z</time>
      </trkpt>
      <trkpt lat="43.9294" lon="5.41616">
        <ele>295</ele>
        <time>2015-09-23T14:49:47.000Z</time>
      </trkpt>
      <trkpt lat="43.92941" lon="5.41612">
        <ele>296</ele>
        <time>2015-09-23T14:49:48.000Z</time>
      </trkpt>
      <trkpt lat="43.92941" lon="5.41609">
        <ele>296</ele>
        <time>2015-09-23T14:49:49.000Z</time>
      </trkpt>
      <trkpt lat="43.92942" lon="5.41605">
        <ele>295</ele>
        <time>2015-09-23T14:49:50.000Z</time>
      </trkpt>
      <trkpt lat="43.92942" lon="5.41602">
        <ele>295</ele>
        <time>2015-09-23T14:49:51.000Z</time>
      </trkpt>
      <trkpt lat="43.92943" lon="5.41598">
        <ele>295</ele>
        <time>2015-09-23T14:49:52.000Z</time>
      </trkpt>
      <trkpt lat="43.92943" lon="5.41595">
        <ele>295</ele>
        <time>2015-09-23T14:49:53.000Z</time>
      </trkpt>
      <trkpt lat="43.92944" lon="5.41592">
        <ele>296</ele>
        <time>2015-09-23T14:49:54.000Z</time>
      </trkpt>
      <trkpt lat="43.92944" lon="5.41588">
        <ele>296</ele>
        <time>2015-09-23T14:49:55.000Z</time>
      </trkpt>
      <trkpt lat="43.92945" lon="5.41584">
        <ele>296</ele>
        <time>2015-09-23T14:49:56.000Z</time>
      </trkpt>
      <trkpt lat="43.92946" lon="5.41581">
        <ele>296</ele>
        <time>2015-09-23T14:49:57.000Z</time>
      </trkpt>
      <trkpt lat="43.92947" lon="5.41578">
        <ele>298</ele>
        <time>2015-09-23T14:49:58.000Z</time>
      </trkpt>
      <trkpt lat="43.92947" lon="5.41575">
        <ele>297</ele>
        <time>2015-09-23T14:49:59.000Z</time>
      </trkpt>
      <trkpt lat="43.92948" lon="5.41572">
        <ele>298</ele>
        <time>2015-09-23T14:50:00.000Z</time>
      </trkpt>
      <trkpt lat="43.92949" lon="5.41568">
        <ele>297</ele>
        <time>2015-09-23T14:50:01.000Z</time>
      </trkpt>
      <trkpt lat="43.9295" lon="5.41565">
        <ele>297</ele>
        <time>2015-09-23T14:50:02.000Z</time>
      </trkpt>
      <trkpt lat="43.9295" lon="5.41562">
        <ele>298</ele>
        <time>2015-09-23T14:50:03.000Z</time>
      </trkpt>
      <trkpt lat="43.92951" lon="5.41558">
        <ele>299</ele>
        <time>2015-09-23T14:50:04.000Z</time>
      </trkpt>
      <trkpt lat="43.92952" lon="5.41555">
        <ele>298</ele>
        <time>2015-09-23T14:50:05.000Z</time>
      </trkpt>
      <trkpt lat="43.92954" lon="5.41552">
        <ele>299</ele>
        <time>2015-09-23T14:50:06.000Z</time>
      </trkpt>
      <trkpt lat="43.92955" lon="5.41548">
        <ele>299</ele>
        <time>2015-09-23T14:50:07.000Z</time>
      </trkpt>
      <trkpt lat="43.92956" lon="5.41545">
        <ele>299</ele>
        <time>2015-09-23T14:50:08.000Z</time>
      </trkpt>
      <trkpt lat="43.92957" lon="5.41542">
        <ele>299</ele>
        <time>2015-09-23T14:50:09.000Z</time>
      </trkpt>
      <trkpt lat="43.92958" lon="5.41539">
        <ele>299</ele>
        <time>2015-09-23T14:50:10.000Z</time>
      </trkpt>
      <trkpt lat="43.92959" lon="5.41536">
        <ele>299</ele>
        <time>2015-09-23T14:50:11.000Z</time>
      </trkpt>
      <trkpt lat="43.9296" lon="5.41533">
        <ele>299</ele>
        <time>2015-09-23T14:50:12.000Z</time>
      </trkpt>
      <trkpt lat="43.92961" lon="5.4153">
        <ele>299</ele>
        <time>2015-09-23T14:50:13.000Z</time>
      </trkpt>
      <trkpt lat="43.92962" lon="5.41527">
        <ele>299</ele>
        <time>2015-09-23T14:50:14.000Z</time>
      </trkpt>
      <trkpt lat="43.92963" lon="5.41525">
        <ele>299</ele>
        <time>2015-09-23T14:50:15.000Z</time>
      </trkpt>
      <trkpt lat="43.92964" lon="5.41522">
        <ele>298</ele>
        <time>2015-09-23T14:50:16.000Z</time>
      </trkpt>
      <trkpt lat="43.92965" lon="5.41519">
        <ele>299</ele>
        <time>2015-09-23T14:50:17.000Z</time>
      </trkpt>
      <trkpt lat="43.92966" lon="5.41516">
        <ele>299</ele>
        <time>2015-09-23T14:50:18.000Z</time>
      </trkpt>
      <trkpt lat="43.92968" lon="5.41513">
        <ele>299</ele>
        <time>2015-09-23T14:50:19.000Z</time>
      </trkpt>
      <trkpt lat="43.92969" lon="5.41511">
        <ele>299</ele>
        <time>2015-09-23T14:50:20.000Z</time>
      </trkpt>
      <trkpt lat="43.9297" lon="5.41508">
        <ele>298</ele>
        <time>2015-09-23T14:50:21.000Z</time>
      </trkpt>
      <trkpt lat="43.92971" lon="5.41505">
        <ele>298</ele>
        <time>2015-09-23T14:50:22.000Z</time>
      </trkpt>
      <trkpt lat="43.92971" lon="5.41502">
        <ele>298</ele>
        <time>2015-09-23T14:50:23.000Z</time>
      </trkpt>
      <trkpt lat="43.92972" lon="5.41499">
        <ele>298</ele>
        <time>2015-09-23T14:50:24.000Z</time>
      </trkpt>
      <trkpt lat="43.92973" lon="5.41496">
        <ele>297</ele>
        <time>2015-09-23T14:50:25.000Z</time>
      </trkpt>
      <trkpt lat="43.92973" lon="5.41493">
        <ele>297</ele>
        <time>2015-09-23T14:50:26.000Z</time>
      </trkpt>
      <trkpt lat="43.92974" lon="5.4149">
        <ele>297</ele>
        <time>2015-09-23T14:50:27.000Z</time>
      </trkpt>
      <trkpt lat="43.92974" lon="5.41487">
        <ele>298</ele>
        <time>2015-09-23T14:50:28.000Z</time>
      </trkpt>
      <trkpt lat="43.92975" lon="5.41484">
        <ele>297</ele>
        <time>2015-09-23T14:50:29.000Z</time>
      </trkpt>
      <trkpt lat="43.92976" lon="5.4148">
        <ele>297</ele>
        <time>2015-09-23T14:50:30.000Z</time>
      </trkpt>
      <trkpt lat="43.92977" lon="5.41477">
        <ele>297</ele>
        <time>2015-09-23T14:50:31.000Z</time>
      </trkpt>
      <trkpt lat="43.92978" lon="5.41474">
        <ele>297</ele>
        <time>2015-09-23T14:50:32.000Z</time>
      </trkpt>
      <trkpt lat="43.92979" lon="5.41471">
        <ele>296</ele>
        <time>2015-09-23T14:50:33.000Z</time>
      </trkpt>
      <trkpt lat="43.9298" lon="5.41469">
        <ele>297</ele>
        <time>2015-09-23T14:50:34.000Z</time>
      </trkpt>
      <trkpt lat="43.92981" lon="5.41466">
        <ele>297</ele>
        <time>2015-09-23T14:50:35.000Z</time>
      </trkpt>
      <trkpt lat="43.92982" lon="5.41463">
        <ele>297</ele>
        <time>2015-09-23T14:50:36.000Z</time>
      </trkpt>
      <trkpt lat="43.92983" lon="5.4146">
        <ele>297</ele>
        <time>2015-09-23T14:50:37.000Z</time>
      </trkpt>
      <trkpt lat="43.92984" lon="5.41457">
        <ele>296</ele>
        <time>2015-09-23T14:50:38.000Z</time>
      </trkpt>
      <trkpt lat="43.92985" lon="5.41455">
        <ele>297</ele>
        <time>2015-09-23T14:50:39.000Z</time>
      </trkpt>
      <trkpt lat="43.92985" lon="5.41452">
        <ele>297</ele>
        <time>2015-09-23T14:50:40.000Z</time>
      </trkpt>
      <trkpt lat="43.92986" lon="5.41449">
        <ele>297</ele>
        <time>2015-09-23T14:50:41.000Z</time>
      </trkpt>
      <trkpt lat="43.92987" lon="5.41446">
        <ele>298</ele>
        <time>2015-09-23T14:50:42.000Z</time>
      </trkpt>
      <trkpt lat="43.92988" lon="5.41443">
        <ele>298</ele>
        <time>2015-09-23T14:50:43.000Z</time>
      </trkpt>
      <trkpt lat="43.92989" lon="5.4144">
        <ele>297</ele>
        <time>2015-09-23T14:50:44.000Z</time>
      </trkpt>
      <trkpt lat="43.9299" lon="5.41438">
        <ele>297</ele>
        <time>2015-09-23T14:50:45.000Z</time>
      </trkpt>
      <trkpt lat="43.9299" lon="5.41435">
        <ele>297</ele>
        <time>2015-09-23T14:50:46.000Z</time>
      </trkpt>
      <trkpt lat="43.92991" lon="5.41432">
        <ele>296</ele>
        <time>2015-09-23T14:50:47.000Z</time>
      </trkpt>
      <trkpt lat="43.92992" lon="5.41429">
        <ele>296</ele>
        <time>2015-09-23T14:50:48.000Z</time>
      </trkpt>
      <trkpt lat="43.92993" lon="5.41426">
        <ele>296</ele>
        <time>2015-09-23T14:50:49.000Z</time>
      </trkpt>
      <trkpt lat="43.92994" lon="5.41424">
        <ele>296</ele>
        <time>2015-09-23T14:50:50.000Z</time>
      </trkpt>
      <trkpt lat="43.92995" lon="5.41421">
        <ele>296</ele>
        <time>2015-09-23T14:50:51.000Z</time>
      </trkpt>
      <trkpt lat="43.92996" lon="5.41418">
        <ele>296</ele>
        <time>2015-09-23T14:50:52.000Z</time>
      </trkpt>
      <trkpt lat="43.92998" lon="5.41415">
        <ele>297</ele>
        <time>2015-09-23T14:50:53.000Z</time>
      </trkpt>
      <trkpt lat="43.92999" lon="5.41412">
        <ele>297</ele>
        <time>2015-09-23T14:50:54.000Z</time>
      </trkpt>
      <trkpt lat="43.92999" lon="5.41409">
        <ele>297</ele>
        <time>2015-09-23T14:50:55.000Z</time>
      </trkpt>
      <trkpt lat="43.93" lon="5.41406">
        <ele>297</ele>
        <time>2015-09-23T14:50:56.000Z</time>
      </trkpt>
      <trkpt lat="43.93001" lon="5.41403">
        <ele>298</ele>
        <time>2015-09-23T14:50:57.000Z</time>
      </trkpt>
      <trkpt lat="43.93002" lon="5.41401">
        <ele>297</ele>
        <time>2015-09-23T14:50:58.000Z</time>
      </trkpt>
      <trkpt lat="43.93004" lon="5.41398">
        <ele>297</ele>
        <time>2015-09-23T14:50:59.000Z</time>
      </trkpt>
      <trkpt lat="43.93005" lon="5.41395">
        <ele>297</ele>
        <time>2015-09-23T14:51:00.000Z</time>
      </trkpt>
      <trkpt lat="43.93006" lon="5.41392">
        <ele>297</ele>
        <time>2015-09-23T14:51:01.000Z</time>
      </trkpt>
      <trkpt lat="43.93008" lon="5.4139">
        <ele>297</ele>
        <time>2015-09-23T14:51:02.000Z</time>
      </trkpt>
      <trkpt lat="43.93009" lon="5.41387">
        <ele>297</ele>
        <time>2015-09-23T14:51:03.000Z</time>
      </trkpt>
      <trkpt lat="43.93011" lon="5.41384">
        <ele>297</ele>
        <time>2015-09-23T14:51:04.000Z</time>
      </trkpt>
      <trkpt lat="43.93012" lon="5.41382">
        <ele>297</ele>
        <time>2015-09-23T14:51:05.000Z</time>
      </trkpt>
      <trkpt lat="43.93013" lon="5.41379">
        <ele>298</ele>
        <time>2015-09-23T14:51:06.000Z</time>
      </trkpt>
      <trkpt lat="43.93014" lon="5.41377">
        <ele>298</ele>
        <time>2015-09-23T14:51:07.000Z</time>
      </trkpt>
      <trkpt lat="43.93015" lon="5.41374">
        <ele>298</ele>
        <time>2015-09-23T14:51:08.000Z</time>
      </trkpt>
      <trkpt lat="43.93017" lon="5.41372">
        <ele>297</ele>
        <time>2015-09-23T14:51:09.000Z</time>
      </trkpt>
      <trkpt lat="43.93018" lon="5.4137">
        <ele>297</ele>
        <time>2015-09-23T14:51:10.000Z</time>
      </trkpt>
      <trkpt lat="43.93019" lon="5.41367">
        <ele>297</ele>
        <time>2015-09-23T14:51:11.000Z</time>
      </trkpt>
      <trkpt lat="43.9302" lon="5.41365">
        <ele>297</ele>
        <time>2015-09-23T14:51:12.000Z</time>
      </trkpt>
      <trkpt lat="43.93021" lon="5.41363">
        <ele>297</ele>
        <time>2015-09-23T14:51:13.000Z</time>
      </trkpt>
      <trkpt lat="43.93022" lon="5.4136">
        <ele>297</ele>
        <time>2015-09-23T14:51:14.000Z</time>
      </trkpt>
      <trkpt lat="43.93023" lon="5.41357">
        <ele>296</ele>
        <time>2015-09-23T14:51:15.000Z</time>
      </trkpt>
      <trkpt lat="43.93024" lon="5.41354">
        <ele>296</ele>
        <time>2015-09-23T14:51:16.000Z</time>
      </trkpt>
      <trkpt lat="43.93025" lon="5.41351">
        <ele>296</ele>
        <time>2015-09-23T14:51:17.000Z</time>
      </trkpt>
      <trkpt lat="43.93026" lon="5.41348">
        <ele>297</ele>
        <time>2015-09-23T14:51:18.000Z</time>
      </trkpt>
      <trkpt lat="43.93027" lon="5.41345">
        <ele>297</ele>
        <time>2015-09-23T14:51:19.000Z</time>
      </trkpt>
      <trkpt lat="43.93028" lon="5.41343">
        <ele>297</ele>
        <time>2015-09-23T14:51:20.000Z</time>
      </trkpt>
      <trkpt lat="43.93029" lon="5.4134">
        <ele>298</ele>
        <time>2015-09-23T14:51:21.000Z</time>
      </trkpt>
      <trkpt lat="43.9303" lon="5.41337">
        <ele>298</ele>
        <time>2015-09-23T14:51:22.000Z</time>
      </trkpt>
      <trkpt lat="43.93032" lon="5.41334">
        <ele>298</ele>
        <time>2015-09-23T14:51:23.000Z</time>
      </trkpt>
      <trkpt lat="43.93033" lon="5.41332">
        <ele>297</ele>
        <time>2015-09-23T14:51:24.000Z</time>
      </trkpt>
      <trkpt lat="43.93034" lon="5.41329">
        <ele>297</ele>
        <time>2015-09-23T14:51:25.000Z</time>
      </trkpt>
      <trkpt lat="43.93036" lon="5.41327">
        <ele>298</ele>
        <time>2015-09-23T14:51:26.000Z</time>
      </trkpt>
      <trkpt lat="43.93037" lon="5.41324">
        <ele>298</ele>
        <time>2015-09-23T14:51:27.000Z</time>
      </trkpt>
      <trkpt lat="43.93038" lon="5.41321">
        <ele>298</ele>
        <time>2015-09-23T14:51:28.000Z</time>
      </trkpt>
      <trkpt lat="43.9304" lon="5.41318">
        <ele>298</ele>
        <time>2015-09-23T14:51:29.000Z</time>
      </trkpt>
      <trkpt lat="43.93041" lon="5.41315">
        <ele>298</ele>
        <time>2015-09-23T14:51:30.000Z</time>
      </trkpt>
      <trkpt lat="43.93042" lon="5.41313">
        <ele>298</ele>
        <time>2015-09-23T14:51:31.000Z</time>
      </trkpt>
      <trkpt lat="43.93043" lon="5.41311">
        <ele>298</ele>
        <time>2015-09-23T14:51:32.000Z</time>
      </trkpt>
      <trkpt lat="43.93044" lon="5.41308">
        <ele>299</ele>
        <time>2015-09-23T14:51:33.000Z</time>
      </trkpt>
      <trkpt lat="43.93045" lon="5.41306">
        <ele>299</ele>
        <time>2015-09-23T14:51:34.000Z</time>
      </trkpt>
      <trkpt lat="43.93047" lon="5.41304">
        <ele>300</ele>
        <time>2015-09-23T14:51:35.000Z</time>
      </trkpt>
      <trkpt lat="43.93048" lon="5.41302">
        <ele>300</ele>
        <time>2015-09-23T14:51:36.000Z</time>
      </trkpt>
      <trkpt lat="43.9305" lon="5.41301">
        <ele>301</ele>
        <time>2015-09-23T14:51:37.000Z</time>
      </trkpt>
      <trkpt lat="43.93052" lon="5.413">
        <ele>301</ele>
        <time>2015-09-23T14:51:38.000Z</time>
      </trkpt>
      <trkpt lat="43.93054" lon="5.413">
        <ele>301</ele>
        <time>2015-09-23T14:51:39.000Z</time>
      </trkpt>
      <trkpt lat="43.93056" lon="5.41299">
        <ele>302</ele>
        <time>2015-09-23T14:51:40.000Z</time>
      </trkpt>
      <trkpt lat="43.93059" lon="5.41299">
        <ele>302</ele>
        <time>2015-09-23T14:51:41.000Z</time>
      </trkpt>
      <trkpt lat="43.93061" lon="5.413">
        <ele>302</ele>
        <time>2015-09-23T14:51:42.000Z</time>
      </trkpt>
      <trkpt lat="43.93063" lon="5.413">
        <ele>303</ele>
        <time>2015-09-23T14:51:43.000Z</time>
      </trkpt>
      <trkpt lat="43.93065" lon="5.413">
        <ele>303</ele>
        <time>2015-09-23T14:51:44.000Z</time>
      </trkpt>
      <trkpt lat="43.93067" lon="5.413">
        <ele>304</ele>
        <time>2015-09-23T14:51:45.000Z</time>
      </trkpt>
      <trkpt lat="43.93069" lon="5.41299">
        <ele>304</ele>
        <time>2015-09-23T14:51:46.000Z</time>
      </trkpt>
      <trkpt lat="43.93071" lon="5.41299">
        <ele>304</ele>
        <time>2015-09-23T14:51:47.000Z</time>
      </trkpt>
      <trkpt lat="43.93073" lon="5.41298">
        <ele>304</ele>
        <time>2015-09-23T14:51:48.000Z</time>
      </trkpt>
      <trkpt lat="43.93075" lon="5.41297">
        <ele>304</ele>
        <time>2015-09-23T14:51:49.000Z</time>
      </trkpt>
      <trkpt lat="43.93077" lon="5.41295">
        <ele>304</ele>
        <time>2015-09-23T14:51:50.000Z</time>
      </trkpt>
      <trkpt lat="43.93079" lon="5.41293">
        <ele>304</ele>
        <time>2015-09-23T14:51:51.000Z</time>
      </trkpt>
      <trkpt lat="43.9308" lon="5.41291">
        <ele>303</ele>
        <time>2015-09-23T14:51:52.000Z</time>
      </trkpt>
      <trkpt lat="43.93082" lon="5.4129">
        <ele>303</ele>
        <time>2015-09-23T14:51:53.000Z</time>
      </trkpt>
      <trkpt lat="43.93084" lon="5.41288">
        <ele>303</ele>
        <time>2015-09-23T14:51:54.000Z</time>
      </trkpt>
      <trkpt lat="43.93085" lon="5.41286">
        <ele>303</ele>
        <time>2015-09-23T14:51:55.000Z</time>
      </trkpt>
      <trkpt lat="43.93086" lon="5.41283">
        <ele>303</ele>
        <time>2015-09-23T14:51:56.000Z</time>
      </trkpt>
      <trkpt lat="43.93088" lon="5.41281">
        <ele>303</ele>
        <time>2015-09-23T14:51:57.000Z</time>
      </trkpt>
      <trkpt lat="43.93089" lon="5.41278">
        <ele>303</ele>
        <time>2015-09-23T14:51:58.000Z</time>
      </trkpt>
      <trkpt lat="43.9309" lon="5.41276">
        <ele>303</ele>
        <time>2015-09-23T14:51:59.000Z</time>
      </trkpt>
      <trkpt lat="43.93092" lon="5.41273">
        <ele>304</ele>
        <time>2015-09-23T14:52:00.000Z</time>
      </trkpt>
      <trkpt lat="43.93093" lon="5.41271">
        <ele>303</ele>
        <time>2015-09-23T14:52:01.000Z</time>
      </trkpt>
      <trkpt lat="43.93094" lon="5.41269">
        <ele>303</ele>
        <time>2015-09-23T14:52:02.000Z</time>
      </trkpt>
      <trkpt lat="43.93096" lon="5.41266">
        <ele>303</ele>
        <time>2015-09-23T14:52:03.000Z</time>
      </trkpt>
      <trkpt lat="43.93097" lon="5.41264">
        <ele>303</ele>
        <time>2015-09-23T14:52:04.000Z</time>
      </trkpt>
      <trkpt lat="43.93098" lon="5.41261">
        <ele>303</ele>
        <time>2015-09-23T14:52:05.000Z</time>
      </trkpt>
      <trkpt lat="43.931" lon="5.41259">
        <ele>302</ele>
        <time>2015-09-23T14:52:06.000Z</time>
      </trkpt>
      <trkpt lat="43.93101" lon="5.41256">
        <ele>303</ele>
        <time>2015-09-23T14:52:07.000Z</time>
      </trkpt>
      <trkpt lat="43.93102" lon="5.41254">
        <ele>302</ele>
        <time>2015-09-23T14:52:08.000Z</time>
      </trkpt>
      <trkpt lat="43.93102" lon="5.41251">
        <ele>302</ele>
        <time>2015-09-23T14:52:09.000Z</time>
      </trkpt>
      <trkpt lat="43.93104" lon="5.41248">
        <ele>302</ele>
        <time>2015-09-23T14:52:10.000Z</time>
      </trkpt>
      <trkpt lat="43.93105" lon="5.41245">
        <ele>301</ele>
        <time>2015-09-23T14:52:11.000Z</time>
      </trkpt>
      <trkpt lat="43.93106" lon="5.41243">
        <ele>301</ele>
        <time>2015-09-23T14:52:12.000Z</time>
      </trkpt>
      <trkpt lat="43.93107" lon="5.4124">
        <ele>301</ele>
        <time>2015-09-23T14:52:13.000Z</time>
      </trkpt>
      <trkpt lat="43.93108" lon="5.41237">
        <ele>301</ele>
        <time>2015-09-23T14:52:14.000Z</time>
      </trkpt>
      <trkpt lat="43.93109" lon="5.41235">
        <ele>300</ele>
        <time>2015-09-23T14:52:15.000Z</time>
      </trkpt>
      <trkpt lat="43.93111" lon="5.41232">
        <ele>300</ele>
        <time>2015-09-23T14:52:16.000Z</time>
      </trkpt>
      <trkpt lat="43.93112" lon="5.41229">
        <ele>300</ele>
        <time>2015-09-23T14:52:17.000Z</time>
      </trkpt>
      <trkpt lat="43.93113" lon="5.41227">
        <ele>300</ele>
        <time>2015-09-23T14:52:18.000Z</time>
      </trkpt>
      <trkpt lat="43.93114" lon="5.41224">
        <ele>300</ele>
        <time>2015-09-23T14:52:19.000Z</time>
      </trkpt>
      <trkpt lat="43.93115" lon="5.41221">
        <ele>299</ele>
        <time>2015-09-23T14:52:20.000Z</time>
      </trkpt>
      <trkpt lat="43.93116" lon="5.41218">
        <ele>299</ele>
        <time>2015-09-23T14:52:21.000Z</time>
      </trkpt>
      <trkpt lat="43.93117" lon="5.41215">
        <ele>299</ele>
        <time>2015-09-23T14:52:22.000Z</time>
      </trkpt>
      <trkpt lat="43.93118" lon="5.41212">
        <ele>298</ele>
        <time>2015-09-23T14:52:23.000Z</time>
      </trkpt>
      <trkpt lat="43.9312" lon="5.41209">
        <ele>298</ele>
        <time>2015-09-23T14:52:24.000Z</time>
      </trkpt>
      <trkpt lat="43.93121" lon="5.41207">
        <ele>298</ele>
        <time>2015-09-23T14:52:25.000Z</time>
      </trkpt>
      <trkpt lat="43.93122" lon="5.41204">
        <ele>298</ele>
        <time>2015-09-23T14:52:26.000Z</time>
      </trkpt>
      <trkpt lat="43.93123" lon="5.41201">
        <ele>298</ele>
        <time>2015-09-23T14:52:27.000Z</time>
      </trkpt>
      <trkpt lat="43.93125" lon="5.41198">
        <ele>298</ele>
        <time>2015-09-23T14:52:28.000Z</time>
      </trkpt>
      <trkpt lat="43.93126" lon="5.41195">
        <ele>299</ele>
        <time>2015-09-23T14:52:29.000Z</time>
      </trkpt>
      <trkpt lat="43.93127" lon="5.41192">
        <ele>298</ele>
        <time>2015-09-23T14:52:30.000Z</time>
      </trkpt>
      <trkpt lat="43.93128" lon="5.41189">
        <ele>298</ele>
        <time>2015-09-23T14:52:31.000Z</time>
      </trkpt>
      <trkpt lat="43.93129" lon="5.41186">
        <ele>298</ele>
        <time>2015-09-23T14:52:32.000Z</time>
      </trkpt>
      <trkpt lat="43.9313" lon="5.41183">
        <ele>299</ele>
        <time>2015-09-23T14:52:33.000Z</time>
      </trkpt>
      <trkpt lat="43.93131" lon="5.41181">
        <ele>299</ele>
        <time>2015-09-23T14:52:34.000Z</time>
      </trkpt>
      <trkpt lat="43.93132" lon="5.41178">
        <ele>300</ele>
        <time>2015-09-23T14:52:35.000Z</time>
      </trkpt>
      <trkpt lat="43.93134" lon="5.41176">
        <ele>300</ele>
        <time>2015-09-23T14:52:36.000Z</time>
      </trkpt>
      <trkpt lat="43.93135" lon="5.41173">
        <ele>300</ele>
        <time>2015-09-23T14:52:37.000Z</time>
      </trkpt>
      <trkpt lat="43.93136" lon="5.41171">
        <ele>300</ele>
        <time>2015-09-23T14:52:38.000Z</time>
      </trkpt>
      <trkpt lat="43.93137" lon="5.41168">
        <ele>300</ele>
        <time>2015-09-23T14:52:39.000Z</time>
      </trkpt>
      <trkpt lat="43.93138" lon="5.41165">
        <ele>301</ele>
        <time>2015-09-23T14:52:40.000Z</time>
      </trkpt>
      <trkpt lat="43.93139" lon="5.41163">
        <ele>300</ele>
        <time>2015-09-23T14:52:41.000Z</time>
      </trkpt>
      <trkpt lat="43.9314" lon="5.41161">
        <ele>301</ele>
        <time>2015-09-23T14:52:42.000Z</time>
      </trkpt>
      <trkpt lat="43.93141" lon="5.4116">
        <ele>301</ele>
        <time>2015-09-23T14:52:43.000Z</time>
      </trkpt>
      <trkpt lat="43.93141" lon="5.41158">
        <ele>302</ele>
        <time>2015-09-23T14:52:44.000Z</time>
      </trkpt>
      <trkpt lat="43.93142" lon="5.41155">
        <ele>302</ele>
        <time>2015-09-23T14:52:45.000Z</time>
      </trkpt>
      <trkpt lat="43.93143" lon="5.41152">
        <ele>302</ele>
        <time>2015-09-23T14:52:46.000Z</time>
      </trkpt>
      <trkpt lat="43.93144" lon="5.41149">
        <ele>302</ele>
        <time>2015-09-23T14:52:47.000Z</time>
      </trkpt>
      <trkpt lat="43.93145" lon="5.41146">
        <ele>302</ele>
        <time>2015-09-23T14:52:48.000Z</time>
      </trkpt>
      <trkpt lat="43.93147" lon="5.41143">
        <ele>303</ele>
        <time>2015-09-23T14:52:49.000Z</time>
      </trkpt>
      <trkpt lat="43.93148" lon="5.4114">
        <ele>303</ele>
        <time>2015-09-23T14:52:50.000Z</time>
      </trkpt>
      <trkpt lat="43.93148" lon="5.41137">
        <ele>303</ele>
        <time>2015-09-23T14:52:51.000Z</time>
      </trkpt>
      <trkpt lat="43.93149" lon="5.41135">
        <ele>303</ele>
        <time>2015-09-23T14:52:52.000Z</time>
      </trkpt>
      <trkpt lat="43.9315" lon="5.41133">
        <ele>303</ele>
        <time>2015-09-23T14:52:53.000Z</time>
      </trkpt>
      <trkpt lat="43.93151" lon="5.41131">
        <ele>303</ele>
        <time>2015-09-23T14:52:54.000Z</time>
      </trkpt>
      <trkpt lat="43.93152" lon="5.41128">
        <ele>304</ele>
        <time>2015-09-23T14:52:55.000Z</time>
      </trkpt>
      <trkpt lat="43.93153" lon="5.41126">
        <ele>304</ele>
        <time>2015-09-23T14:52:56.000Z</time>
      </trkpt>
      <trkpt lat="43.93154" lon="5.41123">
        <ele>304</ele>
        <time>2015-09-23T14:52:57.000Z</time>
      </trkpt>
      <trkpt lat="43.93154" lon="5.4112">
        <ele>304</ele>
        <time>2015-09-23T14:52:58.000Z</time>
      </trkpt>
      <trkpt lat="43.93155" lon="5.41118">
        <ele>304</ele>
        <time>2015-09-23T14:52:59.000Z</time>
      </trkpt>
      <trkpt lat="43.93156" lon="5.41116">
        <ele>305</ele>
        <time>2015-09-23T14:53:00.000Z</time>
      </trkpt>
      <trkpt lat="43.93157" lon="5.41114">
        <ele>305</ele>
        <time>2015-09-23T14:53:01.000Z</time>
      </trkpt>
      <trkpt lat="43.93158" lon="5.41112">
        <ele>305</ele>
        <time>2015-09-23T14:53:02.000Z</time>
      </trkpt>
      <trkpt lat="43.93159" lon="5.4111">
        <ele>305</ele>
        <time>2015-09-23T14:53:03.000Z</time>
      </trkpt>
      <trkpt lat="43.9316" lon="5.41108">
        <ele>305</ele>
        <time>2015-09-23T14:53:04.000Z</time>
      </trkpt>
      <trkpt lat="43.93162" lon="5.41107">
        <ele>305</ele>
        <time>2015-09-23T14:53:05.000Z</time>
      </trkpt>
      <trkpt lat="43.93163" lon="5.41105">
        <ele>305</ele>
        <time>2015-09-23T14:53:06.000Z</time>
      </trkpt>
      <trkpt lat="43.93165" lon="5.41103">
        <ele>305</ele>
        <time>2015-09-23T14:53:07.000Z</time>
      </trkpt>
      <trkpt lat="43.93166" lon="5.41102">
        <ele>306</ele>
        <time>2015-09-23T14:53:08.000Z</time>
      </trkpt>
      <trkpt lat="43.93168" lon="5.411">
        <ele>306</ele>
        <time>2015-09-23T14:53:09.000Z</time>
      </trkpt>
      <trkpt lat="43.93169" lon="5.41098">
        <ele>306</ele>
        <time>2015-09-23T14:53:10.000Z</time>
      </trkpt>
      <trkpt lat="43.93171" lon="5.41096">
        <ele>307</ele>
        <time>2015-09-23T14:53:11.000Z</time>
      </trkpt>
      <trkpt lat="43.93172" lon="5.41094">
        <ele>307</ele>
        <time>2015-09-23T14:53:12.000Z</time>
      </trkpt>
      <trkpt lat="43.93174" lon="5.41092">
        <ele>307</ele>
        <time>2015-09-23T14:53:13.000Z</time>
      </trkpt>
      <trkpt lat="43.93175" lon="5.4109">
        <ele>307</ele>
        <time>2015-09-23T14:53:14.000Z</time>
      </trkpt>
      <trkpt lat="43.93177" lon="5.41089">
        <ele>307</ele>
        <time>2015-09-23T14:53:15.000Z</time>
      </trkpt>
      <trkpt lat="43.93179" lon="5.41088">
        <ele>308</ele>
        <time>2015-09-23T14:53:16.000Z</time>
      </trkpt>
      <trkpt lat="43.93181" lon="5.41086">
        <ele>308</ele>
        <time>2015-09-23T14:53:17.000Z</time>
      </trkpt>
      <trkpt lat="43.93182" lon="5.41084">
        <ele>309</ele>
        <time>2015-09-23T14:53:18.000Z</time>
      </trkpt>
      <trkpt lat="43.93184" lon="5.41083">
        <ele>310</ele>
        <time>2015-09-23T14:53:19.000Z</time>
      </trkpt>
      <trkpt lat="43.93186" lon="5.41081">
        <ele>310</ele>
        <time>2015-09-23T14:53:20.000Z</time>
      </trkpt>
      <trkpt lat="43.93187" lon="5.41079">
        <ele>311</ele>
        <time>2015-09-23T14:53:21.000Z</time>
      </trkpt>
      <trkpt lat="43.93189" lon="5.41077">
        <ele>311</ele>
        <time>2015-09-23T14:53:22.000Z</time>
      </trkpt>
      <trkpt lat="43.93191" lon="5.41075">
        <ele>311</ele>
        <time>2015-09-23T14:53:23.000Z</time>
      </trkpt>
      <trkpt lat="43.93192" lon="5.41074">
        <ele>311</ele>
        <time>2015-09-23T14:53:24.000Z</time>
      </trkpt>
      <trkpt lat="43.93194" lon="5.41073">
        <ele>311</ele>
        <time>2015-09-23T14:53:25.000Z</time>
      </trkpt>
      <trkpt lat="43.93196" lon="5.41071">
        <ele>312</ele>
        <time>2015-09-23T14:53:26.000Z</time>
      </trkpt>
      <trkpt lat="43.93198" lon="5.4107">
        <ele>312</ele>
        <time>2015-09-23T14:53:27.000Z</time>
      </trkpt>
      <trkpt lat="43.93199" lon="5.41068">
        <ele>312</ele>
        <time>2015-09-23T14:53:28.000Z</time>
      </trkpt>
      <trkpt lat="43.93201" lon="5.41067">
        <ele>313</ele>
        <time>2015-09-23T14:53:29.000Z</time>
      </trkpt>
      <trkpt lat="43.93203" lon="5.41066">
        <ele>313</ele>
        <time>2015-09-23T14:53:30.000Z</time>
      </trkpt>
      <trkpt lat="43.93205" lon="5.41064">
        <ele>313</ele>
        <time>2015-09-23T14:53:31.000Z</time>
      </trkpt>
      <trkpt lat="43.93206" lon="5.41063">
        <ele>314</ele>
        <time>2015-09-23T14:53:32.000Z</time>
      </trkpt>
      <trkpt lat="43.93208" lon="5.41062">
        <ele>315</ele>
        <time>2015-09-23T14:53:33.000Z</time>
      </trkpt>
      <trkpt lat="43.93209" lon="5.4106">
        <ele>315</ele>
        <time>2015-09-23T14:53:34.000Z</time>
      </trkpt>
      <trkpt lat="43.93211" lon="5.41058">
        <ele>315</ele>
        <time>2015-09-23T14:53:35.000Z</time>
      </trkpt>
      <trkpt lat="43.93212" lon="5.41056">
        <ele>315</ele>
        <time>2015-09-23T14:53:36.000Z</time>
      </trkpt>
      <trkpt lat="43.93214" lon="5.41055">
        <ele>315</ele>
        <time>2015-09-23T14:53:37.000Z</time>
      </trkpt>
      <trkpt lat="43.93215" lon="5.41053">
        <ele>315</ele>
        <time>2015-09-23T14:53:38.000Z</time>
      </trkpt>
      <trkpt lat="43.93217" lon="5.41052">
        <ele>316</ele>
        <time>2015-09-23T14:53:39.000Z</time>
      </trkpt>
      <trkpt lat="43.93218" lon="5.4105">
        <ele>316</ele>
        <time>2015-09-23T14:53:40.000Z</time>
      </trkpt>
      <trkpt lat="43.9322" lon="5.41048">
        <ele>316</ele>
        <time>2015-09-23T14:53:41.000Z</time>
      </trkpt>
      <trkpt lat="43.93221" lon="5.41046">
        <ele>316</ele>
        <time>2015-09-23T14:53:42.000Z</time>
      </trkpt>
      <trkpt lat="43.93222" lon="5.41045">
        <ele>316</ele>
        <time>2015-09-23T14:53:43.000Z</time>
      </trkpt>
      <trkpt lat="43.93224" lon="5.41043">
        <ele>316</ele>
        <time>2015-09-23T14:53:44.000Z</time>
      </trkpt>
      <trkpt lat="43.93225" lon="5.41041">
        <ele>316</ele>
        <time>2015-09-23T14:53:45.000Z</time>
      </trkpt>
      <trkpt lat="43.93225" lon="5.41039">
        <ele>315</ele>
        <time>2015-09-23T14:53:46.000Z</time>
      </trkpt>
      <trkpt lat="43.93226" lon="5.41037">
        <ele>315</ele>
        <time>2015-09-23T14:53:47.000Z</time>
      </trkpt>
      <trkpt lat="43.93226" lon="5.41034">
        <ele>315</ele>
        <time>2015-09-23T14:53:48.000Z</time>
      </trkpt>
      <trkpt lat="43.93225" lon="5.41032">
        <ele>314</ele>
        <time>2015-09-23T14:53:49.000Z</time>
      </trkpt>
      <trkpt lat="43.93225" lon="5.41029">
        <ele>314</ele>
        <time>2015-09-23T14:53:50.000Z</time>
      </trkpt>
      <trkpt lat="43.93224" lon="5.41026">
        <ele>314</ele>
        <time>2015-09-23T14:53:51.000Z</time>
      </trkpt>
      <trkpt lat="43.93224" lon="5.41023">
        <ele>314</ele>
        <time>2015-09-23T14:53:52.000Z</time>
      </trkpt>
      <trkpt lat="43.93223" lon="5.4102">
        <ele>314</ele>
        <time>2015-09-23T14:53:53.000Z</time>
      </trkpt>
      <trkpt lat="43.93222" lon="5.41017">
        <ele>314</ele>
        <time>2015-09-23T14:53:54.000Z</time>
      </trkpt>
      <trkpt lat="43.93221" lon="5.41014">
        <ele>313</ele>
        <time>2015-09-23T14:53:55.000Z</time>
      </trkpt>
      <trkpt lat="43.9322" lon="5.41011">
        <ele>313</ele>
        <time>2015-09-23T14:53:56.000Z</time>
      </trkpt>
      <trkpt lat="43.93219" lon="5.41008">
        <ele>314</ele>
        <time>2015-09-23T14:53:57.000Z</time>
      </trkpt>
      <trkpt lat="43.93218" lon="5.41005">
        <ele>314</ele>
        <time>2015-09-23T14:53:58.000Z</time>
      </trkpt>
      <trkpt lat="43.93217" lon="5.41002">
        <ele>313</ele>
        <time>2015-09-23T14:53:59.000Z</time>
      </trkpt>
      <trkpt lat="43.93217" lon="5.40999">
        <ele>313</ele>
        <time>2015-09-23T14:54:00.000Z</time>
      </trkpt>
      <trkpt lat="43.93216" lon="5.40996">
        <ele>313</ele>
        <time>2015-09-23T14:54:01.000Z</time>
      </trkpt>
      <trkpt lat="43.93215" lon="5.40993">
        <ele>312</ele>
        <time>2015-09-23T14:54:02.000Z</time>
      </trkpt>
      <trkpt lat="43.93214" lon="5.4099">
        <ele>313</ele>
        <time>2015-09-23T14:54:03.000Z</time>
      </trkpt>
      <trkpt lat="43.93213" lon="5.40987">
        <ele>312</ele>
        <time>2015-09-23T14:54:04.000Z</time>
      </trkpt>
      <trkpt lat="43.93212" lon="5.40984">
        <ele>313</ele>
        <time>2015-09-23T14:54:05.000Z</time>
      </trkpt>
      <trkpt lat="43.93212" lon="5.40982">
        <ele>313</ele>
        <time>2015-09-23T14:54:06.000Z</time>
      </trkpt>
      <trkpt lat="43.93211" lon="5.40979">
        <ele>313</ele>
        <time>2015-09-23T14:54:07.000Z</time>
      </trkpt>
      <trkpt lat="43.9321" lon="5.40976">
        <ele>313</ele>
        <time>2015-09-23T14:54:08.000Z</time>
      </trkpt>
      <trkpt lat="43.93209" lon="5.40973">
        <ele>313</ele>
        <time>2015-09-23T14:54:09.000Z</time>
      </trkpt>
      <trkpt lat="43.93208" lon="5.4097">
        <ele>312</ele>
        <time>2015-09-23T14:54:10.000Z</time>
      </trkpt>
      <trkpt lat="43.93207" lon="5.40967">
        <ele>313</ele>
        <time>2015-09-23T14:54:11.000Z</time>
      </trkpt>
      <trkpt lat="43.93206" lon="5.40963">
        <ele>312</ele>
        <time>2015-09-23T14:54:12.000Z</time>
      </trkpt>
      <trkpt lat="43.93205" lon="5.4096">
        <ele>312</ele>
        <time>2015-09-23T14:54:13.000Z</time>
      </trkpt>
      <trkpt lat="43.93204" lon="5.40957">
        <ele>312</ele>
        <time>2015-09-23T14:54:14.000Z</time>
      </trkpt>
      <trkpt lat="43.93203" lon="5.40954">
        <ele>312</ele>
        <time>2015-09-23T14:54:15.000Z</time>
      </trkpt>
      <trkpt lat="43.93202" lon="5.40951">
        <ele>313</ele>
        <time>2015-09-23T14:54:16.000Z</time>
      </trkpt>
      <trkpt lat="43.93201" lon="5.40949">
        <ele>312</ele>
        <time>2015-09-23T14:54:17.000Z</time>
      </trkpt>
      <trkpt lat="43.932" lon="5.40946">
        <ele>312</ele>
        <time>2015-09-23T14:54:18.000Z</time>
      </trkpt>
      <trkpt lat="43.93199" lon="5.40943">
        <ele>313</ele>
        <time>2015-09-23T14:54:19.000Z</time>
      </trkpt>
      <trkpt lat="43.93198" lon="5.40939">
        <ele>313</ele>
        <time>2015-09-23T14:54:20.000Z</time>
      </trkpt>
      <trkpt lat="43.93196" lon="5.40936">
        <ele>312</ele>
        <time>2015-09-23T14:54:21.000Z</time>
      </trkpt>
      <trkpt lat="43.93195" lon="5.40933">
        <ele>312</ele>
        <time>2015-09-23T14:54:22.000Z</time>
      </trkpt>
      <trkpt lat="43.93195" lon="5.4093">
        <ele>313</ele>
        <time>2015-09-23T14:54:23.000Z</time>
      </trkpt>
      <trkpt lat="43.93194" lon="5.40928">
        <ele>313</ele>
        <time>2015-09-23T14:54:24.000Z</time>
      </trkpt>
      <trkpt lat="43.93193" lon="5.40925">
        <ele>314</ele>
        <time>2015-09-23T14:54:25.000Z</time>
      </trkpt>
      <trkpt lat="43.93192" lon="5.40922">
        <ele>314</ele>
        <time>2015-09-23T14:54:26.000Z</time>
      </trkpt>
      <trkpt lat="43.9319" lon="5.40919">
        <ele>313</ele>
        <time>2015-09-23T14:54:27.000Z</time>
      </trkpt>
      <trkpt lat="43.93189" lon="5.40915">
        <ele>313</ele>
        <time>2015-09-23T14:54:28.000Z</time>
      </trkpt>
      <trkpt lat="43.93189" lon="5.40912">
        <ele>313</ele>
        <time>2015-09-23T14:54:29.000Z</time>
      </trkpt>
      <trkpt lat="43.93188" lon="5.40909">
        <ele>313</ele>
        <time>2015-09-23T14:54:30.000Z</time>
      </trkpt>
      <trkpt lat="43.93187" lon="5.40905">
        <ele>313</ele>
        <time>2015-09-23T14:54:31.000Z</time>
      </trkpt>
      <trkpt lat="43.93186" lon="5.40902">
        <ele>313</ele>
        <time>2015-09-23T14:54:32.000Z</time>
      </trkpt>
      <trkpt lat="43.93185" lon="5.40899">
        <ele>313</ele>
        <time>2015-09-23T14:54:33.000Z</time>
      </trkpt>
      <trkpt lat="43.93185" lon="5.40896">
        <ele>313</ele>
        <time>2015-09-23T14:54:34.000Z</time>
      </trkpt>
      <trkpt lat="43.93184" lon="5.40893">
        <ele>313</ele>
        <time>2015-09-23T14:54:35.000Z</time>
      </trkpt>
      <trkpt lat="43.93183" lon="5.40889">
        <ele>313</ele>
        <time>2015-09-23T14:54:36.000Z</time>
      </trkpt>
      <trkpt lat="43.93182" lon="5.40886">
        <ele>313</ele>
        <time>2015-09-23T14:54:37.000Z</time>
      </trkpt>
      <trkpt lat="43.93181" lon="5.40883">
        <ele>312</ele>
        <time>2015-09-23T14:54:38.000Z</time>
      </trkpt>
      <trkpt lat="43.9318" lon="5.4088">
        <ele>314</ele>
        <time>2015-09-23T14:54:39.000Z</time>
      </trkpt>
      <trkpt lat="43.9318" lon="5.40877">
        <ele>313</ele>
        <time>2015-09-23T14:54:40.000Z</time>
      </trkpt>
      <trkpt lat="43.9318" lon="5.40874">
        <ele>313</ele>
        <time>2015-09-23T14:54:41.000Z</time>
      </trkpt>
      <trkpt lat="43.93179" lon="5.4087">
        <ele>314</ele>
        <time>2015-09-23T14:54:42.000Z</time>
      </trkpt>
      <trkpt lat="43.93179" lon="5.40867">
        <ele>313</ele>
        <time>2015-09-23T14:54:43.000Z</time>
      </trkpt>
      <trkpt lat="43.93179" lon="5.40863">
        <ele>313</ele>
        <time>2015-09-23T14:54:44.000Z</time>
      </trkpt>
      <trkpt lat="43.93179" lon="5.4086">
        <ele>312</ele>
        <time>2015-09-23T14:54:45.000Z</time>
      </trkpt>
      <trkpt lat="43.93179" lon="5.40857">
        <ele>312</ele>
        <time>2015-09-23T14:54:46.000Z</time>
      </trkpt>
      <trkpt lat="43.93179" lon="5.40853">
        <ele>312</ele>
        <time>2015-09-23T14:54:47.000Z</time>
      </trkpt>
      <trkpt lat="43.93179" lon="5.4085">
        <ele>312</ele>
        <time>2015-09-23T14:54:48.000Z</time>
      </trkpt>
      <trkpt lat="43.93178" lon="5.40847">
        <ele>312</ele>
        <time>2015-09-23T14:54:49.000Z</time>
      </trkpt>
      <trkpt lat="43.93179" lon="5.40844">
        <ele>312</ele>
        <time>2015-09-23T14:54:50.000Z</time>
      </trkpt>
      <trkpt lat="43.93179" lon="5.40841">
        <ele>312</ele>
        <time>2015-09-23T14:54:51.000Z</time>
      </trkpt>
      <trkpt lat="43.93179" lon="5.40838">
        <ele>311</ele>
        <time>2015-09-23T14:54:52.000Z</time>
      </trkpt>
      <trkpt lat="43.93179" lon="5.40834">
        <ele>312</ele>
        <time>2015-09-23T14:54:53.000Z</time>
      </trkpt>
      <trkpt lat="43.93179" lon="5.40831">
        <ele>312</ele>
        <time>2015-09-23T14:54:54.000Z</time>
      </trkpt>
      <trkpt lat="43.93179" lon="5.40828">
        <ele>312</ele>
        <time>2015-09-23T14:54:55.000Z</time>
      </trkpt>
      <trkpt lat="43.93179" lon="5.40824">
        <ele>312</ele>
        <time>2015-09-23T14:54:56.000Z</time>
      </trkpt>
      <trkpt lat="43.93179" lon="5.40821">
        <ele>312</ele>
        <time>2015-09-23T14:54:57.000Z</time>
      </trkpt>
      <trkpt lat="43.93179" lon="5.40818">
        <ele>312</ele>
        <time>2015-09-23T14:54:58.000Z</time>
      </trkpt>
      <trkpt lat="43.93179" lon="5.40814">
        <ele>312</ele>
        <time>2015-09-23T14:54:59.000Z</time>
      </trkpt>
      <trkpt lat="43.93179" lon="5.40811">
        <ele>312</ele>
        <time>2015-09-23T14:55:00.000Z</time>
      </trkpt>
      <trkpt lat="43.93179" lon="5.40808">
        <ele>312</ele>
        <time>2015-09-23T14:55:01.000Z</time>
      </trkpt>
      <trkpt lat="43.93179" lon="5.40805">
        <ele>312</ele>
        <time>2015-09-23T14:55:02.000Z</time>
      </trkpt>
      <trkpt lat="43.93179" lon="5.40802">
        <ele>312</ele>
        <time>2015-09-23T14:55:03.000Z</time>
      </trkpt>
      <trkpt lat="43.93179" lon="5.40799">
        <ele>312</ele>
        <time>2015-09-23T14:55:04.000Z</time>
      </trkpt>
      <trkpt lat="43.93179" lon="5.40796">
        <ele>312</ele>
        <time>2015-09-23T14:55:05.000Z</time>
      </trkpt>
      <trkpt lat="43.93178" lon="5.40793">
        <ele>312</ele>
        <time>2015-09-23T14:55:06.000Z</time>
      </trkpt>
      <trkpt lat="43.93178" lon="5.4079">
        <ele>311</ele>
        <time>2015-09-23T14:55:07.000Z</time>
      </trkpt>
      <trkpt lat="43.93178" lon="5.40786">
        <ele>311</ele>
        <time>2015-09-23T14:55:08.000Z</time>
      </trkpt>
      <trkpt lat="43.93177" lon="5.40783">
        <ele>311</ele>
        <time>2015-09-23T14:55:09.000Z</time>
      </trkpt>
      <trkpt lat="43.93177" lon="5.4078">
        <ele>311</ele>
        <time>2015-09-23T14:55:10.000Z</time>
      </trkpt>
      <trkpt lat="43.93177" lon="5.40777">
        <ele>312</ele>
        <time>2015-09-23T14:55:11.000Z</time>
      </trkpt>
      <trkpt lat="43.93177" lon="5.40774">
        <ele>311</ele>
        <time>2015-09-23T14:55:12.000Z</time>
      </trkpt>
      <trkpt lat="43.93177" lon="5.40771">
        <ele>310</ele>
        <time>2015-09-23T14:55:13.000Z</time>
      </trkpt>
      <trkpt lat="43.93176" lon="5.40768">
        <ele>310</ele>
        <time>2015-09-23T14:55:14.000Z</time>
      </trkpt>
      <trkpt lat="43.93176" lon="5.40765">
        <ele>310</ele>
        <time>2015-09-23T14:55:15.000Z</time>
      </trkpt>
      <trkpt lat="43.93175" lon="5.40762">
        <ele>309</ele>
        <time>2015-09-23T14:55:16.000Z</time>
      </trkpt>
      <trkpt lat="43.93175" lon="5.40759">
        <ele>309</ele>
        <time>2015-09-23T14:55:17.000Z</time>
      </trkpt>
      <trkpt lat="43.93174" lon="5.40755">
        <ele>308</ele>
        <time>2015-09-23T14:55:18.000Z</time>
      </trkpt>
      <trkpt lat="43.93174" lon="5.40752">
        <ele>308</ele>
        <time>2015-09-23T14:55:19.000Z</time>
      </trkpt>
      <trkpt lat="43.93173" lon="5.40748">
        <ele>308</ele>
        <time>2015-09-23T14:55:20.000Z</time>
      </trkpt>
      <trkpt lat="43.93172" lon="5.40744">
        <ele>308</ele>
        <time>2015-09-23T14:55:21.000Z</time>
      </trkpt>
      <trkpt lat="43.93172" lon="5.4074">
        <ele>308</ele>
        <time>2015-09-23T14:55:22.000Z</time>
      </trkpt>
      <trkpt lat="43.93171" lon="5.40736">
        <ele>308</ele>
        <time>2015-09-23T14:55:23.000Z</time>
      </trkpt>
      <trkpt lat="43.93171" lon="5.40732">
        <ele>307</ele>
        <time>2015-09-23T14:55:24.000Z</time>
      </trkpt>
      <trkpt lat="43.93171" lon="5.40729">
        <ele>307</ele>
        <time>2015-09-23T14:55:25.000Z</time>
      </trkpt>
      <trkpt lat="43.9317" lon="5.40725">
        <ele>307</ele>
        <time>2015-09-23T14:55:26.000Z</time>
      </trkpt>
      <trkpt lat="43.93169" lon="5.40722">
        <ele>308</ele>
        <time>2015-09-23T14:55:27.000Z</time>
      </trkpt>
      <trkpt lat="43.93169" lon="5.40718">
        <ele>308</ele>
        <time>2015-09-23T14:55:28.000Z</time>
      </trkpt>
      <trkpt lat="43.93168" lon="5.40715">
        <ele>309</ele>
        <time>2015-09-23T14:55:29.000Z</time>
      </trkpt>
      <trkpt lat="43.93167" lon="5.40712">
        <ele>309</ele>
        <time>2015-09-23T14:55:30.000Z</time>
      </trkpt>
      <trkpt lat="43.93167" lon="5.40708">
        <ele>308</ele>
        <time>2015-09-23T14:55:31.000Z</time>
      </trkpt>
      <trkpt lat="43.93167" lon="5.40705">
        <ele>308</ele>
        <time>2015-09-23T14:55:32.000Z</time>
      </trkpt>
      <trkpt lat="43.93167" lon="5.40701">
        <ele>309</ele>
        <time>2015-09-23T14:55:33.000Z</time>
      </trkpt>
      <trkpt lat="43.93166" lon="5.40698">
        <ele>309</ele>
        <time>2015-09-23T14:55:34.000Z</time>
      </trkpt>
      <trkpt lat="43.93166" lon="5.40695">
        <ele>310</ele>
        <time>2015-09-23T14:55:35.000Z</time>
      </trkpt>
      <trkpt lat="43.93166" lon="5.40691">
        <ele>310</ele>
        <time>2015-09-23T14:55:36.000Z</time>
      </trkpt>
      <trkpt lat="43.93166" lon="5.40688">
        <ele>310</ele>
        <time>2015-09-23T14:55:37.000Z</time>
      </trkpt>
      <trkpt lat="43.93165" lon="5.40685">
        <ele>311</ele>
        <time>2015-09-23T14:55:38.000Z</time>
      </trkpt>
      <trkpt lat="43.93165" lon="5.40682">
        <ele>312</ele>
        <time>2015-09-23T14:55:39.000Z</time>
      </trkpt>
      <trkpt lat="43.93165" lon="5.40679">
        <ele>312</ele>
        <time>2015-09-23T14:55:40.000Z</time>
      </trkpt>
      <trkpt lat="43.93165" lon="5.40676">
        <ele>312</ele>
        <time>2015-09-23T14:55:41.000Z</time>
      </trkpt>
      <trkpt lat="43.93165" lon="5.40673">
        <ele>313</ele>
        <time>2015-09-23T14:55:42.000Z</time>
      </trkpt>
      <trkpt lat="43.93164" lon="5.4067">
        <ele>313</ele>
        <time>2015-09-23T14:55:43.000Z</time>
      </trkpt>
      <trkpt lat="43.93164" lon="5.40667">
        <ele>314</ele>
        <time>2015-09-23T14:55:44.000Z</time>
      </trkpt>
      <trkpt lat="43.93164" lon="5.40664">
        <ele>314</ele>
        <time>2015-09-23T14:55:45.000Z</time>
      </trkpt>
      <trkpt lat="43.93164" lon="5.40662">
        <ele>314</ele>
        <time>2015-09-23T14:55:46.000Z</time>
      </trkpt>
      <trkpt lat="43.93164" lon="5.4066">
        <ele>314</ele>
        <time>2015-09-23T14:55:47.000Z</time>
      </trkpt>
      <trkpt lat="43.93163" lon="5.40657">
        <ele>315</ele>
        <time>2015-09-23T14:55:48.000Z</time>
      </trkpt>
      <trkpt lat="43.93163" lon="5.40654">
        <ele>315</ele>
        <time>2015-09-23T14:55:49.000Z</time>
      </trkpt>
      <trkpt lat="43.93163" lon="5.40652">
        <ele>316</ele>
        <time>2015-09-23T14:55:50.000Z</time>
      </trkpt>
      <trkpt lat="43.93162" lon="5.40649">
        <ele>316</ele>
        <time>2015-09-23T14:55:51.000Z</time>
      </trkpt>
      <trkpt lat="43.93162" lon="5.40647">
        <ele>316</ele>
        <time>2015-09-23T14:55:52.000Z</time>
      </trkpt>
      <trkpt lat="43.93163" lon="5.40644">
        <ele>316</ele>
        <time>2015-09-23T14:55:53.000Z</time>
      </trkpt>
      <trkpt lat="43.93163" lon="5.40642">
        <ele>316</ele>
        <time>2015-09-23T14:55:54.000Z</time>
      </trkpt>
      <trkpt lat="43.93163" lon="5.40639">
        <ele>316</ele>
        <time>2015-09-23T14:55:55.000Z</time>
      </trkpt>
      <trkpt lat="43.93163" lon="5.40637">
        <ele>316</ele>
        <time>2015-09-23T14:55:56.000Z</time>
      </trkpt>
      <trkpt lat="43.93163" lon="5.40634">
        <ele>316</ele>
        <time>2015-09-23T14:55:57.000Z</time>
      </trkpt>
      <trkpt lat="43.93163" lon="5.40631">
        <ele>317</ele>
        <time>2015-09-23T14:55:58.000Z</time>
      </trkpt>
      <trkpt lat="43.93163" lon="5.40629">
        <ele>316</ele>
        <time>2015-09-23T14:55:59.000Z</time>
      </trkpt>
      <trkpt lat="43.93163" lon="5.40626">
        <ele>316</ele>
        <time>2015-09-23T14:56:00.000Z</time>
      </trkpt>
      <trkpt lat="43.93164" lon="5.40624">
        <ele>317</ele>
        <time>2015-09-23T14:56:01.000Z</time>
      </trkpt>
      <trkpt lat="43.93164" lon="5.40621">
        <ele>317</ele>
        <time>2015-09-23T14:56:02.000Z</time>
      </trkpt>
      <trkpt lat="43.93165" lon="5.40619">
        <ele>318</ele>
        <time>2015-09-23T14:56:03.000Z</time>
      </trkpt>
      <trkpt lat="43.93165" lon="5.40616">
        <ele>319</ele>
        <time>2015-09-23T14:56:04.000Z</time>
      </trkpt>
      <trkpt lat="43.93166" lon="5.40613">
        <ele>319</ele>
        <time>2015-09-23T14:56:05.000Z</time>
      </trkpt>
      <trkpt lat="43.93166" lon="5.4061">
        <ele>319</ele>
        <time>2015-09-23T14:56:06.000Z</time>
      </trkpt>
      <trkpt lat="43.93167" lon="5.40607">
        <ele>318</ele>
        <time>2015-09-23T14:56:07.000Z</time>
      </trkpt>
      <trkpt lat="43.93168" lon="5.40603">
        <ele>318</ele>
        <time>2015-09-23T14:56:08.000Z</time>
      </trkpt>
      <trkpt lat="43.93169" lon="5.406">
        <ele>318</ele>
        <time>2015-09-23T14:56:09.000Z</time>
      </trkpt>
      <trkpt lat="43.9317" lon="5.40596">
        <ele>318</ele>
        <time>2015-09-23T14:56:10.000Z</time>
      </trkpt>
      <trkpt lat="43.9317" lon="5.40594">
        <ele>318</ele>
        <time>2015-09-23T14:56:11.000Z</time>
      </trkpt>
      <trkpt lat="43.93171" lon="5.40591">
        <ele>318</ele>
        <time>2015-09-23T14:56:12.000Z</time>
      </trkpt>
      <trkpt lat="43.93172" lon="5.40588">
        <ele>319</ele>
        <time>2015-09-23T14:56:13.000Z</time>
      </trkpt>
      <trkpt lat="43.93173" lon="5.40585">
        <ele>319</ele>
        <time>2015-09-23T14:56:14.000Z</time>
      </trkpt>
      <trkpt lat="43.93174" lon="5.40583">
        <ele>319</ele>
        <time>2015-09-23T14:56:15.000Z</time>
      </trkpt>
      <trkpt lat="43.93175" lon="5.4058">
        <ele>319</ele>
        <time>2015-09-23T14:56:16.000Z</time>
      </trkpt>
      <trkpt lat="43.93176" lon="5.40578">
        <ele>319</ele>
        <time>2015-09-23T14:56:17.000Z</time>
      </trkpt>
      <trkpt lat="43.93177" lon="5.40575">
        <ele>319</ele>
        <time>2015-09-23T14:56:18.000Z</time>
      </trkpt>
      <trkpt lat="43.93178" lon="5.40573">
        <ele>319</ele>
        <time>2015-09-23T14:56:19.000Z</time>
      </trkpt>
      <trkpt lat="43.93179" lon="5.40571">
        <ele>320</ele>
        <time>2015-09-23T14:56:20.000Z</time>
      </trkpt>
      <trkpt lat="43.9318" lon="5.40568">
        <ele>321</ele>
        <time>2015-09-23T14:56:21.000Z</time>
      </trkpt>
      <trkpt lat="43.93181" lon="5.40566">
        <ele>321</ele>
        <time>2015-09-23T14:56:22.000Z</time>
      </trkpt>
      <trkpt lat="43.93183" lon="5.40564">
        <ele>322</ele>
        <time>2015-09-23T14:56:23.000Z</time>
      </trkpt>
      <trkpt lat="43.93184" lon="5.40561">
        <ele>321</ele>
        <time>2015-09-23T14:56:24.000Z</time>
      </trkpt>
      <trkpt lat="43.93185" lon="5.40559">
        <ele>321</ele>
        <time>2015-09-23T14:56:25.000Z</time>
      </trkpt>
      <trkpt lat="43.93186" lon="5.40557">
        <ele>321</ele>
        <time>2015-09-23T14:56:26.000Z</time>
      </trkpt>
      <trkpt lat="43.93187" lon="5.40554">
        <ele>322</ele>
        <time>2015-09-23T14:56:27.000Z</time>
      </trkpt>
      <trkpt lat="43.93188" lon="5.40552">
        <ele>321</ele>
        <time>2015-09-23T14:56:28.000Z</time>
      </trkpt>
      <trkpt lat="43.9319" lon="5.4055">
        <ele>321</ele>
        <time>2015-09-23T14:56:29.000Z</time>
      </trkpt>
      <trkpt lat="43.93191" lon="5.40548">
        <ele>321</ele>
        <time>2015-09-23T14:56:30.000Z</time>
      </trkpt>
      <trkpt lat="43.93192" lon="5.40545">
        <ele>321</ele>
        <time>2015-09-23T14:56:31.000Z</time>
      </trkpt>
      <trkpt lat="43.93193" lon="5.40543">
        <ele>322</ele>
        <time>2015-09-23T14:56:32.000Z</time>
      </trkpt>
      <trkpt lat="43.93194" lon="5.40541">
        <ele>321</ele>
        <time>2015-09-23T14:56:33.000Z</time>
      </trkpt>
      <trkpt lat="43.93196" lon="5.40538">
        <ele>322</ele>
        <time>2015-09-23T14:56:34.000Z</time>
      </trkpt>
      <trkpt lat="43.93197" lon="5.40536">
        <ele>322</ele>
        <time>2015-09-23T14:56:35.000Z</time>
      </trkpt>
      <trkpt lat="43.93198" lon="5.40534">
        <ele>323</ele>
        <time>2015-09-23T14:56:36.000Z</time>
      </trkpt>
      <trkpt lat="43.93199" lon="5.40531">
        <ele>323</ele>
        <time>2015-09-23T14:56:37.000Z</time>
      </trkpt>
      <trkpt lat="43.932" lon="5.40529">
        <ele>323</ele>
        <time>2015-09-23T14:56:38.000Z</time>
      </trkpt>
      <trkpt lat="43.93201" lon="5.40527">
        <ele>323</ele>
        <time>2015-09-23T14:56:39.000Z</time>
      </trkpt>
      <trkpt lat="43.93202" lon="5.40524">
        <ele>323</ele>
        <time>2015-09-23T14:56:40.000Z</time>
      </trkpt>
      <trkpt lat="43.93203" lon="5.40522">
        <ele>323</ele>
        <time>2015-09-23T14:56:41.000Z</time>
      </trkpt>
      <trkpt lat="43.93205" lon="5.40519">
        <ele>323</ele>
        <time>2015-09-23T14:56:42.000Z</time>
      </trkpt>
      <trkpt lat="43.93206" lon="5.40517">
        <ele>323</ele>
        <time>2015-09-23T14:56:43.000Z</time>
      </trkpt>
      <trkpt lat="43.93207" lon="5.40515">
        <ele>324</ele>
        <time>2015-09-23T14:56:44.000Z</time>
      </trkpt>
      <trkpt lat="43.93208" lon="5.40512">
        <ele>324</ele>
        <time>2015-09-23T14:56:45.000Z</time>
      </trkpt>
      <trkpt lat="43.93209" lon="5.4051">
        <ele>324</ele>
        <time>2015-09-23T14:56:46.000Z</time>
      </trkpt>
      <trkpt lat="43.9321" lon="5.40508">
        <ele>324</ele>
        <time>2015-09-23T14:56:47.000Z</time>
      </trkpt>
      <trkpt lat="43.93211" lon="5.40505">
        <ele>324</ele>
        <time>2015-09-23T14:56:48.000Z</time>
      </trkpt>
      <trkpt lat="43.93212" lon="5.40503">
        <ele>324</ele>
        <time>2015-09-23T14:56:49.000Z</time>
      </trkpt>
      <trkpt lat="43.93212" lon="5.405">
        <ele>324</ele>
        <time>2015-09-23T14:56:50.000Z</time>
      </trkpt>
      <trkpt lat="43.93214" lon="5.40498">
        <ele>324</ele>
        <time>2015-09-23T14:56:51.000Z</time>
      </trkpt>
      <trkpt lat="43.93215" lon="5.40495">
        <ele>324</ele>
        <time>2015-09-23T14:56:52.000Z</time>
      </trkpt>
      <trkpt lat="43.93216" lon="5.40492">
        <ele>324</ele>
        <time>2015-09-23T14:56:53.000Z</time>
      </trkpt>
      <trkpt lat="43.93217" lon="5.4049">
        <ele>324</ele>
        <time>2015-09-23T14:56:54.000Z</time>
      </trkpt>
      <trkpt lat="43.93218" lon="5.40487">
        <ele>324</ele>
        <time>2015-09-23T14:56:55.000Z</time>
      </trkpt>
      <trkpt lat="43.93219" lon="5.40485">
        <ele>324</ele>
        <time>2015-09-23T14:56:56.000Z</time>
      </trkpt>
      <trkpt lat="43.9322" lon="5.40483">
        <ele>324</ele>
        <time>2015-09-23T14:56:57.000Z</time>
      </trkpt>
      <trkpt lat="43.9322" lon="5.4048">
        <ele>324</ele>
        <time>2015-09-23T14:56:58.000Z</time>
      </trkpt>
      <trkpt lat="43.93221" lon="5.40477">
        <ele>324</ele>
        <time>2015-09-23T14:56:59.000Z</time>
      </trkpt>
      <trkpt lat="43.93221" lon="5.40474">
        <ele>324</ele>
        <time>2015-09-23T14:57:00.000Z</time>
      </trkpt>
      <trkpt lat="43.93222" lon="5.40471">
        <ele>324</ele>
        <time>2015-09-23T14:57:01.000Z</time>
      </trkpt>
      <trkpt lat="43.93222" lon="5.40468">
        <ele>323</ele>
        <time>2015-09-23T14:57:02.000Z</time>
      </trkpt>
      <trkpt lat="43.93223" lon="5.40464">
        <ele>324</ele>
        <time>2015-09-23T14:57:03.000Z</time>
      </trkpt>
      <trkpt lat="43.93223" lon="5.40461">
        <ele>324</ele>
        <time>2015-09-23T14:57:04.000Z</time>
      </trkpt>
      <trkpt lat="43.93223" lon="5.40458">
        <ele>324</ele>
        <time>2015-09-23T14:57:05.000Z</time>
      </trkpt>
      <trkpt lat="43.93223" lon="5.40455">
        <ele>324</ele>
        <time>2015-09-23T14:57:06.000Z</time>
      </trkpt>
      <trkpt lat="43.93223" lon="5.40452">
        <ele>324</ele>
        <time>2015-09-23T14:57:07.000Z</time>
      </trkpt>
      <trkpt lat="43.93224" lon="5.40448">
        <ele>324</ele>
        <time>2015-09-23T14:57:08.000Z</time>
      </trkpt>
      <trkpt lat="43.93224" lon="5.40445">
        <ele>323</ele>
        <time>2015-09-23T14:57:09.000Z</time>
      </trkpt>
      <trkpt lat="43.93224" lon="5.40442">
        <ele>323</ele>
        <time>2015-09-23T14:57:10.000Z</time>
      </trkpt>
      <trkpt lat="43.93224" lon="5.40439">
        <ele>323</ele>
        <time>2015-09-23T14:57:11.000Z</time>
      </trkpt>
      <trkpt lat="43.93225" lon="5.40436">
        <ele>322</ele>
        <time>2015-09-23T14:57:12.000Z</time>
      </trkpt>
      <trkpt lat="43.93225" lon="5.40433">
        <ele>322</ele>
        <time>2015-09-23T14:57:13.000Z</time>
      </trkpt>
      <trkpt lat="43.93225" lon="5.4043">
        <ele>322</ele>
        <time>2015-09-23T14:57:14.000Z</time>
      </trkpt>
      <trkpt lat="43.93225" lon="5.40427">
        <ele>322</ele>
        <time>2015-09-23T14:57:15.000Z</time>
      </trkpt>
      <trkpt lat="43.93225" lon="5.40424">
        <ele>322</ele>
        <time>2015-09-23T14:57:16.000Z</time>
      </trkpt>
      <trkpt lat="43.93225" lon="5.40421">
        <ele>321</ele>
        <time>2015-09-23T14:57:17.000Z</time>
      </trkpt>
      <trkpt lat="43.93225" lon="5.40418">
        <ele>321</ele>
        <time>2015-09-23T14:57:18.000Z</time>
      </trkpt>
      <trkpt lat="43.93224" lon="5.40415">
        <ele>322</ele>
        <time>2015-09-23T14:57:19.000Z</time>
      </trkpt>
      <trkpt lat="43.93224" lon="5.40411">
        <ele>321</ele>
        <time>2015-09-23T14:57:20.000Z</time>
      </trkpt>
      <trkpt lat="43.93223" lon="5.40408">
        <ele>321</ele>
        <time>2015-09-23T14:57:21.000Z</time>
      </trkpt>
      <trkpt lat="43.93223" lon="5.40404">
        <ele>322</ele>
        <time>2015-09-23T14:57:22.000Z</time>
      </trkpt>
      <trkpt lat="43.93223" lon="5.40401">
        <ele>322</ele>
        <time>2015-09-23T14:57:23.000Z</time>
      </trkpt>
      <trkpt lat="43.93222" lon="5.40398">
        <ele>323</ele>
        <time>2015-09-23T14:57:24.000Z</time>
      </trkpt>
      <trkpt lat="43.93222" lon="5.40395">
        <ele>323</ele>
        <time>2015-09-23T14:57:25.000Z</time>
      </trkpt>
      <trkpt lat="43.93222" lon="5.40392">
        <ele>323</ele>
        <time>2015-09-23T14:57:26.000Z</time>
      </trkpt>
      <trkpt lat="43.93221" lon="5.40389">
        <ele>323</ele>
        <time>2015-09-23T14:57:27.000Z</time>
      </trkpt>
      <trkpt lat="43.93221" lon="5.40386">
        <ele>323</ele>
        <time>2015-09-23T14:57:28.000Z</time>
      </trkpt>
      <trkpt lat="43.93221" lon="5.40383">
        <ele>323</ele>
        <time>2015-09-23T14:57:29.000Z</time>
      </trkpt>
      <trkpt lat="43.93221" lon="5.4038">
        <ele>324</ele>
        <time>2015-09-23T14:57:30.000Z</time>
      </trkpt>
      <trkpt lat="43.9322" lon="5.40377">
        <ele>324</ele>
        <time>2015-09-23T14:57:31.000Z</time>
      </trkpt>
      <trkpt lat="43.9322" lon="5.40374">
        <ele>324</ele>
        <time>2015-09-23T14:57:32.000Z</time>
      </trkpt>
      <trkpt lat="43.9322" lon="5.40371">
        <ele>324</ele>
        <time>2015-09-23T14:57:33.000Z</time>
      </trkpt>
      <trkpt lat="43.9322" lon="5.40367">
        <ele>324</ele>
        <time>2015-09-23T14:57:34.000Z</time>
      </trkpt>
      <trkpt lat="43.9322" lon="5.40365">
        <ele>325</ele>
        <time>2015-09-23T14:57:35.000Z</time>
      </trkpt>
      <trkpt lat="43.9322" lon="5.40362">
        <ele>325</ele>
        <time>2015-09-23T14:57:36.000Z</time>
      </trkpt>
      <trkpt lat="43.9322" lon="5.40359">
        <ele>326</ele>
        <time>2015-09-23T14:57:37.000Z</time>
      </trkpt>
      <trkpt lat="43.9322" lon="5.40356">
        <ele>325</ele>
        <time>2015-09-23T14:57:38.000Z</time>
      </trkpt>
      <trkpt lat="43.9322" lon="5.40353">
        <ele>326</ele>
        <time>2015-09-23T14:57:39.000Z</time>
      </trkpt>
      <trkpt lat="43.9322" lon="5.4035">
        <ele>326</ele>
        <time>2015-09-23T14:57:40.000Z</time>
      </trkpt>
      <trkpt lat="43.9322" lon="5.40347">
        <ele>326</ele>
        <time>2015-09-23T14:57:41.000Z</time>
      </trkpt>
      <trkpt lat="43.9322" lon="5.40344">
        <ele>326</ele>
        <time>2015-09-23T14:57:42.000Z</time>
      </trkpt>
      <trkpt lat="43.9322" lon="5.40341">
        <ele>326</ele>
        <time>2015-09-23T14:57:43.000Z</time>
      </trkpt>
      <trkpt lat="43.9322" lon="5.40339">
        <ele>327</ele>
        <time>2015-09-23T14:57:44.000Z</time>
      </trkpt>
      <trkpt lat="43.9322" lon="5.40336">
        <ele>327</ele>
        <time>2015-09-23T14:57:45.000Z</time>
      </trkpt>
      <trkpt lat="43.9322" lon="5.40333">
        <ele>327</ele>
        <time>2015-09-23T14:57:46.000Z</time>
      </trkpt>
      <trkpt lat="43.9322" lon="5.4033">
        <ele>327</ele>
        <time>2015-09-23T14:57:47.000Z</time>
      </trkpt>
      <trkpt lat="43.9322" lon="5.40327">
        <ele>328</ele>
        <time>2015-09-23T14:57:48.000Z</time>
      </trkpt>
      <trkpt lat="43.9322" lon="5.40325">
        <ele>328</ele>
        <time>2015-09-23T14:57:49.000Z</time>
      </trkpt>
      <trkpt lat="43.9322" lon="5.40322">
        <ele>328</ele>
        <time>2015-09-23T14:57:50.000Z</time>
      </trkpt>
      <trkpt lat="43.9322" lon="5.40319">
        <ele>328</ele>
        <time>2015-09-23T14:57:51.000Z</time>
      </trkpt>
      <trkpt lat="43.9322" lon="5.40316">
        <ele>328</ele>
        <time>2015-09-23T14:57:52.000Z</time>
      </trkpt>
      <trkpt lat="43.9322" lon="5.40313">
        <ele>328</ele>
        <time>2015-09-23T14:57:53.000Z</time>
      </trkpt>
      <trkpt lat="43.9322" lon="5.4031">
        <ele>328</ele>
        <time>2015-09-23T14:57:54.000Z</time>
      </trkpt>
      <trkpt lat="43.9322" lon="5.40308">
        <ele>328</ele>
        <time>2015-09-23T14:57:55.000Z</time>
      </trkpt>
      <trkpt lat="43.9322" lon="5.40305">
        <ele>328</ele>
        <time>2015-09-23T14:57:56.000Z</time>
      </trkpt>
      <trkpt lat="43.9322" lon="5.40302">
        <ele>328</ele>
        <time>2015-09-23T14:57:57.000Z</time>
      </trkpt>
      <trkpt lat="43.9322" lon="5.40299">
        <ele>328</ele>
        <time>2015-09-23T14:57:58.000Z</time>
      </trkpt>
      <trkpt lat="43.9322" lon="5.40296">
        <ele>327</ele>
        <time>2015-09-23T14:57:59.000Z</time>
      </trkpt>
      <trkpt lat="43.9322" lon="5.40294">
        <ele>327</ele>
        <time>2015-09-23T14:58:00.000Z</time>
      </trkpt>
      <trkpt lat="43.93219" lon="5.40291">
        <ele>326</ele>
        <time>2015-09-23T14:58:01.000Z</time>
      </trkpt>
      <trkpt lat="43.93218" lon="5.4029">
        <ele>325</ele>
        <time>2015-09-23T14:58:02.000Z</time>
      </trkpt>
      <trkpt lat="43.93216" lon="5.40288">
        <ele>325</ele>
        <time>2015-09-23T14:58:03.000Z</time>
      </trkpt>
      <trkpt lat="43.93214" lon="5.40288">
        <ele>325</ele>
        <time>2015-09-23T14:58:04.000Z</time>
      </trkpt>
      <trkpt lat="43.93212" lon="5.40287">
        <ele>325</ele>
        <time>2015-09-23T14:58:05.000Z</time>
      </trkpt>
      <trkpt lat="43.9321" lon="5.40287">
        <ele>325</ele>
        <time>2015-09-23T14:58:06.000Z</time>
      </trkpt>
      <trkpt lat="43.93208" lon="5.40287">
        <ele>325</ele>
        <time>2015-09-23T14:58:07.000Z</time>
      </trkpt>
      <trkpt lat="43.93206" lon="5.40287">
        <ele>325</ele>
        <time>2015-09-23T14:58:08.000Z</time>
      </trkpt>
      <trkpt lat="43.93204" lon="5.40286">
        <ele>324</ele>
        <time>2015-09-23T14:58:09.000Z</time>
      </trkpt>
      <trkpt lat="43.93202" lon="5.40286">
        <ele>324</ele>
        <time>2015-09-23T14:58:10.000Z</time>
      </trkpt>
      <trkpt lat="43.932" lon="5.40286">
        <ele>325</ele>
        <time>2015-09-23T14:58:11.000Z</time>
      </trkpt>
      <trkpt lat="43.93197" lon="5.40286">
        <ele>325</ele>
        <time>2015-09-23T14:58:12.000Z</time>
      </trkpt>
      <trkpt lat="43.93195" lon="5.40286">
        <ele>326</ele>
        <time>2015-09-23T14:58:13.000Z</time>
      </trkpt>
      <trkpt lat="43.93193" lon="5.40285">
        <ele>326</ele>
        <time>2015-09-23T14:58:14.000Z</time>
      </trkpt>
      <trkpt lat="43.93191" lon="5.40285">
        <ele>326</ele>
        <time>2015-09-23T14:58:15.000Z</time>
      </trkpt>
      <trkpt lat="43.93188" lon="5.40285">
        <ele>326</ele>
        <time>2015-09-23T14:58:16.000Z</time>
      </trkpt>
      <trkpt lat="43.93186" lon="5.40284">
        <ele>326</ele>
        <time>2015-09-23T14:58:17.000Z</time>
      </trkpt>
      <trkpt lat="43.93184" lon="5.40284">
        <ele>326</ele>
        <time>2015-09-23T14:58:18.000Z</time>
      </trkpt>
      <trkpt lat="43.93181" lon="5.40284">
        <ele>327</ele>
        <time>2015-09-23T14:58:19.000Z</time>
      </trkpt>
      <trkpt lat="43.93179" lon="5.40283">
        <ele>327</ele>
        <time>2015-09-23T14:58:20.000Z</time>
      </trkpt>
      <trkpt lat="43.93177" lon="5.40283">
        <ele>327</ele>
        <time>2015-09-23T14:58:21.000Z</time>
      </trkpt>
      <trkpt lat="43.93175" lon="5.40282">
        <ele>326</ele>
        <time>2015-09-23T14:58:22.000Z</time>
      </trkpt>
      <trkpt lat="43.93172" lon="5.40282">
        <ele>326</ele>
        <time>2015-09-23T14:58:23.000Z</time>
      </trkpt>
      <trkpt lat="43.9317" lon="5.40281">
        <ele>326</ele>
        <time>2015-09-23T14:58:24.000Z</time>
      </trkpt>
      <trkpt lat="43.93167" lon="5.40281">
        <ele>327</ele>
        <time>2015-09-23T14:58:25.000Z</time>
      </trkpt>
      <trkpt lat="43.93165" lon="5.4028">
        <ele>326</ele>
        <time>2015-09-23T14:58:26.000Z</time>
      </trkpt>
      <trkpt lat="43.93162" lon="5.4028">
        <ele>326</ele>
        <time>2015-09-23T14:58:27.000Z</time>
      </trkpt>
      <trkpt lat="43.9316" lon="5.40279">
        <ele>326</ele>
        <time>2015-09-23T14:58:28.000Z</time>
      </trkpt>
      <trkpt lat="43.93158" lon="5.40278">
        <ele>326</ele>
        <time>2015-09-23T14:58:29.000Z</time>
      </trkpt>
      <trkpt lat="43.93155" lon="5.40278">
        <ele>326</ele>
        <time>2015-09-23T14:58:30.000Z</time>
      </trkpt>
      <trkpt lat="43.93153" lon="5.40277">
        <ele>325</ele>
        <time>2015-09-23T14:58:31.000Z</time>
      </trkpt>
      <trkpt lat="43.93151" lon="5.40276">
        <ele>325</ele>
        <time>2015-09-23T14:58:32.000Z</time>
      </trkpt>
      <trkpt lat="43.93148" lon="5.40276">
        <ele>324</ele>
        <time>2015-09-23T14:58:33.000Z</time>
      </trkpt>
      <trkpt lat="43.93146" lon="5.40275">
        <ele>325</ele>
        <time>2015-09-23T14:58:34.000Z</time>
      </trkpt>
      <trkpt lat="43.93143" lon="5.40274">
        <ele>325</ele>
        <time>2015-09-23T14:58:35.000Z</time>
      </trkpt>
      <trkpt lat="43.93141" lon="5.40273">
        <ele>324</ele>
        <time>2015-09-23T14:58:36.000Z</time>
      </trkpt>
      <trkpt lat="43.93138" lon="5.40273">
        <ele>324</ele>
        <time>2015-09-23T14:58:37.000Z</time>
      </trkpt>
      <trkpt lat="43.93136" lon="5.40272">
        <ele>324</ele>
        <time>2015-09-23T14:58:38.000Z</time>
      </trkpt>
      <trkpt lat="43.93134" lon="5.40271">
        <ele>324</ele>
        <time>2015-09-23T14:58:39.000Z</time>
      </trkpt>
      <trkpt lat="43.93131" lon="5.4027">
        <ele>325</ele>
        <time>2015-09-23T14:58:40.000Z</time>
      </trkpt>
      <trkpt lat="43.93129" lon="5.4027">
        <ele>325</ele>
        <time>2015-09-23T14:58:41.000Z</time>
      </trkpt>
      <trkpt lat="43.93126" lon="5.40269">
        <ele>325</ele>
        <time>2015-09-23T14:58:42.000Z</time>
      </trkpt>
      <trkpt lat="43.93124" lon="5.40269">
        <ele>325</ele>
        <time>2015-09-23T14:58:43.000Z</time>
      </trkpt>
      <trkpt lat="43.93121" lon="5.40269">
        <ele>325</ele>
        <time>2015-09-23T14:58:44.000Z</time>
      </trkpt>
      <trkpt lat="43.93119" lon="5.40268">
        <ele>325</ele>
        <time>2015-09-23T14:58:45.000Z</time>
      </trkpt>
      <trkpt lat="43.93116" lon="5.40268">
        <ele>325</ele>
        <time>2015-09-23T14:58:46.000Z</time>
      </trkpt>
      <trkpt lat="43.93114" lon="5.40267">
        <ele>325</ele>
        <time>2015-09-23T14:58:47.000Z</time>
      </trkpt>
      <trkpt lat="43.93111" lon="5.40266">
        <ele>324</ele>
        <time>2015-09-23T14:58:48.000Z</time>
      </trkpt>
      <trkpt lat="43.93109" lon="5.40266">
        <ele>324</ele>
        <time>2015-09-23T14:58:49.000Z</time>
      </trkpt>
      <trkpt lat="43.93106" lon="5.40265">
        <ele>323</ele>
        <time>2015-09-23T14:58:50.000Z</time>
      </trkpt>
      <trkpt lat="43.93104" lon="5.40264">
        <ele>323</ele>
        <time>2015-09-23T14:58:51.000Z</time>
      </trkpt>
      <trkpt lat="43.93101" lon="5.40264">
        <ele>324</ele>
        <time>2015-09-23T14:58:52.000Z</time>
      </trkpt>
      <trkpt lat="43.93098" lon="5.40263">
        <ele>324</ele>
        <time>2015-09-23T14:58:53.000Z</time>
      </trkpt>
      <trkpt lat="43.93095" lon="5.40263">
        <ele>324</ele>
        <time>2015-09-23T14:58:54.000Z</time>
      </trkpt>
      <trkpt lat="43.93093" lon="5.40262">
        <ele>324</ele>
        <time>2015-09-23T14:58:55.000Z</time>
      </trkpt>
      <trkpt lat="43.9309" lon="5.40261">
        <ele>323</ele>
        <time>2015-09-23T14:58:56.000Z</time>
      </trkpt>
      <trkpt lat="43.93088" lon="5.4026">
        <ele>323</ele>
        <time>2015-09-23T14:58:57.000Z</time>
      </trkpt>
      <trkpt lat="43.93086" lon="5.40259">
        <ele>322</ele>
        <time>2015-09-23T14:58:58.000Z</time>
      </trkpt>
      <trkpt lat="43.93083" lon="5.40259">
        <ele>322</ele>
        <time>2015-09-23T14:58:59.000Z</time>
      </trkpt>
      <trkpt lat="43.93081" lon="5.40258">
        <ele>322</ele>
        <time>2015-09-23T14:59:00.000Z</time>
      </trkpt>
      <trkpt lat="43.93078" lon="5.40258">
        <ele>322</ele>
        <time>2015-09-23T14:59:01.000Z</time>
      </trkpt>
      <trkpt lat="43.93076" lon="5.40257">
        <ele>321</ele>
        <time>2015-09-23T14:59:02.000Z</time>
      </trkpt>
      <trkpt lat="43.93074" lon="5.40257">
        <ele>321</ele>
        <time>2015-09-23T14:59:03.000Z</time>
      </trkpt>
      <trkpt lat="43.93071" lon="5.40256">
        <ele>321</ele>
        <time>2015-09-23T14:59:04.000Z</time>
      </trkpt>
      <trkpt lat="43.93068" lon="5.40255">
        <ele>321</ele>
        <time>2015-09-23T14:59:05.000Z</time>
      </trkpt>
      <trkpt lat="43.93066" lon="5.40255">
        <ele>320</ele>
        <time>2015-09-23T14:59:06.000Z</time>
      </trkpt>
      <trkpt lat="43.93064" lon="5.40254">
        <ele>320</ele>
        <time>2015-09-23T14:59:07.000Z</time>
      </trkpt>
      <trkpt lat="43.93061" lon="5.40253">
        <ele>320</ele>
        <time>2015-09-23T14:59:08.000Z</time>
      </trkpt>
      <trkpt lat="43.93059" lon="5.40253">
        <ele>320</ele>
        <time>2015-09-23T14:59:09.000Z</time>
      </trkpt>
      <trkpt lat="43.93056" lon="5.40252">
        <ele>320</ele>
        <time>2015-09-23T14:59:10.000Z</time>
      </trkpt>
      <trkpt lat="43.93053" lon="5.40252">
        <ele>320</ele>
        <time>2015-09-23T14:59:11.000Z</time>
      </trkpt>
      <trkpt lat="43.93051" lon="5.40251">
        <ele>320</ele>
        <time>2015-09-23T14:59:12.000Z</time>
      </trkpt>
      <trkpt lat="43.93048" lon="5.40251">
        <ele>320</ele>
        <time>2015-09-23T14:59:13.000Z</time>
      </trkpt>
      <trkpt lat="43.93045" lon="5.4025">
        <ele>320</ele>
        <time>2015-09-23T14:59:14.000Z</time>
      </trkpt>
      <trkpt lat="43.93042" lon="5.4025">
        <ele>320</ele>
        <time>2015-09-23T14:59:15.000Z</time>
      </trkpt>
      <trkpt lat="43.9304" lon="5.40249">
        <ele>321</ele>
        <time>2015-09-23T14:59:16.000Z</time>
      </trkpt>
      <trkpt lat="43.93037" lon="5.40249">
        <ele>320</ele>
        <time>2015-09-23T14:59:17.000Z</time>
      </trkpt>
      <trkpt lat="43.93034" lon="5.40248">
        <ele>320</ele>
        <time>2015-09-23T14:59:18.000Z</time>
      </trkpt>
      <trkpt lat="43.93032" lon="5.40248">
        <ele>320</ele>
        <time>2015-09-23T14:59:19.000Z</time>
      </trkpt>
      <trkpt lat="43.93029" lon="5.40247">
        <ele>320</ele>
        <time>2015-09-23T14:59:20.000Z</time>
      </trkpt>
      <trkpt lat="43.93027" lon="5.40247">
        <ele>319</ele>
        <time>2015-09-23T14:59:21.000Z</time>
      </trkpt>
      <trkpt lat="43.93024" lon="5.40246">
        <ele>319</ele>
        <time>2015-09-23T14:59:22.000Z</time>
      </trkpt>
      <trkpt lat="43.93021" lon="5.40245">
        <ele>320</ele>
        <time>2015-09-23T14:59:23.000Z</time>
      </trkpt>
      <trkpt lat="43.93019" lon="5.40245">
        <ele>320</ele>
        <time>2015-09-23T14:59:24.000Z</time>
      </trkpt>
      <trkpt lat="43.93016" lon="5.40244">
        <ele>320</ele>
        <time>2015-09-23T14:59:25.000Z</time>
      </trkpt>
      <trkpt lat="43.93013" lon="5.40243">
        <ele>319</ele>
        <time>2015-09-23T14:59:26.000Z</time>
      </trkpt>
      <trkpt lat="43.9301" lon="5.40242">
        <ele>319</ele>
        <time>2015-09-23T14:59:27.000Z</time>
      </trkpt>
      <trkpt lat="43.93008" lon="5.40242">
        <ele>319</ele>
        <time>2015-09-23T14:59:28.000Z</time>
      </trkpt>
      <trkpt lat="43.93005" lon="5.40241">
        <ele>320</ele>
        <time>2015-09-23T14:59:29.000Z</time>
      </trkpt>
      <trkpt lat="43.93002" lon="5.40241">
        <ele>319</ele>
        <time>2015-09-23T14:59:30.000Z</time>
      </trkpt>
      <trkpt lat="43.93" lon="5.40241">
        <ele>319</ele>
        <time>2015-09-23T14:59:31.000Z</time>
      </trkpt>
      <trkpt lat="43.92998" lon="5.4024">
        <ele>318</ele>
        <time>2015-09-23T14:59:32.000Z</time>
      </trkpt>
      <trkpt lat="43.92995" lon="5.40239">
        <ele>319</ele>
        <time>2015-09-23T14:59:33.000Z</time>
      </trkpt>
      <trkpt lat="43.92993" lon="5.40239">
        <ele>319</ele>
        <time>2015-09-23T14:59:34.000Z</time>
      </trkpt>
      <trkpt lat="43.92991" lon="5.40238">
        <ele>319</ele>
        <time>2015-09-23T14:59:35.000Z</time>
      </trkpt>
      <trkpt lat="43.92988" lon="5.40238">
        <ele>320</ele>
        <time>2015-09-23T14:59:36.000Z</time>
      </trkpt>
      <trkpt lat="43.92986" lon="5.40237">
        <ele>319</ele>
        <time>2015-09-23T14:59:37.000Z</time>
      </trkpt>
      <trkpt lat="43.92983" lon="5.40236">
        <ele>320</ele>
        <time>2015-09-23T14:59:38.000Z</time>
      </trkpt>
      <trkpt lat="43.9298" lon="5.40236">
        <ele>320</ele>
        <time>2015-09-23T14:59:39.000Z</time>
      </trkpt>
      <trkpt lat="43.92977" lon="5.40235">
        <ele>319</ele>
        <time>2015-09-23T14:59:40.000Z</time>
      </trkpt>
      <trkpt lat="43.92975" lon="5.40235">
        <ele>320</ele>
        <time>2015-09-23T14:59:41.000Z</time>
      </trkpt>
      <trkpt lat="43.92972" lon="5.40234">
        <ele>320</ele>
        <time>2015-09-23T14:59:42.000Z</time>
      </trkpt>
      <trkpt lat="43.92969" lon="5.40233">
        <ele>320</ele>
        <time>2015-09-23T14:59:43.000Z</time>
      </trkpt>
      <trkpt lat="43.92967" lon="5.40233">
        <ele>320</ele>
        <time>2015-09-23T14:59:44.000Z</time>
      </trkpt>
      <trkpt lat="43.92964" lon="5.40233">
        <ele>319</ele>
        <time>2015-09-23T14:59:45.000Z</time>
      </trkpt>
      <trkpt lat="43.92961" lon="5.40232">
        <ele>319</ele>
        <time>2015-09-23T14:59:46.000Z</time>
      </trkpt>
      <trkpt lat="43.92959" lon="5.40231">
        <ele>319</ele>
        <time>2015-09-23T14:59:47.000Z</time>
      </trkpt>
      <trkpt lat="43.92956" lon="5.40231">
        <ele>319</ele>
        <time>2015-09-23T14:59:48.000Z</time>
      </trkpt>
      <trkpt lat="43.92954" lon="5.4023">
        <ele>319</ele>
        <time>2015-09-23T14:59:49.000Z</time>
      </trkpt>
      <trkpt lat="43.92951" lon="5.4023">
        <ele>319</ele>
        <time>2015-09-23T14:59:50.000Z</time>
      </trkpt>
      <trkpt lat="43.92949" lon="5.40229">
        <ele>318</ele>
        <time>2015-09-23T14:59:51.000Z</time>
      </trkpt>
      <trkpt lat="43.92946" lon="5.40229">
        <ele>318</ele>
        <time>2015-09-23T14:59:52.000Z</time>
      </trkpt>
      <trkpt lat="43.92944" lon="5.40228">
        <ele>318</ele>
        <time>2015-09-23T14:59:53.000Z</time>
      </trkpt>
      <trkpt lat="43.92941" lon="5.40228">
        <ele>318</ele>
        <time>2015-09-23T14:59:54.000Z</time>
      </trkpt>
      <trkpt lat="43.92938" lon="5.40227">
        <ele>317</ele>
        <time>2015-09-23T14:59:55.000Z</time>
      </trkpt>
      <trkpt lat="43.92936" lon="5.40227">
        <ele>317</ele>
        <time>2015-09-23T14:59:56.000Z</time>
      </trkpt>
      <trkpt lat="43.92933" lon="5.40226">
        <ele>317</ele>
        <time>2015-09-23T14:59:57.000Z</time>
      </trkpt>
      <trkpt lat="43.92931" lon="5.40225">
        <ele>317</ele>
        <time>2015-09-23T14:59:58.000Z</time>
      </trkpt>
      <trkpt lat="43.92928" lon="5.40225">
        <ele>317</ele>
        <time>2015-09-23T14:59:59.000Z</time>
      </trkpt>
      <trkpt lat="43.92926" lon="5.40224">
        <ele>317</ele>
        <time>2015-09-23T15:00:00.000Z</time>
      </trkpt>
      <trkpt lat="43.92923" lon="5.40224">
        <ele>317</ele>
        <time>2015-09-23T15:00:01.000Z</time>
      </trkpt>
      <trkpt lat="43.92921" lon="5.40224">
        <ele>317</ele>
        <time>2015-09-23T15:00:02.000Z</time>
      </trkpt>
      <trkpt lat="43.92918" lon="5.40223">
        <ele>317</ele>
        <time>2015-09-23T15:00:03.000Z</time>
      </trkpt>
      <trkpt lat="43.92915" lon="5.40222">
        <ele>316</ele>
        <time>2015-09-23T15:00:04.000Z</time>
      </trkpt>
      <trkpt lat="43.92913" lon="5.40221">
        <ele>316</ele>
        <time>2015-09-23T15:00:05.000Z</time>
      </trkpt>
      <trkpt lat="43.9291" lon="5.4022">
        <ele>316</ele>
        <time>2015-09-23T15:00:06.000Z</time>
      </trkpt>
      <trkpt lat="43.92908" lon="5.40219">
        <ele>316</ele>
        <time>2015-09-23T15:00:07.000Z</time>
      </trkpt>
      <trkpt lat="43.92905" lon="5.40218">
        <ele>315</ele>
        <time>2015-09-23T15:00:08.000Z</time>
      </trkpt>
      <trkpt lat="43.92903" lon="5.40217">
        <ele>316</ele>
        <time>2015-09-23T15:00:09.000Z</time>
      </trkpt>
      <trkpt lat="43.929" lon="5.40217">
        <ele>316</ele>
        <time>2015-09-23T15:00:10.000Z</time>
      </trkpt>
      <trkpt lat="43.92897" lon="5.40216">
        <ele>315</ele>
        <time>2015-09-23T15:00:11.000Z</time>
      </trkpt>
      <trkpt lat="43.92895" lon="5.40215">
        <ele>316</ele>
        <time>2015-09-23T15:00:12.000Z</time>
      </trkpt>
      <trkpt lat="43.92892" lon="5.40215">
        <ele>315</ele>
        <time>2015-09-23T15:00:13.000Z</time>
      </trkpt>
      <trkpt lat="43.9289" lon="5.40214">
        <ele>315</ele>
        <time>2015-09-23T15:00:14.000Z</time>
      </trkpt>
      <trkpt lat="43.92887" lon="5.40213">
        <ele>315</ele>
        <time>2015-09-23T15:00:15.000Z</time>
      </trkpt>
      <trkpt lat="43.92885" lon="5.40212">
        <ele>316</ele>
        <time>2015-09-23T15:00:16.000Z</time>
      </trkpt>
      <trkpt lat="43.92883" lon="5.40211">
        <ele>315</ele>
        <time>2015-09-23T15:00:17.000Z</time>
      </trkpt>
      <trkpt lat="43.9288" lon="5.4021">
        <ele>315</ele>
        <time>2015-09-23T15:00:18.000Z</time>
      </trkpt>
      <trkpt lat="43.92877" lon="5.4021">
        <ele>314</ele>
        <time>2015-09-23T15:00:19.000Z</time>
      </trkpt>
      <trkpt lat="43.92875" lon="5.40209">
        <ele>314</ele>
        <time>2015-09-23T15:00:20.000Z</time>
      </trkpt>
      <trkpt lat="43.92872" lon="5.40208">
        <ele>314</ele>
        <time>2015-09-23T15:00:21.000Z</time>
      </trkpt>
      <trkpt lat="43.92869" lon="5.40208">
        <ele>313</ele>
        <time>2015-09-23T15:00:22.000Z</time>
      </trkpt>
      <trkpt lat="43.92867" lon="5.40207">
        <ele>313</ele>
        <time>2015-09-23T15:00:23.000Z</time>
      </trkpt>
      <trkpt lat="43.92864" lon="5.40206">
        <ele>312</ele>
        <time>2015-09-23T15:00:24.000Z</time>
      </trkpt>
      <trkpt lat="43.92861" lon="5.40205">
        <ele>312</ele>
        <time>2015-09-23T15:00:25.000Z</time>
      </trkpt>
      <trkpt lat="43.92858" lon="5.40204">
        <ele>312</ele>
        <time>2015-09-23T15:00:26.000Z</time>
      </trkpt>
      <trkpt lat="43.92856" lon="5.40204">
        <ele>312</ele>
        <time>2015-09-23T15:00:27.000Z</time>
      </trkpt>
      <trkpt lat="43.92853" lon="5.40203">
        <ele>311</ele>
        <time>2015-09-23T15:00:28.000Z</time>
      </trkpt>
      <trkpt lat="43.92851" lon="5.40202">
        <ele>310</ele>
        <time>2015-09-23T15:00:29.000Z</time>
      </trkpt>
      <trkpt lat="43.92848" lon="5.40201">
        <ele>311</ele>
        <time>2015-09-23T15:00:30.000Z</time>
      </trkpt>
      <trkpt lat="43.92846" lon="5.40201">
        <ele>311</ele>
        <time>2015-09-23T15:00:31.000Z</time>
      </trkpt>
      <trkpt lat="43.92843" lon="5.402">
        <ele>311</ele>
        <time>2015-09-23T15:00:32.000Z</time>
      </trkpt>
      <trkpt lat="43.92841" lon="5.402">
        <ele>311</ele>
        <time>2015-09-23T15:00:33.000Z</time>
      </trkpt>
      <trkpt lat="43.92838" lon="5.402">
        <ele>311</ele>
        <time>2015-09-23T15:00:34.000Z</time>
      </trkpt>
      <trkpt lat="43.92835" lon="5.402">
        <ele>311</ele>
        <time>2015-09-23T15:00:35.000Z</time>
      </trkpt>
      <trkpt lat="43.92833" lon="5.402">
        <ele>311</ele>
        <time>2015-09-23T15:00:36.000Z</time>
      </trkpt>
      <trkpt lat="43.92831" lon="5.40199">
        <ele>311</ele>
        <time>2015-09-23T15:00:37.000Z</time>
      </trkpt>
      <trkpt lat="43.92828" lon="5.40199">
        <ele>310</ele>
        <time>2015-09-23T15:00:38.000Z</time>
      </trkpt>
      <trkpt lat="43.92826" lon="5.40199">
        <ele>310</ele>
        <time>2015-09-23T15:00:39.000Z</time>
      </trkpt>
      <trkpt lat="43.92824" lon="5.40198">
        <ele>310</ele>
        <time>2015-09-23T15:00:40.000Z</time>
      </trkpt>
      <trkpt lat="43.92821" lon="5.40197">
        <ele>310</ele>
        <time>2015-09-23T15:00:41.000Z</time>
      </trkpt>
      <trkpt lat="43.92818" lon="5.40197">
        <ele>310</ele>
        <time>2015-09-23T15:00:42.000Z</time>
      </trkpt>
      <trkpt lat="43.92816" lon="5.40196">
        <ele>310</ele>
        <time>2015-09-23T15:00:43.000Z</time>
      </trkpt>
      <trkpt lat="43.92813" lon="5.40196">
        <ele>311</ele>
        <time>2015-09-23T15:00:44.000Z</time>
      </trkpt>
      <trkpt lat="43.9281" lon="5.40195">
        <ele>311</ele>
        <time>2015-09-23T15:00:45.000Z</time>
      </trkpt>
      <trkpt lat="43.92808" lon="5.40195">
        <ele>311</ele>
        <time>2015-09-23T15:00:46.000Z</time>
      </trkpt>
      <trkpt lat="43.92805" lon="5.40194">
        <ele>311</ele>
        <time>2015-09-23T15:00:47.000Z</time>
      </trkpt>
      <trkpt lat="43.92803" lon="5.40194">
        <ele>311</ele>
        <time>2015-09-23T15:00:48.000Z</time>
      </trkpt>
      <trkpt lat="43.928" lon="5.40194">
        <ele>311</ele>
        <time>2015-09-23T15:00:49.000Z</time>
      </trkpt>
      <trkpt lat="43.92798" lon="5.40193">
        <ele>311</ele>
        <time>2015-09-23T15:00:50.000Z</time>
      </trkpt>
      <trkpt lat="43.92795" lon="5.40192">
        <ele>311</ele>
        <time>2015-09-23T15:00:51.000Z</time>
      </trkpt>
      <trkpt lat="43.92792" lon="5.40191">
        <ele>311</ele>
        <time>2015-09-23T15:00:52.000Z</time>
      </trkpt>
      <trkpt lat="43.9279" lon="5.40191">
        <ele>311</ele>
        <time>2015-09-23T15:00:53.000Z</time>
      </trkpt>
      <trkpt lat="43.92787" lon="5.4019">
        <ele>311</ele>
        <time>2015-09-23T15:00:54.000Z</time>
      </trkpt>
      <trkpt lat="43.92785" lon="5.40189">
        <ele>311</ele>
        <time>2015-09-23T15:00:55.000Z</time>
      </trkpt>
      <trkpt lat="43.92782" lon="5.40188">
        <ele>310</ele>
        <time>2015-09-23T15:00:56.000Z</time>
      </trkpt>
      <trkpt lat="43.92779" lon="5.40187">
        <ele>310</ele>
        <time>2015-09-23T15:00:57.000Z</time>
      </trkpt>
      <trkpt lat="43.92777" lon="5.40186">
        <ele>309</ele>
        <time>2015-09-23T15:00:58.000Z</time>
      </trkpt>
      <trkpt lat="43.92774" lon="5.40185">
        <ele>309</ele>
        <time>2015-09-23T15:00:59.000Z</time>
      </trkpt>
      <trkpt lat="43.92772" lon="5.40184">
        <ele>309</ele>
        <time>2015-09-23T15:01:00.000Z</time>
      </trkpt>
      <trkpt lat="43.92769" lon="5.40183">
        <ele>309</ele>
        <time>2015-09-23T15:01:01.000Z</time>
      </trkpt>
      <trkpt lat="43.92766" lon="5.40183">
        <ele>308</ele>
        <time>2015-09-23T15:01:02.000Z</time>
      </trkpt>
      <trkpt lat="43.92764" lon="5.40182">
        <ele>308</ele>
        <time>2015-09-23T15:01:03.000Z</time>
      </trkpt>
      <trkpt lat="43.92761" lon="5.40181">
        <ele>308</ele>
        <time>2015-09-23T15:01:04.000Z</time>
      </trkpt>
      <trkpt lat="43.92759" lon="5.4018">
        <ele>308</ele>
        <time>2015-09-23T15:01:05.000Z</time>
      </trkpt>
      <trkpt lat="43.92756" lon="5.4018">
        <ele>308</ele>
        <time>2015-09-23T15:01:06.000Z</time>
      </trkpt>
      <trkpt lat="43.92753" lon="5.4018">
        <ele>308</ele>
        <time>2015-09-23T15:01:07.000Z</time>
      </trkpt>
      <trkpt lat="43.9275" lon="5.40179">
        <ele>308</ele>
        <time>2015-09-23T15:01:08.000Z</time>
      </trkpt>
      <trkpt lat="43.92748" lon="5.40179">
        <ele>308</ele>
        <time>2015-09-23T15:01:09.000Z</time>
      </trkpt>
      <trkpt lat="43.92745" lon="5.40178">
        <ele>308</ele>
        <time>2015-09-23T15:01:10.000Z</time>
      </trkpt>
      <trkpt lat="43.92743" lon="5.40177">
        <ele>308</ele>
        <time>2015-09-23T15:01:11.000Z</time>
      </trkpt>
      <trkpt lat="43.92741" lon="5.40177">
        <ele>307</ele>
        <time>2015-09-23T15:01:12.000Z</time>
      </trkpt>
      <trkpt lat="43.92738" lon="5.40176">
        <ele>308</ele>
        <time>2015-09-23T15:01:13.000Z</time>
      </trkpt>
      <trkpt lat="43.92736" lon="5.40175">
        <ele>308</ele>
        <time>2015-09-23T15:01:14.000Z</time>
      </trkpt>
      <trkpt lat="43.92733" lon="5.40175">
        <ele>308</ele>
        <time>2015-09-23T15:01:15.000Z</time>
      </trkpt>
      <trkpt lat="43.92731" lon="5.40174">
        <ele>308</ele>
        <time>2015-09-23T15:01:16.000Z</time>
      </trkpt>
      <trkpt lat="43.92728" lon="5.40174">
        <ele>308</ele>
        <time>2015-09-23T15:01:17.000Z</time>
      </trkpt>
      <trkpt lat="43.92726" lon="5.40173">
        <ele>308</ele>
        <time>2015-09-23T15:01:18.000Z</time>
      </trkpt>
      <trkpt lat="43.92723" lon="5.40173">
        <ele>308</ele>
        <time>2015-09-23T15:01:19.000Z</time>
      </trkpt>
      <trkpt lat="43.92721" lon="5.40173">
        <ele>309</ele>
        <time>2015-09-23T15:01:20.000Z</time>
      </trkpt>
      <trkpt lat="43.92718" lon="5.40172">
        <ele>308</ele>
        <time>2015-09-23T15:01:21.000Z</time>
      </trkpt>
      <trkpt lat="43.92715" lon="5.40172">
        <ele>308</ele>
        <time>2015-09-23T15:01:22.000Z</time>
      </trkpt>
      <trkpt lat="43.92713" lon="5.40172">
        <ele>308</ele>
        <time>2015-09-23T15:01:23.000Z</time>
      </trkpt>
      <trkpt lat="43.92711" lon="5.40172">
        <ele>308</ele>
        <time>2015-09-23T15:01:24.000Z</time>
      </trkpt>
      <trkpt lat="43.92708" lon="5.40172">
        <ele>307</ele>
        <time>2015-09-23T15:01:25.000Z</time>
      </trkpt>
      <trkpt lat="43.92705" lon="5.40171">
        <ele>307</ele>
        <time>2015-09-23T15:01:26.000Z</time>
      </trkpt>
      <trkpt lat="43.92703" lon="5.4017">
        <ele>307</ele>
        <time>2015-09-23T15:01:27.000Z</time>
      </trkpt>
      <trkpt lat="43.927" lon="5.40169">
        <ele>307</ele>
        <time>2015-09-23T15:01:28.000Z</time>
      </trkpt>
      <trkpt lat="43.92698" lon="5.40168">
        <ele>307</ele>
        <time>2015-09-23T15:01:29.000Z</time>
      </trkpt>
      <trkpt lat="43.92695" lon="5.40167">
        <ele>307</ele>
        <time>2015-09-23T15:01:30.000Z</time>
      </trkpt>
      <trkpt lat="43.92692" lon="5.40167">
        <ele>307</ele>
        <time>2015-09-23T15:01:31.000Z</time>
      </trkpt>
      <trkpt lat="43.92689" lon="5.40166">
        <ele>307</ele>
        <time>2015-09-23T15:01:32.000Z</time>
      </trkpt>
      <trkpt lat="43.92686" lon="5.40165">
        <ele>307</ele>
        <time>2015-09-23T15:01:33.000Z</time>
      </trkpt>
      <trkpt lat="43.92683" lon="5.40165">
        <ele>307</ele>
        <time>2015-09-23T15:01:34.000Z</time>
      </trkpt>
      <trkpt lat="43.92681" lon="5.40164">
        <ele>306</ele>
        <time>2015-09-23T15:01:35.000Z</time>
      </trkpt>
      <trkpt lat="43.92678" lon="5.40164">
        <ele>306</ele>
        <time>2015-09-23T15:01:36.000Z</time>
      </trkpt>
      <trkpt lat="43.92676" lon="5.40163">
        <ele>306</ele>
        <time>2015-09-23T15:01:37.000Z</time>
      </trkpt>
      <trkpt lat="43.92674" lon="5.40163">
        <ele>306</ele>
        <time>2015-09-23T15:01:38.000Z</time>
      </trkpt>
      <trkpt lat="43.92671" lon="5.40163">
        <ele>306</ele>
        <time>2015-09-23T15:01:39.000Z</time>
      </trkpt>
      <trkpt lat="43.92669" lon="5.40162">
        <ele>306</ele>
        <time>2015-09-23T15:01:40.000Z</time>
      </trkpt>
      <trkpt lat="43.92666" lon="5.40162">
        <ele>306</ele>
        <time>2015-09-23T15:01:41.000Z</time>
      </trkpt>
      <trkpt lat="43.92664" lon="5.40161">
        <ele>306</ele>
        <time>2015-09-23T15:01:42.000Z</time>
      </trkpt>
      <trkpt lat="43.92661" lon="5.4016">
        <ele>306</ele>
        <time>2015-09-23T15:01:43.000Z</time>
      </trkpt>
      <trkpt lat="43.92659" lon="5.40159">
        <ele>305</ele>
        <time>2015-09-23T15:01:44.000Z</time>
      </trkpt>
      <trkpt lat="43.92656" lon="5.40159">
        <ele>305</ele>
        <time>2015-09-23T15:01:45.000Z</time>
      </trkpt>
      <trkpt lat="43.92653" lon="5.40158">
        <ele>305</ele>
        <time>2015-09-23T15:01:46.000Z</time>
      </trkpt>
      <trkpt lat="43.92651" lon="5.40157">
        <ele>305</ele>
        <time>2015-09-23T15:01:47.000Z</time>
      </trkpt>
      <trkpt lat="43.92648" lon="5.40157">
        <ele>305</ele>
        <time>2015-09-23T15:01:48.000Z</time>
      </trkpt>
      <trkpt lat="43.92646" lon="5.40156">
        <ele>304</ele>
        <time>2015-09-23T15:01:49.000Z</time>
      </trkpt>
      <trkpt lat="43.92643" lon="5.40155">
        <ele>304</ele>
        <time>2015-09-23T15:01:50.000Z</time>
      </trkpt>
      <trkpt lat="43.92641" lon="5.40154">
        <ele>305</ele>
        <time>2015-09-23T15:01:51.000Z</time>
      </trkpt>
      <trkpt lat="43.92638" lon="5.40154">
        <ele>304</ele>
        <time>2015-09-23T15:01:52.000Z</time>
      </trkpt>
      <trkpt lat="43.92636" lon="5.40153">
        <ele>305</ele>
        <time>2015-09-23T15:01:53.000Z</time>
      </trkpt>
      <trkpt lat="43.92633" lon="5.40153">
        <ele>305</ele>
        <time>2015-09-23T15:01:54.000Z</time>
      </trkpt>
      <trkpt lat="43.9263" lon="5.40152">
        <ele>304</ele>
        <time>2015-09-23T15:01:55.000Z</time>
      </trkpt>
      <trkpt lat="43.92628" lon="5.40152">
        <ele>305</ele>
        <time>2015-09-23T15:01:56.000Z</time>
      </trkpt>
      <trkpt lat="43.92625" lon="5.40151">
        <ele>305</ele>
        <time>2015-09-23T15:01:57.000Z</time>
      </trkpt>
      <trkpt lat="43.92622" lon="5.40151">
        <ele>306</ele>
        <time>2015-09-23T15:01:58.000Z</time>
      </trkpt>
      <trkpt lat="43.92619" lon="5.40151">
        <ele>305</ele>
        <time>2015-09-23T15:01:59.000Z</time>
      </trkpt>
      <trkpt lat="43.92617" lon="5.4015">
        <ele>305</ele>
        <time>2015-09-23T15:02:00.000Z</time>
      </trkpt>
      <trkpt lat="43.92614" lon="5.4015">
        <ele>305</ele>
        <time>2015-09-23T15:02:01.000Z</time>
      </trkpt>
      <trkpt lat="43.92612" lon="5.40149">
        <ele>305</ele>
        <time>2015-09-23T15:02:02.000Z</time>
      </trkpt>
      <trkpt lat="43.92609" lon="5.40149">
        <ele>304</ele>
        <time>2015-09-23T15:02:03.000Z</time>
      </trkpt>
      <trkpt lat="43.92607" lon="5.40148">
        <ele>304</ele>
        <time>2015-09-23T15:02:04.000Z</time>
      </trkpt>
      <trkpt lat="43.92604" lon="5.40148">
        <ele>303</ele>
        <time>2015-09-23T15:02:05.000Z</time>
      </trkpt>
      <trkpt lat="43.92602" lon="5.40147">
        <ele>304</ele>
        <time>2015-09-23T15:02:06.000Z</time>
      </trkpt>
      <trkpt lat="43.92599" lon="5.40147">
        <ele>304</ele>
        <time>2015-09-23T15:02:07.000Z</time>
      </trkpt>
      <trkpt lat="43.92597" lon="5.40147">
        <ele>304</ele>
        <time>2015-09-23T15:02:08.000Z</time>
      </trkpt>
      <trkpt lat="43.92595" lon="5.40146">
        <ele>304</ele>
        <time>2015-09-23T15:02:09.000Z</time>
      </trkpt>
      <trkpt lat="43.92592" lon="5.40146">
        <ele>304</ele>
        <time>2015-09-23T15:02:10.000Z</time>
      </trkpt>
      <trkpt lat="43.9259" lon="5.40145">
        <ele>305</ele>
        <time>2015-09-23T15:02:11.000Z</time>
      </trkpt>
      <trkpt lat="43.92587" lon="5.40145">
        <ele>305</ele>
        <time>2015-09-23T15:02:12.000Z</time>
      </trkpt>
      <trkpt lat="43.92585" lon="5.40144">
        <ele>304</ele>
        <time>2015-09-23T15:02:13.000Z</time>
      </trkpt>
      <trkpt lat="43.92582" lon="5.40142">
        <ele>304</ele>
        <time>2015-09-23T15:02:14.000Z</time>
      </trkpt>
      <trkpt lat="43.92579" lon="5.40142">
        <ele>303</ele>
        <time>2015-09-23T15:02:15.000Z</time>
      </trkpt>
      <trkpt lat="43.92577" lon="5.40141">
        <ele>303</ele>
        <time>2015-09-23T15:02:16.000Z</time>
      </trkpt>
      <trkpt lat="43.92574" lon="5.4014">
        <ele>303</ele>
        <time>2015-09-23T15:02:17.000Z</time>
      </trkpt>
      <trkpt lat="43.92572" lon="5.4014">
        <ele>304</ele>
        <time>2015-09-23T15:02:18.000Z</time>
      </trkpt>
      <trkpt lat="43.92569" lon="5.40139">
        <ele>304</ele>
        <time>2015-09-23T15:02:19.000Z</time>
      </trkpt>
      <trkpt lat="43.92567" lon="5.40139">
        <ele>304</ele>
        <time>2015-09-23T15:02:20.000Z</time>
      </trkpt>
      <trkpt lat="43.92564" lon="5.40138">
        <ele>303</ele>
        <time>2015-09-23T15:02:21.000Z</time>
      </trkpt>
      <trkpt lat="43.92561" lon="5.40138">
        <ele>303</ele>
        <time>2015-09-23T15:02:22.000Z</time>
      </trkpt>
      <trkpt lat="43.92559" lon="5.40137">
        <ele>302</ele>
        <time>2015-09-23T15:02:23.000Z</time>
      </trkpt>
      <trkpt lat="43.92556" lon="5.40136">
        <ele>303</ele>
        <time>2015-09-23T15:02:24.000Z</time>
      </trkpt>
      <trkpt lat="43.92553" lon="5.40136">
        <ele>302</ele>
        <time>2015-09-23T15:02:25.000Z</time>
      </trkpt>
      <trkpt lat="43.92551" lon="5.40135">
        <ele>302</ele>
        <time>2015-09-23T15:02:26.000Z</time>
      </trkpt>
      <trkpt lat="43.92548" lon="5.40135">
        <ele>302</ele>
        <time>2015-09-23T15:02:27.000Z</time>
      </trkpt>
      <trkpt lat="43.92546" lon="5.40134">
        <ele>302</ele>
        <time>2015-09-23T15:02:28.000Z</time>
      </trkpt>
      <trkpt lat="43.92543" lon="5.40134">
        <ele>301</ele>
        <time>2015-09-23T15:02:29.000Z</time>
      </trkpt>
      <trkpt lat="43.92541" lon="5.40133">
        <ele>302</ele>
        <time>2015-09-23T15:02:30.000Z</time>
      </trkpt>
      <trkpt lat="43.92538" lon="5.40132">
        <ele>302</ele>
        <time>2015-09-23T15:02:31.000Z</time>
      </trkpt>
      <trkpt lat="43.92535" lon="5.40131">
        <ele>302</ele>
        <time>2015-09-23T15:02:32.000Z</time>
      </trkpt>
      <trkpt lat="43.92533" lon="5.4013">
        <ele>302</ele>
        <time>2015-09-23T15:02:33.000Z</time>
      </trkpt>
      <trkpt lat="43.9253" lon="5.4013">
        <ele>302</ele>
        <time>2015-09-23T15:02:34.000Z</time>
      </trkpt>
      <trkpt lat="43.92528" lon="5.4013">
        <ele>302</ele>
        <time>2015-09-23T15:02:35.000Z</time>
      </trkpt>
      <trkpt lat="43.92525" lon="5.4013">
        <ele>302</ele>
        <time>2015-09-23T15:02:36.000Z</time>
      </trkpt>
      <trkpt lat="43.92523" lon="5.40129">
        <ele>302</ele>
        <time>2015-09-23T15:02:37.000Z</time>
      </trkpt>
      <trkpt lat="43.9252" lon="5.40129">
        <ele>302</ele>
        <time>2015-09-23T15:02:38.000Z</time>
      </trkpt>
      <trkpt lat="43.92518" lon="5.40128">
        <ele>301</ele>
        <time>2015-09-23T15:02:39.000Z</time>
      </trkpt>
      <trkpt lat="43.92515" lon="5.40128">
        <ele>301</ele>
        <time>2015-09-23T15:02:40.000Z</time>
      </trkpt>
      <trkpt lat="43.92513" lon="5.40128">
        <ele>301</ele>
        <time>2015-09-23T15:02:41.000Z</time>
      </trkpt>
      <trkpt lat="43.9251" lon="5.40127">
        <ele>300</ele>
        <time>2015-09-23T15:02:42.000Z</time>
      </trkpt>
      <trkpt lat="43.92508" lon="5.40126">
        <ele>300</ele>
        <time>2015-09-23T15:02:43.000Z</time>
      </trkpt>
      <trkpt lat="43.92505" lon="5.40125">
        <ele>299</ele>
        <time>2015-09-23T15:02:44.000Z</time>
      </trkpt>
      <trkpt lat="43.92503" lon="5.40124">
        <ele>299</ele>
        <time>2015-09-23T15:02:45.000Z</time>
      </trkpt>
      <trkpt lat="43.925" lon="5.40124">
        <ele>299</ele>
        <time>2015-09-23T15:02:46.000Z</time>
      </trkpt>
      <trkpt lat="43.92498" lon="5.40123">
        <ele>299</ele>
        <time>2015-09-23T15:02:47.000Z</time>
      </trkpt>
      <trkpt lat="43.92495" lon="5.40123">
        <ele>300</ele>
        <time>2015-09-23T15:02:48.000Z</time>
      </trkpt>
      <trkpt lat="43.92493" lon="5.40122">
        <ele>299</ele>
        <time>2015-09-23T15:02:49.000Z</time>
      </trkpt>
      <trkpt lat="43.9249" lon="5.40121">
        <ele>300</ele>
        <time>2015-09-23T15:02:50.000Z</time>
      </trkpt>
      <trkpt lat="43.92487" lon="5.40121">
        <ele>300</ele>
        <time>2015-09-23T15:02:51.000Z</time>
      </trkpt>
      <trkpt lat="43.92485" lon="5.4012">
        <ele>299</ele>
        <time>2015-09-23T15:02:52.000Z</time>
      </trkpt>
      <trkpt lat="43.92483" lon="5.40119">
        <ele>300</ele>
        <time>2015-09-23T15:02:53.000Z</time>
      </trkpt>
      <trkpt lat="43.9248" lon="5.40119">
        <ele>300</ele>
        <time>2015-09-23T15:02:54.000Z</time>
      </trkpt>
      <trkpt lat="43.92478" lon="5.40118">
        <ele>300</ele>
        <time>2015-09-23T15:02:55.000Z</time>
      </trkpt>
      <trkpt lat="43.92475" lon="5.40118">
        <ele>300</ele>
        <time>2015-09-23T15:02:56.000Z</time>
      </trkpt>
      <trkpt lat="43.92473" lon="5.40117">
        <ele>300</ele>
        <time>2015-09-23T15:02:57.000Z</time>
      </trkpt>
      <trkpt lat="43.9247" lon="5.40116">
        <ele>300</ele>
        <time>2015-09-23T15:02:58.000Z</time>
      </trkpt>
      <trkpt lat="43.92468" lon="5.40115">
        <ele>300</ele>
        <time>2015-09-23T15:02:59.000Z</time>
      </trkpt>
      <trkpt lat="43.92465" lon="5.40115">
        <ele>299</ele>
        <time>2015-09-23T15:03:00.000Z</time>
      </trkpt>
      <trkpt lat="43.92463" lon="5.40114">
        <ele>300</ele>
        <time>2015-09-23T15:03:01.000Z</time>
      </trkpt>
      <trkpt lat="43.92461" lon="5.40113">
        <ele>299</ele>
        <time>2015-09-23T15:03:02.000Z</time>
      </trkpt>
      <trkpt lat="43.92458" lon="5.40113">
        <ele>300</ele>
        <time>2015-09-23T15:03:03.000Z</time>
      </trkpt>
      <trkpt lat="43.92455" lon="5.40112">
        <ele>300</ele>
        <time>2015-09-23T15:03:04.000Z</time>
      </trkpt>
      <trkpt lat="43.92453" lon="5.40111">
        <ele>300</ele>
        <time>2015-09-23T15:03:05.000Z</time>
      </trkpt>
      <trkpt lat="43.9245" lon="5.4011">
        <ele>300</ele>
        <time>2015-09-23T15:03:06.000Z</time>
      </trkpt>
      <trkpt lat="43.92448" lon="5.40109">
        <ele>300</ele>
        <time>2015-09-23T15:03:07.000Z</time>
      </trkpt>
      <trkpt lat="43.92445" lon="5.40109">
        <ele>300</ele>
        <time>2015-09-23T15:03:08.000Z</time>
      </trkpt>
      <trkpt lat="43.92443" lon="5.40108">
        <ele>300</ele>
        <time>2015-09-23T15:03:09.000Z</time>
      </trkpt>
      <trkpt lat="43.9244" lon="5.40107">
        <ele>300</ele>
        <time>2015-09-23T15:03:10.000Z</time>
      </trkpt>
      <trkpt lat="43.92437" lon="5.40107">
        <ele>299</ele>
        <time>2015-09-23T15:03:11.000Z</time>
      </trkpt>
      <trkpt lat="43.92435" lon="5.40107">
        <ele>299</ele>
        <time>2015-09-23T15:03:12.000Z</time>
      </trkpt>
      <trkpt lat="43.92432" lon="5.40106">
        <ele>299</ele>
        <time>2015-09-23T15:03:13.000Z</time>
      </trkpt>
      <trkpt lat="43.92429" lon="5.40106">
        <ele>299</ele>
        <time>2015-09-23T15:03:14.000Z</time>
      </trkpt>
      <trkpt lat="43.92427" lon="5.40106">
        <ele>299</ele>
        <time>2015-09-23T15:03:15.000Z</time>
      </trkpt>
      <trkpt lat="43.92424" lon="5.40105">
        <ele>299</ele>
        <time>2015-09-23T15:03:16.000Z</time>
      </trkpt>
      <trkpt lat="43.92421" lon="5.40105">
        <ele>299</ele>
        <time>2015-09-23T15:03:17.000Z</time>
      </trkpt>
      <trkpt lat="43.92418" lon="5.40105">
        <ele>300</ele>
        <time>2015-09-23T15:03:18.000Z</time>
      </trkpt>
      <trkpt lat="43.92415" lon="5.40105">
        <ele>300</ele>
        <time>2015-09-23T15:03:19.000Z</time>
      </trkpt>
      <trkpt lat="43.92412" lon="5.40105">
        <ele>300</ele>
        <time>2015-09-23T15:03:20.000Z</time>
      </trkpt>
      <trkpt lat="43.9241" lon="5.40105">
        <ele>301</ele>
        <time>2015-09-23T15:03:21.000Z</time>
      </trkpt>
      <trkpt lat="43.92407" lon="5.40106">
        <ele>300</ele>
        <time>2015-09-23T15:03:22.000Z</time>
      </trkpt>
      <trkpt lat="43.92405" lon="5.40107">
        <ele>300</ele>
        <time>2015-09-23T15:03:23.000Z</time>
      </trkpt>
      <trkpt lat="43.92403" lon="5.4011">
        <ele>299</ele>
        <time>2015-09-23T15:03:24.000Z</time>
      </trkpt>
      <trkpt lat="43.92401" lon="5.40112">
        <ele>299</ele>
        <time>2015-09-23T15:03:25.000Z</time>
      </trkpt>
      <trkpt lat="43.92399" lon="5.40115">
        <ele>299</ele>
        <time>2015-09-23T15:03:26.000Z</time>
      </trkpt>
      <trkpt lat="43.92398" lon="5.40118">
        <ele>299</ele>
        <time>2015-09-23T15:03:27.000Z</time>
      </trkpt>
      <trkpt lat="43.92397" lon="5.40121">
        <ele>299</ele>
        <time>2015-09-23T15:03:28.000Z</time>
      </trkpt>
      <trkpt lat="43.92396" lon="5.40124">
        <ele>299</ele>
        <time>2015-09-23T15:03:29.000Z</time>
      </trkpt>
      <trkpt lat="43.92395" lon="5.40127">
        <ele>299</ele>
        <time>2015-09-23T15:03:30.000Z</time>
      </trkpt>
      <trkpt lat="43.92394" lon="5.4013">
        <ele>299</ele>
        <time>2015-09-23T15:03:31.000Z</time>
      </trkpt>
      <trkpt lat="43.92393" lon="5.40133">
        <ele>299</ele>
        <time>2015-09-23T15:03:32.000Z</time>
      </trkpt>
      <trkpt lat="43.92393" lon="5.40136">
        <ele>298</ele>
        <time>2015-09-23T15:03:33.000Z</time>
      </trkpt>
      <trkpt lat="43.92392" lon="5.4014">
        <ele>298</ele>
        <time>2015-09-23T15:03:34.000Z</time>
      </trkpt>
      <trkpt lat="43.92392" lon="5.40143">
        <ele>298</ele>
        <time>2015-09-23T15:03:35.000Z</time>
      </trkpt>
      <trkpt lat="43.92391" lon="5.40146">
        <ele>299</ele>
        <time>2015-09-23T15:03:36.000Z</time>
      </trkpt>
      <trkpt lat="43.92391" lon="5.4015">
        <ele>299</ele>
        <time>2015-09-23T15:03:37.000Z</time>
      </trkpt>
      <trkpt lat="43.9239" lon="5.40153">
        <ele>300</ele>
        <time>2015-09-23T15:03:38.000Z</time>
      </trkpt>
      <trkpt lat="43.9239" lon="5.40156">
        <ele>299</ele>
        <time>2015-09-23T15:03:39.000Z</time>
      </trkpt>
      <trkpt lat="43.9239" lon="5.40159">
        <ele>299</ele>
        <time>2015-09-23T15:03:40.000Z</time>
      </trkpt>
      <trkpt lat="43.92389" lon="5.40162">
        <ele>299</ele>
        <time>2015-09-23T15:03:41.000Z</time>
      </trkpt>
      <trkpt lat="43.92388" lon="5.40166">
        <ele>299</ele>
        <time>2015-09-23T15:03:42.000Z</time>
      </trkpt>
      <trkpt lat="43.92388" lon="5.40169">
        <ele>299</ele>
        <time>2015-09-23T15:03:43.000Z</time>
      </trkpt>
      <trkpt lat="43.92387" lon="5.40172">
        <ele>299</ele>
        <time>2015-09-23T15:03:44.000Z</time>
      </trkpt>
      <trkpt lat="43.92386" lon="5.40176">
        <ele>300</ele>
        <time>2015-09-23T15:03:45.000Z</time>
      </trkpt>
      <trkpt lat="43.92386" lon="5.40179">
        <ele>300</ele>
        <time>2015-09-23T15:03:46.000Z</time>
      </trkpt>
      <trkpt lat="43.92385" lon="5.40182">
        <ele>299</ele>
        <time>2015-09-23T15:03:47.000Z</time>
      </trkpt>
      <trkpt lat="43.92384" lon="5.40185">
        <ele>300</ele>
        <time>2015-09-23T15:03:48.000Z</time>
      </trkpt>
      <trkpt lat="43.92383" lon="5.40188">
        <ele>300</ele>
        <time>2015-09-23T15:03:49.000Z</time>
      </trkpt>
      <trkpt lat="43.92382" lon="5.40191">
        <ele>300</ele>
        <time>2015-09-23T15:03:50.000Z</time>
      </trkpt>
      <trkpt lat="43.9238" lon="5.40194">
        <ele>300</ele>
        <time>2015-09-23T15:03:51.000Z</time>
      </trkpt>
      <trkpt lat="43.92379" lon="5.40197">
        <ele>300</ele>
        <time>2015-09-23T15:03:52.000Z</time>
      </trkpt>
      <trkpt lat="43.92377" lon="5.402">
        <ele>299</ele>
        <time>2015-09-23T15:03:53.000Z</time>
      </trkpt>
      <trkpt lat="43.92376" lon="5.40203">
        <ele>299</ele>
        <time>2015-09-23T15:03:54.000Z</time>
      </trkpt>
      <trkpt lat="43.92376" lon="5.40206">
        <ele>299</ele>
        <time>2015-09-23T15:03:55.000Z</time>
      </trkpt>
      <trkpt lat="43.92375" lon="5.40209">
        <ele>299</ele>
        <time>2015-09-23T15:03:56.000Z</time>
      </trkpt>
      <trkpt lat="43.92375" lon="5.40213">
        <ele>299</ele>
        <time>2015-09-23T15:03:57.000Z</time>
      </trkpt>
      <trkpt lat="43.92375" lon="5.40216">
        <ele>299</ele>
        <time>2015-09-23T15:03:58.000Z</time>
      </trkpt>
      <trkpt lat="43.92375" lon="5.40219">
        <ele>299</ele>
        <time>2015-09-23T15:03:59.000Z</time>
      </trkpt>
      <trkpt lat="43.92374" lon="5.40222">
        <ele>300</ele>
        <time>2015-09-23T15:04:00.000Z</time>
      </trkpt>
      <trkpt lat="43.92374" lon="5.40225">
        <ele>300</ele>
        <time>2015-09-23T15:04:01.000Z</time>
      </trkpt>
      <trkpt lat="43.92373" lon="5.40228">
        <ele>300</ele>
        <time>2015-09-23T15:04:02.000Z</time>
      </trkpt>
      <trkpt lat="43.92373" lon="5.40231">
        <ele>300</ele>
        <time>2015-09-23T15:04:03.000Z</time>
      </trkpt>
      <trkpt lat="43.92372" lon="5.40234">
        <ele>300</ele>
        <time>2015-09-23T15:04:04.000Z</time>
      </trkpt>
      <trkpt lat="43.92372" lon="5.40237">
        <ele>299</ele>
        <time>2015-09-23T15:04:05.000Z</time>
      </trkpt>
      <trkpt lat="43.92371" lon="5.40239">
        <ele>299</ele>
        <time>2015-09-23T15:04:06.000Z</time>
      </trkpt>
      <trkpt lat="43.92371" lon="5.40242">
        <ele>299</ele>
        <time>2015-09-23T15:04:07.000Z</time>
      </trkpt>
      <trkpt lat="43.9237" lon="5.40245">
        <ele>300</ele>
        <time>2015-09-23T15:04:08.000Z</time>
      </trkpt>
      <trkpt lat="43.9237" lon="5.40248">
        <ele>300</ele>
        <time>2015-09-23T15:04:09.000Z</time>
      </trkpt>
      <trkpt lat="43.92369" lon="5.40251">
        <ele>300</ele>
        <time>2015-09-23T15:04:10.000Z</time>
      </trkpt>
      <trkpt lat="43.92368" lon="5.40253">
        <ele>300</ele>
        <time>2015-09-23T15:04:11.000Z</time>
      </trkpt>
      <trkpt lat="43.92368" lon="5.40256">
        <ele>301</ele>
        <time>2015-09-23T15:04:12.000Z</time>
      </trkpt>
      <trkpt lat="43.92367" lon="5.40259">
        <ele>301</ele>
        <time>2015-09-23T15:04:13.000Z</time>
      </trkpt>
      <trkpt lat="43.92367" lon="5.40262">
        <ele>301</ele>
        <time>2015-09-23T15:04:14.000Z</time>
      </trkpt>
      <trkpt lat="43.92366" lon="5.40265">
        <ele>301</ele>
        <time>2015-09-23T15:04:15.000Z</time>
      </trkpt>
      <trkpt lat="43.92365" lon="5.40269">
        <ele>302</ele>
        <time>2015-09-23T15:04:16.000Z</time>
      </trkpt>
      <trkpt lat="43.92365" lon="5.40273">
        <ele>302</ele>
        <time>2015-09-23T15:04:17.000Z</time>
      </trkpt>
      <trkpt lat="43.92364" lon="5.40276">
        <ele>303</ele>
        <time>2015-09-23T15:04:18.000Z</time>
      </trkpt>
      <trkpt lat="43.92363" lon="5.40279">
        <ele>303</ele>
        <time>2015-09-23T15:04:19.000Z</time>
      </trkpt>
      <trkpt lat="43.92362" lon="5.40283">
        <ele>304</ele>
        <time>2015-09-23T15:04:20.000Z</time>
      </trkpt>
      <trkpt lat="43.92362" lon="5.40286">
        <ele>304</ele>
        <time>2015-09-23T15:04:21.000Z</time>
      </trkpt>
      <trkpt lat="43.92361" lon="5.40289">
        <ele>304</ele>
        <time>2015-09-23T15:04:22.000Z</time>
      </trkpt>
      <trkpt lat="43.92361" lon="5.40292">
        <ele>304</ele>
        <time>2015-09-23T15:04:23.000Z</time>
      </trkpt>
      <trkpt lat="43.92361" lon="5.40295">
        <ele>304</ele>
        <time>2015-09-23T15:04:24.000Z</time>
      </trkpt>
      <trkpt lat="43.9236" lon="5.40298">
        <ele>304</ele>
        <time>2015-09-23T15:04:25.000Z</time>
      </trkpt>
      <trkpt lat="43.9236" lon="5.40301">
        <ele>304</ele>
        <time>2015-09-23T15:04:26.000Z</time>
      </trkpt>
      <trkpt lat="43.92359" lon="5.40304">
        <ele>304</ele>
        <time>2015-09-23T15:04:27.000Z</time>
      </trkpt>
      <trkpt lat="43.92358" lon="5.40307">
        <ele>304</ele>
        <time>2015-09-23T15:04:28.000Z</time>
      </trkpt>
      <trkpt lat="43.92358" lon="5.40311">
        <ele>304</ele>
        <time>2015-09-23T15:04:29.000Z</time>
      </trkpt>
      <trkpt lat="43.92357" lon="5.40314">
        <ele>304</ele>
        <time>2015-09-23T15:04:30.000Z</time>
      </trkpt>
      <trkpt lat="43.92356" lon="5.40317">
        <ele>304</ele>
        <time>2015-09-23T15:04:31.000Z</time>
      </trkpt>
      <trkpt lat="43.92355" lon="5.4032">
        <ele>305</ele>
        <time>2015-09-23T15:04:32.000Z</time>
      </trkpt>
      <trkpt lat="43.92354" lon="5.40323">
        <ele>304</ele>
        <time>2015-09-23T15:04:33.000Z</time>
      </trkpt>
      <trkpt lat="43.92354" lon="5.40326">
        <ele>304</ele>
        <time>2015-09-23T15:04:34.000Z</time>
      </trkpt>
      <trkpt lat="43.92353" lon="5.40329">
        <ele>304</ele>
        <time>2015-09-23T15:04:35.000Z</time>
      </trkpt>
      <trkpt lat="43.92352" lon="5.40332">
        <ele>305</ele>
        <time>2015-09-23T15:04:36.000Z</time>
      </trkpt>
      <trkpt lat="43.92351" lon="5.40335">
        <ele>305</ele>
        <time>2015-09-23T15:04:37.000Z</time>
      </trkpt>
      <trkpt lat="43.92351" lon="5.40338">
        <ele>305</ele>
        <time>2015-09-23T15:04:38.000Z</time>
      </trkpt>
      <trkpt lat="43.9235" lon="5.40341">
        <ele>306</ele>
        <time>2015-09-23T15:04:39.000Z</time>
      </trkpt>
      <trkpt lat="43.92349" lon="5.40345">
        <ele>306</ele>
        <time>2015-09-23T15:04:40.000Z</time>
      </trkpt>
      <trkpt lat="43.92348" lon="5.40348">
        <ele>307</ele>
        <time>2015-09-23T15:04:41.000Z</time>
      </trkpt>
      <trkpt lat="43.92347" lon="5.40351">
        <ele>307</ele>
        <time>2015-09-23T15:04:42.000Z</time>
      </trkpt>
      <trkpt lat="43.92347" lon="5.40354">
        <ele>307</ele>
        <time>2015-09-23T15:04:43.000Z</time>
      </trkpt>
      <trkpt lat="43.92346" lon="5.40357">
        <ele>308</ele>
        <time>2015-09-23T15:04:44.000Z</time>
      </trkpt>
      <trkpt lat="43.92346" lon="5.4036">
        <ele>308</ele>
        <time>2015-09-23T15:04:45.000Z</time>
      </trkpt>
      <trkpt lat="43.92345" lon="5.40363">
        <ele>308</ele>
        <time>2015-09-23T15:04:46.000Z</time>
      </trkpt>
      <trkpt lat="43.92345" lon="5.40366">
        <ele>308</ele>
        <time>2015-09-23T15:04:47.000Z</time>
      </trkpt>
      <trkpt lat="43.92344" lon="5.40369">
        <ele>308</ele>
        <time>2015-09-23T15:04:48.000Z</time>
      </trkpt>
      <trkpt lat="43.92344" lon="5.40371">
        <ele>308</ele>
        <time>2015-09-23T15:04:49.000Z</time>
      </trkpt>
      <trkpt lat="43.92344" lon="5.40374">
        <ele>309</ele>
        <time>2015-09-23T15:04:50.000Z</time>
      </trkpt>
      <trkpt lat="43.92343" lon="5.40377">
        <ele>309</ele>
        <time>2015-09-23T15:04:51.000Z</time>
      </trkpt>
      <trkpt lat="43.92342" lon="5.40381">
        <ele>309</ele>
        <time>2015-09-23T15:04:52.000Z</time>
      </trkpt>
      <trkpt lat="43.92341" lon="5.40384">
        <ele>309</ele>
        <time>2015-09-23T15:04:53.000Z</time>
      </trkpt>
      <trkpt lat="43.92341" lon="5.40386">
        <ele>309</ele>
        <time>2015-09-23T15:04:54.000Z</time>
      </trkpt>
      <trkpt lat="43.9234" lon="5.40389">
        <ele>310</ele>
        <time>2015-09-23T15:04:55.000Z</time>
      </trkpt>
      <trkpt lat="43.9234" lon="5.40392">
        <ele>310</ele>
        <time>2015-09-23T15:04:56.000Z</time>
      </trkpt>
      <trkpt lat="43.92339" lon="5.40395">
        <ele>310</ele>
        <time>2015-09-23T15:04:57.000Z</time>
      </trkpt>
      <trkpt lat="43.92339" lon="5.40398">
        <ele>310</ele>
        <time>2015-09-23T15:04:58.000Z</time>
      </trkpt>
      <trkpt lat="43.92338" lon="5.40401">
        <ele>310</ele>
        <time>2015-09-23T15:04:59.000Z</time>
      </trkpt>
      <trkpt lat="43.92338" lon="5.40404">
        <ele>311</ele>
        <time>2015-09-23T15:05:00.000Z</time>
      </trkpt>
      <trkpt lat="43.92337" lon="5.40407">
        <ele>312</ele>
        <time>2015-09-23T15:05:01.000Z</time>
      </trkpt>
      <trkpt lat="43.92336" lon="5.40409">
        <ele>313</ele>
        <time>2015-09-23T15:05:02.000Z</time>
      </trkpt>
      <trkpt lat="43.92335" lon="5.40412">
        <ele>313</ele>
        <time>2015-09-23T15:05:03.000Z</time>
      </trkpt>
      <trkpt lat="43.92335" lon="5.40414">
        <ele>314</ele>
        <time>2015-09-23T15:05:04.000Z</time>
      </trkpt>
      <trkpt lat="43.92334" lon="5.40417">
        <ele>315</ele>
        <time>2015-09-23T15:05:05.000Z</time>
      </trkpt>
      <trkpt lat="43.92334" lon="5.4042">
        <ele>316</ele>
        <time>2015-09-23T15:05:06.000Z</time>
      </trkpt>
      <trkpt lat="43.92333" lon="5.40423">
        <ele>317</ele>
        <time>2015-09-23T15:05:07.000Z</time>
      </trkpt>
      <trkpt lat="43.92333" lon="5.40426">
        <ele>318</ele>
        <time>2015-09-23T15:05:08.000Z</time>
      </trkpt>
      <trkpt lat="43.92332" lon="5.40429">
        <ele>319</ele>
        <time>2015-09-23T15:05:09.000Z</time>
      </trkpt>
      <trkpt lat="43.92332" lon="5.40432">
        <ele>319</ele>
        <time>2015-09-23T15:05:10.000Z</time>
      </trkpt>
      <trkpt lat="43.92331" lon="5.40435">
        <ele>319</ele>
        <time>2015-09-23T15:05:11.000Z</time>
      </trkpt>
      <trkpt lat="43.92331" lon="5.40438">
        <ele>321</ele>
        <time>2015-09-23T15:05:12.000Z</time>
      </trkpt>
      <trkpt lat="43.92331" lon="5.40441">
        <ele>321</ele>
        <time>2015-09-23T15:05:13.000Z</time>
      </trkpt>
      <trkpt lat="43.9233" lon="5.40444">
        <ele>322</ele>
        <time>2015-09-23T15:05:14.000Z</time>
      </trkpt>
      <trkpt lat="43.9233" lon="5.40446">
        <ele>323</ele>
        <time>2015-09-23T15:05:15.000Z</time>
      </trkpt>
      <trkpt lat="43.92329" lon="5.40449">
        <ele>322</ele>
        <time>2015-09-23T15:05:16.000Z</time>
      </trkpt>
      <trkpt lat="43.92328" lon="5.40452">
        <ele>322</ele>
        <time>2015-09-23T15:05:17.000Z</time>
      </trkpt>
      <trkpt lat="43.92327" lon="5.40455">
        <ele>323</ele>
        <time>2015-09-23T15:05:18.000Z</time>
      </trkpt>
      <trkpt lat="43.92327" lon="5.40457">
        <ele>323</ele>
        <time>2015-09-23T15:05:19.000Z</time>
      </trkpt>
      <trkpt lat="43.92326" lon="5.4046">
        <ele>323</ele>
        <time>2015-09-23T15:05:20.000Z</time>
      </trkpt>
      <trkpt lat="43.92326" lon="5.40463">
        <ele>324</ele>
        <time>2015-09-23T15:05:21.000Z</time>
      </trkpt>
      <trkpt lat="43.92325" lon="5.40465">
        <ele>324</ele>
        <time>2015-09-23T15:05:22.000Z</time>
      </trkpt>
      <trkpt lat="43.92324" lon="5.40466">
        <ele>325</ele>
        <time>2015-09-23T15:05:23.000Z</time>
      </trkpt>
      <trkpt lat="43.92322" lon="5.40467">
        <ele>326</ele>
        <time>2015-09-23T15:05:24.000Z</time>
      </trkpt>
      <trkpt lat="43.9232" lon="5.40467">
        <ele>326</ele>
        <time>2015-09-23T15:05:25.000Z</time>
      </trkpt>
      <trkpt lat="43.92318" lon="5.40467">
        <ele>327</ele>
        <time>2015-09-23T15:05:26.000Z</time>
      </trkpt>
      <trkpt lat="43.92316" lon="5.40467">
        <ele>327</ele>
        <time>2015-09-23T15:05:27.000Z</time>
      </trkpt>
      <trkpt lat="43.92315" lon="5.40467">
        <ele>326</ele>
        <time>2015-09-23T15:05:28.000Z</time>
      </trkpt>
      <trkpt lat="43.92313" lon="5.40467">
        <ele>325</ele>
        <time>2015-09-23T15:05:29.000Z</time>
      </trkpt>
      <trkpt lat="43.92311" lon="5.40467">
        <ele>325</ele>
        <time>2015-09-23T15:05:30.000Z</time>
      </trkpt>
      <trkpt lat="43.92308" lon="5.40467">
        <ele>324</ele>
        <time>2015-09-23T15:05:31.000Z</time>
      </trkpt>
      <trkpt lat="43.92306" lon="5.40467">
        <ele>324</ele>
        <time>2015-09-23T15:05:32.000Z</time>
      </trkpt>
      <trkpt lat="43.92304" lon="5.40466">
        <ele>323</ele>
        <time>2015-09-23T15:05:33.000Z</time>
      </trkpt>
      <trkpt lat="43.92301" lon="5.40466">
        <ele>323</ele>
        <time>2015-09-23T15:05:34.000Z</time>
      </trkpt>
      <trkpt lat="43.92299" lon="5.40466">
        <ele>322</ele>
        <time>2015-09-23T15:05:35.000Z</time>
      </trkpt>
      <trkpt lat="43.92297" lon="5.40466">
        <ele>322</ele>
        <time>2015-09-23T15:05:36.000Z</time>
      </trkpt>
      <trkpt lat="43.92295" lon="5.40465">
        <ele>321</ele>
        <time>2015-09-23T15:05:37.000Z</time>
      </trkpt>
      <trkpt lat="43.92292" lon="5.40465">
        <ele>321</ele>
        <time>2015-09-23T15:05:38.000Z</time>
      </trkpt>
      <trkpt lat="43.9229" lon="5.40465">
        <ele>320</ele>
        <time>2015-09-23T15:05:39.000Z</time>
      </trkpt>
      <trkpt lat="43.92288" lon="5.40465">
        <ele>320</ele>
        <time>2015-09-23T15:05:40.000Z</time>
      </trkpt>
      <trkpt lat="43.92285" lon="5.40465">
        <ele>320</ele>
        <time>2015-09-23T15:05:41.000Z</time>
      </trkpt>
      <trkpt lat="43.92283" lon="5.40465">
        <ele>320</ele>
        <time>2015-09-23T15:05:42.000Z</time>
      </trkpt>
      <trkpt lat="43.92282" lon="5.40465">
        <ele>320</ele>
        <time>2015-09-23T15:05:43.000Z</time>
      </trkpt>
      <trkpt lat="43.9228" lon="5.40465">
        <ele>320</ele>
        <time>2015-09-23T15:05:44.000Z</time>
      </trkpt>
      <trkpt lat="43.92278" lon="5.40465">
        <ele>319</ele>
        <time>2015-09-23T15:05:45.000Z</time>
      </trkpt>
      <trkpt lat="43.92276" lon="5.40465">
        <ele>318</ele>
        <time>2015-09-23T15:05:46.000Z</time>
      </trkpt>
      <trkpt lat="43.92274" lon="5.40465">
        <ele>319</ele>
        <time>2015-09-23T15:05:47.000Z</time>
      </trkpt>
      <trkpt lat="43.92273" lon="5.40465">
        <ele>318</ele>
        <time>2015-09-23T15:05:48.000Z</time>
      </trkpt>
      <trkpt lat="43.92271" lon="5.40465">
        <ele>318</ele>
        <time>2015-09-23T15:05:49.000Z</time>
      </trkpt>
      <trkpt lat="43.92269" lon="5.40465">
        <ele>317</ele>
        <time>2015-09-23T15:05:50.000Z</time>
      </trkpt>
      <trkpt lat="43.92268" lon="5.40465">
        <ele>317</ele>
        <time>2015-09-23T15:05:51.000Z</time>
      </trkpt>
      <trkpt lat="43.92267" lon="5.40465">
        <ele>316</ele>
        <time>2015-09-23T15:05:52.000Z</time>
      </trkpt>
      <trkpt lat="43.92265" lon="5.40465">
        <ele>316</ele>
        <time>2015-09-23T15:05:53.000Z</time>
      </trkpt>
      <trkpt lat="43.92264" lon="5.40466">
        <ele>316</ele>
        <time>2015-09-23T15:05:54.000Z</time>
      </trkpt>
      <trkpt lat="43.92262" lon="5.40466">
        <ele>316</ele>
        <time>2015-09-23T15:05:55.000Z</time>
      </trkpt>
      <trkpt lat="43.92261" lon="5.40467">
        <ele>316</ele>
        <time>2015-09-23T15:05:56.000Z</time>
      </trkpt>
      <trkpt lat="43.92259" lon="5.40467">
        <ele>316</ele>
        <time>2015-09-23T15:05:57.000Z</time>
      </trkpt>
      <trkpt lat="43.92257" lon="5.40469">
        <ele>315</ele>
        <time>2015-09-23T15:05:58.000Z</time>
      </trkpt>
      <trkpt lat="43.92255" lon="5.4047">
        <ele>314</ele>
        <time>2015-09-23T15:05:59.000Z</time>
      </trkpt>
      <trkpt lat="43.92253" lon="5.40472">
        <ele>314</ele>
        <time>2015-09-23T15:06:00.000Z</time>
      </trkpt>
      <trkpt lat="43.92251" lon="5.40474">
        <ele>314</ele>
        <time>2015-09-23T15:06:01.000Z</time>
      </trkpt>
      <trkpt lat="43.9225" lon="5.40476">
        <ele>313</ele>
        <time>2015-09-23T15:06:02.000Z</time>
      </trkpt>
      <trkpt lat="43.92248" lon="5.40479">
        <ele>312</ele>
        <time>2015-09-23T15:06:03.000Z</time>
      </trkpt>
      <trkpt lat="43.92247" lon="5.40482">
        <ele>312</ele>
        <time>2015-09-23T15:06:04.000Z</time>
      </trkpt>
      <trkpt lat="43.92246" lon="5.40486">
        <ele>312</ele>
        <time>2015-09-23T15:06:05.000Z</time>
      </trkpt>
      <trkpt lat="43.92245" lon="5.40489">
        <ele>312</ele>
        <time>2015-09-23T15:06:06.000Z</time>
      </trkpt>
      <trkpt lat="43.92244" lon="5.40493">
        <ele>312</ele>
        <time>2015-09-23T15:06:07.000Z</time>
      </trkpt>
      <trkpt lat="43.92244" lon="5.40496">
        <ele>312</ele>
        <time>2015-09-23T15:06:08.000Z</time>
      </trkpt>
      <trkpt lat="43.92244" lon="5.405">
        <ele>312</ele>
        <time>2015-09-23T15:06:09.000Z</time>
      </trkpt>
      <trkpt lat="43.92245" lon="5.40503">
        <ele>311</ele>
        <time>2015-09-23T15:06:10.000Z</time>
      </trkpt>
      <trkpt lat="43.92245" lon="5.40507">
        <ele>312</ele>
        <time>2015-09-23T15:06:11.000Z</time>
      </trkpt>
      <trkpt lat="43.92246" lon="5.4051">
        <ele>311</ele>
        <time>2015-09-23T15:06:12.000Z</time>
      </trkpt>
      <trkpt lat="43.92246" lon="5.40513">
        <ele>311</ele>
        <time>2015-09-23T15:06:13.000Z</time>
      </trkpt>
      <trkpt lat="43.92247" lon="5.40517">
        <ele>311</ele>
        <time>2015-09-23T15:06:14.000Z</time>
      </trkpt>
      <trkpt lat="43.92248" lon="5.4052">
        <ele>311</ele>
        <time>2015-09-23T15:06:15.000Z</time>
      </trkpt>
      <trkpt lat="43.92249" lon="5.40522">
        <ele>310</ele>
        <time>2015-09-23T15:06:16.000Z</time>
      </trkpt>
      <trkpt lat="43.92251" lon="5.40525">
        <ele>311</ele>
        <time>2015-09-23T15:06:17.000Z</time>
      </trkpt>
      <trkpt lat="43.92252" lon="5.40528">
        <ele>311</ele>
        <time>2015-09-23T15:06:18.000Z</time>
      </trkpt>
      <trkpt lat="43.92253" lon="5.40531">
        <ele>310</ele>
        <time>2015-09-23T15:06:19.000Z</time>
      </trkpt>
      <trkpt lat="43.92254" lon="5.40534">
        <ele>310</ele>
        <time>2015-09-23T15:06:20.000Z</time>
      </trkpt>
      <trkpt lat="43.92255" lon="5.40537">
        <ele>310</ele>
        <time>2015-09-23T15:06:21.000Z</time>
      </trkpt>
      <trkpt lat="43.92256" lon="5.4054">
        <ele>310</ele>
        <time>2015-09-23T15:06:22.000Z</time>
      </trkpt>
      <trkpt lat="43.92257" lon="5.40543">
        <ele>310</ele>
        <time>2015-09-23T15:06:23.000Z</time>
      </trkpt>
      <trkpt lat="43.92259" lon="5.40547">
        <ele>310</ele>
        <time>2015-09-23T15:06:24.000Z</time>
      </trkpt>
      <trkpt lat="43.9226" lon="5.4055">
        <ele>310</ele>
        <time>2015-09-23T15:06:25.000Z</time>
      </trkpt>
      <trkpt lat="43.92261" lon="5.40553">
        <ele>310</ele>
        <time>2015-09-23T15:06:26.000Z</time>
      </trkpt>
      <trkpt lat="43.92262" lon="5.40556">
        <ele>309</ele>
        <time>2015-09-23T15:06:27.000Z</time>
      </trkpt>
      <trkpt lat="43.92263" lon="5.40559">
        <ele>310</ele>
        <time>2015-09-23T15:06:28.000Z</time>
      </trkpt>
      <trkpt lat="43.92264" lon="5.40561">
        <ele>309</ele>
        <time>2015-09-23T15:06:29.000Z</time>
      </trkpt>
      <trkpt lat="43.92266" lon="5.40564">
        <ele>309</ele>
        <time>2015-09-23T15:06:30.000Z</time>
      </trkpt>
      <trkpt lat="43.92267" lon="5.40567">
        <ele>309</ele>
        <time>2015-09-23T15:06:31.000Z</time>
      </trkpt>
      <trkpt lat="43.92268" lon="5.40569">
        <ele>309</ele>
        <time>2015-09-23T15:06:32.000Z</time>
      </trkpt>
      <trkpt lat="43.92269" lon="5.40572">
        <ele>308</ele>
        <time>2015-09-23T15:06:33.000Z</time>
      </trkpt>
      <trkpt lat="43.92271" lon="5.40575">
        <ele>308</ele>
        <time>2015-09-23T15:06:34.000Z</time>
      </trkpt>
      <trkpt lat="43.92272" lon="5.40578">
        <ele>308</ele>
        <time>2015-09-23T15:06:35.000Z</time>
      </trkpt>
      <trkpt lat="43.92273" lon="5.40581">
        <ele>308</ele>
        <time>2015-09-23T15:06:36.000Z</time>
      </trkpt>
      <trkpt lat="43.92275" lon="5.40584">
        <ele>307</ele>
        <time>2015-09-23T15:06:37.000Z</time>
      </trkpt>
      <trkpt lat="43.92276" lon="5.40587">
        <ele>307</ele>
        <time>2015-09-23T15:06:38.000Z</time>
      </trkpt>
      <trkpt lat="43.92277" lon="5.4059">
        <ele>307</ele>
        <time>2015-09-23T15:06:39.000Z</time>
      </trkpt>
      <trkpt lat="43.92279" lon="5.40593">
        <ele>307</ele>
        <time>2015-09-23T15:06:40.000Z</time>
      </trkpt>
      <trkpt lat="43.9228" lon="5.40596">
        <ele>307</ele>
        <time>2015-09-23T15:06:41.000Z</time>
      </trkpt>
      <trkpt lat="43.92282" lon="5.40599">
        <ele>306</ele>
        <time>2015-09-23T15:06:42.000Z</time>
      </trkpt>
      <trkpt lat="43.92283" lon="5.40601">
        <ele>305</ele>
        <time>2015-09-23T15:06:43.000Z</time>
      </trkpt>
      <trkpt lat="43.92285" lon="5.40604">
        <ele>305</ele>
        <time>2015-09-23T15:06:44.000Z</time>
      </trkpt>
      <trkpt lat="43.92286" lon="5.40606">
        <ele>304</ele>
        <time>2015-09-23T15:06:45.000Z</time>
      </trkpt>
      <trkpt lat="43.92288" lon="5.40608">
        <ele>303</ele>
        <time>2015-09-23T15:06:46.000Z</time>
      </trkpt>
      <trkpt lat="43.9229" lon="5.40611">
        <ele>303</ele>
        <time>2015-09-23T15:06:47.000Z</time>
      </trkpt>
      <trkpt lat="43.92291" lon="5.40613">
        <ele>302</ele>
        <time>2015-09-23T15:06:48.000Z</time>
      </trkpt>
      <trkpt lat="43.92292" lon="5.40616">
        <ele>302</ele>
        <time>2015-09-23T15:06:49.000Z</time>
      </trkpt>
      <trkpt lat="43.92293" lon="5.40618">
        <ele>302</ele>
        <time>2015-09-23T15:06:50.000Z</time>
      </trkpt>
      <trkpt lat="43.92294" lon="5.4062">
        <ele>302</ele>
        <time>2015-09-23T15:06:51.000Z</time>
      </trkpt>
      <trkpt lat="43.92296" lon="5.40622">
        <ele>301</ele>
        <time>2015-09-23T15:06:52.000Z</time>
      </trkpt>
      <trkpt lat="43.92298" lon="5.40625">
        <ele>302</ele>
        <time>2015-09-23T15:06:53.000Z</time>
      </trkpt>
      <trkpt lat="43.92299" lon="5.40627">
        <ele>301</ele>
        <time>2015-09-23T15:06:54.000Z</time>
      </trkpt>
      <trkpt lat="43.923" lon="5.40629">
        <ele>302</ele>
        <time>2015-09-23T15:06:55.000Z</time>
      </trkpt>
      <trkpt lat="43.92301" lon="5.40631">
        <ele>302</ele>
        <time>2015-09-23T15:06:56.000Z</time>
      </trkpt>
      <trkpt lat="43.92302" lon="5.40633">
        <ele>302</ele>
        <time>2015-09-23T15:06:57.000Z</time>
      </trkpt>
      <trkpt lat="43.92303" lon="5.40635">
        <ele>302</ele>
        <time>2015-09-23T15:06:58.000Z</time>
      </trkpt>
      <trkpt lat="43.92304" lon="5.40637">
        <ele>302</ele>
        <time>2015-09-23T15:06:59.000Z</time>
      </trkpt>
      <trkpt lat="43.92305" lon="5.40638">
        <ele>302</ele>
        <time>2015-09-23T15:07:00.000Z</time>
      </trkpt>
      <trkpt lat="43.92305" lon="5.40639">
        <ele>302</ele>
        <time>2015-09-23T15:07:01.000Z</time>
      </trkpt>
      <trkpt lat="43.92306" lon="5.4064">
        <ele>302</ele>
        <time>2015-09-23T15:07:02.000Z</time>
      </trkpt>
      <trkpt lat="43.92306" lon="5.40641">
        <ele>302</ele>
        <time>2015-09-23T15:07:03.000Z</time>
      </trkpt>
      <trkpt lat="43.92307" lon="5.40642">
        <ele>302</ele>
        <time>2015-09-23T15:07:04.000Z</time>
      </trkpt>
      <trkpt lat="43.92307" lon="5.40643">
        <ele>302</ele>
        <time>2015-09-23T15:07:05.000Z</time>
      </trkpt>
    </trkseg>
  </trk>
</gpx>